<?xml version="1.0" encoding="utf-8"?>
<gpx xmlns:xsi="http://www.w3.org/2001/XMLSchema-instance" xmlns:xsd="http://www.w3.org/2001/XMLSchema" version="1.1" creator="Shapelink.com" xmlns="http://www.topografix.com/GPX/1/1" xmlns:gpxtpx="http://www.garmin.com/xmlschemas/TrackPointExtension/v1">
  <metadata>
    <name>Cykling 10.31 km, 2017-07-26</name>
    <desc></desc>
    <author><name>Kim Kronberg</name></author> 
    <time>2017-07-26T16:55:35Z</time>
  </metadata>
  <trk>
    <name>Cykling 10.31 km, 2017-07-26</name>
    <trkseg>
      <trkpt lat="60.116554466757" lon="21.525292186684">
        <ele>30.6</ele>
        <time>2017-07-26T16:55:35Z</time>
      </trkpt>
      <trkpt lat="60.116570476186" lon="21.525270896658">
        <ele>30.6</ele>
        <time>2017-07-26T16:55:36Z</time>
      </trkpt>
      <trkpt lat="60.116592604402" lon="21.525250025727">
        <ele>30.6</ele>
        <time>2017-07-26T16:55:37Z</time>
      </trkpt>
      <trkpt lat="60.116614145885" lon="21.52523217228">
        <ele>31.4</ele>
        <time>2017-07-26T16:55:38Z</time>
      </trkpt>
      <trkpt lat="60.116636860834" lon="21.525211720444">
        <ele>31.4</ele>
        <time>2017-07-26T16:55:39Z</time>
      </trkpt>
      <trkpt lat="60.116661252163" lon="21.525194369911">
        <ele>31.4</ele>
        <time>2017-07-26T16:55:40Z</time>
      </trkpt>
      <trkpt lat="60.11668245837" lon="21.525186574744">
        <ele>31.4</ele>
        <time>2017-07-26T16:55:41Z</time>
      </trkpt>
      <trkpt lat="60.116700311817" lon="21.525185401278">
        <ele>31.4</ele>
        <time>2017-07-26T16:55:42Z</time>
      </trkpt>
      <trkpt lat="60.116725792793" lon="21.525203422363">
        <ele>31.4</ele>
        <time>2017-07-26T16:55:43Z</time>
      </trkpt>
      <trkpt lat="60.116745909353" lon="21.525241979103">
        <ele>31.4</ele>
        <time>2017-07-26T16:55:44Z</time>
      </trkpt>
      <trkpt lat="60.116766780284" lon="21.525287241363">
        <ele>31.4</ele>
        <time>2017-07-26T16:55:45Z</time>
      </trkpt>
      <trkpt lat="60.116781783885" lon="21.525333844727">
        <ele>31.4</ele>
        <time>2017-07-26T16:55:46Z</time>
      </trkpt>
      <trkpt lat="60.116799469694" lon="21.525388662353">
        <ele>31.4</ele>
        <time>2017-07-26T16:55:47Z</time>
      </trkpt>
      <trkpt lat="60.116820340625" lon="21.525445156359">
        <ele>31.4</ele>
        <time>2017-07-26T16:55:48Z</time>
      </trkpt>
      <trkpt lat="60.116842049746" lon="21.525493436103">
        <ele>31.4</ele>
        <time>2017-07-26T16:55:49Z</time>
      </trkpt>
      <trkpt lat="60.116863255953" lon="21.525549091919">
        <ele>31.4</ele>
        <time>2017-07-26T16:55:50Z</time>
      </trkpt>
      <trkpt lat="60.116883540151" lon="21.525596198197">
        <ele>31.4</ele>
        <time>2017-07-26T16:55:51Z</time>
      </trkpt>
      <trkpt lat="60.116894101345" lon="21.525635257851">
        <ele>31.4</ele>
        <time>2017-07-26T16:55:52Z</time>
      </trkpt>
      <trkpt lat="60.116909943136" lon="21.525678843731">
        <ele>31.4</ele>
        <time>2017-07-26T16:55:53Z</time>
      </trkpt>
      <trkpt lat="60.116919917597" lon="21.525716478462">
        <ele>31.4</ele>
        <time>2017-07-26T16:55:54Z</time>
      </trkpt>
      <trkpt lat="60.116932155171" lon="21.525759645247">
        <ele>31.4</ele>
        <time>2017-07-26T16:55:55Z</time>
      </trkpt>
      <trkpt lat="60.116950092437" lon="21.525799375453">
        <ele>31.4</ele>
        <time>2017-07-26T16:55:56Z</time>
      </trkpt>
      <trkpt lat="60.116965012219" lon="21.525840027668">
        <ele>31.4</ele>
        <time>2017-07-26T16:55:57Z</time>
      </trkpt>
      <trkpt lat="60.116978758535" lon="21.525876824209">
        <ele>31.4</ele>
        <time>2017-07-26T16:55:58Z</time>
      </trkpt>
      <trkpt lat="60.116993007765" lon="21.525918146976">
        <ele>31.4</ele>
        <time>2017-07-26T16:55:59Z</time>
      </trkpt>
      <trkpt lat="60.117009687746" lon="21.525965253254">
        <ele>31.4</ele>
        <time>2017-07-26T16:56:00Z</time>
      </trkpt>
      <trkpt lat="60.117024607528" lon="21.526002804166">
        <ele>31.4</ele>
        <time>2017-07-26T16:56:01Z</time>
      </trkpt>
      <trkpt lat="60.117041706604" lon="21.526044965123">
        <ele>31.4</ele>
        <time>2017-07-26T16:56:02Z</time>
      </trkpt>
      <trkpt lat="60.117058386585" lon="21.526085701157">
        <ele>31.4</ele>
        <time>2017-07-26T16:56:03Z</time>
      </trkpt>
      <trkpt lat="60.11707305491" lon="21.526122916793">
        <ele>31.4</ele>
        <time>2017-07-26T16:56:04Z</time>
      </trkpt>
      <trkpt lat="60.117089986348" lon="21.526175555125">
        <ele>31.4</ele>
        <time>2017-07-26T16:56:05Z</time>
      </trkpt>
      <trkpt lat="60.117106666329" lon="21.52622291286">
        <ele>31.4</ele>
        <time>2017-07-26T16:56:06Z</time>
      </trkpt>
      <trkpt lat="60.117120580283" lon="21.526275215916">
        <ele>31.4</ele>
        <time>2017-07-26T16:56:07Z</time>
      </trkpt>
      <trkpt lat="60.117136589712" lon="21.526328357162">
        <ele>31.4</ele>
        <time>2017-07-26T16:56:08Z</time>
      </trkpt>
      <trkpt lat="60.117150419847" lon="21.526375128164">
        <ele>31.4</ele>
        <time>2017-07-26T16:56:09Z</time>
      </trkpt>
      <trkpt lat="60.11716525581" lon="21.526430867799">
        <ele>31.4</ele>
        <time>2017-07-26T16:56:10Z</time>
      </trkpt>
      <trkpt lat="60.117181935791" lon="21.526480991561">
        <ele>31.4</ele>
        <time>2017-07-26T16:56:11Z</time>
      </trkpt>
      <trkpt lat="60.117196771754" lon="21.526532624065">
        <ele>31.4</ele>
        <time>2017-07-26T16:56:12Z</time>
      </trkpt>
      <trkpt lat="60.117211942993" lon="21.526591632641">
        <ele>31.4</ele>
        <time>2017-07-26T16:56:13Z</time>
      </trkpt>
      <trkpt lat="60.117221246902" lon="21.526645528258">
        <ele>31.4</ele>
        <time>2017-07-26T16:56:14Z</time>
      </trkpt>
      <trkpt lat="60.117237759245" lon="21.526705291205">
        <ele>31.4</ele>
        <time>2017-07-26T16:56:15Z</time>
      </trkpt>
      <trkpt lat="60.117251254104" lon="21.52675516351">
        <ele>31.4</ele>
        <time>2017-07-26T16:56:16Z</time>
      </trkpt>
      <trkpt lat="60.117270700112" lon="21.526818949769">
        <ele>31.4</ele>
        <time>2017-07-26T16:56:17Z</time>
      </trkpt>
      <trkpt lat="60.117285703713" lon="21.526879299449">
        <ele>31.4</ele>
        <time>2017-07-26T16:56:18Z</time>
      </trkpt>
      <trkpt lat="60.117284781704" lon="21.526926573365">
        <ele>31.4</ele>
        <time>2017-07-26T16:56:19Z</time>
      </trkpt>
      <trkpt lat="60.117297606011" lon="21.526986755407">
        <ele>31.4</ele>
        <time>2017-07-26T16:56:20Z</time>
      </trkpt>
      <trkpt lat="60.117309089214" lon="21.527039477558">
        <ele>31.4</ele>
        <time>2017-07-26T16:56:21Z</time>
      </trkpt>
      <trkpt lat="60.117315962372" lon="21.527088260216">
        <ele>31.4</ele>
        <time>2017-07-26T16:56:22Z</time>
      </trkpt>
      <trkpt lat="60.117326691204" lon="21.527149867181">
        <ele>31.4</ele>
        <time>2017-07-26T16:56:23Z</time>
      </trkpt>
      <trkpt lat="60.117338342045" lon="21.527198482201">
        <ele>31.4</ele>
        <time>2017-07-26T16:56:24Z</time>
      </trkpt>
      <trkpt lat="60.117350747257" lon="21.527259502433">
        <ele>31.4</ele>
        <time>2017-07-26T16:56:25Z</time>
      </trkpt>
      <trkpt lat="60.117357871872" lon="21.527313565688">
        <ele>31.4</ele>
        <time>2017-07-26T16:56:26Z</time>
      </trkpt>
      <trkpt lat="60.117369355075" lon="21.527379782698">
        <ele>31.4</ele>
        <time>2017-07-26T16:56:27Z</time>
      </trkpt>
      <trkpt lat="60.117381425011" lon="21.527452286133">
        <ele>31.4</ele>
        <time>2017-07-26T16:56:28Z</time>
      </trkpt>
      <trkpt lat="60.117391650929" lon="21.527522694093">
        <ele>31.4</ele>
        <time>2017-07-26T16:56:29Z</time>
      </trkpt>
      <trkpt lat="60.117407325082" lon="21.527600226668">
        <ele>31.4</ele>
        <time>2017-07-26T16:56:30Z</time>
      </trkpt>
      <trkpt lat="60.117419646475" lon="21.527655547208">
        <ele>31.4</ele>
        <time>2017-07-26T16:56:31Z</time>
      </trkpt>
      <trkpt lat="60.117430291488" lon="21.527716232164">
        <ele>31.4</ele>
        <time>2017-07-26T16:56:32Z</time>
      </trkpt>
      <trkpt lat="60.117444875994" lon="21.527774234912">
        <ele>31.4</ele>
        <time>2017-07-26T16:56:33Z</time>
      </trkpt>
      <trkpt lat="60.117457532663" lon="21.527841541569">
        <ele>31.4</ele>
        <time>2017-07-26T16:56:34Z</time>
      </trkpt>
      <trkpt lat="60.117464992554" lon="21.527882445241">
        <ele>31.4</ele>
        <time>2017-07-26T16:56:35Z</time>
      </trkpt>
      <trkpt lat="60.117476308119" lon="21.527968192078">
        <ele>31.4</ele>
        <time>2017-07-26T16:56:36Z</time>
      </trkpt>
      <trkpt lat="60.117483265096" lon="21.52803088869">
        <ele>31.4</ele>
        <time>2017-07-26T16:56:37Z</time>
      </trkpt>
      <trkpt lat="60.117488964788" lon="21.528088891438">
        <ele>31.4</ele>
        <time>2017-07-26T16:56:38Z</time>
      </trkpt>
      <trkpt lat="60.117496927593" lon="21.528141781227">
        <ele>31.4</ele>
        <time>2017-07-26T16:56:39Z</time>
      </trkpt>
      <trkpt lat="60.117502794923" lon="21.528192407903">
        <ele>31.4</ele>
        <time>2017-07-26T16:56:40Z</time>
      </trkpt>
      <trkpt lat="60.117508410796" lon="21.528243202217">
        <ele>31.4</ele>
        <time>2017-07-26T16:56:41Z</time>
      </trkpt>
      <trkpt lat="60.117511009185" lon="21.528295002359">
        <ele>31.4</ele>
        <time>2017-07-26T16:56:42Z</time>
      </trkpt>
      <trkpt lat="60.117515703049" lon="21.528346802501">
        <ele>31.4</ele>
        <time>2017-07-26T16:56:43Z</time>
      </trkpt>
      <trkpt lat="60.1175181338" lon="21.528400698118">
        <ele>31.4</ele>
        <time>2017-07-26T16:56:44Z</time>
      </trkpt>
      <trkpt lat="60.11752148656" lon="21.528453587907">
        <ele>31.4</ele>
        <time>2017-07-26T16:56:45Z</time>
      </trkpt>
      <trkpt lat="60.117525174596" lon="21.528503544031">
        <ele>31.4</ele>
        <time>2017-07-26T16:56:46Z</time>
      </trkpt>
      <trkpt lat="60.117530036098" lon="21.528560289494">
        <ele>31.4</ele>
        <time>2017-07-26T16:56:47Z</time>
      </trkpt>
      <trkpt lat="60.117533891772" lon="21.528608485419">
        <ele>31.4</ele>
        <time>2017-07-26T16:56:48Z</time>
      </trkpt>
      <trkpt lat="60.117535568152" lon="21.528662464855">
        <ele>31.4</ele>
        <time>2017-07-26T16:56:49Z</time>
      </trkpt>
      <trkpt lat="60.11753657398" lon="21.528722479259">
        <ele>31.4</ele>
        <time>2017-07-26T16:56:50Z</time>
      </trkpt>
      <trkpt lat="60.117536154885" lon="21.528777548342">
        <ele>31.4</ele>
        <time>2017-07-26T16:56:51Z</time>
      </trkpt>
      <trkpt lat="60.117537747446" lon="21.528831024864">
        <ele>31.4</ele>
        <time>2017-07-26T16:56:52Z</time>
      </trkpt>
      <trkpt lat="60.117540932568" lon="21.528891877458">
        <ele>31.4</ele>
        <time>2017-07-26T16:56:53Z</time>
      </trkpt>
      <trkpt lat="60.117543111862" lon="21.528941498306">
        <ele>31.4</ele>
        <time>2017-07-26T16:56:54Z</time>
      </trkpt>
      <trkpt lat="60.1175432795" lon="21.529006458031">
        <ele>31.4</ele>
        <time>2017-07-26T16:56:55Z</time>
      </trkpt>
      <trkpt lat="60.117544201509" lon="21.529077117448">
        <ele>31.4</ele>
        <time>2017-07-26T16:56:56Z</time>
      </trkpt>
      <trkpt lat="60.117545291156" lon="21.52910963922">
        <ele>31.4</ele>
        <time>2017-07-26T16:56:57Z</time>
      </trkpt>
      <trkpt lat="60.117543950052" lon="21.529185579234">
        <ele>31.4</ele>
        <time>2017-07-26T16:56:58Z</time>
      </trkpt>
      <trkpt lat="60.117546129346" lon="21.529252299158">
        <ele>31.4</ele>
        <time>2017-07-26T16:56:59Z</time>
      </trkpt>
      <trkpt lat="60.117546464622" lon="21.529310553363">
        <ele>31.4</ele>
        <time>2017-07-26T16:57:00Z</time>
      </trkpt>
      <trkpt lat="60.117546045527" lon="21.529370400129">
        <ele>31.4</ele>
        <time>2017-07-26T16:57:01Z</time>
      </trkpt>
      <trkpt lat="60.117545374975" lon="21.52943066599">
        <ele>31.4</ele>
        <time>2017-07-26T16:57:02Z</time>
      </trkpt>
      <trkpt lat="60.117543950052" lon="21.529489590747">
        <ele>31.4</ele>
        <time>2017-07-26T16:57:03Z</time>
      </trkpt>
      <trkpt lat="60.117542776586" lon="21.529538960138">
        <ele>31.4</ele>
        <time>2017-07-26T16:57:04Z</time>
      </trkpt>
      <trkpt lat="60.117542106034" lon="21.52958740752">
        <ele>31.4</ele>
        <time>2017-07-26T16:57:05Z</time>
      </trkpt>
      <trkpt lat="60.117541770758" lon="21.529636609273">
        <ele>31.4</ele>
        <time>2017-07-26T16:57:06Z</time>
      </trkpt>
      <trkpt lat="60.117542776586" lon="21.529687403587">
        <ele>31.4</ele>
        <time>2017-07-26T16:57:07Z</time>
      </trkpt>
      <trkpt lat="60.117543614776" lon="21.529736521521">
        <ele>31.4</ele>
        <time>2017-07-26T16:57:08Z</time>
      </trkpt>
      <trkpt lat="60.117542525129" lon="21.529784214532">
        <ele>31.4</ele>
        <time>2017-07-26T16:57:09Z</time>
      </trkpt>
      <trkpt lat="60.11754244131" lon="21.52984221728">
        <ele>31.4</ele>
        <time>2017-07-26T16:57:10Z</time>
      </trkpt>
      <trkpt lat="60.117542608948" lon="21.529892173404">
        <ele>31.4</ele>
        <time>2017-07-26T16:57:11Z</time>
      </trkpt>
      <trkpt lat="60.117543111862" lon="21.529943554451">
        <ele>31.4</ele>
        <time>2017-07-26T16:57:12Z</time>
      </trkpt>
      <trkpt lat="60.117543363319" lon="21.529991750376">
        <ele>31.4</ele>
        <time>2017-07-26T16:57:13Z</time>
      </trkpt>
      <trkpt lat="60.117544201509" lon="21.530046316545">
        <ele>31.4</ele>
        <time>2017-07-26T16:57:14Z</time>
      </trkpt>
      <trkpt lat="60.117545207337" lon="21.530093003728">
        <ele>31.4</ele>
        <time>2017-07-26T16:57:15Z</time>
      </trkpt>
      <trkpt lat="60.11754579407" lon="21.530142708395">
        <ele>31.4</ele>
        <time>2017-07-26T16:57:16Z</time>
      </trkpt>
      <trkpt lat="60.117548895373" lon="21.530191323415">
        <ele>31.4</ele>
        <time>2017-07-26T16:57:17Z</time>
      </trkpt>
      <trkpt lat="60.117551829038" lon="21.530239686978">
        <ele>31.4</ele>
        <time>2017-07-26T16:57:18Z</time>
      </trkpt>
      <trkpt lat="60.117550990848" lon="21.530293582595">
        <ele>31.4</ele>
        <time>2017-07-26T16:57:19Z</time>
      </trkpt>
      <trkpt lat="60.117550068839" lon="21.530336581742">
        <ele>31.4</ele>
        <time>2017-07-26T16:57:20Z</time>
      </trkpt>
      <trkpt lat="60.117549482106" lon="21.530374719387">
        <ele>31.4</ele>
        <time>2017-07-26T16:57:21Z</time>
      </trkpt>
      <trkpt lat="60.117550990848" lon="21.530438338008">
        <ele>31.4</ele>
        <time>2017-07-26T16:57:22Z</time>
      </trkpt>
      <trkpt lat="60.117550655572" lon="21.530491227797">
        <ele>31.4</ele>
        <time>2017-07-26T16:57:23Z</time>
      </trkpt>
      <trkpt lat="60.11755417597" lon="21.530550990744">
        <ele>31.4</ele>
        <time>2017-07-26T16:57:24Z</time>
      </trkpt>
      <trkpt lat="60.117553253961" lon="21.530605305456">
        <ele>31.4</ele>
        <time>2017-07-26T16:57:25Z</time>
      </trkpt>
      <trkpt lat="60.117553002504" lon="21.530656770322">
        <ele>31.4</ele>
        <time>2017-07-26T16:57:26Z</time>
      </trkpt>
      <trkpt lat="60.117551577581" lon="21.53070471479">
        <ele>31.4</ele>
        <time>2017-07-26T16:57:27Z</time>
      </trkpt>
      <trkpt lat="60.1175516614" lon="21.530732961793">
        <ele>31.4</ele>
        <time>2017-07-26T16:57:28Z</time>
      </trkpt>
      <trkpt lat="60.117552918685" lon="21.530809320902">
        <ele>31.4</ele>
        <time>2017-07-26T16:57:29Z</time>
      </trkpt>
      <trkpt lat="60.117552583409" lon="21.530860953406">
        <ele>31.4</ele>
        <time>2017-07-26T16:57:30Z</time>
      </trkpt>
      <trkpt lat="60.117552751047" lon="21.530915351937">
        <ele>31.4</ele>
        <time>2017-07-26T16:57:31Z</time>
      </trkpt>
      <trkpt lat="60.117552415771" lon="21.530970672477">
        <ele>31.4</ele>
        <time>2017-07-26T16:57:32Z</time>
      </trkpt>
      <trkpt lat="60.117551493762" lon="21.531024819551">
        <ele>31.4</ele>
        <time>2017-07-26T16:57:33Z</time>
      </trkpt>
      <trkpt lat="60.117549901201" lon="21.531079218082">
        <ele>31.4</ele>
        <time>2017-07-26T16:57:34Z</time>
      </trkpt>
      <trkpt lat="60.117550068839" lon="21.531131688776">
        <ele>31.4</ele>
        <time>2017-07-26T16:57:35Z</time>
      </trkpt>
      <trkpt lat="60.117550990848" lon="21.53118332128">
        <ele>31.4</ele>
        <time>2017-07-26T16:57:36Z</time>
      </trkpt>
      <trkpt lat="60.117552164314" lon="21.531234534689">
        <ele>31.4</ele>
        <time>2017-07-26T16:57:37Z</time>
      </trkpt>
      <trkpt lat="60.117553505418" lon="21.531282814433">
        <ele>31.4</ele>
        <time>2017-07-26T16:57:38Z</time>
      </trkpt>
      <trkpt lat="60.11755501416" lon="21.531336374774">
        <ele>31.4</ele>
        <time>2017-07-26T16:57:39Z</time>
      </trkpt>
      <trkpt lat="60.117559037472" lon="21.531395970083">
        <ele>31.4</ele>
        <time>2017-07-26T16:57:40Z</time>
      </trkpt>
      <trkpt lat="60.117560630033" lon="21.531450787709">
        <ele>31.4</ele>
        <time>2017-07-26T16:57:41Z</time>
      </trkpt>
      <trkpt lat="60.117561468223" lon="21.531506527344">
        <ele>31.4</ele>
        <time>2017-07-26T16:57:42Z</time>
      </trkpt>
      <trkpt lat="60.117560546214" lon="21.531559920047">
        <ele>31.4</ele>
        <time>2017-07-26T16:57:43Z</time>
      </trkpt>
      <trkpt lat="60.117564150431" lon="21.531609289438">
        <ele>31.4</ele>
        <time>2017-07-26T16:57:44Z</time>
      </trkpt>
      <trkpt lat="60.117566162087" lon="21.531656395716">
        <ele>31.4</ele>
        <time>2017-07-26T16:57:45Z</time>
      </trkpt>
      <trkpt lat="60.117566832639" lon="21.531705765107">
        <ele>31.4</ele>
        <time>2017-07-26T16:57:46Z</time>
      </trkpt>
      <trkpt lat="60.117567251734" lon="21.531750189177">
        <ele>31.4</ele>
        <time>2017-07-26T16:57:47Z</time>
      </trkpt>
      <trkpt lat="60.117568341381" lon="21.531793775057">
        <ele>31.4</ele>
        <time>2017-07-26T16:57:48Z</time>
      </trkpt>
      <trkpt lat="60.117569933942" lon="21.531824620449">
        <ele>31.4</ele>
        <time>2017-07-26T16:57:49Z</time>
      </trkpt>
      <trkpt lat="60.117572867607" lon="21.531863512465">
        <ele>31.4</ele>
        <time>2017-07-26T16:57:50Z</time>
      </trkpt>
      <trkpt lat="60.117576639462" lon="21.531903913223">
        <ele>31.4</ele>
        <time>2017-07-26T16:57:51Z</time>
      </trkpt>
      <trkpt lat="60.117576136548" lon="21.531952444424">
        <ele>31.4</ele>
        <time>2017-07-26T16:57:52Z</time>
      </trkpt>
      <trkpt lat="60.117577310014" lon="21.531998209598">
        <ele>31.6</ele>
        <time>2017-07-26T16:57:53Z</time>
      </trkpt>
      <trkpt lat="60.117580411317" lon="21.532042549849">
        <ele>31.4</ele>
        <time>2017-07-26T16:57:54Z</time>
      </trkpt>
      <trkpt lat="60.117583177344" lon="21.532086471005">
        <ele>31.4</ele>
        <time>2017-07-26T16:57:55Z</time>
      </trkpt>
      <trkpt lat="60.117585105181" lon="21.53212796141">
        <ele>31.4</ele>
        <time>2017-07-26T16:57:56Z</time>
      </trkpt>
      <trkpt lat="60.117586949199" lon="21.532170206186">
        <ele>31.6</ele>
        <time>2017-07-26T16:57:57Z</time>
      </trkpt>
      <trkpt lat="60.117588709398" lon="21.532197614999">
        <ele>31.8</ele>
        <time>2017-07-26T16:57:58Z</time>
      </trkpt>
      <trkpt lat="60.117589547588" lon="21.532242709621">
        <ele>32.4</ele>
        <time>2017-07-26T16:57:59Z</time>
      </trkpt>
      <trkpt lat="60.117590134321" lon="21.532281601637">
        <ele>32.8</ele>
        <time>2017-07-26T16:58:00Z</time>
      </trkpt>
      <trkpt lat="60.117594073814" lon="21.53231571597">
        <ele>33.2</ele>
        <time>2017-07-26T16:58:01Z</time>
      </trkpt>
      <trkpt lat="60.117596756022" lon="21.532350836131">
        <ele>33.4</ele>
        <time>2017-07-26T16:58:02Z</time>
      </trkpt>
      <trkpt lat="60.117599102954" lon="21.532387548853">
        <ele>33.4</ele>
        <time>2017-07-26T16:58:03Z</time>
      </trkpt>
      <trkpt lat="60.11760362918" lon="21.532424010118">
        <ele>33.4</ele>
        <time>2017-07-26T16:58:04Z</time>
      </trkpt>
      <trkpt lat="60.117605976112" lon="21.532466841627">
        <ele>33.4</ele>
        <time>2017-07-26T16:58:05Z</time>
      </trkpt>
      <trkpt lat="60.117607233397" lon="21.532507745299">
        <ele>33.4</ele>
        <time>2017-07-26T16:58:06Z</time>
      </trkpt>
      <trkpt lat="60.117609245053" lon="21.532547224048">
        <ele>33.4</ele>
        <time>2017-07-26T16:58:07Z</time>
      </trkpt>
      <trkpt lat="60.117612597813" lon="21.532586199883">
        <ele>33.4</ele>
        <time>2017-07-26T16:58:08Z</time>
      </trkpt>
      <trkpt lat="60.11761536384" lon="21.532612770506">
        <ele>33.4</ele>
        <time>2017-07-26T16:58:09Z</time>
      </trkpt>
      <trkpt lat="60.117615615297" lon="21.532654931463">
        <ele>33.4</ele>
        <time>2017-07-26T16:58:10Z</time>
      </trkpt>
      <trkpt lat="60.117617543134" lon="21.532695583678">
        <ele>33.4</ele>
        <time>2017-07-26T16:58:11Z</time>
      </trkpt>
      <trkpt lat="60.117619051876" lon="21.532739421015">
        <ele>33.4</ele>
        <time>2017-07-26T16:58:12Z</time>
      </trkpt>
      <trkpt lat="60.117622572274" lon="21.532783342171">
        <ele>33.4</ele>
        <time>2017-07-26T16:58:13Z</time>
      </trkpt>
      <trkpt lat="60.11762458393" lon="21.53282868825">
        <ele>33.4</ele>
        <time>2017-07-26T16:58:14Z</time>
      </trkpt>
      <trkpt lat="60.117628104328" lon="21.532873279958">
        <ele>33.4</ele>
        <time>2017-07-26T16:58:15Z</time>
      </trkpt>
      <trkpt lat="60.117628104328" lon="21.532916865838">
        <ele>33.4</ele>
        <time>2017-07-26T16:58:16Z</time>
      </trkpt>
      <trkpt lat="60.117631708545" lon="21.532959948804">
        <ele>33.4</ele>
        <time>2017-07-26T16:58:17Z</time>
      </trkpt>
      <trkpt lat="60.117637240599" lon="21.533001103933">
        <ele>33.4</ele>
        <time>2017-07-26T16:58:18Z</time>
      </trkpt>
      <trkpt lat="60.117639419893" lon="21.533044857451">
        <ele>33.4</ele>
        <time>2017-07-26T16:58:19Z</time>
      </trkpt>
      <trkpt lat="60.117642856472" lon="21.533088443331">
        <ele>33.4</ele>
        <time>2017-07-26T16:58:20Z</time>
      </trkpt>
      <trkpt lat="60.117647717974" lon="21.53313211303">
        <ele>33.4</ele>
        <time>2017-07-26T16:58:21Z</time>
      </trkpt>
      <trkpt lat="60.117647550336" lon="21.533176453281">
        <ele>33.4</ele>
        <time>2017-07-26T16:58:22Z</time>
      </trkpt>
      <trkpt lat="60.117651657467" lon="21.533220877351">
        <ele>33.4</ele>
        <time>2017-07-26T16:58:23Z</time>
      </trkpt>
      <trkpt lat="60.117653585304" lon="21.533271420208">
        <ele>33.4</ele>
        <time>2017-07-26T16:58:24Z</time>
      </trkpt>
      <trkpt lat="60.117658446806" lon="21.533315928097">
        <ele>33.4</ele>
        <time>2017-07-26T16:58:25Z</time>
      </trkpt>
      <trkpt lat="60.117663056851" lon="21.533360352167">
        <ele>33.6</ele>
        <time>2017-07-26T16:58:26Z</time>
      </trkpt>
      <trkpt lat="60.117668840362" lon="21.533403016038">
        <ele>33.8</ele>
        <time>2017-07-26T16:58:27Z</time>
      </trkpt>
      <trkpt lat="60.117670768199" lon="21.533437381828">
        <ele>34.2</ele>
        <time>2017-07-26T16:58:28Z</time>
      </trkpt>
      <trkpt lat="60.117672612217" lon="21.533481722079">
        <ele>34.8</ele>
        <time>2017-07-26T16:58:29Z</time>
      </trkpt>
      <trkpt lat="60.117676300253" lon="21.533519440629">
        <ele>35.2</ele>
        <time>2017-07-26T16:58:30Z</time>
      </trkpt>
      <trkpt lat="60.117683089592" lon="21.533555985713">
        <ele>35.4</ele>
        <time>2017-07-26T16:58:31Z</time>
      </trkpt>
      <trkpt lat="60.117689795112" lon="21.533595129186">
        <ele>35.4</ele>
        <time>2017-07-26T16:58:32Z</time>
      </trkpt>
      <trkpt lat="60.117695913899" lon="21.533634691754">
        <ele>35.4</ele>
        <time>2017-07-26T16:58:33Z</time>
      </trkpt>
      <trkpt lat="60.117701362134" lon="21.53368112748">
        <ele>35.4</ele>
        <time>2017-07-26T16:58:34Z</time>
      </trkpt>
      <trkpt lat="60.117706391274" lon="21.533725300093">
        <ele>35.4</ele>
        <time>2017-07-26T16:58:35Z</time>
      </trkpt>
      <trkpt lat="60.117712342423" lon="21.533768131602">
        <ele>35.4</ele>
        <time>2017-07-26T16:58:36Z</time>
      </trkpt>
      <trkpt lat="60.117717706839" lon="21.533811801301">
        <ele>35.4</ele>
        <time>2017-07-26T16:58:37Z</time>
      </trkpt>
      <trkpt lat="60.11772349035" lon="21.533855219543">
        <ele>35.4</ele>
        <time>2017-07-26T16:58:38Z</time>
      </trkpt>
      <trkpt lat="60.117723825626" lon="21.533898051052">
        <ele>35.4</ele>
        <time>2017-07-26T16:58:39Z</time>
      </trkpt>
      <trkpt lat="60.117731285517" lon="21.533949432099">
        <ele>35.4</ele>
        <time>2017-07-26T16:58:40Z</time>
      </trkpt>
      <trkpt lat="60.117735476467" lon="21.533996538377">
        <ele>35.4</ele>
        <time>2017-07-26T16:58:41Z</time>
      </trkpt>
      <trkpt lat="60.117738913046" lon="21.534044985759">
        <ele>35.4</ele>
        <time>2017-07-26T16:58:42Z</time>
      </trkpt>
      <trkpt lat="60.11774276872" lon="21.53409267877">
        <ele>35.4</ele>
        <time>2017-07-26T16:58:43Z</time>
      </trkpt>
      <trkpt lat="60.117747965498" lon="21.534142215799">
        <ele>35.4</ele>
        <time>2017-07-26T16:58:44Z</time>
      </trkpt>
      <trkpt lat="60.117754754837" lon="21.534188651525">
        <ele>35.4</ele>
        <time>2017-07-26T16:58:45Z</time>
      </trkpt>
      <trkpt lat="60.117758526692" lon="21.534239948753">
        <ele>35.4</ele>
        <time>2017-07-26T16:58:46Z</time>
      </trkpt>
      <trkpt lat="60.117762801461" lon="21.534287641764">
        <ele>35.4</ele>
        <time>2017-07-26T16:58:47Z</time>
      </trkpt>
      <trkpt lat="60.117768082058" lon="21.534332987843">
        <ele>35.4</ele>
        <time>2017-07-26T16:58:48Z</time>
      </trkpt>
      <trkpt lat="60.11777461994" lon="21.534375903171">
        <ele>35.4</ele>
        <time>2017-07-26T16:58:49Z</time>
      </trkpt>
      <trkpt lat="60.117780571089" lon="21.534421500707">
        <ele>35.4</ele>
        <time>2017-07-26T16:58:50Z</time>
      </trkpt>
      <trkpt lat="60.117787276609" lon="21.534467182062">
        <ele>35.4</ele>
        <time>2017-07-26T16:58:51Z</time>
      </trkpt>
      <trkpt lat="60.11779306012" lon="21.534503894784">
        <ele>35.4</ele>
        <time>2017-07-26T16:58:52Z</time>
      </trkpt>
      <trkpt lat="60.117797418708" lon="21.534546893931">
        <ele>35.4</ele>
        <time>2017-07-26T16:58:53Z</time>
      </trkpt>
      <trkpt lat="60.117801525839" lon="21.534603387937">
        <ele>35.4</ele>
        <time>2017-07-26T16:58:54Z</time>
      </trkpt>
      <trkpt lat="60.11780730935" lon="21.534654936622">
        <ele>35.4</ele>
        <time>2017-07-26T16:58:55Z</time>
      </trkpt>
      <trkpt lat="60.117812925223" lon="21.534706988221">
        <ele>35.4</ele>
        <time>2017-07-26T16:58:56Z</time>
      </trkpt>
      <trkpt lat="60.117818038182" lon="21.534755938517">
        <ele>35.4</ele>
        <time>2017-07-26T16:58:57Z</time>
      </trkpt>
      <trkpt lat="60.117821642399" lon="21.534803212433">
        <ele>35.4</ele>
        <time>2017-07-26T16:58:58Z</time>
      </trkpt>
      <trkpt lat="60.117827845005" lon="21.53486716633">
        <ele>35.4</ele>
        <time>2017-07-26T16:58:59Z</time>
      </trkpt>
      <trkpt lat="60.117831700679" lon="21.534923995612">
        <ele>35.4</ele>
        <time>2017-07-26T16:59:00Z</time>
      </trkpt>
      <trkpt lat="60.117836729819" lon="21.53498451293">
        <ele>35.4</ele>
        <time>2017-07-26T16:59:01Z</time>
      </trkpt>
      <trkpt lat="60.117844105891" lon="21.535043018592">
        <ele>35.4</ele>
        <time>2017-07-26T16:59:02Z</time>
      </trkpt>
      <trkpt lat="60.117852068696" lon="21.535099680236">
        <ele>35.4</ele>
        <time>2017-07-26T16:59:03Z</time>
      </trkpt>
      <trkpt lat="60.117855505275" lon="21.535168663273">
        <ele>35.4</ele>
        <time>2017-07-26T16:59:04Z</time>
      </trkpt>
      <trkpt lat="60.117859444768" lon="21.535232700989">
        <ele>35.4</ele>
        <time>2017-07-26T16:59:05Z</time>
      </trkpt>
      <trkpt lat="60.117863887175" lon="21.535298247447">
        <ele>35.4</ele>
        <time>2017-07-26T16:59:06Z</time>
      </trkpt>
      <trkpt lat="60.11786765903" lon="21.535364967371">
        <ele>35.4</ele>
        <time>2017-07-26T16:59:07Z</time>
      </trkpt>
      <trkpt lat="60.117869586867" lon="21.53542959182">
        <ele>35.4</ele>
        <time>2017-07-26T16:59:08Z</time>
      </trkpt>
      <trkpt lat="60.117871598523" lon="21.535492875165">
        <ele>35.4</ele>
        <time>2017-07-26T16:59:09Z</time>
      </trkpt>
      <trkpt lat="60.117878723138" lon="21.535562444935">
        <ele>35.4</ele>
        <time>2017-07-26T16:59:10Z</time>
      </trkpt>
      <trkpt lat="60.117881572984" lon="21.53563746294">
        <ele>35.4</ele>
        <time>2017-07-26T16:59:11Z</time>
      </trkpt>
      <trkpt lat="60.117882075898" lon="21.535711978031">
        <ele>35.4</ele>
        <time>2017-07-26T16:59:12Z</time>
      </trkpt>
      <trkpt lat="60.117882327355" lon="21.535783559457">
        <ele>35.4</ele>
        <time>2017-07-26T16:59:13Z</time>
      </trkpt>
      <trkpt lat="60.117879812785" lon="21.535849273553">
        <ele>35.4</ele>
        <time>2017-07-26T16:59:14Z</time>
      </trkpt>
      <trkpt lat="60.117877801129" lon="21.535912305441">
        <ele>35.4</ele>
        <time>2017-07-26T16:59:15Z</time>
      </trkpt>
      <trkpt lat="60.117875538016" lon="21.535975924062">
        <ele>35.4</ele>
        <time>2017-07-26T16:59:16Z</time>
      </trkpt>
      <trkpt lat="60.117873358722" lon="21.536039961778">
        <ele>35.4</ele>
        <time>2017-07-26T16:59:17Z</time>
      </trkpt>
      <trkpt lat="60.117871347066" lon="21.536102742209">
        <ele>35.4</ele>
        <time>2017-07-26T16:59:18Z</time>
      </trkpt>
      <trkpt lat="60.117867994306" lon="21.536168121029">
        <ele>35.4</ele>
        <time>2017-07-26T16:59:19Z</time>
      </trkpt>
      <trkpt lat="60.117864641546" lon="21.53623090146">
        <ele>35.4</ele>
        <time>2017-07-26T16:59:20Z</time>
      </trkpt>
      <trkpt lat="60.1178617917" lon="21.536292759882">
        <ele>35.4</ele>
        <time>2017-07-26T16:59:21Z</time>
      </trkpt>
      <trkpt lat="60.117855840551" lon="21.536345230576">
        <ele>35.4</ele>
        <time>2017-07-26T16:59:22Z</time>
      </trkpt>
      <trkpt lat="60.117849973221" lon="21.536397785089">
        <ele>35.4</ele>
        <time>2017-07-26T16:59:23Z</time>
      </trkpt>
      <trkpt lat="60.11784251333" lon="21.536448327946">
        <ele>35.4</ele>
        <time>2017-07-26T16:59:24Z</time>
      </trkpt>
      <trkpt lat="60.117835556353" lon="21.536501217735">
        <ele>35.4</ele>
        <time>2017-07-26T16:59:25Z</time>
      </trkpt>
      <trkpt lat="60.117829353747" lon="21.536553269334">
        <ele>35.4</ele>
        <time>2017-07-26T16:59:26Z</time>
      </trkpt>
      <trkpt lat="60.117822732046" lon="21.53660221963">
        <ele>35.4</ele>
        <time>2017-07-26T16:59:27Z</time>
      </trkpt>
      <trkpt lat="60.117816194164" lon="21.536644380587">
        <ele>35.4</ele>
        <time>2017-07-26T16:59:28Z</time>
      </trkpt>
      <trkpt lat="60.117809488644" lon="21.536694336711">
        <ele>35.4</ele>
        <time>2017-07-26T16:59:29Z</time>
      </trkpt>
      <trkpt lat="60.117802196391" lon="21.536735240383">
        <ele>35.4</ele>
        <time>2017-07-26T16:59:30Z</time>
      </trkpt>
      <trkpt lat="60.117793646853" lon="21.536774802951">
        <ele>35.4</ele>
        <time>2017-07-26T16:59:31Z</time>
      </trkpt>
      <trkpt lat="60.117787611885" lon="21.536822328324">
        <ele>35.4</ele>
        <time>2017-07-26T16:59:32Z</time>
      </trkpt>
      <trkpt lat="60.117783588573" lon="21.536870775706">
        <ele>35.4</ele>
        <time>2017-07-26T16:59:33Z</time>
      </trkpt>
      <trkpt lat="60.117772273008" lon="21.536914613043">
        <ele>35.4</ele>
        <time>2017-07-26T16:59:34Z</time>
      </trkpt>
      <trkpt lat="60.11776288528" lon="21.536959037113">
        <ele>35.4</ele>
        <time>2017-07-26T16:59:35Z</time>
      </trkpt>
      <trkpt lat="60.117754922475" lon="21.537004215554">
        <ele>35.4</ele>
        <time>2017-07-26T16:59:36Z</time>
      </trkpt>
      <trkpt lat="60.117746792032" lon="21.537046125054">
        <ele>35.4</ele>
        <time>2017-07-26T16:59:37Z</time>
      </trkpt>
      <trkpt lat="60.117737823399" lon="21.537082418681">
        <ele>35.4</ele>
        <time>2017-07-26T16:59:38Z</time>
      </trkpt>
      <trkpt lat="60.117730112051" lon="21.537122148887">
        <ele>35.4</ele>
        <time>2017-07-26T16:59:39Z</time>
      </trkpt>
      <trkpt lat="60.117717371563" lon="21.537180403092">
        <ele>35.4</ele>
        <time>2017-07-26T16:59:40Z</time>
      </trkpt>
      <trkpt lat="60.11770672655" lon="21.537228934293">
        <ele>35.4</ele>
        <time>2017-07-26T16:59:41Z</time>
      </trkpt>
      <trkpt lat="60.117696835908" lon="21.537274531829">
        <ele>35.4</ele>
        <time>2017-07-26T16:59:42Z</time>
      </trkpt>
      <trkpt lat="60.117687615818" lon="21.537314345854">
        <ele>35.4</ele>
        <time>2017-07-26T16:59:43Z</time>
      </trkpt>
      <trkpt lat="60.117672276941" lon="21.537366062177">
        <ele>35.4</ele>
        <time>2017-07-26T16:59:44Z</time>
      </trkpt>
      <trkpt lat="60.117657021883" lon="21.53740772022">
        <ele>35.4</ele>
        <time>2017-07-26T16:59:45Z</time>
      </trkpt>
      <trkpt lat="60.117653333847" lon="21.537458933629">
        <ele>35.4</ele>
        <time>2017-07-26T16:59:46Z</time>
      </trkpt>
      <trkpt lat="60.117647466517" lon="21.537505620812">
        <ele>35.4</ele>
        <time>2017-07-26T16:59:47Z</time>
      </trkpt>
      <trkpt lat="60.117641263911" lon="21.537551553624">
        <ele>35.4</ele>
        <time>2017-07-26T16:59:48Z</time>
      </trkpt>
      <trkpt lat="60.117628355785" lon="21.537601928843">
        <ele>35.4</ele>
        <time>2017-07-26T16:59:49Z</time>
      </trkpt>
      <trkpt lat="60.117618046048" lon="21.537648783664">
        <ele>35.4</ele>
        <time>2017-07-26T16:59:50Z</time>
      </trkpt>
      <trkpt lat="60.117607568673" lon="21.537692201906">
        <ele>35.4</ele>
        <time>2017-07-26T16:59:51Z</time>
      </trkpt>
      <trkpt lat="60.117603126266" lon="21.5377027631">
        <ele>35.4</ele>
        <time>2017-07-26T16:59:52Z</time>
      </trkpt>
      <trkpt lat="60.117583596439" lon="21.537768812472">
        <ele>35.4</ele>
        <time>2017-07-26T16:59:53Z</time>
      </trkpt>
      <trkpt lat="60.11757596891" lon="21.537843159925">
        <ele>35.4</ele>
        <time>2017-07-26T16:59:54Z</time>
      </trkpt>
      <trkpt lat="60.117569933942" lon="21.537895965895">
        <ele>35.4</ele>
        <time>2017-07-26T16:59:55Z</time>
      </trkpt>
      <trkpt lat="60.117558702196" lon="21.537943239811">
        <ele>35.4</ele>
        <time>2017-07-26T16:59:56Z</time>
      </trkpt>
      <trkpt lat="60.117547386631" lon="21.537985736044">
        <ele>35.4</ele>
        <time>2017-07-26T16:59:57Z</time>
      </trkpt>
      <trkpt lat="60.117544201509" lon="21.538028986648">
        <ele>35.4</ele>
        <time>2017-07-26T16:59:58Z</time>
      </trkpt>
      <trkpt lat="60.117535400514" lon="21.538072656347">
        <ele>35.4</ele>
        <time>2017-07-26T16:59:59Z</time>
      </trkpt>
      <trkpt lat="60.117527689166" lon="21.538113811476">
        <ele>35.4</ele>
        <time>2017-07-26T17:00:00Z</time>
      </trkpt>
      <trkpt lat="60.117520313094" lon="21.538156810623">
        <ele>35.4</ele>
        <time>2017-07-26T17:00:01Z</time>
      </trkpt>
      <trkpt lat="60.117514026669" lon="21.538203413987">
        <ele>35.4</ele>
        <time>2017-07-26T17:00:02Z</time>
      </trkpt>
      <trkpt lat="60.117507069692" lon="21.538248005695">
        <ele>35.4</ele>
        <time>2017-07-26T17:00:03Z</time>
      </trkpt>
      <trkpt lat="60.117495167394" lon="21.538301817493">
        <ele>35.4</ele>
        <time>2017-07-26T17:00:04Z</time>
      </trkpt>
      <trkpt lat="60.117484857657" lon="21.538349342866">
        <ele>35.4</ele>
        <time>2017-07-26T17:00:05Z</time>
      </trkpt>
      <trkpt lat="60.117474464101" lon="21.538395610954">
        <ele>35.6</ele>
        <time>2017-07-26T17:00:06Z</time>
      </trkpt>
      <trkpt lat="60.117466249839" lon="21.538437520454">
        <ele>36</ele>
        <time>2017-07-26T17:00:07Z</time>
      </trkpt>
      <trkpt lat="60.117458789948" lon="21.538474149357">
        <ele>36.2</ele>
        <time>2017-07-26T17:00:08Z</time>
      </trkpt>
      <trkpt lat="60.117448731668" lon="21.538508766604">
        <ele>36.8</ele>
        <time>2017-07-26T17:00:09Z</time>
      </trkpt>
      <trkpt lat="60.117440014492" lon="21.538556711072">
        <ele>37.2</ele>
        <time>2017-07-26T17:00:10Z</time>
      </trkpt>
      <trkpt lat="60.117431716411" lon="21.538589987215">
        <ele>37.6</ele>
        <time>2017-07-26T17:00:11Z</time>
      </trkpt>
      <trkpt lat="60.117428950384" lon="21.538636255303">
        <ele>37.6</ele>
        <time>2017-07-26T17:00:12Z</time>
      </trkpt>
      <trkpt lat="60.117426351995" lon="21.538672381292">
        <ele>37.6</ele>
        <time>2017-07-26T17:00:13Z</time>
      </trkpt>
      <trkpt lat="60.117415623163" lon="21.538715380439">
        <ele>37.6</ele>
        <time>2017-07-26T17:00:14Z</time>
      </trkpt>
      <trkpt lat="60.117409420557" lon="21.538755278283">
        <ele>37.6</ele>
        <time>2017-07-26T17:00:15Z</time>
      </trkpt>
      <trkpt lat="60.117404726693" lon="21.538804396217">
        <ele>37.6</ele>
        <time>2017-07-26T17:00:16Z</time>
      </trkpt>
      <trkpt lat="60.117402128304" lon="21.53885359797">
        <ele>37.6</ele>
        <time>2017-07-26T17:00:17Z</time>
      </trkpt>
      <trkpt lat="60.117400284286" lon="21.538900201334">
        <ele>37.6</ele>
        <time>2017-07-26T17:00:18Z</time>
      </trkpt>
      <trkpt lat="60.117398691725" lon="21.538942781386">
        <ele>37.6</ele>
        <time>2017-07-26T17:00:19Z</time>
      </trkpt>
      <trkpt lat="60.11738905254" lon="21.538979829384">
        <ele>37.6</ele>
        <time>2017-07-26T17:00:20Z</time>
      </trkpt>
      <trkpt lat="60.117376060595" lon="21.539009920405">
        <ele>37.6</ele>
        <time>2017-07-26T17:00:21Z</time>
      </trkpt>
      <trkpt lat="60.117369522713" lon="21.539056188493">
        <ele>37.6</ele>
        <time>2017-07-26T17:00:22Z</time>
      </trkpt>
      <trkpt lat="60.117363655383" lon="21.539093487948">
        <ele>37.6</ele>
        <time>2017-07-26T17:00:23Z</time>
      </trkpt>
      <trkpt lat="60.117360051166" lon="21.539133721068">
        <ele>37.8</ele>
        <time>2017-07-26T17:00:24Z</time>
      </trkpt>
      <trkpt lat="60.117359212976" lon="21.539175127654">
        <ele>38.2</ele>
        <time>2017-07-26T17:00:25Z</time>
      </trkpt>
      <trkpt lat="60.117358290967" lon="21.53921401967">
        <ele>38.4</ele>
        <time>2017-07-26T17:00:26Z</time>
      </trkpt>
      <trkpt lat="60.117357285139" lon="21.539247631089">
        <ele>38.8</ele>
        <time>2017-07-26T17:00:27Z</time>
      </trkpt>
      <trkpt lat="60.117350663438" lon="21.539267328554">
        <ele>39</ele>
        <time>2017-07-26T17:00:28Z</time>
      </trkpt>
      <trkpt lat="60.117349909067" lon="21.539306974941">
        <ele>39.4</ele>
        <time>2017-07-26T17:00:29Z</time>
      </trkpt>
      <trkpt lat="60.117346723945" lon="21.539341340731">
        <ele>39.6</ele>
        <time>2017-07-26T17:00:30Z</time>
      </trkpt>
      <trkpt lat="60.117344377013" lon="21.539380735661">
        <ele>39.6</ele>
        <time>2017-07-26T17:00:31Z</time>
      </trkpt>
      <trkpt lat="60.117341778624" lon="21.539422477523">
        <ele>39.6</ele>
        <time>2017-07-26T17:00:32Z</time>
      </trkpt>
      <trkpt lat="60.117339347873" lon="21.539461537177">
        <ele>39.6</ele>
        <time>2017-07-26T17:00:33Z</time>
      </trkpt>
      <trkpt lat="60.117334654009" lon="21.539508894912">
        <ele>39.6</ele>
        <time>2017-07-26T17:00:34Z</time>
      </trkpt>
      <trkpt lat="60.117331468887" lon="21.539551558783">
        <ele>39.6</ele>
        <time>2017-07-26T17:00:35Z</time>
      </trkpt>
      <trkpt lat="60.117326272109" lon="21.539590702256">
        <ele>39.6</ele>
        <time>2017-07-26T17:00:36Z</time>
      </trkpt>
      <trkpt lat="60.117323925177" lon="21.539630851557">
        <ele>39.6</ele>
        <time>2017-07-26T17:00:37Z</time>
      </trkpt>
      <trkpt lat="60.117323338444" lon="21.539671587591">
        <ele>39.6</ele>
        <time>2017-07-26T17:00:38Z</time>
      </trkpt>
      <trkpt lat="60.117318393123" lon="21.539712575082">
        <ele>39.6</ele>
        <time>2017-07-26T17:00:39Z</time>
      </trkpt>
      <trkpt lat="60.117316884381" lon="21.539759429903">
        <ele>39.6</ele>
        <time>2017-07-26T17:00:40Z</time>
      </trkpt>
      <trkpt lat="60.117317303476" lon="21.53978482706">
        <ele>39.6</ele>
        <time>2017-07-26T17:00:41Z</time>
      </trkpt>
      <trkpt lat="60.117316884381" lon="21.539801842317">
        <ele>39.6</ele>
        <time>2017-07-26T17:00:42Z</time>
      </trkpt>
      <trkpt lat="60.117315543277" lon="21.539816426823">
        <ele>39.6</ele>
        <time>2017-07-26T17:00:43Z</time>
      </trkpt>
      <trkpt lat="60.11731780639" lon="21.539801423222">
        <ele>39.6</ele>
        <time>2017-07-26T17:00:44Z</time>
      </trkpt>
      <trkpt lat="60.117317052019" lon="21.539800417394">
        <ele>39.6</ele>
        <time>2017-07-26T17:00:45Z</time>
      </trkpt>
      <trkpt lat="60.117313028707" lon="21.53981584009">
        <ele>39.6</ele>
        <time>2017-07-26T17:00:46Z</time>
      </trkpt>
      <trkpt lat="60.117305065902" lon="21.539867472594">
        <ele>39.6</ele>
        <time>2017-07-26T17:00:54Z</time>
      </trkpt>
      <trkpt lat="60.117305317359" lon="21.539888594982">
        <ele>39.6</ele>
        <time>2017-07-26T17:00:55Z</time>
      </trkpt>
      <trkpt lat="60.117302970427" lon="21.539910723198">
        <ele>39.6</ele>
        <time>2017-07-26T17:00:56Z</time>
      </trkpt>
      <trkpt lat="60.117301713142" lon="21.539931594129">
        <ele>39.6</ele>
        <time>2017-07-26T17:00:57Z</time>
      </trkpt>
      <trkpt lat="60.117296097269" lon="21.539957829476">
        <ele>39.6</ele>
        <time>2017-07-26T17:00:58Z</time>
      </trkpt>
      <trkpt lat="60.117290313758" lon="21.539997811139">
        <ele>39.6</ele>
        <time>2017-07-26T17:00:59Z</time>
      </trkpt>
      <trkpt lat="60.11728763155" lon="21.540039888277">
        <ele>39.6</ele>
        <time>2017-07-26T17:01:00Z</time>
      </trkpt>
      <trkpt lat="60.117285284618" lon="21.540083474157">
        <ele>39.6</ele>
        <time>2017-07-26T17:01:01Z</time>
      </trkpt>
      <trkpt lat="60.117281848039" lon="21.540127060037">
        <ele>39.6</ele>
        <time>2017-07-26T17:01:02Z</time>
      </trkpt>
      <trkpt lat="60.117277908546" lon="21.540168382804">
        <ele>39.6</ele>
        <time>2017-07-26T17:01:03Z</time>
      </trkpt>
      <trkpt lat="60.117279417288" lon="21.540223787163">
        <ele>39.6</ele>
        <time>2017-07-26T17:01:04Z</time>
      </trkpt>
      <trkpt lat="60.117277908546" lon="21.540271228717">
        <ele>39.6</ele>
        <time>2017-07-26T17:01:05Z</time>
      </trkpt>
      <trkpt lat="60.117276148347" lon="21.540318670271">
        <ele>39.6</ele>
        <time>2017-07-26T17:01:06Z</time>
      </trkpt>
      <trkpt lat="60.117275561614" lon="21.540367872024">
        <ele>39.6</ele>
        <time>2017-07-26T17:01:07Z</time>
      </trkpt>
      <trkpt lat="60.117275645433" lon="21.540416403225">
        <ele>39.6</ele>
        <time>2017-07-26T17:01:08Z</time>
      </trkpt>
      <trkpt lat="60.117273717596" lon="21.540463341865">
        <ele>39.6</ele>
        <time>2017-07-26T17:01:09Z</time>
      </trkpt>
      <trkpt lat="60.117272125035" lon="21.540527966314">
        <ele>39.6</ele>
        <time>2017-07-26T17:01:10Z</time>
      </trkpt>
      <trkpt lat="60.117271789759" lon="21.540590160012">
        <ele>39.6</ele>
        <time>2017-07-26T17:01:11Z</time>
      </trkpt>
      <trkpt lat="60.117271454483" lon="21.540656879936">
        <ele>39.6</ele>
        <time>2017-07-26T17:01:12Z</time>
      </trkpt>
      <trkpt lat="60.117269861922" lon="21.540721169109">
        <ele>39.6</ele>
        <time>2017-07-26T17:01:13Z</time>
      </trkpt>
      <trkpt lat="60.117269442827" lon="21.54079400782">
        <ele>39.6</ele>
        <time>2017-07-26T17:01:14Z</time>
      </trkpt>
      <trkpt lat="60.11727002956" lon="21.540859638097">
        <ele>39.6</ele>
        <time>2017-07-26T17:01:15Z</time>
      </trkpt>
      <trkpt lat="60.117270364836" lon="21.540933482636">
        <ele>39.6</ele>
        <time>2017-07-26T17:01:16Z</time>
      </trkpt>
      <trkpt lat="60.117273801415" lon="21.540998777637">
        <ele>39.6</ele>
        <time>2017-07-26T17:01:17Z</time>
      </trkpt>
      <trkpt lat="60.117277405632" lon="21.541060049326">
        <ele>39.6</ele>
        <time>2017-07-26T17:01:18Z</time>
      </trkpt>
      <trkpt lat="60.11727757327" lon="21.541118471169">
        <ele>39.6</ele>
        <time>2017-07-26T17:01:19Z</time>
      </trkpt>
      <trkpt lat="60.117278076184" lon="21.541179239944">
        <ele>39.6</ele>
        <time>2017-07-26T17:01:20Z</time>
      </trkpt>
      <trkpt lat="60.117280004021" lon="21.541238667615">
        <ele>39.6</ele>
        <time>2017-07-26T17:01:21Z</time>
      </trkpt>
      <trkpt lat="60.117279584926" lon="21.541298346743">
        <ele>39.6</ele>
        <time>2017-07-26T17:01:22Z</time>
      </trkpt>
      <trkpt lat="60.117281093668" lon="21.5413572715">
        <ele>39.6</ele>
        <time>2017-07-26T17:01:23Z</time>
      </trkpt>
      <trkpt lat="60.117277321813" lon="21.541423069415">
        <ele>39.6</ele>
        <time>2017-07-26T17:01:24Z</time>
      </trkpt>
      <trkpt lat="60.11727841146" lon="21.541483083819">
        <ele>39.6</ele>
        <time>2017-07-26T17:01:25Z</time>
      </trkpt>
      <trkpt lat="60.117279668745" lon="21.541544104051">
        <ele>39.6</ele>
        <time>2017-07-26T17:01:26Z</time>
      </trkpt>
      <trkpt lat="60.117282015677" lon="21.54160202298">
        <ele>39.6</ele>
        <time>2017-07-26T17:01:27Z</time>
      </trkpt>
      <trkpt lat="60.11728176422" lon="21.541652482018">
        <ele>39.6</ele>
        <time>2017-07-26T17:01:28Z</time>
      </trkpt>
      <trkpt lat="60.11728176422" lon="21.541724985453">
        <ele>39.6</ele>
        <time>2017-07-26T17:01:29Z</time>
      </trkpt>
      <trkpt lat="60.1172834406" lon="21.541784245486">
        <ele>39.6</ele>
        <time>2017-07-26T17:01:30Z</time>
      </trkpt>
      <trkpt lat="60.117283775876" lon="21.541848786116">
        <ele>39.6</ele>
        <time>2017-07-26T17:01:31Z</time>
      </trkpt>
      <trkpt lat="60.117284865523" lon="21.541908968158">
        <ele>39.6</ele>
        <time>2017-07-26T17:01:32Z</time>
      </trkpt>
      <trkpt lat="60.117286290446" lon="21.541966300354">
        <ele>39.6</ele>
        <time>2017-07-26T17:01:33Z</time>
      </trkpt>
      <trkpt lat="60.117286290446" lon="21.542033523192">
        <ele>39.6</ele>
        <time>2017-07-26T17:01:34Z</time>
      </trkpt>
      <trkpt lat="60.11728763155" lon="21.542091693578">
        <ele>39.6</ele>
        <time>2017-07-26T17:01:35Z</time>
      </trkpt>
      <trkpt lat="60.117289810844" lon="21.542151288887">
        <ele>39.6</ele>
        <time>2017-07-26T17:01:36Z</time>
      </trkpt>
      <trkpt lat="60.117290062301" lon="21.542208956359">
        <ele>39.6</ele>
        <time>2017-07-26T17:01:37Z</time>
      </trkpt>
      <trkpt lat="60.117290565215" lon="21.542264779813">
        <ele>39.6</ele>
        <time>2017-07-26T17:01:38Z</time>
      </trkpt>
      <trkpt lat="60.117290481396" lon="21.542305096752">
        <ele>39.6</ele>
        <time>2017-07-26T17:01:39Z</time>
      </trkpt>
      <trkpt lat="60.11729098431" lon="21.542370727029">
        <ele>39.6</ele>
        <time>2017-07-26T17:01:40Z</time>
      </trkpt>
      <trkpt lat="60.117292493052" lon="21.542425544655">
        <ele>39.6</ele>
        <time>2017-07-26T17:01:41Z</time>
      </trkpt>
      <trkpt lat="60.117293247423" lon="21.542480613738">
        <ele>39.6</ele>
        <time>2017-07-26T17:01:42Z</time>
      </trkpt>
      <trkpt lat="60.117294253251" lon="21.542535599002">
        <ele>39.6</ele>
        <time>2017-07-26T17:01:43Z</time>
      </trkpt>
      <trkpt lat="60.117293331242" lon="21.542590835723">
        <ele>39.6</ele>
        <time>2017-07-26T17:01:44Z</time>
      </trkpt>
      <trkpt lat="60.117293750337" lon="21.542644647521">
        <ele>39.6</ele>
        <time>2017-07-26T17:01:45Z</time>
      </trkpt>
      <trkpt lat="60.117296432545" lon="21.542693430179">
        <ele>39.6</ele>
        <time>2017-07-26T17:01:46Z</time>
      </trkpt>
      <trkpt lat="60.117299533848" lon="21.542755707696">
        <ele>39.6</ele>
        <time>2017-07-26T17:01:47Z</time>
      </trkpt>
      <trkpt lat="60.117302132237" lon="21.542811782607">
        <ele>39.6</ele>
        <time>2017-07-26T17:01:48Z</time>
      </trkpt>
      <trkpt lat="60.117300791133" lon="21.542858637428">
        <ele>39.6</ele>
        <time>2017-07-26T17:01:49Z</time>
      </trkpt>
      <trkpt lat="60.117302635151" lon="21.542905576068">
        <ele>39.6</ele>
        <time>2017-07-26T17:01:50Z</time>
      </trkpt>
      <trkpt lat="60.117306323187" lon="21.542948910491">
        <ele>39.6</ele>
        <time>2017-07-26T17:01:51Z</time>
      </trkpt>
      <trkpt lat="60.117303054246" lon="21.543011774741">
        <ele>39.6</ele>
        <time>2017-07-26T17:01:52Z</time>
      </trkpt>
      <trkpt lat="60.117304479169" lon="21.543067095281">
        <ele>39.6</ele>
        <time>2017-07-26T17:01:53Z</time>
      </trkpt>
      <trkpt lat="60.117306323187" lon="21.543110345885">
        <ele>39.6</ele>
        <time>2017-07-26T17:01:54Z</time>
      </trkpt>
      <trkpt lat="60.117308083386" lon="21.543175808524">
        <ele>39.6</ele>
        <time>2017-07-26T17:01:55Z</time>
      </trkpt>
      <trkpt lat="60.117309508309" lon="21.543231296702">
        <ele>39.6</ele>
        <time>2017-07-26T17:01:56Z</time>
      </trkpt>
      <trkpt lat="60.117311519965" lon="21.543286868699">
        <ele>39.6</ele>
        <time>2017-07-26T17:01:57Z</time>
      </trkpt>
      <trkpt lat="60.117315040363" lon="21.543338165927">
        <ele>39.6</ele>
        <time>2017-07-26T17:01:58Z</time>
      </trkpt>
      <trkpt lat="60.117319231313" lon="21.543404550575">
        <ele>39.6</ele>
        <time>2017-07-26T17:01:59Z</time>
      </trkpt>
      <trkpt lat="60.117324595729" lon="21.543456350717">
        <ele>39.6</ele>
        <time>2017-07-26T17:02:00Z</time>
      </trkpt>
      <trkpt lat="60.117331468887" lon="21.543511587438">
        <ele>39.6</ele>
        <time>2017-07-26T17:02:01Z</time>
      </trkpt>
      <trkpt lat="60.117335492199" lon="21.543570512195">
        <ele>39.6</ele>
        <time>2017-07-26T17:02:02Z</time>
      </trkpt>
      <trkpt lat="60.117338425864" lon="21.543630107504">
        <ele>39.6</ele>
        <time>2017-07-26T17:02:03Z</time>
      </trkpt>
      <trkpt lat="60.117343119728" lon="21.543678973981">
        <ele>39.6</ele>
        <time>2017-07-26T17:02:04Z</time>
      </trkpt>
      <trkpt lat="60.117341108072" lon="21.543735635625">
        <ele>39.6</ele>
        <time>2017-07-26T17:02:05Z</time>
      </trkpt>
      <trkpt lat="60.117342449176" lon="21.543790117975">
        <ele>39.6</ele>
        <time>2017-07-26T17:02:06Z</time>
      </trkpt>
      <trkpt lat="60.117343622642" lon="21.543846109067">
        <ele>39.6</ele>
        <time>2017-07-26T17:02:07Z</time>
      </trkpt>
      <trkpt lat="60.117346137212" lon="21.543900004684">
        <ele>39.6</ele>
        <time>2017-07-26T17:02:08Z</time>
      </trkpt>
      <trkpt lat="60.117345801936" lon="21.54394895498">
        <ele>39.6</ele>
        <time>2017-07-26T17:02:09Z</time>
      </trkpt>
      <trkpt lat="60.117347310678" lon="21.544001509493">
        <ele>39.6</ele>
        <time>2017-07-26T17:02:10Z</time>
      </trkpt>
      <trkpt lat="60.117351585447" lon="21.544042496984">
        <ele>39.6</ele>
        <time>2017-07-26T17:02:11Z</time>
      </trkpt>
      <trkpt lat="60.117353261827" lon="21.544093039841">
        <ele>39.6</ele>
        <time>2017-07-26T17:02:12Z</time>
      </trkpt>
      <trkpt lat="60.11735552494" lon="21.544151713141">
        <ele>39.6</ele>
        <time>2017-07-26T17:02:13Z</time>
      </trkpt>
      <trkpt lat="60.117353261827" lon="21.544212817192">
        <ele>39.6</ele>
        <time>2017-07-26T17:02:14Z</time>
      </trkpt>
      <trkpt lat="60.117353513284" lon="21.54427165813">
        <ele>39.6</ele>
        <time>2017-07-26T17:02:15Z</time>
      </trkpt>
      <trkpt lat="60.11735384856" lon="21.544334857656">
        <ele>39.6</ele>
        <time>2017-07-26T17:02:16Z</time>
      </trkpt>
      <trkpt lat="60.117354770569" lon="21.544396716078">
        <ele>39.6</ele>
        <time>2017-07-26T17:02:17Z</time>
      </trkpt>
      <trkpt lat="60.117357536596" lon="21.544455976111">
        <ele>39.6</ele>
        <time>2017-07-26T17:02:18Z</time>
      </trkpt>
      <trkpt lat="60.117350998714" lon="21.544529066279">
        <ele>39.6</ele>
        <time>2017-07-26T17:02:19Z</time>
      </trkpt>
      <trkpt lat="60.117349573791" lon="21.544599138963">
        <ele>39.6</ele>
        <time>2017-07-26T17:02:20Z</time>
      </trkpt>
      <trkpt lat="60.117351501628" lon="21.544667786724">
        <ele>39.6</ele>
        <time>2017-07-26T17:02:21Z</time>
      </trkpt>
      <trkpt lat="60.117353345646" lon="21.544736350666">
        <ele>39.6</ele>
        <time>2017-07-26T17:02:22Z</time>
      </trkpt>
      <trkpt lat="60.117335659837" lon="21.544862498261">
        <ele>39</ele>
        <time>2017-07-26T17:02:24Z</time>
      </trkpt>
      <trkpt lat="60.117331385068" lon="21.544925613968">
        <ele>38.6</ele>
        <time>2017-07-26T17:02:25Z</time>
      </trkpt>
      <trkpt lat="60.117327110299" lon="21.544988478218">
        <ele>38</ele>
        <time>2017-07-26T17:02:26Z</time>
      </trkpt>
      <trkpt lat="60.117324260453" lon="21.545046480966">
        <ele>38</ele>
        <time>2017-07-26T17:02:27Z</time>
      </trkpt>
      <trkpt lat="60.117319901865" lon="21.545094928348">
        <ele>37.6</ele>
        <time>2017-07-26T17:02:28Z</time>
      </trkpt>
      <trkpt lat="60.117314118354" lon="21.545158882245">
        <ele>37.6</ele>
        <time>2017-07-26T17:02:29Z</time>
      </trkpt>
      <trkpt lat="60.117310514137" lon="21.545215962984">
        <ele>37.6</ele>
        <time>2017-07-26T17:02:30Z</time>
      </trkpt>
      <trkpt lat="60.117306323187" lon="21.545271870257">
        <ele>37.6</ele>
        <time>2017-07-26T17:02:31Z</time>
      </trkpt>
      <trkpt lat="60.117300707314" lon="21.545325179141">
        <ele>37.6</ele>
        <time>2017-07-26T17:02:32Z</time>
      </trkpt>
      <trkpt lat="60.117295761993" lon="21.545376057274">
        <ele>37.6</ele>
        <time>2017-07-26T17:02:33Z</time>
      </trkpt>
      <trkpt lat="60.117287883007" lon="21.545431880728">
        <ele>37.6</ele>
        <time>2017-07-26T17:02:34Z</time>
      </trkpt>
      <trkpt lat="60.117281093668" lon="21.545488626191">
        <ele>37.6</ele>
        <time>2017-07-26T17:02:35Z</time>
      </trkpt>
      <trkpt lat="60.117274136691" lon="21.545547215672">
        <ele>37.6</ele>
        <time>2017-07-26T17:02:36Z</time>
      </trkpt>
      <trkpt lat="60.117268185542" lon="21.545606308067">
        <ele>37.6</ele>
        <time>2017-07-26T17:02:37Z</time>
      </trkpt>
      <trkpt lat="60.117263407859" lon="21.545661628607">
        <ele>37.6</ele>
        <time>2017-07-26T17:02:38Z</time>
      </trkpt>
      <trkpt lat="60.117257959624" lon="21.545712255283">
        <ele>37.6</ele>
        <time>2017-07-26T17:02:39Z</time>
      </trkpt>
      <trkpt lat="60.117250415914" lon="21.545792805342">
        <ele>37.6</ele>
        <time>2017-07-26T17:02:40Z</time>
      </trkpt>
      <trkpt lat="60.117243291299" lon="21.545851478642">
        <ele>37.6</ele>
        <time>2017-07-26T17:02:41Z</time>
      </trkpt>
      <trkpt lat="60.117236166684" lon="21.545928508303">
        <ele>37.6</ele>
        <time>2017-07-26T17:02:42Z</time>
      </trkpt>
      <trkpt lat="60.117227198051" lon="21.545990869639">
        <ele>37.6</ele>
        <time>2017-07-26T17:02:43Z</time>
      </trkpt>
      <trkpt lat="60.117220157255" lon="21.546055410269">
        <ele>37.6</ele>
        <time>2017-07-26T17:02:44Z</time>
      </trkpt>
      <trkpt lat="60.117212110631" lon="21.546115257035">
        <ele>37.6</ele>
        <time>2017-07-26T17:02:45Z</time>
      </trkpt>
      <trkpt lat="60.117203309636" lon="21.546178456561">
        <ele>37.6</ele>
        <time>2017-07-26T17:02:46Z</time>
      </trkpt>
      <trkpt lat="60.117196520297" lon="21.54623637549">
        <ele>37.6</ele>
        <time>2017-07-26T17:02:47Z</time>
      </trkpt>
      <trkpt lat="60.117190988243" lon="21.546287337442">
        <ele>37.6</ele>
        <time>2017-07-26T17:02:48Z</time>
      </trkpt>
      <trkpt lat="60.117185623827" lon="21.546336706833">
        <ele>37.6</ele>
        <time>2017-07-26T17:02:49Z</time>
      </trkpt>
      <trkpt lat="60.117181265239" lon="21.546400325454">
        <ele>37.6</ele>
        <time>2017-07-26T17:02:50Z</time>
      </trkpt>
      <trkpt lat="60.117177074289" lon="21.546450197759">
        <ele>37.6</ele>
        <time>2017-07-26T17:02:51Z</time>
      </trkpt>
      <trkpt lat="60.117181432877" lon="21.546473918536">
        <ele>37.6</ele>
        <time>2017-07-26T17:02:52Z</time>
      </trkpt>
      <trkpt lat="60.117182271067" lon="21.546505937394">
        <ele>37.6</ele>
        <time>2017-07-26T17:02:53Z</time>
      </trkpt>
      <trkpt lat="60.117169279122" lon="21.546569807472">
        <ele>37.6</ele>
        <time>2017-07-26T17:02:54Z</time>
      </trkpt>
      <trkpt lat="60.117160645765" lon="21.546623451632">
        <ele>37.6</ele>
        <time>2017-07-26T17:02:55Z</time>
      </trkpt>
      <trkpt lat="60.117152180046" lon="21.546674162127">
        <ele>37.6</ele>
        <time>2017-07-26T17:02:56Z</time>
      </trkpt>
      <trkpt lat="60.117144887793" lon="21.546722693328">
        <ele>37.6</ele>
        <time>2017-07-26T17:02:57Z</time>
      </trkpt>
      <trkpt lat="60.117138266092" lon="21.546767285036">
        <ele>37.6</ele>
        <time>2017-07-26T17:02:58Z</time>
      </trkpt>
      <trkpt lat="60.117129381278" lon="21.546827802354">
        <ele>37.6</ele>
        <time>2017-07-26T17:02:59Z</time>
      </trkpt>
      <trkpt lat="60.117121502292" lon="21.546880440686">
        <ele>37.6</ele>
        <time>2017-07-26T17:03:00Z</time>
      </trkpt>
      <trkpt lat="60.117110186727" lon="21.546931821733">
        <ele>37.6</ele>
        <time>2017-07-26T17:03:01Z</time>
      </trkpt>
      <trkpt lat="60.117098116791" lon="21.546983370418">
        <ele>37.6</ele>
        <time>2017-07-26T17:03:02Z</time>
      </trkpt>
      <trkpt lat="60.117087220321" lon="21.54703014142">
        <ele>37.6</ele>
        <time>2017-07-26T17:03:03Z</time>
      </trkpt>
      <trkpt lat="60.117083280828" lon="21.547084204675">
        <ele>37.6</ele>
        <time>2017-07-26T17:03:04Z</time>
      </trkpt>
      <trkpt lat="60.117075988575" lon="21.547136423912">
        <ele>37.6</ele>
        <time>2017-07-26T17:03:05Z</time>
      </trkpt>
      <trkpt lat="60.117067439037" lon="21.54718772114">
        <ele>37.6</ele>
        <time>2017-07-26T17:03:06Z</time>
      </trkpt>
      <trkpt lat="60.11706048206" lon="21.54723633616">
        <ele>37.6</ele>
        <time>2017-07-26T17:03:07Z</time>
      </trkpt>
      <trkpt lat="60.117056961662" lon="21.547278413298">
        <ele>37.6</ele>
        <time>2017-07-26T17:03:08Z</time>
      </trkpt>
      <trkpt lat="60.117050004685" lon="21.547320406617">
        <ele>37.6</ele>
        <time>2017-07-26T17:03:09Z</time>
      </trkpt>
      <trkpt lat="60.117040784595" lon="21.547373128768">
        <ele>37.6</ele>
        <time>2017-07-26T17:03:10Z</time>
      </trkpt>
      <trkpt lat="60.117038353844" lon="21.547417971933">
        <ele>37.6</ele>
        <time>2017-07-26T17:03:11Z</time>
      </trkpt>
      <trkpt lat="60.117034665808" lon="21.547463150374">
        <ele>37.6</ele>
        <time>2017-07-26T17:03:12Z</time>
      </trkpt>
      <trkpt lat="60.117030474858" lon="21.547501874752">
        <ele>37.6</ele>
        <time>2017-07-26T17:03:13Z</time>
      </trkpt>
      <trkpt lat="60.11702108713" lon="21.547561470061">
        <ele>37.6</ele>
        <time>2017-07-26T17:03:14Z</time>
      </trkpt>
      <trkpt lat="60.117014465429" lon="21.547605558855">
        <ele>37.6</ele>
        <time>2017-07-26T17:03:15Z</time>
      </trkpt>
      <trkpt lat="60.117004993882" lon="21.547658448644">
        <ele>37.6</ele>
        <time>2017-07-26T17:03:16Z</time>
      </trkpt>
      <trkpt lat="60.116998707457" lon="21.54770572256">
        <ele>37.6</ele>
        <time>2017-07-26T17:03:17Z</time>
      </trkpt>
      <trkpt lat="60.11699594143" lon="21.547751068639">
        <ele>37.6</ele>
        <time>2017-07-26T17:03:18Z</time>
      </trkpt>
      <trkpt lat="60.116980686372" lon="21.547806808274">
        <ele>37.6</ele>
        <time>2017-07-26T17:03:19Z</time>
      </trkpt>
      <trkpt lat="60.116972891205" lon="21.547853495457">
        <ele>37.6</ele>
        <time>2017-07-26T17:03:20Z</time>
      </trkpt>
      <trkpt lat="60.116968364979" lon="21.547892387473">
        <ele>37.6</ele>
        <time>2017-07-26T17:03:21Z</time>
      </trkpt>
      <trkpt lat="60.116958390518" lon="21.547940667217">
        <ele>37.6</ele>
        <time>2017-07-26T17:03:22Z</time>
      </trkpt>
      <trkpt lat="60.116953696654" lon="21.547977463758">
        <ele>37.6</ele>
        <time>2017-07-26T17:03:23Z</time>
      </trkpt>
      <trkpt lat="60.116942800184" lon="21.548044602777">
        <ele>37.6</ele>
        <time>2017-07-26T17:03:24Z</time>
      </trkpt>
      <trkpt lat="60.116935927026" lon="21.548093888349">
        <ele>37.6</ele>
        <time>2017-07-26T17:03:25Z</time>
      </trkpt>
      <trkpt lat="60.116928550954" lon="21.548145017939">
        <ele>37.6</ele>
        <time>2017-07-26T17:03:26Z</time>
      </trkpt>
      <trkpt lat="60.116922767443" lon="21.548193465321">
        <ele>37.6</ele>
        <time>2017-07-26T17:03:27Z</time>
      </trkpt>
      <trkpt lat="60.116912625344" lon="21.548241577427">
        <ele>37.6</ele>
        <time>2017-07-26T17:03:28Z</time>
      </trkpt>
      <trkpt lat="60.11690122596" lon="21.54829413194">
        <ele>37.6</ele>
        <time>2017-07-26T17:03:29Z</time>
      </trkpt>
      <trkpt lat="60.116887982558" lon="21.548360013674">
        <ele>37.6</ele>
        <time>2017-07-26T17:03:30Z</time>
      </trkpt>
      <trkpt lat="60.116876415536" lon="21.548416088585">
        <ele>37.6</ele>
        <time>2017-07-26T17:03:31Z</time>
      </trkpt>
      <trkpt lat="60.116865938161" lon="21.548471492944">
        <ele>37.6</ele>
        <time>2017-07-26T17:03:32Z</time>
      </trkpt>
      <trkpt lat="60.116857891537" lon="21.548521951982">
        <ele>37.6</ele>
        <time>2017-07-26T17:03:33Z</time>
      </trkpt>
      <trkpt lat="60.116843977583" lon="21.548585989698">
        <ele>37.6</ele>
        <time>2017-07-26T17:03:34Z</time>
      </trkpt>
      <trkpt lat="60.116832662018" lon="21.548644411541">
        <ele>37.6</ele>
        <time>2017-07-26T17:03:35Z</time>
      </trkpt>
      <trkpt lat="60.11682159791" lon="21.548698642434">
        <ele>37.6</ele>
        <time>2017-07-26T17:03:36Z</time>
      </trkpt>
      <trkpt lat="60.116810869078" lon="21.548754884983">
        <ele>37.6</ele>
        <time>2017-07-26T17:03:37Z</time>
      </trkpt>
      <trkpt lat="60.116802068083" lon="21.548808110048">
        <ele>37.6</ele>
        <time>2017-07-26T17:03:38Z</time>
      </trkpt>
      <trkpt lat="60.11679226126" lon="21.548854294317">
        <ele>37.6</ele>
        <time>2017-07-26T17:03:39Z</time>
      </trkpt>
      <trkpt lat="60.116777760573" lon="21.548915901282">
        <ele>37.6</ele>
        <time>2017-07-26T17:03:40Z</time>
      </trkpt>
      <trkpt lat="60.116768037569" lon="21.548971305641">
        <ele>37.6</ele>
        <time>2017-07-26T17:03:41Z</time>
      </trkpt>
      <trkpt lat="60.116758901298" lon="21.54902671">
        <ele>37.6</ele>
        <time>2017-07-26T17:03:42Z</time>
      </trkpt>
      <trkpt lat="60.116751860502" lon="21.549080270341">
        <ele>37.6</ele>
        <time>2017-07-26T17:03:43Z</time>
      </trkpt>
      <trkpt lat="60.116743227145" lon="21.549126538429">
        <ele>37.6</ele>
        <time>2017-07-26T17:03:44Z</time>
      </trkpt>
      <trkpt lat="60.116731576304" lon="21.549181691331">
        <ele>37.6</ele>
        <time>2017-07-26T17:03:45Z</time>
      </trkpt>
      <trkpt lat="60.116720009282" lon="21.549245142314">
        <ele>37.6</ele>
        <time>2017-07-26T17:03:46Z</time>
      </trkpt>
      <trkpt lat="60.11671095683" lon="21.549303731795">
        <ele>37.6</ele>
        <time>2017-07-26T17:03:47Z</time>
      </trkpt>
      <trkpt lat="60.116703832215" lon="21.54935947143">
        <ele>37.6</ele>
        <time>2017-07-26T17:03:48Z</time>
      </trkpt>
      <trkpt lat="60.116686900777" lon="21.549412109762">
        <ele>37.6</ele>
        <time>2017-07-26T17:03:49Z</time>
      </trkpt>
      <trkpt lat="60.116676423402" lon="21.549469106682">
        <ele>37.6</ele>
        <time>2017-07-26T17:03:50Z</time>
      </trkpt>
      <trkpt lat="60.116666700398" lon="21.549523589032">
        <ele>37.6</ele>
        <time>2017-07-26T17:03:51Z</time>
      </trkpt>
      <trkpt lat="60.116657983222" lon="21.549575556812">
        <ele>37.6</ele>
        <time>2017-07-26T17:03:52Z</time>
      </trkpt>
      <trkpt lat="60.116649182227" lon="21.549631966999">
        <ele>37.6</ele>
        <time>2017-07-26T17:03:53Z</time>
      </trkpt>
      <trkpt lat="60.116636106463" lon="21.549695250344">
        <ele>37.6</ele>
        <time>2017-07-26T17:03:54Z</time>
      </trkpt>
      <trkpt lat="60.11662713783" lon="21.54974839159">
        <ele>37.6</ele>
        <time>2017-07-26T17:03:55Z</time>
      </trkpt>
      <trkpt lat="60.116617331007" lon="21.54980371213">
        <ele>37.6</ele>
        <time>2017-07-26T17:03:56Z</time>
      </trkpt>
      <trkpt lat="60.116608027098" lon="21.549858865032">
        <ele>37.6</ele>
        <time>2017-07-26T17:03:57Z</time>
      </trkpt>
      <trkpt lat="60.116598136456" lon="21.549908737337">
        <ele>37.6</ele>
        <time>2017-07-26T17:03:58Z</time>
      </trkpt>
      <trkpt lat="60.116586737072" lon="21.549967410637">
        <ele>37.6</ele>
        <time>2017-07-26T17:03:59Z</time>
      </trkpt>
      <trkpt lat="60.116577097887" lon="21.550018372589">
        <ele>37.6</ele>
        <time>2017-07-26T17:04:00Z</time>
      </trkpt>
      <trkpt lat="60.116567458702" lon="21.550071765292">
        <ele>37.6</ele>
        <time>2017-07-26T17:04:01Z</time>
      </trkpt>
      <trkpt lat="60.11655840625" lon="21.55012138614">
        <ele>37.6</ele>
        <time>2017-07-26T17:04:02Z</time>
      </trkpt>
      <trkpt lat="60.116550527264" lon="21.550172096635">
        <ele>37.6</ele>
        <time>2017-07-26T17:04:03Z</time>
      </trkpt>
      <trkpt lat="60.116541893907" lon="21.550217358895">
        <ele>37.6</ele>
        <time>2017-07-26T17:04:04Z</time>
      </trkpt>
      <trkpt lat="60.116534769292" lon="21.550269997227">
        <ele>37.6</ele>
        <time>2017-07-26T17:04:05Z</time>
      </trkpt>
      <trkpt lat="60.116527225582" lon="21.550322719378">
        <ele>37.6</ele>
        <time>2017-07-26T17:04:06Z</time>
      </trkpt>
      <trkpt lat="60.116519095139" lon="21.550379381022">
        <ele>37.6</ele>
        <time>2017-07-26T17:04:07Z</time>
      </trkpt>
      <trkpt lat="60.116511551429" lon="21.550431181164">
        <ele>37.6</ele>
        <time>2017-07-26T17:04:08Z</time>
      </trkpt>
      <trkpt lat="60.116506019375" lon="21.550463870574">
        <ele>37.6</ele>
        <time>2017-07-26T17:04:09Z</time>
      </trkpt>
      <trkpt lat="60.116494368534" lon="21.550531344869">
        <ele>37.6</ele>
        <time>2017-07-26T17:04:10Z</time>
      </trkpt>
      <trkpt lat="60.116490261403" lon="21.550573338188">
        <ele>37.6</ele>
        <time>2017-07-26T17:04:11Z</time>
      </trkpt>
      <trkpt lat="60.116486657186" lon="21.550614158041">
        <ele>37.6</ele>
        <time>2017-07-26T17:04:12Z</time>
      </trkpt>
      <trkpt lat="60.11648296915" lon="21.55065531317">
        <ele>37.6</ele>
        <time>2017-07-26T17:04:13Z</time>
      </trkpt>
      <trkpt lat="60.116475257802" lon="21.550695965385">
        <ele>37.6</ele>
        <time>2017-07-26T17:04:14Z</time>
      </trkpt>
      <trkpt lat="60.116469474291" lon="21.550734354487">
        <ele>37.6</ele>
        <time>2017-07-26T17:04:15Z</time>
      </trkpt>
      <trkpt lat="60.116462684952" lon="21.550783053326">
        <ele>37.6</ele>
        <time>2017-07-26T17:04:16Z</time>
      </trkpt>
      <trkpt lat="60.1164536325" lon="21.55084642049">
        <ele>37.6</ele>
        <time>2017-07-26T17:04:17Z</time>
      </trkpt>
      <trkpt lat="60.116448268084" lon="21.550902411582">
        <ele>37.6</ele>
        <time>2017-07-26T17:04:18Z</time>
      </trkpt>
      <trkpt lat="60.116444747686" lon="21.550950523688">
        <ele>37.6</ele>
        <time>2017-07-26T17:04:19Z</time>
      </trkpt>
      <trkpt lat="60.116438209804" lon="21.550994277206">
        <ele>37.6</ele>
        <time>2017-07-26T17:04:20Z</time>
      </trkpt>
      <trkpt lat="60.116431923379" lon="21.551031911937">
        <ele>37.6</ele>
        <time>2017-07-26T17:04:21Z</time>
      </trkpt>
      <trkpt lat="60.116416416864" lon="21.551094943825">
        <ele>37.6</ele>
        <time>2017-07-26T17:04:22Z</time>
      </trkpt>
      <trkpt lat="60.11640585567" lon="21.551143391207">
        <ele>37.6</ele>
        <time>2017-07-26T17:04:23Z</time>
      </trkpt>
      <trkpt lat="60.116404682204" lon="21.551185216888">
        <ele>37.6</ele>
        <time>2017-07-26T17:04:24Z</time>
      </trkpt>
      <trkpt lat="60.116397306132" lon="21.551235424469">
        <ele>37.6</ele>
        <time>2017-07-26T17:04:25Z</time>
      </trkpt>
      <trkpt lat="60.116393366639" lon="21.551269790259">
        <ele>37.6</ele>
        <time>2017-07-26T17:04:26Z</time>
      </trkpt>
      <trkpt lat="60.116392109354" lon="21.551296863796">
        <ele>37.6</ele>
        <time>2017-07-26T17:04:27Z</time>
      </trkpt>
      <trkpt lat="60.11638490092" lon="21.551344472988">
        <ele>37.6</ele>
        <time>2017-07-26T17:04:28Z</time>
      </trkpt>
      <trkpt lat="60.116378865952" lon="21.551401637546">
        <ele>37.6</ele>
        <time>2017-07-26T17:04:29Z</time>
      </trkpt>
      <trkpt lat="60.116372076613" lon="21.551448492367">
        <ele>37.6</ele>
        <time>2017-07-26T17:04:30Z</time>
      </trkpt>
      <trkpt lat="60.116362688885" lon="21.551498029396">
        <ele>37.6</ele>
        <time>2017-07-26T17:04:31Z</time>
      </trkpt>
      <trkpt lat="60.11635388789" lon="21.551547398787">
        <ele>37.6</ele>
        <time>2017-07-26T17:04:32Z</time>
      </trkpt>
      <trkpt lat="60.11634634418" lon="21.551593331599">
        <ele>37.6</ele>
        <time>2017-07-26T17:04:33Z</time>
      </trkpt>
      <trkpt lat="60.116337878461" lon="21.551651837261">
        <ele>37.8</ele>
        <time>2017-07-26T17:04:34Z</time>
      </trkpt>
      <trkpt lat="60.116331089122" lon="21.55170724162">
        <ele>38.2</ele>
        <time>2017-07-26T17:04:35Z</time>
      </trkpt>
      <trkpt lat="60.11632706581" lon="21.551755437545">
        <ele>38.6</ele>
        <time>2017-07-26T17:04:36Z</time>
      </trkpt>
      <trkpt lat="60.116321701394" lon="21.551808830248">
        <ele>39</ele>
        <time>2017-07-26T17:04:37Z</time>
      </trkpt>
      <trkpt lat="60.116318767729" lon="21.551856355621">
        <ele>39.2</ele>
        <time>2017-07-26T17:04:38Z</time>
      </trkpt>
      <trkpt lat="60.116308206535" lon="21.551909161591">
        <ele>39.6</ele>
        <time>2017-07-26T17:04:39Z</time>
      </trkpt>
      <trkpt lat="60.1162943764" lon="21.551960542638">
        <ele>39.6</ele>
        <time>2017-07-26T17:04:40Z</time>
      </trkpt>
      <trkpt lat="60.116285910681" lon="21.552013097151">
        <ele>39.6</ele>
        <time>2017-07-26T17:04:41Z</time>
      </trkpt>
      <trkpt lat="60.116280713903" lon="21.552061460714">
        <ele>39.6</ele>
        <time>2017-07-26T17:04:42Z</time>
      </trkpt>
      <trkpt lat="60.116280462446" lon="21.55210119092">
        <ele>39.6</ele>
        <time>2017-07-26T17:04:43Z</time>
      </trkpt>
      <trkpt lat="60.116271326175" lon="21.552157684926">
        <ele>39.6</ele>
        <time>2017-07-26T17:04:44Z</time>
      </trkpt>
      <trkpt lat="60.116268560148" lon="21.552197918046">
        <ele>39.6</ele>
        <time>2017-07-26T17:04:45Z</time>
      </trkpt>
      <trkpt lat="60.116259507696" lon="21.552243347944">
        <ele>39.6</ele>
        <time>2017-07-26T17:04:46Z</time>
      </trkpt>
      <trkpt lat="60.116254897651" lon="21.552290705679">
        <ele>39.6</ele>
        <time>2017-07-26T17:04:47Z</time>
      </trkpt>
      <trkpt lat="60.116255149108" lon="21.552334794473">
        <ele>39.6</ele>
        <time>2017-07-26T17:04:48Z</time>
      </trkpt>
      <trkpt lat="60.116242157163" lon="21.5523878519">
        <ele>39.6</ele>
        <time>2017-07-26T17:04:49Z</time>
      </trkpt>
      <trkpt lat="60.116234278177" lon="21.552436550739">
        <ele>39.6</ele>
        <time>2017-07-26T17:04:50Z</time>
      </trkpt>
      <trkpt lat="60.116230422503" lon="21.552479885162">
        <ele>39.6</ele>
        <time>2017-07-26T17:04:51Z</time>
      </trkpt>
      <trkpt lat="60.116223297888" lon="21.552528164906">
        <ele>39.6</ele>
        <time>2017-07-26T17:04:52Z</time>
      </trkpt>
      <trkpt lat="60.116224219897" lon="21.552569320035">
        <ele>39.6</ele>
        <time>2017-07-26T17:04:53Z</time>
      </trkpt>
      <trkpt lat="60.116215670359" lon="21.552630256448">
        <ele>39.6</ele>
        <time>2017-07-26T17:04:54Z</time>
      </trkpt>
      <trkpt lat="60.116212401418" lon="21.552683230056">
        <ele>39.6</ele>
        <time>2017-07-26T17:04:55Z</time>
      </trkpt>
      <trkpt lat="60.116207959011" lon="21.552736622759">
        <ele>39.6</ele>
        <time>2017-07-26T17:04:56Z</time>
      </trkpt>
      <trkpt lat="60.116203181328" lon="21.552789512548">
        <ele>39.6</ele>
        <time>2017-07-26T17:04:57Z</time>
      </trkpt>
      <trkpt lat="60.116198319826" lon="21.552834355713">
        <ele>39.6</ele>
        <time>2017-07-26T17:04:58Z</time>
      </trkpt>
      <trkpt lat="60.116194045057" lon="21.552894202479">
        <ele>39.6</ele>
        <time>2017-07-26T17:04:59Z</time>
      </trkpt>
      <trkpt lat="60.116186501347" lon="21.552944745336">
        <ele>39.6</ele>
        <time>2017-07-26T17:05:00Z</time>
      </trkpt>
      <trkpt lat="60.116177448895" lon="21.552997048392">
        <ele>39.6</ele>
        <time>2017-07-26T17:05:01Z</time>
      </trkpt>
      <trkpt lat="60.116170408099" lon="21.553047926525">
        <ele>39.6</ele>
        <time>2017-07-26T17:05:02Z</time>
      </trkpt>
      <trkpt lat="60.116165043683" lon="21.553094948984">
        <ele>39.6</ele>
        <time>2017-07-26T17:05:03Z</time>
      </trkpt>
      <trkpt lat="60.116163367303" lon="21.553131158792">
        <ele>39.6</ele>
        <time>2017-07-26T17:05:04Z</time>
      </trkpt>
      <trkpt lat="60.116153895756" lon="21.553195615603">
        <ele>39.6</ele>
        <time>2017-07-26T17:05:05Z</time>
      </trkpt>
      <trkpt lat="60.116148112245" lon="21.553248002478">
        <ele>39.6</ele>
        <time>2017-07-26T17:05:06Z</time>
      </trkpt>
      <trkpt lat="60.116141993458" lon="21.55329980262">
        <ele>39.6</ele>
        <time>2017-07-26T17:05:07Z</time>
      </trkpt>
      <trkpt lat="60.116138389241" lon="21.553347327993">
        <ele>39.6</ele>
        <time>2017-07-26T17:05:08Z</time>
      </trkpt>
      <trkpt lat="60.116135204119" lon="21.55339535628">
        <ele>39.6</ele>
        <time>2017-07-26T17:05:09Z</time>
      </trkpt>
      <trkpt lat="60.116126319305" lon="21.553459561634">
        <ele>39.6</ele>
        <time>2017-07-26T17:05:10Z</time>
      </trkpt>
      <trkpt lat="60.116120954889" lon="21.553514714536">
        <ele>39.6</ele>
        <time>2017-07-26T17:05:11Z</time>
      </trkpt>
      <trkpt lat="60.116115758111" lon="21.553566766135">
        <ele>39.6</ele>
        <time>2017-07-26T17:05:12Z</time>
      </trkpt>
      <trkpt lat="60.116111734799" lon="21.55361663844">
        <ele>39.6</ele>
        <time>2017-07-26T17:05:13Z</time>
      </trkpt>
      <trkpt lat="60.116106957116" lon="21.553667181297">
        <ele>39.6</ele>
        <time>2017-07-26T17:05:14Z</time>
      </trkpt>
      <trkpt lat="60.116104023451" lon="21.553711940643">
        <ele>39.6</ele>
        <time>2017-07-26T17:05:15Z</time>
      </trkpt>
      <trkpt lat="60.116098994311" lon="21.553768769925">
        <ele>39.6</ele>
        <time>2017-07-26T17:05:16Z</time>
      </trkpt>
      <trkpt lat="60.116095222456" lon="21.553823168456">
        <ele>39.6</ele>
        <time>2017-07-26T17:05:17Z</time>
      </trkpt>
      <trkpt lat="60.116092204972" lon="21.553875722969">
        <ele>39.6</ele>
        <time>2017-07-26T17:05:18Z</time>
      </trkpt>
      <trkpt lat="60.116083403977" lon="21.553925679093">
        <ele>39.6</ele>
        <time>2017-07-26T17:05:19Z</time>
      </trkpt>
      <trkpt lat="60.116079045389" lon="21.553975970493">
        <ele>39.6</ele>
        <time>2017-07-26T17:05:20Z</time>
      </trkpt>
      <trkpt lat="60.116076363181" lon="21.554026764807">
        <ele>39.6</ele>
        <time>2017-07-26T17:05:21Z</time>
      </trkpt>
      <trkpt lat="60.116071669317" lon="21.554081498614">
        <ele>39.6</ele>
        <time>2017-07-26T17:05:22Z</time>
      </trkpt>
      <trkpt lat="60.116069657661" lon="21.554134053127">
        <ele>39.6</ele>
        <time>2017-07-26T17:05:23Z</time>
      </trkpt>
      <trkpt lat="60.116066472539" lon="21.554184176889">
        <ele>39.6</ele>
        <time>2017-07-26T17:05:24Z</time>
      </trkpt>
      <trkpt lat="60.11606303596" lon="21.554237150497">
        <ele>39.6</ele>
        <time>2017-07-26T17:05:25Z</time>
      </trkpt>
      <trkpt lat="60.116059347924" lon="21.554292722494">
        <ele>39.6</ele>
        <time>2017-07-26T17:05:26Z</time>
      </trkpt>
      <trkpt lat="60.11605633044" lon="21.554345612283">
        <ele>39.6</ele>
        <time>2017-07-26T17:05:27Z</time>
      </trkpt>
      <trkpt lat="60.116053061499" lon="21.554392718561">
        <ele>39.6</ele>
        <time>2017-07-26T17:05:28Z</time>
      </trkpt>
      <trkpt lat="60.116048954368" lon="21.554456421001">
        <ele>39.6</ele>
        <time>2017-07-26T17:05:29Z</time>
      </trkpt>
      <trkpt lat="60.116043673771" lon="21.554511154808">
        <ele>39.6</ele>
        <time>2017-07-26T17:05:30Z</time>
      </trkpt>
      <trkpt lat="60.116039650459" lon="21.55457049866">
        <ele>39.6</ele>
        <time>2017-07-26T17:05:31Z</time>
      </trkpt>
      <trkpt lat="60.116036632975" lon="21.554633530548">
        <ele>39.6</ele>
        <time>2017-07-26T17:05:32Z</time>
      </trkpt>
      <trkpt lat="60.116033950767" lon="21.554692455305">
        <ele>39.6</ele>
        <time>2017-07-26T17:05:33Z</time>
      </trkpt>
      <trkpt lat="60.116034621319" lon="21.554748446397">
        <ele>39.6</ele>
        <time>2017-07-26T17:05:34Z</time>
      </trkpt>
      <trkpt lat="60.116032442025" lon="21.554802342014">
        <ele>39.6</ele>
        <time>2017-07-26T17:05:35Z</time>
      </trkpt>
      <trkpt lat="60.116030514188" lon="21.554855399441">
        <ele>39.6</ele>
        <time>2017-07-26T17:05:36Z</time>
      </trkpt>
      <trkpt lat="60.116028502532" lon="21.554910049429">
        <ele>39.6</ele>
        <time>2017-07-26T17:05:37Z</time>
      </trkpt>
      <trkpt lat="60.116026574695" lon="21.554964028865">
        <ele>39.6</ele>
        <time>2017-07-26T17:05:38Z</time>
      </trkpt>
      <trkpt lat="60.11602447922" lon="21.555010716048">
        <ele>39.6</ele>
        <time>2017-07-26T17:05:39Z</time>
      </trkpt>
      <trkpt lat="60.116024143944" lon="21.555071903918">
        <ele>39.6</ele>
        <time>2017-07-26T17:05:40Z</time>
      </trkpt>
      <trkpt lat="60.116025485048" lon="21.555124709888">
        <ele>39.6</ele>
        <time>2017-07-26T17:05:41Z</time>
      </trkpt>
      <trkpt lat="60.116023221935" lon="21.55518405374">
        <ele>39.6</ele>
        <time>2017-07-26T17:05:42Z</time>
      </trkpt>
      <trkpt lat="60.116022216107" lon="21.555242643221">
        <ele>39.6</ele>
        <time>2017-07-26T17:05:43Z</time>
      </trkpt>
      <trkpt lat="60.116017438424" lon="21.555314392285">
        <ele>39.6</ele>
        <time>2017-07-26T17:05:44Z</time>
      </trkpt>
      <trkpt lat="60.116016600234" lon="21.555377507992">
        <ele>39.6</ele>
        <time>2017-07-26T17:05:45Z</time>
      </trkpt>
      <trkpt lat="60.116009224162" lon="21.555451352531">
        <ele>39.6</ele>
        <time>2017-07-26T17:05:46Z</time>
      </trkpt>
      <trkpt lat="60.116004781755" lon="21.555523772147">
        <ele>39.6</ele>
        <time>2017-07-26T17:05:47Z</time>
      </trkpt>
      <trkpt lat="60.116002015728" lon="21.555591162623">
        <ele>39.6</ele>
        <time>2017-07-26T17:05:48Z</time>
      </trkpt>
      <trkpt lat="60.115998830606" lon="21.555658720737">
        <ele>39.6</ele>
        <time>2017-07-26T17:05:49Z</time>
      </trkpt>
      <trkpt lat="60.115996064579" lon="21.555721836444">
        <ele>39.6</ele>
        <time>2017-07-26T17:05:50Z</time>
      </trkpt>
      <trkpt lat="60.115994807294" lon="21.555780928839">
        <ele>39.6</ele>
        <time>2017-07-26T17:05:51Z</time>
      </trkpt>
      <trkpt lat="60.115989610516" lon="21.555841781433">
        <ele>39.6</ele>
        <time>2017-07-26T17:05:52Z</time>
      </trkpt>
      <trkpt lat="60.115987766498" lon="21.555898107801">
        <ele>39.6</ele>
        <time>2017-07-26T17:05:53Z</time>
      </trkpt>
      <trkpt lat="60.115982485901" lon="21.555968180485">
        <ele>39.6</ele>
        <time>2017-07-26T17:05:54Z</time>
      </trkpt>
      <trkpt lat="60.115977121485" lon="21.556032637296">
        <ele>39.6</ele>
        <time>2017-07-26T17:05:55Z</time>
      </trkpt>
      <trkpt lat="60.115970415965" lon="21.556095669184">
        <ele>39.6</ele>
        <time>2017-07-26T17:05:56Z</time>
      </trkpt>
      <trkpt lat="60.115966560291" lon="21.556155264493">
        <ele>39.6</ele>
        <time>2017-07-26T17:05:57Z</time>
      </trkpt>
      <trkpt lat="60.115964632454" lon="21.556217793467">
        <ele>39.6</ele>
        <time>2017-07-26T17:05:58Z</time>
      </trkpt>
      <trkpt lat="60.115958765124" lon="21.556285938314">
        <ele>39.6</ele>
        <time>2017-07-26T17:05:59Z</time>
      </trkpt>
      <trkpt lat="60.115953735984" lon="21.556347712917">
        <ele>39.6</ele>
        <time>2017-07-26T17:06:00Z</time>
      </trkpt>
      <trkpt lat="60.115948790663" lon="21.556410828624">
        <ele>39.6</ele>
        <time>2017-07-26T17:06:01Z</time>
      </trkpt>
      <trkpt lat="60.115944180618" lon="21.556474111969">
        <ele>39.6</ele>
        <time>2017-07-26T17:06:02Z</time>
      </trkpt>
      <trkpt lat="60.115941833686" lon="21.556537227676">
        <ele>39.6</ele>
        <time>2017-07-26T17:06:03Z</time>
      </trkpt>
      <trkpt lat="60.115937726555" lon="21.556603863781">
        <ele>39.6</ele>
        <time>2017-07-26T17:06:04Z</time>
      </trkpt>
      <trkpt lat="60.115935044347" lon="21.556667230945">
        <ele>39.6</ele>
        <time>2017-07-26T17:06:05Z</time>
      </trkpt>
      <trkpt lat="60.11593144013" lon="21.556730681928">
        <ele>39.6</ele>
        <time>2017-07-26T17:06:06Z</time>
      </trkpt>
      <trkpt lat="60.11592892556" lon="21.556791953617">
        <ele>39.6</ele>
        <time>2017-07-26T17:06:07Z</time>
      </trkpt>
      <trkpt lat="60.115927500637" lon="21.556851381288">
        <ele>39.6</ele>
        <time>2017-07-26T17:06:08Z</time>
      </trkpt>
      <trkpt lat="60.115923728782" lon="21.556908294389">
        <ele>39.6</ele>
        <time>2017-07-26T17:06:09Z</time>
      </trkpt>
      <trkpt lat="60.115922136221" lon="21.556980211091">
        <ele>39.6</ele>
        <time>2017-07-26T17:06:10Z</time>
      </trkpt>
      <trkpt lat="60.115921046574" lon="21.557041650418">
        <ele>39.6</ele>
        <time>2017-07-26T17:06:11Z</time>
      </trkpt>
      <trkpt lat="60.115919621651" lon="21.55710183246">
        <ele>39.6</ele>
        <time>2017-07-26T17:06:12Z</time>
      </trkpt>
      <trkpt lat="60.115918448185" lon="21.55715966757">
        <ele>39.6</ele>
        <time>2017-07-26T17:06:13Z</time>
      </trkpt>
      <trkpt lat="60.115914760149" lon="21.557216161576">
        <ele>39.6</ele>
        <time>2017-07-26T17:06:14Z</time>
      </trkpt>
      <trkpt lat="60.115911910303" lon="21.557271398297">
        <ele>39.6</ele>
        <time>2017-07-26T17:06:15Z</time>
      </trkpt>
      <trkpt lat="60.115909395733" lon="21.557328059941">
        <ele>39.6</ele>
        <time>2017-07-26T17:06:16Z</time>
      </trkpt>
      <trkpt lat="60.11590713262" lon="21.557387068517">
        <ele>39.6</ele>
        <time>2017-07-26T17:06:17Z</time>
      </trkpt>
      <trkpt lat="60.115905540059" lon="21.557444149256">
        <ele>39.6</ele>
        <time>2017-07-26T17:06:18Z</time>
      </trkpt>
      <trkpt lat="60.115903528403" lon="21.557497877235">
        <ele>39.6</ele>
        <time>2017-07-26T17:06:19Z</time>
      </trkpt>
      <trkpt lat="60.115902774032" lon="21.557551521395">
        <ele>39.6</ele>
        <time>2017-07-26T17:06:20Z</time>
      </trkpt>
      <trkpt lat="60.115902438756" lon="21.557603656813">
        <ele>39.6</ele>
        <time>2017-07-26T17:06:21Z</time>
      </trkpt>
      <trkpt lat="60.115903109308" lon="21.557653529118">
        <ele>39.6</ele>
        <time>2017-07-26T17:06:22Z</time>
      </trkpt>
      <trkpt lat="60.11590126529" lon="21.557705748355">
        <ele>39.6</ele>
        <time>2017-07-26T17:06:23Z</time>
      </trkpt>
      <trkpt lat="60.115899085996" lon="21.557763415827">
        <ele>39.6</ele>
        <time>2017-07-26T17:06:24Z</time>
      </trkpt>
      <trkpt lat="60.115896739064" lon="21.557814880693">
        <ele>39.6</ele>
        <time>2017-07-26T17:06:25Z</time>
      </trkpt>
      <trkpt lat="60.115893051028" lon="21.55786542355">
        <ele>39.6</ele>
        <time>2017-07-26T17:06:26Z</time>
      </trkpt>
      <trkpt lat="60.11589120701" lon="21.557916720778">
        <ele>39.6</ele>
        <time>2017-07-26T17:06:27Z</time>
      </trkpt>
      <trkpt lat="60.115889782087" lon="21.557963994694">
        <ele>39.6</ele>
        <time>2017-07-26T17:06:28Z</time>
      </trkpt>
      <trkpt lat="60.115884250033" lon="21.558018896139">
        <ele>39.6</ele>
        <time>2017-07-26T17:06:29Z</time>
      </trkpt>
      <trkpt lat="60.115880813454" lon="21.558066170055">
        <ele>39.6</ele>
        <time>2017-07-26T17:06:30Z</time>
      </trkpt>
      <trkpt lat="60.115877041599" lon="21.55811688055">
        <ele>39.6</ele>
        <time>2017-07-26T17:06:31Z</time>
      </trkpt>
      <trkpt lat="60.115874107934" lon="21.558168764511">
        <ele>39.6</ele>
        <time>2017-07-26T17:06:32Z</time>
      </trkpt>
      <trkpt lat="60.115872515373" lon="21.558220145558">
        <ele>39.6</ele>
        <time>2017-07-26T17:06:33Z</time>
      </trkpt>
      <trkpt lat="60.115870336079" lon="21.558270604596">
        <ele>39.6</ele>
        <time>2017-07-26T17:06:34Z</time>
      </trkpt>
      <trkpt lat="60.115867318595" lon="21.558322740014">
        <ele>39.6</ele>
        <time>2017-07-26T17:06:35Z</time>
      </trkpt>
      <trkpt lat="60.11586438493" lon="21.558375210708">
        <ele>39.6</ele>
        <time>2017-07-26T17:06:36Z</time>
      </trkpt>
      <trkpt lat="60.115862960007" lon="21.558427094669">
        <ele>39.6</ele>
        <time>2017-07-26T17:06:37Z</time>
      </trkpt>
      <trkpt lat="60.115862373274" lon="21.558479565363">
        <ele>39.6</ele>
        <time>2017-07-26T17:06:38Z</time>
      </trkpt>
      <trkpt lat="60.115856589763" lon="21.55852424089">
        <ele>39.6</ele>
        <time>2017-07-26T17:06:39Z</time>
      </trkpt>
      <trkpt lat="60.11585265027" lon="21.558573526462">
        <ele>39.6</ele>
        <time>2017-07-26T17:06:40Z</time>
      </trkpt>
      <trkpt lat="60.115850219519" lon="21.558634546694">
        <ele>39.6</ele>
        <time>2017-07-26T17:06:41Z</time>
      </trkpt>
      <trkpt lat="60.115846028569" lon="21.558685760103">
        <ele>39.6</ele>
        <time>2017-07-26T17:06:42Z</time>
      </trkpt>
      <trkpt lat="60.115842340533" lon="21.558736470598">
        <ele>39.6</ele>
        <time>2017-07-26T17:06:43Z</time>
      </trkpt>
      <trkpt lat="60.115836808479" lon="21.558791120586">
        <ele>39.6</ele>
        <time>2017-07-26T17:06:44Z</time>
      </trkpt>
      <trkpt lat="60.115832785167" lon="21.558843339823">
        <ele>39.6</ele>
        <time>2017-07-26T17:06:45Z</time>
      </trkpt>
      <trkpt lat="60.115828845674" lon="21.55889639725">
        <ele>39.6</ele>
        <time>2017-07-26T17:06:46Z</time>
      </trkpt>
      <trkpt lat="60.115825073819" lon="21.558951047238">
        <ele>39.6</ele>
        <time>2017-07-26T17:06:47Z</time>
      </trkpt>
      <trkpt lat="60.115822643068" lon="21.559005697226">
        <ele>39.6</ele>
        <time>2017-07-26T17:06:48Z</time>
      </trkpt>
      <trkpt lat="60.115818452118" lon="21.559059173748">
        <ele>39.6</ele>
        <time>2017-07-26T17:06:49Z</time>
      </trkpt>
      <trkpt lat="60.115815602272" lon="21.559113153184">
        <ele>39.6</ele>
        <time>2017-07-26T17:06:50Z</time>
      </trkpt>
      <trkpt lat="60.115812836245" lon="21.559165875335">
        <ele>39.6</ele>
        <time>2017-07-26T17:06:51Z</time>
      </trkpt>
      <trkpt lat="60.115806382182" lon="21.559220441504">
        <ele>39.6</ele>
        <time>2017-07-26T17:06:52Z</time>
      </trkpt>
      <trkpt lat="60.115800598671" lon="21.559274001845">
        <ele>39.6</ele>
        <time>2017-07-26T17:06:53Z</time>
      </trkpt>
      <trkpt lat="60.115793390237" lon="21.559320437571">
        <ele>39.6</ele>
        <time>2017-07-26T17:06:54Z</time>
      </trkpt>
      <trkpt lat="60.11578727145" lon="21.559381038708">
        <ele>39.6</ele>
        <time>2017-07-26T17:06:55Z</time>
      </trkpt>
      <trkpt lat="60.115782493767" lon="21.559434682868">
        <ele>39.6</ele>
        <time>2017-07-26T17:06:56Z</time>
      </trkpt>
      <trkpt lat="60.115777967541" lon="21.559488410847">
        <ele>39.6</ele>
        <time>2017-07-26T17:06:57Z</time>
      </trkpt>
      <trkpt lat="60.115778302817" lon="21.559539624256">
        <ele>39.6</ele>
        <time>2017-07-26T17:06:58Z</time>
      </trkpt>
      <trkpt lat="60.115770423831" lon="21.559602739963">
        <ele>39.6</ele>
        <time>2017-07-26T17:06:59Z</time>
      </trkpt>
      <trkpt lat="60.11576380213" lon="21.559661161806">
        <ele>39.6</ele>
        <time>2017-07-26T17:07:00Z</time>
      </trkpt>
      <trkpt lat="60.115758270076" lon="21.559717320536">
        <ele>39.6</ele>
        <time>2017-07-26T17:07:01Z</time>
      </trkpt>
      <trkpt lat="60.115752570384" lon="21.559770294144">
        <ele>39.6</ele>
        <time>2017-07-26T17:07:02Z</time>
      </trkpt>
      <trkpt lat="60.115747289787" lon="21.559818741526">
        <ele>39.6</ele>
        <time>2017-07-26T17:07:03Z</time>
      </trkpt>
      <trkpt lat="60.115741506276" lon="21.559873978247">
        <ele>39.6</ele>
        <time>2017-07-26T17:07:04Z</time>
      </trkpt>
      <trkpt lat="60.115731615634" lon="21.55992904733">
        <ele>39.6</ele>
        <time>2017-07-26T17:07:05Z</time>
      </trkpt>
      <trkpt lat="60.115719797155" lon="21.559978332902">
        <ele>39.6</ele>
        <time>2017-07-26T17:07:06Z</time>
      </trkpt>
      <trkpt lat="60.115712085807" lon="21.560027450836">
        <ele>39.6</ele>
        <time>2017-07-26T17:07:07Z</time>
      </trkpt>
      <trkpt lat="60.115707978676" lon="21.56007489239">
        <ele>39.6</ele>
        <time>2017-07-26T17:07:08Z</time>
      </trkpt>
      <trkpt lat="60.11570261426" lon="21.560115460786">
        <ele>39.6</ele>
        <time>2017-07-26T17:07:09Z</time>
      </trkpt>
      <trkpt lat="60.115699932052" lon="21.560169943136">
        <ele>39.6</ele>
        <time>2017-07-26T17:07:10Z</time>
      </trkpt>
      <trkpt lat="60.115688951763" lon="21.560227107694">
        <ele>39.6</ele>
        <time>2017-07-26T17:07:11Z</time>
      </trkpt>
      <trkpt lat="60.115684006442" lon="21.560274633067">
        <ele>39.6</ele>
        <time>2017-07-26T17:07:12Z</time>
      </trkpt>
      <trkpt lat="60.115683252071" lon="21.56031545292">
        <ele>39.6</ele>
        <time>2017-07-26T17:07:13Z</time>
      </trkpt>
      <trkpt lat="60.115670930678" lon="21.56036909708">
        <ele>39.6</ele>
        <time>2017-07-26T17:07:14Z</time>
      </trkpt>
      <trkpt lat="60.115662716416" lon="21.5604093302">
        <ele>39.6</ele>
        <time>2017-07-26T17:07:15Z</time>
      </trkpt>
      <trkpt lat="60.115648551005" lon="21.560453586632">
        <ele>39.6</ele>
        <time>2017-07-26T17:07:16Z</time>
      </trkpt>
      <trkpt lat="60.11563891182" lon="21.560524497506">
        <ele>39.6</ele>
        <time>2017-07-26T17:07:17Z</time>
      </trkpt>
      <trkpt lat="60.115632625395" lon="21.560574118354">
        <ele>39.6</ele>
        <time>2017-07-26T17:07:18Z</time>
      </trkpt>
      <trkpt lat="60.115620555459" lon="21.560633462206">
        <ele>39.6</ele>
        <time>2017-07-26T17:07:19Z</time>
      </trkpt>
      <trkpt lat="60.115611838283" lon="21.56068425652">
        <ele>39.6</ele>
        <time>2017-07-26T17:07:20Z</time>
      </trkpt>
      <trkpt lat="60.115605132763" lon="21.560731111341">
        <ele>39.6</ele>
        <time>2017-07-26T17:07:21Z</time>
      </trkpt>
      <trkpt lat="60.115595828854" lon="21.560789952279">
        <ele>39.6</ele>
        <time>2017-07-26T17:07:22Z</time>
      </trkpt>
      <trkpt lat="60.11558945861" lon="21.56084183624">
        <ele>39.6</ele>
        <time>2017-07-26T17:07:23Z</time>
      </trkpt>
      <trkpt lat="60.115576634303" lon="21.560905203404">
        <ele>39.6</ele>
        <time>2017-07-26T17:07:24Z</time>
      </trkpt>
      <trkpt lat="60.115566324566" lon="21.560966223636">
        <ele>39.6</ele>
        <time>2017-07-26T17:07:25Z</time>
      </trkpt>
      <trkpt lat="60.115554757544" lon="21.561030177533">
        <ele>39.6</ele>
        <time>2017-07-26T17:07:26Z</time>
      </trkpt>
      <trkpt lat="60.115544112531" lon="21.56109413143">
        <ele>39.6</ele>
        <time>2017-07-26T17:07:27Z</time>
      </trkpt>
      <trkpt lat="60.11553246169" lon="21.561144003735">
        <ele>39.6</ele>
        <time>2017-07-26T17:07:28Z</time>
      </trkpt>
      <trkpt lat="60.115523325419" lon="21.561233019513">
        <ele>39.6</ele>
        <time>2017-07-26T17:07:29Z</time>
      </trkpt>
      <trkpt lat="60.1155148597" lon="21.561298398333">
        <ele>39.6</ele>
        <time>2017-07-26T17:07:30Z</time>
      </trkpt>
      <trkpt lat="60.115506142524" lon="21.561370147397">
        <ele>39.6</ele>
        <time>2017-07-26T17:07:31Z</time>
      </trkpt>
      <trkpt lat="60.115494910778" lon="21.561440387719">
        <ele>39.6</ele>
        <time>2017-07-26T17:07:32Z</time>
      </trkpt>
      <trkpt lat="60.11548300848" lon="21.561504509254">
        <ele>39.6</ele>
        <time>2017-07-26T17:07:33Z</time>
      </trkpt>
      <trkpt lat="60.11547043563" lon="21.561583885847">
        <ele>39.6</ele>
        <time>2017-07-26T17:07:34Z</time>
      </trkpt>
      <trkpt lat="60.115461466997" lon="21.561660161137">
        <ele>39.6</ele>
        <time>2017-07-26T17:07:35Z</time>
      </trkpt>
      <trkpt lat="60.115452917459" lon="21.561729060355">
        <ele>39.6</ele>
        <time>2017-07-26T17:07:36Z</time>
      </trkpt>
      <trkpt lat="60.115443194455" lon="21.561796199374">
        <ele>39.6</ele>
        <time>2017-07-26T17:07:37Z</time>
      </trkpt>
      <trkpt lat="60.115434309641" lon="21.561856381416">
        <ele>39.6</ele>
        <time>2017-07-26T17:07:38Z</time>
      </trkpt>
      <trkpt lat="60.115427771759" lon="21.5619180722">
        <ele>39.6</ele>
        <time>2017-07-26T17:07:39Z</time>
      </trkpt>
      <trkpt lat="60.115417378203" lon="21.561985714133">
        <ele>39.6</ele>
        <time>2017-07-26T17:07:40Z</time>
      </trkpt>
      <trkpt lat="60.115409080122" lon="21.562041034673">
        <ele>39.6</ele>
        <time>2017-07-26T17:07:41Z</time>
      </trkpt>
      <trkpt lat="60.115403631887" lon="21.562103982742">
        <ele>39.6</ele>
        <time>2017-07-26T17:07:42Z</time>
      </trkpt>
      <trkpt lat="60.115396507272" lon="21.562157878359">
        <ele>39.6</ele>
        <time>2017-07-26T17:07:43Z</time>
      </trkpt>
      <trkpt lat="60.115391226675" lon="21.562226442301">
        <ele>39.6</ele>
        <time>2017-07-26T17:07:44Z</time>
      </trkpt>
      <trkpt lat="60.115390639942" lon="21.562283103945">
        <ele>39.6</ele>
        <time>2017-07-26T17:07:45Z</time>
      </trkpt>
      <trkpt lat="60.115383515327" lon="21.562345046186">
        <ele>39.6</ele>
        <time>2017-07-26T17:07:46Z</time>
      </trkpt>
      <trkpt lat="60.115372115943" lon="21.562424422779">
        <ele>39.6</ele>
        <time>2017-07-26T17:07:47Z</time>
      </trkpt>
      <trkpt lat="60.115363231129" lon="21.562496171843">
        <ele>39.6</ele>
        <time>2017-07-26T17:07:48Z</time>
      </trkpt>
      <trkpt lat="60.115344371854" lon="21.562589127114">
        <ele>39</ele>
        <time>2017-07-26T17:07:49Z</time>
      </trkpt>
      <trkpt lat="60.115330206443" lon="21.562668755164">
        <ele>38.6</ele>
        <time>2017-07-26T17:07:50Z</time>
      </trkpt>
      <trkpt lat="60.115319226154" lon="21.562737654382">
        <ele>38.4</ele>
        <time>2017-07-26T17:07:51Z</time>
      </trkpt>
      <trkpt lat="60.115304138734" lon="21.562804961039">
        <ele>37.8</ele>
        <time>2017-07-26T17:07:52Z</time>
      </trkpt>
      <trkpt lat="60.115295170101" lon="21.56285349224">
        <ele>37.4</ele>
        <time>2017-07-26T17:07:53Z</time>
      </trkpt>
      <trkpt lat="60.115288799857" lon="21.562929180797">
        <ele>37.4</ele>
        <time>2017-07-26T17:07:54Z</time>
      </trkpt>
      <trkpt lat="60.115284022174" lon="21.562990536305">
        <ele>37.4</ele>
        <time>2017-07-26T17:07:55Z</time>
      </trkpt>
      <trkpt lat="60.115279160672" lon="21.563054993116">
        <ele>37.4</ele>
        <time>2017-07-26T17:07:56Z</time>
      </trkpt>
      <trkpt lat="60.115274550627" lon="21.563112241493">
        <ele>37.4</ele>
        <time>2017-07-26T17:07:57Z</time>
      </trkpt>
      <trkpt lat="60.115264911442" lon="21.563167981128">
        <ele>37.4</ele>
        <time>2017-07-26T17:07:58Z</time>
      </trkpt>
      <trkpt lat="60.115251584221" lon="21.563254649974">
        <ele>37.4</ele>
        <time>2017-07-26T17:07:59Z</time>
      </trkpt>
      <trkpt lat="60.115241693579" lon="21.563325644667">
        <ele>37.4</ele>
        <time>2017-07-26T17:08:00Z</time>
      </trkpt>
      <trkpt lat="60.115232557308" lon="21.563393118962">
        <ele>37.4</ele>
        <time>2017-07-26T17:08:01Z</time>
      </trkpt>
      <trkpt lat="60.11522484596" lon="21.563463191646">
        <ele>37.4</ele>
        <time>2017-07-26T17:08:02Z</time>
      </trkpt>
      <trkpt lat="60.115218643354" lon="21.563526055896">
        <ele>37.4</ele>
        <time>2017-07-26T17:08:03Z</time>
      </trkpt>
      <trkpt lat="60.115210345273" lon="21.563607108869">
        <ele>37.4</ele>
        <time>2017-07-26T17:08:04Z</time>
      </trkpt>
      <trkpt lat="60.115203555934" lon="21.56367575663">
        <ele>37.4</ele>
        <time>2017-07-26T17:08:05Z</time>
      </trkpt>
      <trkpt lat="60.115195928405" lon="21.56374448821">
        <ele>37.4</ele>
        <time>2017-07-26T17:08:06Z</time>
      </trkpt>
      <trkpt lat="60.11518964198" lon="21.563810034668">
        <ele>37.4</ele>
        <time>2017-07-26T17:08:07Z</time>
      </trkpt>
      <trkpt lat="60.115185870125" lon="21.563868121235">
        <ele>37.4</ele>
        <time>2017-07-26T17:08:08Z</time>
      </trkpt>
      <trkpt lat="60.115181930632" lon="21.563923357956">
        <ele>37.4</ele>
        <time>2017-07-26T17:08:09Z</time>
      </trkpt>
      <trkpt lat="60.115176650035" lon="21.564003405101">
        <ele>37.4</ele>
        <time>2017-07-26T17:08:10Z</time>
      </trkpt>
      <trkpt lat="60.115171956171" lon="21.564066772265">
        <ele>37.4</ele>
        <time>2017-07-26T17:08:11Z</time>
      </trkpt>
      <trkpt lat="60.115167765221" lon="21.564128965963">
        <ele>37.4</ele>
        <time>2017-07-26T17:08:12Z</time>
      </trkpt>
      <trkpt lat="60.115165753565" lon="21.564182610123">
        <ele>37.4</ele>
        <time>2017-07-26T17:08:13Z</time>
      </trkpt>
      <trkpt lat="60.115162652262" lon="21.564244720002">
        <ele>37.8</ele>
        <time>2017-07-26T17:08:14Z</time>
      </trkpt>
      <trkpt lat="60.115162400805" lon="21.564294927583">
        <ele>38.2</ele>
        <time>2017-07-26T17:08:15Z</time>
      </trkpt>
      <trkpt lat="60.115158712769" lon="21.564348990838">
        <ele>38.8</ele>
        <time>2017-07-26T17:08:16Z</time>
      </trkpt>
      <trkpt lat="60.115156784932" lon="21.564394253098">
        <ele>39.2</ele>
        <time>2017-07-26T17:08:17Z</time>
      </trkpt>
      <trkpt lat="60.115156030561" lon="21.564434737675">
        <ele>39.4</ele>
        <time>2017-07-26T17:08:18Z</time>
      </trkpt>
      <trkpt lat="60.115155779104" lon="21.564477317727">
        <ele>39.6</ele>
        <time>2017-07-26T17:08:19Z</time>
      </trkpt>
      <trkpt lat="60.115155527647" lon="21.564515790648">
        <ele>39.6</ele>
        <time>2017-07-26T17:08:20Z</time>
      </trkpt>
      <trkpt lat="60.115155443828" lon="21.56453993052">
        <ele>39.6</ele>
        <time>2017-07-26T17:08:21Z</time>
      </trkpt>
      <trkpt lat="60.115153096896" lon="21.564604303512">
        <ele>39.6</ele>
        <time>2017-07-26T17:08:22Z</time>
      </trkpt>
      <trkpt lat="60.115152677801" lon="21.564649984867">
        <ele>39.6</ele>
        <time>2017-07-26T17:08:23Z</time>
      </trkpt>
      <trkpt lat="60.115151336697" lon="21.564700360086">
        <ele>39.6</ele>
        <time>2017-07-26T17:08:24Z</time>
      </trkpt>
      <trkpt lat="60.115150582326" lon="21.56474863983">
        <ele>39.6</ele>
        <time>2017-07-26T17:08:25Z</time>
      </trkpt>
      <trkpt lat="60.115150833783" lon="21.564796584298">
        <ele>39.6</ele>
        <time>2017-07-26T17:08:26Z</time>
      </trkpt>
      <trkpt lat="60.115152258706" lon="21.564840253997">
        <ele>39.6</ele>
        <time>2017-07-26T17:08:27Z</time>
      </trkpt>
      <trkpt lat="60.115152426344" lon="21.564886019171">
        <ele>39.6</ele>
        <time>2017-07-26T17:08:28Z</time>
      </trkpt>
      <trkpt lat="60.115151252878" lon="21.564937567856">
        <ele>39.6</ele>
        <time>2017-07-26T17:08:29Z</time>
      </trkpt>
      <trkpt lat="60.115150582326" lon="21.564992217844">
        <ele>39.6</ele>
        <time>2017-07-26T17:08:30Z</time>
      </trkpt>
      <trkpt lat="60.115149744136" lon="21.565050304411">
        <ele>39.6</ele>
        <time>2017-07-26T17:08:31Z</time>
      </trkpt>
      <trkpt lat="60.115148486851" lon="21.565106044046">
        <ele>39.6</ele>
        <time>2017-07-26T17:08:32Z</time>
      </trkpt>
      <trkpt lat="60.115149073584" lon="21.565159269111">
        <ele>39.6</ele>
        <time>2017-07-26T17:08:33Z</time>
      </trkpt>
      <trkpt lat="60.115147313385" lon="21.565212326538">
        <ele>39.6</ele>
        <time>2017-07-26T17:08:34Z</time>
      </trkpt>
      <trkpt lat="60.115147229566" lon="21.56526580306">
        <ele>39.6</ele>
        <time>2017-07-26T17:08:35Z</time>
      </trkpt>
      <trkpt lat="60.115149325041" lon="21.565318189935">
        <ele>39.6</ele>
        <time>2017-07-26T17:08:36Z</time>
      </trkpt>
      <trkpt lat="60.115150582326" lon="21.565369990077">
        <ele>39.6</ele>
        <time>2017-07-26T17:08:37Z</time>
      </trkpt>
      <trkpt lat="60.115153096896" lon="21.565421371124">
        <ele>39.6</ele>
        <time>2017-07-26T17:08:38Z</time>
      </trkpt>
      <trkpt lat="60.115153432172" lon="21.56545439581">
        <ele>39.6</ele>
        <time>2017-07-26T17:08:39Z</time>
      </trkpt>
      <trkpt lat="60.115151504335" lon="21.56551139273">
        <ele>39.6</ele>
        <time>2017-07-26T17:08:40Z</time>
      </trkpt>
      <trkpt lat="60.11515359981" lon="21.56557090422">
        <ele>39.6</ele>
        <time>2017-07-26T17:08:41Z</time>
      </trkpt>
      <trkpt lat="60.115155527647" lon="21.565623039638">
        <ele>39.6</ele>
        <time>2017-07-26T17:08:42Z</time>
      </trkpt>
      <trkpt lat="60.115157287846" lon="21.565674336866">
        <ele>39.6</ele>
        <time>2017-07-26T17:08:43Z</time>
      </trkpt>
      <trkpt lat="60.115155779104" lon="21.56572177842">
        <ele>39.6</ele>
        <time>2017-07-26T17:08:44Z</time>
      </trkpt>
      <trkpt lat="60.115158796588" lon="21.565780619358">
        <ele>39.6</ele>
        <time>2017-07-26T17:08:45Z</time>
      </trkpt>
      <trkpt lat="60.115160640606" lon="21.565832922414">
        <ele>39.6</ele>
        <time>2017-07-26T17:08:46Z</time>
      </trkpt>
      <trkpt lat="60.11516114352" lon="21.565886650393">
        <ele>39.8</ele>
        <time>2017-07-26T17:08:47Z</time>
      </trkpt>
      <trkpt lat="60.115161394977" lon="21.565937779983">
        <ele>40</ele>
        <time>2017-07-26T17:08:48Z</time>
      </trkpt>
      <trkpt lat="60.115159802416" lon="21.566000225138">
        <ele>40.4</ele>
        <time>2017-07-26T17:08:49Z</time>
      </trkpt>
      <trkpt lat="60.115160389149" lon="21.566055126583">
        <ele>40.8</ele>
        <time>2017-07-26T17:08:50Z</time>
      </trkpt>
      <trkpt lat="60.115161478796" lon="21.566108435467">
        <ele>41</ele>
        <time>2017-07-26T17:08:51Z</time>
      </trkpt>
      <trkpt lat="60.11516030533" lon="21.566154452098">
        <ele>41.2</ele>
        <time>2017-07-26T17:08:52Z</time>
      </trkpt>
      <trkpt lat="60.115165585927" lon="21.566195942503">
        <ele>41.4</ele>
        <time>2017-07-26T17:08:53Z</time>
      </trkpt>
      <trkpt lat="60.115165669746" lon="21.566259309667">
        <ele>41.6</ele>
        <time>2017-07-26T17:08:54Z</time>
      </trkpt>
      <trkpt lat="60.115166843212" lon="21.566309517248">
        <ele>41.6</ele>
        <time>2017-07-26T17:08:55Z</time>
      </trkpt>
      <trkpt lat="60.115166927031" lon="21.566361652666">
        <ele>41.6</ele>
        <time>2017-07-26T17:08:56Z</time>
      </trkpt>
      <trkpt lat="60.115167932859" lon="21.566414626274">
        <ele>41.6</ele>
        <time>2017-07-26T17:08:57Z</time>
      </trkpt>
      <trkpt lat="60.115167681402" lon="21.566463157475">
        <ele>41.6</ele>
        <time>2017-07-26T17:08:58Z</time>
      </trkpt>
      <trkpt lat="60.115166507936" lon="21.566519986757">
        <ele>41.6</ele>
        <time>2017-07-26T17:08:59Z</time>
      </trkpt>
      <trkpt lat="60.115165166832" lon="21.566574385288">
        <ele>41.6</ele>
        <time>2017-07-26T17:09:00Z</time>
      </trkpt>
      <trkpt lat="60.11516617266" lon="21.566631298389">
        <ele>41.6</ele>
        <time>2017-07-26T17:09:01Z</time>
      </trkpt>
      <trkpt lat="60.115165753565" lon="21.566686283653">
        <ele>41.6</ele>
        <time>2017-07-26T17:09:02Z</time>
      </trkpt>
      <trkpt lat="60.115164831556" lon="21.56673934108">
        <ele>41.6</ele>
        <time>2017-07-26T17:09:03Z</time>
      </trkpt>
      <trkpt lat="60.115166005022" lon="21.56678125058">
        <ele>41.6</ele>
        <time>2017-07-26T17:09:04Z</time>
      </trkpt>
      <trkpt lat="60.115166843212" lon="21.566845372115">
        <ele>41.6</ele>
        <time>2017-07-26T17:09:05Z</time>
      </trkpt>
      <trkpt lat="60.115165669746" lon="21.566904045415">
        <ele>41.6</ele>
        <time>2017-07-26T17:09:06Z</time>
      </trkpt>
      <trkpt lat="60.115163741909" lon="21.566968586045">
        <ele>41.6</ele>
        <time>2017-07-26T17:09:07Z</time>
      </trkpt>
      <trkpt lat="60.115163322814" lon="21.567022565481">
        <ele>41.6</ele>
        <time>2017-07-26T17:09:08Z</time>
      </trkpt>
      <trkpt lat="60.115162233167" lon="21.567080232953">
        <ele>41.6</ele>
        <time>2017-07-26T17:09:09Z</time>
      </trkpt>
      <trkpt lat="60.115163574271" lon="21.567144605945">
        <ele>41.6</ele>
        <time>2017-07-26T17:09:10Z</time>
      </trkpt>
      <trkpt lat="60.11516617266" lon="21.567198250105">
        <ele>41.6</ele>
        <time>2017-07-26T17:09:11Z</time>
      </trkpt>
      <trkpt lat="60.115167597583" lon="21.567252648636">
        <ele>41.6</ele>
        <time>2017-07-26T17:09:12Z</time>
      </trkpt>
      <trkpt lat="60.115169106325" lon="21.56730595752">
        <ele>41.6</ele>
        <time>2017-07-26T17:09:13Z</time>
      </trkpt>
      <trkpt lat="60.115168268135" lon="21.56736882177">
        <ele>41.6</ele>
        <time>2017-07-26T17:09:14Z</time>
      </trkpt>
      <trkpt lat="60.115169860696" lon="21.567425315776">
        <ele>41.6</ele>
        <time>2017-07-26T17:09:15Z</time>
      </trkpt>
      <trkpt lat="60.115169273963" lon="21.567480384859">
        <ele>41.6</ele>
        <time>2017-07-26T17:09:16Z</time>
      </trkpt>
      <trkpt lat="60.115170698886" lon="21.567538890521">
        <ele>41.6</ele>
        <time>2017-07-26T17:09:17Z</time>
      </trkpt>
      <trkpt lat="60.115169273963" lon="21.567595887441">
        <ele>41.6</ele>
        <time>2017-07-26T17:09:18Z</time>
      </trkpt>
      <trkpt lat="60.115170028334" lon="21.567662355908">
        <ele>41.6</ele>
        <time>2017-07-26T17:09:19Z</time>
      </trkpt>
      <trkpt lat="60.115169693058" lon="21.567724298149">
        <ele>41.6</ele>
        <time>2017-07-26T17:09:20Z</time>
      </trkpt>
      <trkpt lat="60.11516952542" lon="21.5677854022">
        <ele>41.6</ele>
        <time>2017-07-26T17:09:21Z</time>
      </trkpt>
      <trkpt lat="60.11516617266" lon="21.56785161921">
        <ele>41.6</ele>
        <time>2017-07-26T17:09:22Z</time>
      </trkpt>
      <trkpt lat="60.115165166832" lon="21.567912890899">
        <ele>41.6</ele>
        <time>2017-07-26T17:09:23Z</time>
      </trkpt>
      <trkpt lat="60.115163406633" lon="21.567979359366">
        <ele>41.6</ele>
        <time>2017-07-26T17:09:24Z</time>
      </trkpt>
      <trkpt lat="60.11516365809" lon="21.568040463417">
        <ele>41.6</ele>
        <time>2017-07-26T17:09:25Z</time>
      </trkpt>
      <trkpt lat="60.115167513764" lon="21.568096119233">
        <ele>41.6</ele>
        <time>2017-07-26T17:09:26Z</time>
      </trkpt>
      <trkpt lat="60.115165166832" lon="21.568163593528">
        <ele>41.6</ele>
        <time>2017-07-26T17:09:27Z</time>
      </trkpt>
      <trkpt lat="60.115162400805" lon="21.568213968747">
        <ele>41.6</ele>
        <time>2017-07-26T17:09:28Z</time>
      </trkpt>
      <trkpt lat="60.115162149348" lon="21.568289741123">
        <ele>41.4</ele>
        <time>2017-07-26T17:09:29Z</time>
      </trkpt>
      <trkpt lat="60.115161646434" lon="21.568364004757">
        <ele>41.6</ele>
        <time>2017-07-26T17:09:30Z</time>
      </trkpt>
      <trkpt lat="60.115158796588" lon="21.568426449912">
        <ele>41.4</ele>
        <time>2017-07-26T17:09:31Z</time>
      </trkpt>
      <trkpt lat="60.115158042217" lon="21.568490655266">
        <ele>41.4</ele>
        <time>2017-07-26T17:09:32Z</time>
      </trkpt>
      <trkpt lat="60.115157036389" lon="21.568553016602">
        <ele>41.4</ele>
        <time>2017-07-26T17:09:33Z</time>
      </trkpt>
      <trkpt lat="60.115157287846" lon="21.568603643278">
        <ele>41.4</ele>
        <time>2017-07-26T17:09:34Z</time>
      </trkpt>
      <trkpt lat="60.11516114352" lon="21.568676565808">
        <ele>41.6</ele>
        <time>2017-07-26T17:09:35Z</time>
      </trkpt>
      <trkpt lat="60.115161814072" lon="21.568737083126">
        <ele>41.6</ele>
        <time>2017-07-26T17:09:36Z</time>
      </trkpt>
      <trkpt lat="60.115161059701" lon="21.568797013711">
        <ele>41.6</ele>
        <time>2017-07-26T17:09:37Z</time>
      </trkpt>
      <trkpt lat="60.115160389149" lon="21.568854513545">
        <ele>41.6</ele>
        <time>2017-07-26T17:09:38Z</time>
      </trkpt>
      <trkpt lat="60.115162400805" lon="21.568909666447">
        <ele>41.6</ele>
        <time>2017-07-26T17:09:39Z</time>
      </trkpt>
      <trkpt lat="60.115165083013" lon="21.5689840139">
        <ele>41.6</ele>
        <time>2017-07-26T17:09:40Z</time>
      </trkpt>
      <trkpt lat="60.115165502108" lon="21.569049476539">
        <ele>41.6</ele>
        <time>2017-07-26T17:09:41Z</time>
      </trkpt>
      <trkpt lat="60.115164747737" lon="21.569118208119">
        <ele>41.6</ele>
        <time>2017-07-26T17:09:42Z</time>
      </trkpt>
      <trkpt lat="60.11516365809" lon="21.569186101509">
        <ele>41.6</ele>
        <time>2017-07-26T17:09:43Z</time>
      </trkpt>
      <trkpt lat="60.115169357782" lon="21.569248965759">
        <ele>41.4</ele>
        <time>2017-07-26T17:09:44Z</time>
      </trkpt>
      <trkpt lat="60.115168854868" lon="21.569329767275">
        <ele>41.6</ele>
        <time>2017-07-26T17:09:45Z</time>
      </trkpt>
      <trkpt lat="60.115168603411" lon="21.569377208829">
        <ele>41.6</ele>
        <time>2017-07-26T17:09:46Z</time>
      </trkpt>
      <trkpt lat="60.115167597583" lon="21.5694869279">
        <ele>41.6</ele>
        <time>2017-07-26T17:09:47Z</time>
      </trkpt>
      <trkpt lat="60.115167513764" lon="21.569560772439">
        <ele>41.6</ele>
        <time>2017-07-26T17:09:48Z</time>
      </trkpt>
      <trkpt lat="60.11516617266" lon="21.569647189828">
        <ele>41.2</ele>
        <time>2017-07-26T17:09:49Z</time>
      </trkpt>
      <trkpt lat="60.115166256479" lon="21.569729080991">
        <ele>40.8</ele>
        <time>2017-07-26T17:09:50Z</time>
      </trkpt>
      <trkpt lat="60.11516784904" lon="21.569810804516">
        <ele>40.4</ele>
        <time>2017-07-26T17:09:51Z</time>
      </trkpt>
      <trkpt lat="60.115165250651" lon="21.56989177367">
        <ele>40</ele>
        <time>2017-07-26T17:09:52Z</time>
      </trkpt>
      <trkpt lat="60.115164077185" lon="21.569967965141">
        <ele>39.6</ele>
        <time>2017-07-26T17:09:53Z</time>
      </trkpt>
      <trkpt lat="60.115164580099" lon="21.570039546567">
        <ele>39.6</ele>
        <time>2017-07-26T17:09:54Z</time>
      </trkpt>
      <trkpt lat="60.115165250651" lon="21.570132669476">
        <ele>39.6</ele>
        <time>2017-07-26T17:09:55Z</time>
      </trkpt>
      <trkpt lat="60.115163406633" lon="21.570214057725">
        <ele>39.6</ele>
        <time>2017-07-26T17:09:56Z</time>
      </trkpt>
      <trkpt lat="60.115163741909" lon="21.5702915903">
        <ele>39.6</ele>
        <time>2017-07-26T17:09:57Z</time>
      </trkpt>
      <trkpt lat="60.115165250651" lon="21.570357891129">
        <ele>39.6</ele>
        <time>2017-07-26T17:09:58Z</time>
      </trkpt>
      <trkpt lat="60.115168603411" lon="21.570449756753">
        <ele>39.6</ele>
        <time>2017-07-26T17:09:59Z</time>
      </trkpt>
      <trkpt lat="60.115170195972" lon="21.570528043699">
        <ele>39.6</ele>
        <time>2017-07-26T17:10:00Z</time>
      </trkpt>
      <trkpt lat="60.115170615067" lon="21.570603229342">
        <ele>39.6</ele>
        <time>2017-07-26T17:10:01Z</time>
      </trkpt>
      <trkpt lat="60.115170698886" lon="21.570677325338">
        <ele>39.6</ele>
        <time>2017-07-26T17:10:02Z</time>
      </trkpt>
      <trkpt lat="60.115172375266" lon="21.570739854312">
        <ele>39.6</ele>
        <time>2017-07-26T17:10:03Z</time>
      </trkpt>
      <trkpt lat="60.115169609239" lon="21.570825349692">
        <ele>39.6</ele>
        <time>2017-07-26T17:10:04Z</time>
      </trkpt>
      <trkpt lat="60.115169022506" lon="21.57089843986">
        <ele>39.6</ele>
        <time>2017-07-26T17:10:05Z</time>
      </trkpt>
      <trkpt lat="60.115168771049" lon="21.570971194752">
        <ele>39.6</ele>
        <time>2017-07-26T17:10:06Z</time>
      </trkpt>
      <trkpt lat="60.115168016678" lon="21.571046296576">
        <ele>39.6</ele>
        <time>2017-07-26T17:10:07Z</time>
      </trkpt>
      <trkpt lat="60.115167765221" lon="21.571118464735">
        <ele>39.6</ele>
        <time>2017-07-26T17:10:08Z</time>
      </trkpt>
      <trkpt lat="60.115168268135" lon="21.571179401148">
        <ele>39.6</ele>
        <time>2017-07-26T17:10:09Z</time>
      </trkpt>
      <trkpt lat="60.115169106325" lon="21.571257101361">
        <ele>39.6</ele>
        <time>2017-07-26T17:10:10Z</time>
      </trkpt>
      <trkpt lat="60.115170112153" lon="21.571325581484">
        <ele>39.6</ele>
        <time>2017-07-26T17:10:11Z</time>
      </trkpt>
      <trkpt lat="60.115170112153" lon="21.571395570349">
        <ele>39.6</ele>
        <time>2017-07-26T17:10:12Z</time>
      </trkpt>
      <trkpt lat="60.115168938687" lon="21.571465475395">
        <ele>39.6</ele>
        <time>2017-07-26T17:10:13Z</time>
      </trkpt>
      <trkpt lat="60.115169273963" lon="21.571541918323">
        <ele>39.6</ele>
        <time>2017-07-26T17:10:14Z</time>
      </trkpt>
      <trkpt lat="60.115168519592" lon="21.571613332111">
        <ele>39.6</ele>
        <time>2017-07-26T17:10:15Z</time>
      </trkpt>
      <trkpt lat="60.115169609239" lon="21.571687763383">
        <ele>39.6</ele>
        <time>2017-07-26T17:10:16Z</time>
      </trkpt>
      <trkpt lat="60.115170112153" lon="21.571762110836">
        <ele>39.6</ele>
        <time>2017-07-26T17:10:17Z</time>
      </trkpt>
      <trkpt lat="60.115170615067" lon="21.571836290651">
        <ele>39.6</ele>
        <time>2017-07-26T17:10:18Z</time>
      </trkpt>
      <trkpt lat="60.115171117981" lon="21.571892952295">
        <ele>39.6</ele>
        <time>2017-07-26T17:10:19Z</time>
      </trkpt>
      <trkpt lat="60.115172710542" lon="21.571972747983">
        <ele>39.2</ele>
        <time>2017-07-26T17:10:20Z</time>
      </trkpt>
      <trkpt lat="60.115172459085" lon="21.572042233934">
        <ele>38.8</ele>
        <time>2017-07-26T17:10:21Z</time>
      </trkpt>
      <trkpt lat="60.115172961999" lon="21.572065367978">
        <ele>38.6</ele>
        <time>2017-07-26T17:10:22Z</time>
      </trkpt>
      <trkpt lat="60.115173213456" lon="21.572170477004">
        <ele>38.4</ele>
        <time>2017-07-26T17:10:23Z</time>
      </trkpt>
      <trkpt lat="60.115176650035" lon="21.57226468956">
        <ele>38</ele>
        <time>2017-07-26T17:10:24Z</time>
      </trkpt>
      <trkpt lat="60.115179667519" lon="21.572335432796">
        <ele>37.6</ele>
        <time>2017-07-26T17:10:25Z</time>
      </trkpt>
      <trkpt lat="60.115181762994" lon="21.572406427489">
        <ele>37.4</ele>
        <time>2017-07-26T17:10:26Z</time>
      </trkpt>
      <trkpt lat="60.115183523193" lon="21.572475159069">
        <ele>37.4</ele>
        <time>2017-07-26T17:10:27Z</time>
      </trkpt>
      <trkpt lat="60.11518209827" lon="21.572535760206">
        <ele>37.4</ele>
        <time>2017-07-26T17:10:28Z</time>
      </trkpt>
      <trkpt lat="60.115182852641" lon="21.572608682736">
        <ele>37.4</ele>
        <time>2017-07-26T17:10:29Z</time>
      </trkpt>
      <trkpt lat="60.115183607012" lon="21.572669786787">
        <ele>37.4</ele>
        <time>2017-07-26T17:10:30Z</time>
      </trkpt>
      <trkpt lat="60.115185786306" lon="21.572728627725">
        <ele>37.4</ele>
        <time>2017-07-26T17:10:31Z</time>
      </trkpt>
      <trkpt lat="60.115188300876" lon="21.57278604374">
        <ele>37.4</ele>
        <time>2017-07-26T17:10:32Z</time>
      </trkpt>
      <trkpt lat="60.115191234541" lon="21.572842705384">
        <ele>37.4</ele>
        <time>2017-07-26T17:10:33Z</time>
      </trkpt>
      <trkpt lat="60.115191821274" lon="21.572886291264">
        <ele>37.4</ele>
        <time>2017-07-26T17:10:34Z</time>
      </trkpt>
      <trkpt lat="60.11519048017" lon="21.572960722536">
        <ele>37.4</ele>
        <time>2017-07-26T17:10:35Z</time>
      </trkpt>
      <trkpt lat="60.115190815446" lon="21.573021323673">
        <ele>37.4</ele>
        <time>2017-07-26T17:10:36Z</time>
      </trkpt>
      <trkpt lat="60.115193162378" lon="21.573080080792">
        <ele>37.4</ele>
        <time>2017-07-26T17:10:37Z</time>
      </trkpt>
      <trkpt lat="60.1151963475" lon="21.573135988065">
        <ele>37.4</ele>
        <time>2017-07-26T17:10:38Z</time>
      </trkpt>
      <trkpt lat="60.115195844586" lon="21.573183513438">
        <ele>37.4</ele>
        <time>2017-07-26T17:10:39Z</time>
      </trkpt>
      <trkpt lat="60.115197437147" lon="21.57323866634">
        <ele>37.4</ele>
        <time>2017-07-26T17:10:40Z</time>
      </trkpt>
      <trkpt lat="60.115198610613" lon="21.573291975224">
        <ele>37.4</ele>
        <time>2017-07-26T17:10:41Z</time>
      </trkpt>
      <trkpt lat="60.115203555934" lon="21.573347463402">
        <ele>37.4</ele>
        <time>2017-07-26T17:10:42Z</time>
      </trkpt>
      <trkpt lat="60.11520892035" lon="21.573400772286">
        <ele>37.4</ele>
        <time>2017-07-26T17:10:43Z</time>
      </trkpt>
      <trkpt lat="60.115210512911" lon="21.573453829713">
        <ele>37.4</ele>
        <time>2017-07-26T17:10:44Z</time>
      </trkpt>
      <trkpt lat="60.115212776024" lon="21.573507054778">
        <ele>37.4</ele>
        <time>2017-07-26T17:10:45Z</time>
      </trkpt>
      <trkpt lat="60.115219733001" lon="21.573554747789">
        <ele>37.4</ele>
        <time>2017-07-26T17:10:46Z</time>
      </trkpt>
      <trkpt lat="60.115223085761" lon="21.573618031134">
        <ele>37.4</ele>
        <time>2017-07-26T17:10:47Z</time>
      </trkpt>
      <trkpt lat="60.115227444349" lon="21.573669412181">
        <ele>37.4</ele>
        <time>2017-07-26T17:10:48Z</time>
      </trkpt>
      <trkpt lat="60.115229707462" lon="21.57371643464">
        <ele>37.4</ele>
        <time>2017-07-26T17:10:49Z</time>
      </trkpt>
      <trkpt lat="60.11522652234" lon="21.573780639994">
        <ele>37.4</ele>
        <time>2017-07-26T17:10:50Z</time>
      </trkpt>
      <trkpt lat="60.115229456005" lon="21.57383461943">
        <ele>37.4</ele>
        <time>2017-07-26T17:10:51Z</time>
      </trkpt>
      <trkpt lat="60.11523155148" lon="21.573891029617">
        <ele>37.4</ele>
        <time>2017-07-26T17:10:52Z</time>
      </trkpt>
      <trkpt lat="60.115236832077" lon="21.573956827532">
        <ele>37.4</ele>
        <time>2017-07-26T17:10:53Z</time>
      </trkpt>
      <trkpt lat="60.115243621416" lon="21.574022290171">
        <ele>37.4</ele>
        <time>2017-07-26T17:10:54Z</time>
      </trkpt>
      <trkpt lat="60.115249069651" lon="21.574081801661">
        <ele>37.4</ele>
        <time>2017-07-26T17:10:55Z</time>
      </trkpt>
      <trkpt lat="60.115253176782" lon="21.574140391142">
        <ele>37.4</ele>
        <time>2017-07-26T17:10:56Z</time>
      </trkpt>
      <trkpt lat="60.11525669718" lon="21.574195544044">
        <ele>37.4</ele>
        <time>2017-07-26T17:10:57Z</time>
      </trkpt>
      <trkpt lat="60.115263821795" lon="21.574237118268">
        <ele>37.4</ele>
        <time>2017-07-26T17:10:58Z</time>
      </trkpt>
      <trkpt lat="60.11527429917" lon="21.574285146555">
        <ele>37.4</ele>
        <time>2017-07-26T17:10:59Z</time>
      </trkpt>
      <trkpt lat="60.115275724093" lon="21.574346837339">
        <ele>37.4</ele>
        <time>2017-07-26T17:11:00Z</time>
      </trkpt>
      <trkpt lat="60.115277400473" lon="21.574405929734">
        <ele>37.4</ele>
        <time>2017-07-26T17:11:01Z</time>
      </trkpt>
      <trkpt lat="60.115279160672" lon="21.574467201423">
        <ele>37.4</ele>
        <time>2017-07-26T17:11:02Z</time>
      </trkpt>
      <trkpt lat="60.115281256147" lon="21.574525874723">
        <ele>37.4</ele>
        <time>2017-07-26T17:11:03Z</time>
      </trkpt>
      <trkpt lat="60.115286117649" lon="21.574573316277">
        <ele>37.4</ele>
        <time>2017-07-26T17:11:04Z</time>
      </trkpt>
      <trkpt lat="60.115293493721" lon="21.574639784744">
        <ele>37.4</ele>
        <time>2017-07-26T17:11:05Z</time>
      </trkpt>
      <trkpt lat="60.11529776849" lon="21.574702565175">
        <ele>37.4</ele>
        <time>2017-07-26T17:11:06Z</time>
      </trkpt>
      <trkpt lat="60.115300115422" lon="21.574745145227">
        <ele>37.4</ele>
        <time>2017-07-26T17:11:07Z</time>
      </trkpt>
      <trkpt lat="60.115307240037" lon="21.57480272888">
        <ele>37.4</ele>
        <time>2017-07-26T17:11:08Z</time>
      </trkpt>
      <trkpt lat="60.115311682444" lon="21.57486391675">
        <ele>37.4</ele>
        <time>2017-07-26T17:11:09Z</time>
      </trkpt>
      <trkpt lat="60.115318220326" lon="21.574923679697">
        <ele>37.4</ele>
        <time>2017-07-26T17:11:10Z</time>
      </trkpt>
      <trkpt lat="60.115326853683" lon="21.575000709358">
        <ele>37.4</ele>
        <time>2017-07-26T17:11:11Z</time>
      </trkpt>
      <trkpt lat="60.115335738497" lon="21.575068099834">
        <ele>37.4</ele>
        <time>2017-07-26T17:11:12Z</time>
      </trkpt>
      <trkpt lat="60.115346215872" lon="21.575132556645">
        <ele>37.4</ele>
        <time>2017-07-26T17:11:13Z</time>
      </trkpt>
      <trkpt lat="60.115347640795" lon="21.575199611845">
        <ele>37.4</ele>
        <time>2017-07-26T17:11:14Z</time>
      </trkpt>
      <trkpt lat="60.115352921392" lon="21.575260212982">
        <ele>37.4</ele>
        <time>2017-07-26T17:11:15Z</time>
      </trkpt>
      <trkpt lat="60.115359375455" lon="21.575302625396">
        <ele>37.4</ele>
        <time>2017-07-26T17:11:16Z</time>
      </trkpt>
      <trkpt lat="60.115366835346" lon="21.57536431618">
        <ele>37.4</ele>
        <time>2017-07-26T17:11:17Z</time>
      </trkpt>
      <trkpt lat="60.115374546694" lon="21.575410165173">
        <ele>37.4</ele>
        <time>2017-07-26T17:11:18Z</time>
      </trkpt>
      <trkpt lat="60.115378821463" lon="21.575464563704">
        <ele>37.4</ele>
        <time>2017-07-26T17:11:19Z</time>
      </trkpt>
      <trkpt lat="60.115384604974" lon="21.575517621131">
        <ele>37.4</ele>
        <time>2017-07-26T17:11:20Z</time>
      </trkpt>
      <trkpt lat="60.115391226675" lon="21.575570259463">
        <ele>37.4</ele>
        <time>2017-07-26T17:11:21Z</time>
      </trkpt>
      <trkpt lat="60.115395417625" lon="21.575609654393">
        <ele>37.4</ele>
        <time>2017-07-26T17:11:22Z</time>
      </trkpt>
      <trkpt lat="60.115400698222" lon="21.575665896942">
        <ele>37.4</ele>
        <time>2017-07-26T17:11:23Z</time>
      </trkpt>
      <trkpt lat="60.115408744846" lon="21.575706213881">
        <ele>37.4</ele>
        <time>2017-07-26T17:11:24Z</time>
      </trkpt>
      <trkpt lat="60.115412265244" lon="21.57575491272">
        <ele>37.4</ele>
        <time>2017-07-26T17:11:25Z</time>
      </trkpt>
      <trkpt lat="60.115419808954" lon="21.575805707034">
        <ele>37.4</ele>
        <time>2017-07-26T17:11:26Z</time>
      </trkpt>
      <trkpt lat="60.115423832266" lon="21.575864547972">
        <ele>37.4</ele>
        <time>2017-07-26T17:11:27Z</time>
      </trkpt>
      <trkpt lat="60.115433136175" lon="21.575916096657">
        <ele>37.4</ele>
        <time>2017-07-26T17:11:28Z</time>
      </trkpt>
      <trkpt lat="60.115441853351" lon="21.575976027242">
        <ele>37.4</ele>
        <time>2017-07-26T17:11:29Z</time>
      </trkpt>
      <trkpt lat="60.11544948088" lon="21.576046351383">
        <ele>37.4</ele>
        <time>2017-07-26T17:11:30Z</time>
      </trkpt>
      <trkpt lat="60.115457778961" lon="21.576104186493">
        <ele>37.4</ele>
        <time>2017-07-26T17:11:31Z</time>
      </trkpt>
      <trkpt lat="60.115464233024" lon="21.57616394944">
        <ele>37.4</ele>
        <time>2017-07-26T17:11:32Z</time>
      </trkpt>
      <trkpt lat="60.115471022363" lon="21.576218683247">
        <ele>37.4</ele>
        <time>2017-07-26T17:11:33Z</time>
      </trkpt>
      <trkpt lat="60.115477560245" lon="21.576271573036">
        <ele>37.4</ele>
        <time>2017-07-26T17:11:34Z</time>
      </trkpt>
      <trkpt lat="60.115484601041" lon="21.576320607151">
        <ele>37.4</ele>
        <time>2017-07-26T17:11:35Z</time>
      </trkpt>
      <trkpt lat="60.11549390495" lon="21.576368132524">
        <ele>37.4</ele>
        <time>2017-07-26T17:11:36Z</time>
      </trkpt>
      <trkpt lat="60.115496670977" lon="21.576423117788">
        <ele>37.4</ele>
        <time>2017-07-26T17:11:37Z</time>
      </trkpt>
      <trkpt lat="60.115505891067" lon="21.576471984265">
        <ele>37.4</ele>
        <time>2017-07-26T17:11:38Z</time>
      </trkpt>
      <trkpt lat="60.115513267139" lon="21.576522527122">
        <ele>37.4</ele>
        <time>2017-07-26T17:11:39Z</time>
      </trkpt>
      <trkpt lat="60.115521649039" lon="21.57657466254">
        <ele>37.4</ele>
        <time>2017-07-26T17:11:40Z</time>
      </trkpt>
      <trkpt lat="60.115531372043" lon="21.576636269505">
        <ele>37.4</ele>
        <time>2017-07-26T17:11:41Z</time>
      </trkpt>
      <trkpt lat="60.115538748115" lon="21.576688404923">
        <ele>37.4</ele>
        <time>2017-07-26T17:11:42Z</time>
      </trkpt>
      <trkpt lat="60.115545453635" lon="21.576739953608">
        <ele>37.4</ele>
        <time>2017-07-26T17:11:43Z</time>
      </trkpt>
      <trkpt lat="60.115554506087" lon="21.576780689642">
        <ele>37.4</ele>
        <time>2017-07-26T17:11:44Z</time>
      </trkpt>
      <trkpt lat="60.115559619046" lon="21.57683366325">
        <ele>37.4</ele>
        <time>2017-07-26T17:11:45Z</time>
      </trkpt>
      <trkpt lat="60.115563893815" lon="21.576869202506">
        <ele>37.4</ele>
        <time>2017-07-26T17:11:46Z</time>
      </trkpt>
      <trkpt lat="60.115576131389" lon="21.576953859696">
        <ele>37.4</ele>
        <time>2017-07-26T17:11:47Z</time>
      </trkpt>
      <trkpt lat="60.115585519117" lon="21.57700800677">
        <ele>37.4</ele>
        <time>2017-07-26T17:11:48Z</time>
      </trkpt>
      <trkpt lat="60.115592727551" lon="21.577060561283">
        <ele>37.4</ele>
        <time>2017-07-26T17:11:49Z</time>
      </trkpt>
      <trkpt lat="60.11559951689" lon="21.577115043633">
        <ele>37.4</ele>
        <time>2017-07-26T17:11:50Z</time>
      </trkpt>
      <trkpt lat="60.115608569342" lon="21.577171034725">
        <ele>37.4</ele>
        <time>2017-07-26T17:11:51Z</time>
      </trkpt>
      <trkpt lat="60.115617789432" lon="21.577214955881">
        <ele>37.4</ele>
        <time>2017-07-26T17:11:52Z</time>
      </trkpt>
      <trkpt lat="60.115627847712" lon="21.577273629181">
        <ele>37.4</ele>
        <time>2017-07-26T17:11:53Z</time>
      </trkpt>
      <trkpt lat="60.115634637051" lon="21.577315957776">
        <ele>37.4</ele>
        <time>2017-07-26T17:11:54Z</time>
      </trkpt>
      <trkpt lat="60.115644611512" lon="21.577371529773">
        <ele>37.4</ele>
        <time>2017-07-26T17:11:55Z</time>
      </trkpt>
      <trkpt lat="60.115651736127" lon="21.577424000467">
        <ele>37.4</ele>
        <time>2017-07-26T17:11:56Z</time>
      </trkpt>
      <trkpt lat="60.115660369484" lon="21.577479823921">
        <ele>37.4</ele>
        <time>2017-07-26T17:11:57Z</time>
      </trkpt>
      <trkpt lat="60.115668919022" lon="21.577529947683">
        <ele>37.4</ele>
        <time>2017-07-26T17:11:58Z</time>
      </trkpt>
      <trkpt lat="60.115679061121" lon="21.577584849128">
        <ele>37.4</ele>
        <time>2017-07-26T17:11:59Z</time>
      </trkpt>
      <trkpt lat="60.115689622315" lon="21.577635056709">
        <ele>37.4</ele>
        <time>2017-07-26T17:12:00Z</time>
      </trkpt>
      <trkpt lat="60.115698926224" lon="21.577681827711">
        <ele>37.4</ele>
        <time>2017-07-26T17:12:01Z</time>
      </trkpt>
      <trkpt lat="60.115707140486" lon="21.577735220414">
        <ele>37.4</ele>
        <time>2017-07-26T17:12:02Z</time>
      </trkpt>
      <trkpt lat="60.11571686349" lon="21.577782075235">
        <ele>37.4</ele>
        <time>2017-07-26T17:12:03Z</time>
      </trkpt>
      <trkpt lat="60.115722982277" lon="21.577821553984">
        <ele>37.4</ele>
        <time>2017-07-26T17:12:04Z</time>
      </trkpt>
      <trkpt lat="60.115733208195" lon="21.577875617239">
        <ele>37.4</ele>
        <time>2017-07-26T17:12:05Z</time>
      </trkpt>
      <trkpt lat="60.115740835724" lon="21.577927165924">
        <ele>37.4</ele>
        <time>2017-07-26T17:12:06Z</time>
      </trkpt>
      <trkpt lat="60.115750055814" lon="21.577976786772">
        <ele>37.4</ele>
        <time>2017-07-26T17:12:07Z</time>
      </trkpt>
      <trkpt lat="60.115759946456" lon="21.578025401792">
        <ele>37.4</ele>
        <time>2017-07-26T17:12:08Z</time>
      </trkpt>
      <trkpt lat="60.11576883127" lon="21.578069742043">
        <ele>37.4</ele>
        <time>2017-07-26T17:12:09Z</time>
      </trkpt>
      <trkpt lat="60.11578391869" lon="21.578116680683">
        <ele>37.4</ele>
        <time>2017-07-26T17:12:10Z</time>
      </trkpt>
      <trkpt lat="60.115798922291" lon="21.57817644363">
        <ele>37.4</ele>
        <time>2017-07-26T17:12:11Z</time>
      </trkpt>
      <trkpt lat="60.11580990258" lon="21.578223298451">
        <ele>37.4</ele>
        <time>2017-07-26T17:12:12Z</time>
      </trkpt>
      <trkpt lat="60.115821134326" lon="21.578274679498">
        <ele>37.4</ele>
        <time>2017-07-26T17:12:13Z</time>
      </trkpt>
      <trkpt lat="60.115832198434" lon="21.578313403876">
        <ele>37.4</ele>
        <time>2017-07-26T17:12:14Z</time>
      </trkpt>
      <trkpt lat="60.115846447664" lon="21.57836755095">
        <ele>37.4</ele>
        <time>2017-07-26T17:12:15Z</time>
      </trkpt>
      <trkpt lat="60.11585767941" lon="21.578413567581">
        <ele>37.4</ele>
        <time>2017-07-26T17:12:16Z</time>
      </trkpt>
      <trkpt lat="60.115871006631" lon="21.578471318872">
        <ele>37.4</ele>
        <time>2017-07-26T17:12:17Z</time>
      </trkpt>
      <trkpt lat="60.115886513146" lon="21.578525885041">
        <ele>37.4</ele>
        <time>2017-07-26T17:12:18Z</time>
      </trkpt>
      <trkpt lat="60.115894475951" lon="21.578568129817">
        <ele>37.4</ele>
        <time>2017-07-26T17:12:19Z</time>
      </trkpt>
      <trkpt lat="60.115906545887" lon="21.578598639933">
        <ele>37.4</ele>
        <time>2017-07-26T17:12:20Z</time>
      </trkpt>
      <trkpt lat="60.115918951099" lon="21.578666533323">
        <ele>37.4</ele>
        <time>2017-07-26T17:12:21Z</time>
      </trkpt>
      <trkpt lat="60.115924650791" lon="21.578712130859">
        <ele>37.4</ele>
        <time>2017-07-26T17:12:22Z</time>
      </trkpt>
      <trkpt lat="60.115942085143" lon="21.578762086983">
        <ele>37.4</ele>
        <time>2017-07-26T17:12:23Z</time>
      </trkpt>
      <trkpt lat="60.115948036292" lon="21.578809025623">
        <ele>37.4</ele>
        <time>2017-07-26T17:12:24Z</time>
      </trkpt>
      <trkpt lat="60.115959016581" lon="21.5788495102">
        <ele>37.4</ele>
        <time>2017-07-26T17:12:25Z</time>
      </trkpt>
      <trkpt lat="60.115972595259" lon="21.578898711953">
        <ele>37.4</ele>
        <time>2017-07-26T17:12:26Z</time>
      </trkpt>
      <trkpt lat="60.115989945792" lon="21.578943638937">
        <ele>37.4</ele>
        <time>2017-07-26T17:12:27Z</time>
      </trkpt>
      <trkpt lat="60.11599765714" lon="21.578985716075">
        <ele>37.4</ele>
        <time>2017-07-26T17:12:28Z</time>
      </trkpt>
      <trkpt lat="60.116006793411" lon="21.579027793213">
        <ele>37.4</ele>
        <time>2017-07-26T17:12:29Z</time>
      </trkpt>
      <trkpt lat="60.116019785356" lon="21.579077749337">
        <ele>37.4</ele>
        <time>2017-07-26T17:12:30Z</time>
      </trkpt>
      <trkpt lat="60.116032442025" lon="21.57912946566">
        <ele>37.4</ele>
        <time>2017-07-26T17:12:31Z</time>
      </trkpt>
      <trkpt lat="60.116048702911" lon="21.57917137516">
        <ele>37.4</ele>
        <time>2017-07-26T17:12:32Z</time>
      </trkpt>
      <trkpt lat="60.116062365408" lon="21.579220241637">
        <ele>37.4</ele>
        <time>2017-07-26T17:12:33Z</time>
      </trkpt>
      <trkpt lat="60.116075860267" lon="21.579270868313">
        <ele>37.4</ele>
        <time>2017-07-26T17:12:34Z</time>
      </trkpt>
      <trkpt lat="60.116095054818" lon="21.579343707024">
        <ele>37.4</ele>
        <time>2017-07-26T17:12:35Z</time>
      </trkpt>
      <trkpt lat="60.116113662636" lon="21.579405816903">
        <ele>37.4</ele>
        <time>2017-07-26T17:12:36Z</time>
      </trkpt>
      <trkpt lat="60.11613344392" lon="21.579465412212">
        <ele>37.4</ele>
        <time>2017-07-26T17:12:37Z</time>
      </trkpt>
      <trkpt lat="60.116151465005" lon="21.57952509134">
        <ele>37.4</ele>
        <time>2017-07-26T17:12:38Z</time>
      </trkpt>
      <trkpt lat="60.116172168298" lon="21.579588290866">
        <ele>37.4</ele>
        <time>2017-07-26T17:12:39Z</time>
      </trkpt>
      <trkpt lat="60.116195134704" lon="21.579653250591">
        <ele>37.4</ele>
        <time>2017-07-26T17:12:40Z</time>
      </trkpt>
      <trkpt lat="60.116220867137" lon="21.579729777338">
        <ele>37.4</ele>
        <time>2017-07-26T17:12:41Z</time>
      </trkpt>
      <trkpt lat="60.116243582086" lon="21.57979331214">
        <ele>37.4</ele>
        <time>2017-07-26T17:12:42Z</time>
      </trkpt>
      <trkpt lat="60.11626755432" lon="21.579865480299">
        <ele>37.4</ele>
        <time>2017-07-26T17:12:43Z</time>
      </trkpt>
      <trkpt lat="60.116289011984" lon="21.579926416712">
        <ele>37.4</ele>
        <time>2017-07-26T17:12:44Z</time>
      </trkpt>
      <trkpt lat="60.116317510444" lon="21.579996657034">
        <ele>37.4</ele>
        <time>2017-07-26T17:12:45Z</time>
      </trkpt>
      <trkpt lat="60.116334441882" lon="21.580048876271">
        <ele>37.4</ele>
        <time>2017-07-26T17:12:46Z</time>
      </trkpt>
      <trkpt lat="60.116356653917" lon="21.580110567055">
        <ele>37.4</ele>
        <time>2017-07-26T17:12:47Z</time>
      </trkpt>
      <trkpt lat="60.116372244251" lon="21.580153817659">
        <ele>37.4</ele>
        <time>2017-07-26T17:12:48Z</time>
      </trkpt>
      <trkpt lat="60.116388505137" lon="21.580187345259">
        <ele>37.4</ele>
        <time>2017-07-26T17:12:49Z</time>
      </trkpt>
      <trkpt lat="60.116411052448" lon="21.58024593474">
        <ele>37.4</ele>
        <time>2017-07-26T17:12:50Z</time>
      </trkpt>
      <trkpt lat="60.116431252827" lon="21.580298153977">
        <ele>37.4</ele>
        <time>2017-07-26T17:12:51Z</time>
      </trkpt>
      <trkpt lat="60.116453883957" lon="21.580355569992">
        <ele>37.4</ele>
        <time>2017-07-26T17:12:52Z</time>
      </trkpt>
      <trkpt lat="60.116475090164" lon="21.580405861392">
        <ele>37.4</ele>
        <time>2017-07-26T17:12:53Z</time>
      </trkpt>
      <trkpt lat="60.116490261403" lon="21.5804504531">
        <ele>37.2</ele>
        <time>2017-07-26T17:12:54Z</time>
      </trkpt>
      <trkpt lat="60.11650895304" lon="21.580504013441">
        <ele>37.4</ele>
        <time>2017-07-26T17:12:55Z</time>
      </trkpt>
      <trkpt lat="60.116529823971" lon="21.580551371176">
        <ele>37.4</ele>
        <time>2017-07-26T17:12:56Z</time>
      </trkpt>
      <trkpt lat="60.116546001038" lon="21.580590011735">
        <ele>37.4</ele>
        <time>2017-07-26T17:12:57Z</time>
      </trkpt>
      <trkpt lat="60.116563351571" lon="21.580633932891">
        <ele>37.4</ele>
        <time>2017-07-26T17:12:58Z</time>
      </trkpt>
      <trkpt lat="60.11658271376" lon="21.580679949522">
        <ele>37.4</ele>
        <time>2017-07-26T17:12:59Z</time>
      </trkpt>
      <trkpt lat="60.116600064293" lon="21.580720434099">
        <ele>37.4</ele>
        <time>2017-07-26T17:13:00Z</time>
      </trkpt>
      <trkpt lat="60.116616911912" lon="21.580759577572">
        <ele>37.4</ele>
        <time>2017-07-26T17:13:01Z</time>
      </trkpt>
      <trkpt lat="60.116633172798" lon="21.580800565063">
        <ele>37.4</ele>
        <time>2017-07-26T17:13:02Z</time>
      </trkpt>
      <trkpt lat="60.116648427856" lon="21.580841720192">
        <ele>37.4</ele>
        <time>2017-07-26T17:13:03Z</time>
      </trkpt>
      <trkpt lat="60.116662090353" lon="21.580874409602">
        <ele>37.4</ele>
        <time>2017-07-26T17:13:04Z</time>
      </trkpt>
      <trkpt lat="60.116686146406" lon="21.58092738321">
        <ele>37.4</ele>
        <time>2017-07-26T17:13:05Z</time>
      </trkpt>
      <trkpt lat="60.11670425131" lon="21.580971472004">
        <ele>37.4</ele>
        <time>2017-07-26T17:13:06Z</time>
      </trkpt>
      <trkpt lat="60.116721350386" lon="21.581015309341">
        <ele>37.4</ele>
        <time>2017-07-26T17:13:07Z</time>
      </trkpt>
      <trkpt lat="60.116737695091" lon="21.581056045375">
        <ele>37.4</ele>
        <time>2017-07-26T17:13:08Z</time>
      </trkpt>
      <trkpt lat="60.116756554366" lon="21.581092674278">
        <ele>37.4</ele>
        <time>2017-07-26T17:13:09Z</time>
      </trkpt>
      <trkpt lat="60.116777676754" lon="21.58114363623">
        <ele>37.4</ele>
        <time>2017-07-26T17:13:10Z</time>
      </trkpt>
      <trkpt lat="60.116795446382" lon="21.581187808843">
        <ele>37.4</ele>
        <time>2017-07-26T17:13:11Z</time>
      </trkpt>
      <trkpt lat="60.116812796915" lon="21.581229550705">
        <ele>37.4</ele>
        <time>2017-07-26T17:13:12Z</time>
      </trkpt>
      <trkpt lat="60.116830985638" lon="21.581271208748">
        <ele>37.4</ele>
        <time>2017-07-26T17:13:13Z</time>
      </trkpt>
      <trkpt lat="60.116845234868" lon="21.581303311425">
        <ele>37.4</ele>
        <time>2017-07-26T17:13:14Z</time>
      </trkpt>
      <trkpt lat="60.116864848514" lon="21.581347484038">
        <ele>37.4</ele>
        <time>2017-07-26T17:13:15Z</time>
      </trkpt>
      <trkpt lat="60.116880103572" lon="21.581385789321">
        <ele>37.4</ele>
        <time>2017-07-26T17:13:16Z</time>
      </trkpt>
      <trkpt lat="60.116899884856" lon="21.58142694445">
        <ele>37.4</ele>
        <time>2017-07-26T17:13:17Z</time>
      </trkpt>
      <trkpt lat="60.116914217905" lon="21.581461729335">
        <ele>37.4</ele>
        <time>2017-07-26T17:13:18Z</time>
      </trkpt>
      <trkpt lat="60.116928131859" lon="21.581501962455">
        <ele>37.4</ele>
        <time>2017-07-26T17:13:19Z</time>
      </trkpt>
      <trkpt lat="60.116942800184" lon="21.581538172263">
        <ele>37.4</ele>
        <time>2017-07-26T17:13:20Z</time>
      </trkpt>
      <trkpt lat="60.116957719966" lon="21.58157195132">
        <ele>37.4</ele>
        <time>2017-07-26T17:13:21Z</time>
      </trkpt>
      <trkpt lat="60.116971885377" lon="21.581602461436">
        <ele>37.4</ele>
        <time>2017-07-26T17:13:22Z</time>
      </trkpt>
      <trkpt lat="60.116988062444" lon="21.581638755063">
        <ele>37.4</ele>
        <time>2017-07-26T17:13:23Z</time>
      </trkpt>
      <trkpt lat="60.117001724941" lon="21.581672701758">
        <ele>37.4</ele>
        <time>2017-07-26T17:13:24Z</time>
      </trkpt>
      <trkpt lat="60.117015135981" lon="21.58170438534">
        <ele>37.6</ele>
        <time>2017-07-26T17:13:25Z</time>
      </trkpt>
      <trkpt lat="60.117027541193" lon="21.581737745302">
        <ele>37.4</ele>
        <time>2017-07-26T17:13:26Z</time>
      </trkpt>
      <trkpt lat="60.117039359672" lon="21.58177060235">
        <ele>37.4</ele>
        <time>2017-07-26T17:13:27Z</time>
      </trkpt>
      <trkpt lat="60.117051848703" lon="21.581786947055">
        <ele>37.4</ele>
        <time>2017-07-26T17:13:28Z</time>
      </trkpt>
      <trkpt lat="60.117065175924" lon="21.581809913461">
        <ele>37.4</ele>
        <time>2017-07-26T17:13:29Z</time>
      </trkpt>
      <trkpt lat="60.117079089878" lon="21.581833634238">
        <ele>37.4</ele>
        <time>2017-07-26T17:13:30Z</time>
      </trkpt>
      <trkpt lat="60.11709652423" lon="21.58186447963">
        <ele>37.4</ele>
        <time>2017-07-26T17:13:31Z</time>
      </trkpt>
      <trkpt lat="60.117113120392" lon="21.581880237602">
        <ele>37.4</ele>
        <time>2017-07-26T17:13:32Z</time>
      </trkpt>
      <trkpt lat="60.117130554744" lon="21.581890631158">
        <ele>37.4</ele>
        <time>2017-07-26T17:13:33Z</time>
      </trkpt>
      <trkpt lat="60.117150419847" lon="21.581903371646">
        <ele>37.4</ele>
        <time>2017-07-26T17:13:34Z</time>
      </trkpt>
      <trkpt lat="60.117179840316" lon="21.581877555394">
        <ele>37.8</ele>
        <time>2017-07-26T17:13:35Z</time>
      </trkpt>
      <trkpt lat="60.117202387627" lon="21.581847548192">
        <ele>38</ele>
        <time>2017-07-26T17:13:36Z</time>
      </trkpt>
      <trkpt lat="60.117230299354" lon="21.581805722511">
        <ele>38.2</ele>
        <time>2017-07-26T17:13:37Z</time>
      </trkpt>
      <trkpt lat="60.117250499733" lon="21.581753251817">
        <ele>38.6</ele>
        <time>2017-07-26T17:13:38Z</time>
      </trkpt>
      <trkpt lat="60.117273466139" lon="21.581705894082">
        <ele>39</ele>
        <time>2017-07-26T17:13:39Z</time>
      </trkpt>
      <trkpt lat="60.11729349888" lon="21.581655351225">
        <ele>39.4</ele>
        <time>2017-07-26T17:13:40Z</time>
      </trkpt>
      <trkpt lat="60.117315794734" lon="21.581599108676">
        <ele>39.4</ele>
        <time>2017-07-26T17:13:41Z</time>
      </trkpt>
      <trkpt lat="60.11734127571" lon="21.581555606615">
        <ele>39.4</ele>
        <time>2017-07-26T17:13:42Z</time>
      </trkpt>
      <trkpt lat="60.117366672867" lon="21.581508835613">
        <ele>39.4</ele>
        <time>2017-07-26T17:13:43Z</time>
      </trkpt>
      <trkpt lat="60.117386286513" lon="21.581465836466">
        <ele>39.4</ele>
        <time>2017-07-26T17:13:44Z</time>
      </trkpt>
      <trkpt lat="60.117408917643" lon="21.581410264469">
        <ele>39.4</ele>
        <time>2017-07-26T17:13:45Z</time>
      </trkpt>
      <trkpt lat="60.117431884049" lon="21.581353435187">
        <ele>39.4</ele>
        <time>2017-07-26T17:13:46Z</time>
      </trkpt>
      <trkpt lat="60.117457867939" lon="21.581294175154">
        <ele>39.4</ele>
        <time>2017-07-26T17:13:47Z</time>
      </trkpt>
      <trkpt lat="60.117480331431" lon="21.581234831302">
        <ele>39.4</ele>
        <time>2017-07-26T17:13:48Z</time>
      </trkpt>
      <trkpt lat="60.117503214018" lon="21.581182025332">
        <ele>39.4</ele>
        <time>2017-07-26T17:13:49Z</time>
      </trkpt>
      <trkpt lat="60.11752567751" lon="21.581133075036">
        <ele>39.4</ele>
        <time>2017-07-26T17:13:50Z</time>
      </trkpt>
      <trkpt lat="60.117549314468" lon="21.58108496293">
        <ele>39.4</ele>
        <time>2017-07-26T17:13:51Z</time>
      </trkpt>
      <trkpt lat="60.117571694141" lon="21.581046322371">
        <ele>39.4</ele>
        <time>2017-07-26T17:13:52Z</time>
      </trkpt>
      <trkpt lat="60.117598516221" lon="21.581005670156">
        <ele>39.4</ele>
        <time>2017-07-26T17:13:53Z</time>
      </trkpt>
      <trkpt lat="60.117625505939" lon="21.580960407896">
        <ele>39.4</ele>
        <time>2017-07-26T17:13:54Z</time>
      </trkpt>
      <trkpt lat="60.117651489829" lon="21.580921264423">
        <ele>39.4</ele>
        <time>2017-07-26T17:13:55Z</time>
      </trkpt>
      <trkpt lat="60.117678395728" lon="21.580885976624">
        <ele>39.4</ele>
        <time>2017-07-26T17:13:56Z</time>
      </trkpt>
      <trkpt lat="60.117705301627" lon="21.580851191739">
        <ele>39.4</ele>
        <time>2017-07-26T17:13:57Z</time>
      </trkpt>
      <trkpt lat="60.117727262205" lon="21.580818167053">
        <ele>39.4</ele>
        <time>2017-07-26T17:13:58Z</time>
      </trkpt>
      <trkpt lat="60.117760286891" lon="21.580786902566">
        <ele>39.4</ele>
        <time>2017-07-26T17:13:59Z</time>
      </trkpt>
      <trkpt lat="60.11779054555" lon="21.580755973355">
        <ele>39.4</ele>
        <time>2017-07-26T17:14:00Z</time>
      </trkpt>
      <trkpt lat="60.117820301295" lon="21.580724038316">
        <ele>39.4</ele>
        <time>2017-07-26T17:14:01Z</time>
      </trkpt>
      <trkpt lat="60.117849973221" lon="21.58069185182">
        <ele>39.4</ele>
        <time>2017-07-26T17:14:02Z</time>
      </trkpt>
      <trkpt lat="60.117878220224" lon="21.580658491858">
        <ele>39.4</ele>
        <time>2017-07-26T17:14:03Z</time>
      </trkpt>
      <trkpt lat="60.117908646521" lon="21.580635860728">
        <ele>39.4</ele>
        <time>2017-07-26T17:14:04Z</time>
      </trkpt>
      <trkpt lat="60.117936558248" lon="21.58061054739">
        <ele>39.4</ele>
        <time>2017-07-26T17:14:05Z</time>
      </trkpt>
      <trkpt lat="60.117962458319" lon="21.580587832441">
        <ele>39.4</ele>
        <time>2017-07-26T17:14:06Z</time>
      </trkpt>
      <trkpt lat="60.117989112761" lon="21.580569392261">
        <ele>39.4</ele>
        <time>2017-07-26T17:14:07Z</time>
      </trkpt>
      <trkpt lat="60.11801601866" lon="21.580551454995">
        <ele>39.4</ele>
        <time>2017-07-26T17:14:08Z</time>
      </trkpt>
      <trkpt lat="60.118035716125" lon="21.580535697023">
        <ele>39.4</ele>
        <time>2017-07-26T17:14:09Z</time>
      </trkpt>
      <trkpt lat="60.118066980612" lon="21.580522034526">
        <ele>39.4</ele>
        <time>2017-07-26T17:14:10Z</time>
      </trkpt>
      <trkpt lat="60.118090449932" lon="21.580511221875">
        <ele>39.4</ele>
        <time>2017-07-26T17:14:11Z</time>
      </trkpt>
      <trkpt lat="60.118118445478" lon="21.580505354545">
        <ele>39.6</ele>
        <time>2017-07-26T17:14:12Z</time>
      </trkpt>
      <trkpt lat="60.118140406056" lon="21.580498062292">
        <ele>39.4</ele>
        <time>2017-07-26T17:14:13Z</time>
      </trkpt>
      <trkpt lat="60.118164210652" lon="21.580488255469">
        <ele>39.6</ele>
        <time>2017-07-26T17:14:14Z</time>
      </trkpt>
      <trkpt lat="60.118188518162" lon="21.580470485841">
        <ele>39.6</ele>
        <time>2017-07-26T17:14:15Z</time>
      </trkpt>
      <trkpt lat="60.118211149292" lon="21.580468222728">
        <ele>39.4</ele>
        <time>2017-07-26T17:14:16Z</time>
      </trkpt>
      <trkpt lat="60.118230762938" lon="21.580462020122">
        <ele>39.4</ele>
        <time>2017-07-26T17:14:17Z</time>
      </trkpt>
      <trkpt lat="60.118248029652" lon="21.580455063145">
        <ele>39.4</ele>
        <time>2017-07-26T17:14:18Z</time>
      </trkpt>
      <trkpt lat="60.118265631642" lon="21.580454979326">
        <ele>39.4</ele>
        <time>2017-07-26T17:14:19Z</time>
      </trkpt>
      <trkpt lat="60.118280551424" lon="21.580455314602">
        <ele>39.6</ele>
        <time>2017-07-26T17:14:20Z</time>
      </trkpt>
      <trkpt lat="60.118288095134" lon="21.58046302595">
        <ele>39.6</ele>
        <time>2017-07-26T17:14:21Z</time>
      </trkpt>
      <trkpt lat="60.118309804255" lon="21.580464953787">
        <ele>39.6</ele>
        <time>2017-07-26T17:14:22Z</time>
      </trkpt>
      <trkpt lat="60.118337548344" lon="21.580459505552">
        <ele>39.4</ele>
        <time>2017-07-26T17:14:23Z</time>
      </trkpt>
      <trkpt lat="60.118356407619" lon="21.580463445045">
        <ele>39.6</ele>
        <time>2017-07-26T17:14:24Z</time>
      </trkpt>
      <trkpt lat="60.118383062061" lon="21.580455566059">
        <ele>39.6</ele>
        <time>2017-07-26T17:14:25Z</time>
      </trkpt>
      <trkpt lat="60.118407201933" lon="21.580452464756">
        <ele>39.6</ele>
        <time>2017-07-26T17:14:26Z</time>
      </trkpt>
      <trkpt lat="60.118431174167" lon="21.580451626566">
        <ele>39.4</ele>
        <time>2017-07-26T17:14:27Z</time>
      </trkpt>
      <trkpt lat="60.118456487505" lon="21.580459086457">
        <ele>39.4</ele>
        <time>2017-07-26T17:14:28Z</time>
      </trkpt>
      <trkpt lat="60.118482219938" lon="21.580462606855">
        <ele>39.6</ele>
        <time>2017-07-26T17:14:29Z</time>
      </trkpt>
      <trkpt lat="60.118507198" lon="21.580463612683">
        <ele>39.6</ele>
        <time>2017-07-26T17:14:30Z</time>
      </trkpt>
      <trkpt lat="60.118539133039" lon="21.580464450873">
        <ele>39.4</ele>
        <time>2017-07-26T17:14:31Z</time>
      </trkpt>
      <trkpt lat="60.118564362558" lon="21.580466630167">
        <ele>39.4</ele>
        <time>2017-07-26T17:14:32Z</time>
      </trkpt>
      <trkpt lat="60.118587328964" lon="21.580463528864">
        <ele>39.4</ele>
        <time>2017-07-26T17:14:33Z</time>
      </trkpt>
      <trkpt lat="60.118609792456" lon="21.580467552176">
        <ele>39.4</ele>
        <time>2017-07-26T17:14:34Z</time>
      </trkpt>
      <trkpt lat="60.118640051115" lon="21.580472916592">
        <ele>39.6</ele>
        <time>2017-07-26T17:14:35Z</time>
      </trkpt>
      <trkpt lat="60.118662933702" lon="21.580469060918">
        <ele>39.6</ele>
        <time>2017-07-26T17:14:36Z</time>
      </trkpt>
      <trkpt lat="60.118690258696" lon="21.580476856085">
        <ele>39.6</ele>
        <time>2017-07-26T17:14:37Z</time>
      </trkpt>
      <trkpt lat="60.11870752541" lon="21.580475347343">
        <ele>39.4</ele>
        <time>2017-07-26T17:14:38Z</time>
      </trkpt>
      <trkpt lat="60.118729569807" lon="21.580469982927">
        <ele>39.6</ele>
        <time>2017-07-26T17:14:39Z</time>
      </trkpt>
      <trkpt lat="60.118750776014" lon="21.580468809461">
        <ele>39.4</ele>
        <time>2017-07-26T17:14:40Z</time>
      </trkpt>
      <trkpt lat="60.11877458061" lon="21.5804672169">
        <ele>39.6</ele>
        <time>2017-07-26T17:14:41Z</time>
      </trkpt>
      <trkpt lat="60.118795870636" lon="21.580470150565">
        <ele>39.4</ele>
        <time>2017-07-26T17:14:42Z</time>
      </trkpt>
      <trkpt lat="60.118815149006" lon="21.580475012067">
        <ele>39.4</ele>
        <time>2017-07-26T17:14:43Z</time>
      </trkpt>
      <trkpt lat="60.118836271394" lon="21.580473168049">
        <ele>39.6</ele>
        <time>2017-07-26T17:14:44Z</time>
      </trkpt>
      <trkpt lat="60.118863177293" lon="21.58047392242">
        <ele>39.4</ele>
        <time>2017-07-26T17:14:45Z</time>
      </trkpt>
      <trkpt lat="60.118880108731" lon="21.580477023723">
        <ele>39.4</ele>
        <time>2017-07-26T17:14:46Z</time>
      </trkpt>
      <trkpt lat="60.118918916928" lon="21.5804755988">
        <ele>39.4</ele>
        <time>2017-07-26T17:14:47Z</time>
      </trkpt>
      <trkpt lat="60.118944481723" lon="21.58047643699">
        <ele>39.4</ele>
        <time>2017-07-26T17:14:48Z</time>
      </trkpt>
      <trkpt lat="60.118966358482" lon="21.580470904936">
        <ele>39.6</ele>
        <time>2017-07-26T17:14:49Z</time>
      </trkpt>
      <trkpt lat="60.118995276037" lon="21.580464953787">
        <ele>39.6</ele>
        <time>2017-07-26T17:14:50Z</time>
      </trkpt>
      <trkpt lat="60.119025702334" lon="21.58046386414">
        <ele>39.4</ele>
        <time>2017-07-26T17:14:51Z</time>
      </trkpt>
      <trkpt lat="60.119061660685" lon="21.580459421733">
        <ele>39.4</ele>
        <time>2017-07-26T17:14:52Z</time>
      </trkpt>
      <trkpt lat="60.119091332611" lon="21.580453722041">
        <ele>39.4</ele>
        <time>2017-07-26T17:14:53Z</time>
      </trkpt>
      <trkpt lat="60.119117065044" lon="21.580449195815">
        <ele>39.4</ele>
        <time>2017-07-26T17:14:54Z</time>
      </trkpt>
      <trkpt lat="60.119155370327" lon="21.5804420712">
        <ele>39.4</ele>
        <time>2017-07-26T17:14:55Z</time>
      </trkpt>
      <trkpt lat="60.119185545167" lon="21.580430168902">
        <ele>39.4</ele>
        <time>2017-07-26T17:14:56Z</time>
      </trkpt>
      <trkpt lat="60.119214127446" lon="21.580418098966">
        <ele>39.4</ele>
        <time>2017-07-26T17:14:57Z</time>
      </trkpt>
      <trkpt lat="60.119240949526" lon="21.580413991835">
        <ele>39.4</ele>
        <time>2017-07-26T17:14:58Z</time>
      </trkpt>
      <trkpt lat="60.119275063859" lon="21.580409717066">
        <ele>39.4</ele>
        <time>2017-07-26T17:14:59Z</time>
      </trkpt>
      <trkpt lat="60.119310267839" lon="21.580401502804">
        <ele>39.4</ele>
        <time>2017-07-26T17:15:00Z</time>
      </trkpt>
      <trkpt lat="60.119345974733" lon="21.580398652958">
        <ele>39.4</ele>
        <time>2017-07-26T17:15:01Z</time>
      </trkpt>
      <trkpt lat="60.119380843437" lon="21.580396389845">
        <ele>39.4</ele>
        <time>2017-07-26T17:15:02Z</time>
      </trkpt>
      <trkpt lat="60.119412527019" lon="21.580383816995">
        <ele>39.4</ele>
        <time>2017-07-26T17:15:03Z</time>
      </trkpt>
      <trkpt lat="60.119444713515" lon="21.580374261629">
        <ele>39.4</ele>
        <time>2017-07-26T17:15:04Z</time>
      </trkpt>
      <trkpt lat="60.119481007142" lon="21.580359425666">
        <ele>39.4</ele>
        <time>2017-07-26T17:15:05Z</time>
      </trkpt>
      <trkpt lat="60.119523251918" lon="21.580350959947">
        <ele>39.4</ele>
        <time>2017-07-26T17:15:06Z</time>
      </trkpt>
      <trkpt lat="60.119554181129" lon="21.580342997142">
        <ele>39.4</ele>
        <time>2017-07-26T17:15:07Z</time>
      </trkpt>
      <trkpt lat="60.119581087028" lon="21.580336626898">
        <ele>39.4</ele>
        <time>2017-07-26T17:15:08Z</time>
      </trkpt>
      <trkpt lat="60.119609082574" lon="21.580323299677">
        <ele>39.4</ele>
        <time>2017-07-26T17:15:09Z</time>
      </trkpt>
      <trkpt lat="60.119635234102" lon="21.58031047537">
        <ele>39.4</ele>
        <time>2017-07-26T17:15:10Z</time>
      </trkpt>
      <trkpt lat="60.119661888544" lon="21.580298824529">
        <ele>39.4</ele>
        <time>2017-07-26T17:15:11Z</time>
      </trkpt>
      <trkpt lat="60.119689213538" lon="21.580291197">
        <ele>39.4</ele>
        <time>2017-07-26T17:15:12Z</time>
      </trkpt>
      <trkpt lat="60.119720645663" lon="21.580280049073">
        <ele>39.4</ele>
        <time>2017-07-26T17:15:13Z</time>
      </trkpt>
      <trkpt lat="60.119751407236" lon="21.580263872006">
        <ele>39.4</ele>
        <time>2017-07-26T17:15:14Z</time>
      </trkpt>
      <trkpt lat="60.119779905696" lon="21.580248952224">
        <ele>39.4</ele>
        <time>2017-07-26T17:15:15Z</time>
      </trkpt>
      <trkpt lat="60.119817791884" lon="21.580228165112">
        <ele>39.4</ele>
        <time>2017-07-26T17:15:16Z</time>
      </trkpt>
      <trkpt lat="60.119846960896" lon="21.580210060208">
        <ele>39.4</ele>
        <time>2017-07-26T17:15:17Z</time>
      </trkpt>
      <trkpt lat="60.119882081057" lon="21.580194721331">
        <ele>39.4</ele>
        <time>2017-07-26T17:15:18Z</time>
      </trkpt>
      <trkpt lat="60.119914183734" lon="21.580177119341">
        <ele>39.4</ele>
        <time>2017-07-26T17:15:19Z</time>
      </trkpt>
      <trkpt lat="60.119951231732" lon="21.58015373384">
        <ele>39.4</ele>
        <time>2017-07-26T17:15:20Z</time>
      </trkpt>
      <trkpt lat="60.119985262246" lon="21.580133114366">
        <ele>39.4</ele>
        <time>2017-07-26T17:15:21Z</time>
      </trkpt>
      <trkpt lat="60.120017532561" lon="21.580115931471">
        <ele>39.4</ele>
        <time>2017-07-26T17:15:22Z</time>
      </trkpt>
      <trkpt lat="60.120051311618" lon="21.580098078024">
        <ele>39.4</ele>
        <time>2017-07-26T17:15:23Z</time>
      </trkpt>
      <trkpt lat="60.120081989372" lon="21.580088522658">
        <ele>39.4</ele>
        <time>2017-07-26T17:15:24Z</time>
      </trkpt>
      <trkpt lat="60.120112499488" lon="21.580063376958">
        <ele>39.4</ele>
        <time>2017-07-26T17:15:25Z</time>
      </trkpt>
      <trkpt lat="60.120141500862" lon="21.580038315077">
        <ele>39.4</ele>
        <time>2017-07-26T17:15:26Z</time>
      </trkpt>
      <trkpt lat="60.120173016806" lon="21.580013169377">
        <ele>39.4</ele>
        <time>2017-07-26T17:15:27Z</time>
      </trkpt>
      <trkpt lat="60.120205203302" lon="21.579992214627">
        <ele>39.4</ele>
        <time>2017-07-26T17:15:28Z</time>
      </trkpt>
      <trkpt lat="60.120239988187" lon="21.57996933204">
        <ele>39.4</ele>
        <time>2017-07-26T17:15:29Z</time>
      </trkpt>
      <trkpt lat="60.120275443624" lon="21.579941001218">
        <ele>39.4</ele>
        <time>2017-07-26T17:15:30Z</time>
      </trkpt>
      <trkpt lat="60.120309390319" lon="21.579916274613">
        <ele>39.4</ele>
        <time>2017-07-26T17:15:31Z</time>
      </trkpt>
      <trkpt lat="60.120347108869" lon="21.57988802761">
        <ele>39.4</ele>
        <time>2017-07-26T17:15:32Z</time>
      </trkpt>
      <trkpt lat="60.120377116071" lon="21.579863217186">
        <ele>39.4</ele>
        <time>2017-07-26T17:15:33Z</time>
      </trkpt>
      <trkpt lat="60.120407542368" lon="21.579838071486">
        <ele>39.4</ele>
        <time>2017-07-26T17:15:34Z</time>
      </trkpt>
      <trkpt lat="60.120433777715" lon="21.579814769804">
        <ele>39.4</ele>
        <time>2017-07-26T17:15:35Z</time>
      </trkpt>
      <trkpt lat="60.120462611451" lon="21.579791049027">
        <ele>39.4</ele>
        <time>2017-07-26T17:15:36Z</time>
      </trkpt>
      <trkpt lat="60.120488511522" lon="21.579769088449">
        <ele>39.4</ele>
        <time>2017-07-26T17:15:37Z</time>
      </trkpt>
      <trkpt lat="60.120519524552" lon="21.579749474803">
        <ele>39.4</ele>
        <time>2017-07-26T17:15:38Z</time>
      </trkpt>
      <trkpt lat="60.120548525926" lon="21.579727430406">
        <ele>39.4</ele>
        <time>2017-07-26T17:15:39Z</time>
      </trkpt>
      <trkpt lat="60.120579706594" lon="21.579709744597">
        <ele>39.4</ele>
        <time>2017-07-26T17:15:40Z</time>
      </trkpt>
      <trkpt lat="60.120612312185" lon="21.579688203114">
        <ele>39.4</ele>
        <time>2017-07-26T17:15:41Z</time>
      </trkpt>
      <trkpt lat="60.120645336871" lon="21.579662135405">
        <ele>39.4</ele>
        <time>2017-07-26T17:15:42Z</time>
      </trkpt>
      <trkpt lat="60.120676014625" lon="21.579634642773">
        <ele>39.4</ele>
        <time>2017-07-26T17:15:43Z</time>
      </trkpt>
      <trkpt lat="60.120703004343" lon="21.579613604204">
        <ele>39.4</ele>
        <time>2017-07-26T17:15:44Z</time>
      </trkpt>
      <trkpt lat="60.120738711237" lon="21.579583597002">
        <ele>39.4</ele>
        <time>2017-07-26T17:15:45Z</time>
      </trkpt>
      <trkpt lat="60.120763186385" lon="21.579546129909">
        <ele>39.4</ele>
        <time>2017-07-26T17:15:46Z</time>
      </trkpt>
      <trkpt lat="60.120794786148" lon="21.57951670944">
        <ele>39.4</ele>
        <time>2017-07-26T17:15:47Z</time>
      </trkpt>
      <trkpt lat="60.120825882997" lon="21.579496173785">
        <ele>39.4</ele>
        <time>2017-07-26T17:15:48Z</time>
      </trkpt>
      <trkpt lat="60.120850190507" lon="21.579474213207">
        <ele>39.4</ele>
        <time>2017-07-26T17:15:49Z</time>
      </trkpt>
      <trkpt lat="60.120881874089" lon="21.579448145498">
        <ele>39.4</ele>
        <time>2017-07-26T17:15:50Z</time>
      </trkpt>
      <trkpt lat="60.120910456368" lon="21.579420820504">
        <ele>39</ele>
        <time>2017-07-26T17:15:51Z</time>
      </trkpt>
      <trkpt lat="60.120940547389" lon="21.579400787763">
        <ele>38.6</ele>
        <time>2017-07-26T17:15:52Z</time>
      </trkpt>
      <trkpt lat="60.120972650066" lon="21.57937924628">
        <ele>38.2</ele>
        <time>2017-07-26T17:15:53Z</time>
      </trkpt>
      <trkpt lat="60.121004333648" lon="21.579359464996">
        <ele>38</ele>
        <time>2017-07-26T17:15:54Z</time>
      </trkpt>
      <trkpt lat="60.121043477121" lon="21.57932644031">
        <ele>37.4</ele>
        <time>2017-07-26T17:15:55Z</time>
      </trkpt>
      <trkpt lat="60.121072729952" lon="21.579299785868">
        <ele>37.4</ele>
        <time>2017-07-26T17:15:56Z</time>
      </trkpt>
      <trkpt lat="60.12110391062" lon="21.579272628512">
        <ele>37.4</ele>
        <time>2017-07-26T17:15:57Z</time>
      </trkpt>
      <trkpt lat="60.12113492365" lon="21.57924513588">
        <ele>37.4</ele>
        <time>2017-07-26T17:15:58Z</time>
      </trkpt>
      <trkpt lat="60.121166942508" lon="21.579219319628">
        <ele>37.4</ele>
        <time>2017-07-26T17:15:59Z</time>
      </trkpt>
      <trkpt lat="60.1212061698" lon="21.579187552227">
        <ele>37.4</ele>
        <time>2017-07-26T17:16:00Z</time>
      </trkpt>
      <trkpt lat="60.121236177002" lon="21.57916131688">
        <ele>37.2</ele>
        <time>2017-07-26T17:16:01Z</time>
      </trkpt>
      <trkpt lat="60.121264507824" lon="21.57913868575">
        <ele>37.4</ele>
        <time>2017-07-26T17:16:02Z</time>
      </trkpt>
      <trkpt lat="60.121297616329" lon="21.579113456231">
        <ele>37.4</ele>
        <time>2017-07-26T17:16:03Z</time>
      </trkpt>
      <trkpt lat="60.12132603097" lon="21.57909090892">
        <ele>37.4</ele>
        <time>2017-07-26T17:16:04Z</time>
      </trkpt>
      <trkpt lat="60.121362324597" lon="21.579056626949">
        <ele>37.4</ele>
        <time>2017-07-26T17:16:05Z</time>
      </trkpt>
      <trkpt lat="60.121389901048" lon="21.579034331095">
        <ele>37.4</ele>
        <time>2017-07-26T17:16:06Z</time>
      </trkpt>
      <trkpt lat="60.121414543834" lon="21.579015304182">
        <ele>37.4</ele>
        <time>2017-07-26T17:16:07Z</time>
      </trkpt>
      <trkpt lat="60.121438851344" lon="21.5790003844">
        <ele>37.4</ele>
        <time>2017-07-26T17:16:08Z</time>
      </trkpt>
      <trkpt lat="60.12146349413" lon="21.578982195677">
        <ele>37.4</ele>
        <time>2017-07-26T17:16:09Z</time>
      </trkpt>
      <trkpt lat="60.12149199259" lon="21.578953948674">
        <ele>37.4</ele>
        <time>2017-07-26T17:16:10Z</time>
      </trkpt>
      <trkpt lat="60.121514791358" lon="21.578931820458">
        <ele>37.4</ele>
        <time>2017-07-26T17:16:11Z</time>
      </trkpt>
      <trkpt lat="60.121536668117" lon="21.578915224296">
        <ele>37.4</ele>
        <time>2017-07-26T17:16:12Z</time>
      </trkpt>
      <trkpt lat="60.121561059446" lon="21.578896700297">
        <ele>37.4</ele>
        <time>2017-07-26T17:16:13Z</time>
      </trkpt>
      <trkpt lat="60.121582349472" lon="21.57887884685">
        <ele>37.4</ele>
        <time>2017-07-26T17:16:14Z</time>
      </trkpt>
      <trkpt lat="60.121605399697" lon="21.578854706978">
        <ele>37.4</ele>
        <time>2017-07-26T17:16:15Z</time>
      </trkpt>
      <trkpt lat="60.121625013343" lon="21.578837104988">
        <ele>37.6</ele>
        <time>2017-07-26T17:16:16Z</time>
      </trkpt>
      <trkpt lat="60.121657367477" lon="21.578808690347">
        <ele>37.4</ele>
        <time>2017-07-26T17:16:17Z</time>
      </trkpt>
      <trkpt lat="60.121683602824" lon="21.578783963742">
        <ele>37.4</ele>
        <time>2017-07-26T17:16:18Z</time>
      </trkpt>
      <trkpt lat="60.121713190931" lon="21.578758734223">
        <ele>37.4</ele>
        <time>2017-07-26T17:16:19Z</time>
      </trkpt>
      <trkpt lat="60.121740180649" lon="21.578734510532">
        <ele>37.6</ele>
        <time>2017-07-26T17:16:20Z</time>
      </trkpt>
      <trkpt lat="60.121763649969" lon="21.578710538298">
        <ele>37.4</ele>
        <time>2017-07-26T17:16:21Z</time>
      </trkpt>
      <trkpt lat="60.121788628031" lon="21.578684470589">
        <ele>37.4</ele>
        <time>2017-07-26T17:16:22Z</time>
      </trkpt>
      <trkpt lat="60.121815450111" lon="21.578665527495">
        <ele>37.4</ele>
        <time>2017-07-26T17:16:23Z</time>
      </trkpt>
      <trkpt lat="60.121838667974" lon="21.578645662392">
        <ele>37.4</ele>
        <time>2017-07-26T17:16:24Z</time>
      </trkpt>
      <trkpt lat="60.121866076787" lon="21.57862487528">
        <ele>37.4</ele>
        <time>2017-07-26T17:16:25Z</time>
      </trkpt>
      <trkpt lat="60.121892982686" lon="21.578601322141">
        <ele>37.4</ele>
        <time>2017-07-26T17:16:26Z</time>
      </trkpt>
      <trkpt lat="60.121916535825" lon="21.578579445382">
        <ele>37.4</ele>
        <time>2017-07-26T17:16:27Z</time>
      </trkpt>
      <trkpt lat="60.121930282141" lon="21.578571650215">
        <ele>37.4</ele>
        <time>2017-07-26T17:16:28Z</time>
      </trkpt>
      <trkpt lat="60.121963725922" lon="21.578542816479">
        <ele>37.4</ele>
        <time>2017-07-26T17:16:29Z</time>
      </trkpt>
      <trkpt lat="60.121992894934" lon="21.578521442634">
        <ele>37.4</ele>
        <time>2017-07-26T17:16:30Z</time>
      </trkpt>
      <trkpt lat="60.122019046462" lon="21.578497051305">
        <ele>37.4</ele>
        <time>2017-07-26T17:16:31Z</time>
      </trkpt>
      <trkpt lat="60.122042934877" lon="21.578477521478">
        <ele>37.4</ele>
        <time>2017-07-26T17:16:32Z</time>
      </trkpt>
      <trkpt lat="60.122072439165" lon="21.578456566728">
        <ele>37.4</ele>
        <time>2017-07-26T17:16:33Z</time>
      </trkpt>
      <trkpt lat="60.122096076123" lon="21.578439216195">
        <ele>37.4</ele>
        <time>2017-07-26T17:16:34Z</time>
      </trkpt>
      <trkpt lat="60.122126753877" lon="21.578413986676">
        <ele>37.4</ele>
        <time>2017-07-26T17:16:35Z</time>
      </trkpt>
      <trkpt lat="60.122153911233" lon="21.578396384686">
        <ele>37.4</ele>
        <time>2017-07-26T17:16:36Z</time>
      </trkpt>
      <trkpt lat="60.122180314218" lon="21.578376687221">
        <ele>37.4</ele>
        <time>2017-07-26T17:16:37Z</time>
      </trkpt>
      <trkpt lat="60.122204537909" lon="21.57836252181">
        <ele>37.4</ele>
        <time>2017-07-26T17:16:38Z</time>
      </trkpt>
      <trkpt lat="60.122224403012" lon="21.578345255096">
        <ele>37.4</ele>
        <time>2017-07-26T17:16:39Z</time>
      </trkpt>
      <trkpt lat="60.122245693038" lon="21.578327234011">
        <ele>37.4</ele>
        <time>2017-07-26T17:16:40Z</time>
      </trkpt>
      <trkpt lat="60.122270335824" lon="21.578312146591">
        <ele>37.4</ele>
        <time>2017-07-26T17:16:41Z</time>
      </trkpt>
      <trkpt lat="60.122292128764" lon="21.578299992836">
        <ele>37.4</ele>
        <time>2017-07-26T17:16:42Z</time>
      </trkpt>
      <trkpt lat="60.122315262808" lon="21.578289096366">
        <ele>37.4</ele>
        <time>2017-07-26T17:16:43Z</time>
      </trkpt>
      <trkpt lat="60.122334289721" lon="21.578276104421">
        <ele>37.6</ele>
        <time>2017-07-26T17:16:44Z</time>
      </trkpt>
      <trkpt lat="60.122357675222" lon="21.578265459408">
        <ele>37.4</ele>
        <time>2017-07-26T17:16:45Z</time>
      </trkpt>
      <trkpt lat="60.12237879761" lon="21.578252970377">
        <ele>37.4</ele>
        <time>2017-07-26T17:16:46Z</time>
      </trkpt>
      <trkpt lat="60.122402015473" lon="21.57823930788">
        <ele>37.4</ele>
        <time>2017-07-26T17:16:47Z</time>
      </trkpt>
      <trkpt lat="60.122421293843" lon="21.578230423066">
        <ele>37.4</ele>
        <time>2017-07-26T17:16:48Z</time>
      </trkpt>
      <trkpt lat="60.122442667688" lon="21.5782208677">
        <ele>37.6</ele>
        <time>2017-07-26T17:16:49Z</time>
      </trkpt>
      <trkpt lat="60.122463370981" lon="21.578212318162">
        <ele>37.6</ele>
        <time>2017-07-26T17:16:50Z</time>
      </trkpt>
      <trkpt lat="60.122486840301" lon="21.578203600986">
        <ele>37.4</ele>
        <time>2017-07-26T17:16:51Z</time>
      </trkpt>
      <trkpt lat="60.122503771739" lon="21.578193375068">
        <ele>37.4</ele>
        <time>2017-07-26T17:16:52Z</time>
      </trkpt>
      <trkpt lat="60.122523050109" lon="21.578183735883">
        <ele>37.4</ele>
        <time>2017-07-26T17:16:53Z</time>
      </trkpt>
      <trkpt lat="60.122545262144" lon="21.578181975684">
        <ele>37.6</ele>
        <time>2017-07-26T17:16:54Z</time>
      </trkpt>
      <trkpt lat="60.122566468351" lon="21.578179293476">
        <ele>37.4</ele>
        <time>2017-07-26T17:16:55Z</time>
      </trkpt>
      <trkpt lat="60.122585662902" lon="21.578170073386">
        <ele>37.4</ele>
        <time>2017-07-26T17:16:56Z</time>
      </trkpt>
      <trkpt lat="60.122602761978" lon="21.578160601839">
        <ele>37.4</ele>
        <time>2017-07-26T17:16:57Z</time>
      </trkpt>
      <trkpt lat="60.122624471099" lon="21.578157500536">
        <ele>37.4</ele>
        <time>2017-07-26T17:16:58Z</time>
      </trkpt>
      <trkpt lat="60.122644839116" lon="21.578152471396">
        <ele>37.6</ele>
        <time>2017-07-26T17:16:59Z</time>
      </trkpt>
      <trkpt lat="60.122672331748" lon="21.578151800844">
        <ele>37.6</ele>
        <time>2017-07-26T17:17:00Z</time>
      </trkpt>
      <trkpt lat="60.12268808972" lon="21.578152806672">
        <ele>37.4</ele>
        <time>2017-07-26T17:17:01Z</time>
      </trkpt>
      <trkpt lat="60.122708709194" lon="21.57814794517">
        <ele>37.6</ele>
        <time>2017-07-26T17:17:02Z</time>
      </trkpt>
      <trkpt lat="60.122733184342" lon="21.578143251306">
        <ele>37.4</ele>
        <time>2017-07-26T17:17:03Z</time>
      </trkpt>
      <trkpt lat="60.122750870151" lon="21.578140150003">
        <ele>37.4</ele>
        <time>2017-07-26T17:17:04Z</time>
      </trkpt>
      <trkpt lat="60.122783978656" lon="21.578142748392">
        <ele>37.6</ele>
        <time>2017-07-26T17:17:05Z</time>
      </trkpt>
      <trkpt lat="60.122807028881" lon="21.578133863578">
        <ele>37.8</ele>
        <time>2017-07-26T17:17:06Z</time>
      </trkpt>
      <trkpt lat="60.122831336391" lon="21.578128499162">
        <ele>38.2</ele>
        <time>2017-07-26T17:17:07Z</time>
      </trkpt>
      <trkpt lat="60.122858829023" lon="21.578123386203">
        <ele>38.6</ele>
        <time>2017-07-26T17:17:08Z</time>
      </trkpt>
      <trkpt lat="60.122879113221" lon="21.578114585208">
        <ele>38.8</ele>
        <time>2017-07-26T17:17:09Z</time>
      </trkpt>
      <trkpt lat="60.122908449871" lon="21.578105532756">
        <ele>39</ele>
        <time>2017-07-26T17:17:10Z</time>
      </trkpt>
      <trkpt lat="60.122944072946" lon="21.578097821408">
        <ele>39.4</ele>
        <time>2017-07-26T17:17:11Z</time>
      </trkpt>
      <trkpt lat="60.122970978845" lon="21.57809346282">
        <ele>39.6</ele>
        <time>2017-07-26T17:17:12Z</time>
      </trkpt>
      <trkpt lat="60.123003668255" lon="21.578083488359">
        <ele>39.4</ele>
        <time>2017-07-26T17:17:13Z</time>
      </trkpt>
      <trkpt lat="60.123042560271" lon="21.578075525554">
        <ele>39.4</ele>
        <time>2017-07-26T17:17:14Z</time>
      </trkpt>
      <trkpt lat="60.123071813102" lon="21.578068400939">
        <ele>39.4</ele>
        <time>2017-07-26T17:17:15Z</time>
      </trkpt>
      <trkpt lat="60.123098635182" lon="21.578060186677">
        <ele>39.4</ele>
        <time>2017-07-26T17:17:16Z</time>
      </trkpt>
      <trkpt lat="60.123134509714" lon="21.578049960759">
        <ele>39.6</ele>
        <time>2017-07-26T17:17:17Z</time>
      </trkpt>
      <trkpt lat="60.123162924355" lon="21.578043339058">
        <ele>39.6</ele>
        <time>2017-07-26T17:17:18Z</time>
      </trkpt>
      <trkpt lat="60.123193099195" lon="21.578032358769">
        <ele>39.6</ele>
        <time>2017-07-26T17:17:19Z</time>
      </trkpt>
      <trkpt lat="60.123226962071" lon="21.578024479783">
        <ele>39.4</ele>
        <time>2017-07-26T17:17:20Z</time>
      </trkpt>
      <trkpt lat="60.123259651481" lon="21.578010146734">
        <ele>39.4</ele>
        <time>2017-07-26T17:17:21Z</time>
      </trkpt>
      <trkpt lat="60.123290161597" lon="21.577993969667">
        <ele>39.4</ele>
        <time>2017-07-26T17:17:22Z</time>
      </trkpt>
      <trkpt lat="60.123325700853" lon="21.577974104564">
        <ele>39.4</ele>
        <time>2017-07-26T17:17:23Z</time>
      </trkpt>
      <trkpt lat="60.123351349467" lon="21.577956418755">
        <ele>39.4</ele>
        <time>2017-07-26T17:17:24Z</time>
      </trkpt>
      <trkpt lat="60.123383535963" lon="21.577935631643">
        <ele>39.4</ele>
        <time>2017-07-26T17:17:25Z</time>
      </trkpt>
      <trkpt lat="60.123416393011" lon="21.577919035481">
        <ele>39.4</ele>
        <time>2017-07-26T17:17:26Z</time>
      </trkpt>
      <trkpt lat="60.12345084262" lon="21.577902606957">
        <ele>39.4</ele>
        <time>2017-07-26T17:17:27Z</time>
      </trkpt>
      <trkpt lat="60.123483112935" lon="21.57788223894">
        <ele>39.4</ele>
        <time>2017-07-26T17:17:28Z</time>
      </trkpt>
      <trkpt lat="60.123516724354" lon="21.57785122591">
        <ele>39.4</ele>
        <time>2017-07-26T17:17:29Z</time>
      </trkpt>
      <trkpt lat="60.12354639628" lon="21.57783110935">
        <ele>39.4</ele>
        <time>2017-07-26T17:17:30Z</time>
      </trkpt>
      <trkpt lat="60.12357321836" lon="21.577814932283">
        <ele>39.4</ele>
        <time>2017-07-26T17:17:31Z</time>
      </trkpt>
      <trkpt lat="60.123600459535" lon="21.57779674356">
        <ele>39.4</ele>
        <time>2017-07-26T17:17:32Z</time>
      </trkpt>
      <trkpt lat="60.123630885832" lon="21.577776627">
        <ele>39.4</ele>
        <time>2017-07-26T17:17:33Z</time>
      </trkpt>
      <trkpt lat="60.123658294645" lon="21.577760449933">
        <ele>39.4</ele>
        <time>2017-07-26T17:17:34Z</time>
      </trkpt>
      <trkpt lat="60.123692744254" lon="21.577739159907">
        <ele>39.4</ele>
        <time>2017-07-26T17:17:35Z</time>
      </trkpt>
      <trkpt lat="60.12372660713" lon="21.577715355311">
        <ele>39.4</ele>
        <time>2017-07-26T17:17:36Z</time>
      </trkpt>
      <trkpt lat="60.123758374531" lon="21.577695657846">
        <ele>39.4</ele>
        <time>2017-07-26T17:17:37Z</time>
      </trkpt>
      <trkpt lat="60.123790644846" lon="21.577675038372">
        <ele>39.4</ele>
        <time>2017-07-26T17:17:38Z</time>
      </trkpt>
      <trkpt lat="60.12381880803" lon="21.577653664527">
        <ele>39.4</ele>
        <time>2017-07-26T17:17:39Z</time>
      </trkpt>
      <trkpt lat="60.123847641766" lon="21.577626171895">
        <ele>39.4</ele>
        <time>2017-07-26T17:17:40Z</time>
      </trkpt>
      <trkpt lat="60.123880666452" lon="21.577599517453">
        <ele>39.4</ele>
        <time>2017-07-26T17:17:41Z</time>
      </trkpt>
      <trkpt lat="60.123909751645" lon="21.577581077273">
        <ele>39.4</ele>
        <time>2017-07-26T17:17:42Z</time>
      </trkpt>
      <trkpt lat="60.123937579553" lon="21.57756121217">
        <ele>39.4</ele>
        <time>2017-07-26T17:17:43Z</time>
      </trkpt>
      <trkpt lat="60.123968508764" lon="21.57754444837">
        <ele>39.4</ele>
        <time>2017-07-26T17:17:44Z</time>
      </trkpt>
      <trkpt lat="60.123998935061" lon="21.577522906887">
        <ele>39.4</ele>
        <time>2017-07-26T17:17:45Z</time>
      </trkpt>
      <trkpt lat="60.124025589503" lon="21.577506310725">
        <ele>39.4</ele>
        <time>2017-07-26T17:17:46Z</time>
      </trkpt>
      <trkpt lat="60.124054674696" lon="21.577487199993">
        <ele>39.4</ele>
        <time>2017-07-26T17:17:47Z</time>
      </trkpt>
      <trkpt lat="60.124081496776" lon="21.577469178908">
        <ele>39.4</ele>
        <time>2017-07-26T17:17:48Z</time>
      </trkpt>
      <trkpt lat="60.124106977752" lon="21.577453504755">
        <ele>39.4</ele>
        <time>2017-07-26T17:17:49Z</time>
      </trkpt>
      <trkpt lat="60.124135727669" lon="21.577435316032">
        <ele>39.4</ele>
        <time>2017-07-26T17:17:50Z</time>
      </trkpt>
      <trkpt lat="60.124161208645" lon="21.577421569716">
        <ele>39.4</ele>
        <time>2017-07-26T17:17:51Z</time>
      </trkpt>
      <trkpt lat="60.124188785096" lon="21.577412768721">
        <ele>39.4</ele>
        <time>2017-07-26T17:17:52Z</time>
      </trkpt>
      <trkpt lat="60.124217032099" lon="21.577395585826">
        <ele>39.4</ele>
        <time>2017-07-26T17:17:53Z</time>
      </trkpt>
      <trkpt lat="60.124240669057" lon="21.577384270261">
        <ele>39.4</ele>
        <time>2017-07-26T17:17:54Z</time>
      </trkpt>
      <trkpt lat="60.12427226882" lon="21.577369434298">
        <ele>39.4</ele>
        <time>2017-07-26T17:17:55Z</time>
      </trkpt>
      <trkpt lat="60.124300851099" lon="21.577357699638">
        <ele>39.4</ele>
        <time>2017-07-26T17:17:56Z</time>
      </trkpt>
      <trkpt lat="60.124329684835" lon="21.577343869503">
        <ele>39.4</ele>
        <time>2017-07-26T17:17:57Z</time>
      </trkpt>
      <trkpt lat="60.124357512743" lon="21.577328865902">
        <ele>39.6</ele>
        <time>2017-07-26T17:17:58Z</time>
      </trkpt>
      <trkpt lat="60.124378886588" lon="21.577321238373">
        <ele>39.4</ele>
        <time>2017-07-26T17:17:59Z</time>
      </trkpt>
      <trkpt lat="60.124412749464" lon="21.577307575876">
        <ele>39.4</ele>
        <time>2017-07-26T17:18:00Z</time>
      </trkpt>
      <trkpt lat="60.124439823001" lon="21.577295841216">
        <ele>39.4</ele>
        <time>2017-07-26T17:18:01Z</time>
      </trkpt>
      <trkpt lat="60.124466225986" lon="21.577282597814">
        <ele>39.4</ele>
        <time>2017-07-26T17:18:02Z</time>
      </trkpt>
      <trkpt lat="60.12449355098" lon="21.577267258937">
        <ele>39.4</ele>
        <time>2017-07-26T17:18:03Z</time>
      </trkpt>
      <trkpt lat="60.124514170454" lon="21.577260637236">
        <ele>39.6</ele>
        <time>2017-07-26T17:18:04Z</time>
      </trkpt>
      <trkpt lat="60.124544512932" lon="21.577253512621">
        <ele>39.6</ele>
        <time>2017-07-26T17:18:05Z</time>
      </trkpt>
      <trkpt lat="60.124568904261" lon="21.577250830413">
        <ele>39.4</ele>
        <time>2017-07-26T17:18:06Z</time>
      </trkpt>
      <trkpt lat="60.124586925346" lon="21.577242280875">
        <ele>39.6</ele>
        <time>2017-07-26T17:18:07Z</time>
      </trkpt>
      <trkpt lat="60.124611316675" lon="21.577237251735">
        <ele>39.4</ele>
        <time>2017-07-26T17:18:08Z</time>
      </trkpt>
      <trkpt lat="60.124638306393" lon="21.577227780188">
        <ele>39.4</ele>
        <time>2017-07-26T17:18:09Z</time>
      </trkpt>
      <trkpt lat="60.124668900328" lon="21.577215374976">
        <ele>39.6</ele>
        <time>2017-07-26T17:18:10Z</time>
      </trkpt>
      <trkpt lat="60.124689435983" lon="21.577208250361">
        <ele>39.6</ele>
        <time>2017-07-26T17:18:11Z</time>
      </trkpt>
      <trkpt lat="60.124717934443" lon="21.577205484334">
        <ele>39.6</ele>
        <time>2017-07-26T17:18:12Z</time>
      </trkpt>
      <trkpt lat="60.124748276921" lon="21.577198862633">
        <ele>39.4</ele>
        <time>2017-07-26T17:18:13Z</time>
      </trkpt>
      <trkpt lat="60.124766046549" lon="21.577199030271">
        <ele>39.6</ele>
        <time>2017-07-26T17:18:14Z</time>
      </trkpt>
      <trkpt lat="60.124791611344" lon="21.577196180425">
        <ele>39.4</ele>
        <time>2017-07-26T17:18:15Z</time>
      </trkpt>
      <trkpt lat="60.124812985189" lon="21.577185451593">
        <ele>39.4</ele>
        <time>2017-07-26T17:18:16Z</time>
      </trkpt>
      <trkpt lat="60.124839304355" lon="21.5771815121">
        <ele>39.4</ele>
        <time>2017-07-26T17:18:17Z</time>
      </trkpt>
      <trkpt lat="60.124860929657" lon="21.577181679738">
        <ele>39.4</ele>
        <time>2017-07-26T17:18:18Z</time>
      </trkpt>
      <trkpt lat="60.124879286018" lon="21.57717983572">
        <ele>39.4</ele>
        <time>2017-07-26T17:18:19Z</time>
      </trkpt>
      <trkpt lat="60.124905353727" lon="21.57717564477">
        <ele>39.4</ele>
        <time>2017-07-26T17:18:20Z</time>
      </trkpt>
      <trkpt lat="60.124922285165" lon="21.577171370001">
        <ele>39.4</ele>
        <time>2017-07-26T17:18:21Z</time>
      </trkpt>
      <trkpt lat="60.12493779168" lon="21.577168436336">
        <ele>39.6</ele>
        <time>2017-07-26T17:18:22Z</time>
      </trkpt>
      <trkpt lat="60.124963188837" lon="21.577171621458">
        <ele>39.4</ele>
        <time>2017-07-26T17:18:23Z</time>
      </trkpt>
      <trkpt lat="60.124981964293" lon="21.577164413024">
        <ele>39.6</ele>
        <time>2017-07-26T17:18:24Z</time>
      </trkpt>
      <trkpt lat="60.124999063369" lon="21.577164999757">
        <ele>39.6</ele>
        <time>2017-07-26T17:18:25Z</time>
      </trkpt>
      <trkpt lat="60.125023789974" lon="21.577166257042">
        <ele>39.6</ele>
        <time>2017-07-26T17:18:26Z</time>
      </trkpt>
      <trkpt lat="60.125026220725" lon="21.577170196535">
        <ele>39.4</ele>
        <time>2017-07-26T17:18:27Z</time>
      </trkpt>
      <trkpt lat="60.125049438588" lon="21.577176985874">
        <ele>39.4</ele>
        <time>2017-07-26T17:18:28Z</time>
      </trkpt>
      <trkpt lat="60.125067040578" lon="21.577178829892">
        <ele>39.4</ele>
        <time>2017-07-26T17:18:29Z</time>
      </trkpt>
      <trkpt lat="60.125088833518" lon="21.577190396914">
        <ele>39.6</ele>
        <time>2017-07-26T17:18:30Z</time>
      </trkpt>
      <trkpt lat="60.125122361118" lon="21.577195593692">
        <ele>39.6</ele>
        <time>2017-07-26T17:18:31Z</time>
      </trkpt>
      <trkpt lat="60.125130910656" lon="21.577195845149">
        <ele>39.8</ele>
        <time>2017-07-26T17:18:32Z</time>
      </trkpt>
      <trkpt lat="60.125159576754" lon="21.577203388859">
        <ele>40</ele>
        <time>2017-07-26T17:18:33Z</time>
      </trkpt>
      <trkpt lat="60.125182124065" lon="21.577207831266">
        <ele>40.6</ele>
        <time>2017-07-26T17:18:34Z</time>
      </trkpt>
      <trkpt lat="60.125199893693" lon="21.57721671608">
        <ele>40.8</ele>
        <time>2017-07-26T17:18:35Z</time>
      </trkpt>
      <trkpt lat="60.125219507339" lon="21.57721671608">
        <ele>41</ele>
        <time>2017-07-26T17:18:36Z</time>
      </trkpt>
      <trkpt lat="60.12524037827" lon="21.577225684713">
        <ele>41.2</ele>
        <time>2017-07-26T17:18:37Z</time>
      </trkpt>
      <trkpt lat="60.125259908097" lon="21.577229372749">
        <ele>41.4</ele>
        <time>2017-07-26T17:18:38Z</time>
      </trkpt>
      <trkpt lat="60.125280695209" lon="21.577240101581">
        <ele>41.4</ele>
        <time>2017-07-26T17:18:39Z</time>
      </trkpt>
      <trkpt lat="60.125309277488" lon="21.577255775734">
        <ele>41.6</ele>
        <time>2017-07-26T17:18:40Z</time>
      </trkpt>
      <trkpt lat="60.125336434844" lon="21.577272455715">
        <ele>41.6</ele>
        <time>2017-07-26T17:18:41Z</time>
      </trkpt>
      <trkpt lat="60.125358730698" lon="21.577288046049">
        <ele>41.6</ele>
        <time>2017-07-26T17:18:42Z</time>
      </trkpt>
      <trkpt lat="60.125383289665" lon="21.577302714374">
        <ele>41.4</ele>
        <time>2017-07-26T17:18:43Z</time>
      </trkpt>
      <trkpt lat="60.125409357374" lon="21.577313024111">
        <ele>41.6</ele>
        <time>2017-07-26T17:18:44Z</time>
      </trkpt>
      <trkpt lat="60.125435341264" lon="21.57732568078">
        <ele>41.6</ele>
        <time>2017-07-26T17:18:45Z</time>
      </trkpt>
      <trkpt lat="60.125458726765" lon="21.577328865902">
        <ele>41.4</ele>
        <time>2017-07-26T17:18:46Z</time>
      </trkpt>
      <trkpt lat="60.125488985424" lon="21.577346048797">
        <ele>41.4</ele>
        <time>2017-07-26T17:18:47Z</time>
      </trkpt>
      <trkpt lat="60.125515472228" lon="21.577359376018">
        <ele>41.4</ele>
        <time>2017-07-26T17:18:48Z</time>
      </trkpt>
      <trkpt lat="60.125542461946" lon="21.577373122334">
        <ele>41.6</ele>
        <time>2017-07-26T17:18:49Z</time>
      </trkpt>
      <trkpt lat="60.125573307338" lon="21.577388712668">
        <ele>41.4</ele>
        <time>2017-07-26T17:18:50Z</time>
      </trkpt>
      <trkpt lat="60.125602811626" lon="21.577398770948">
        <ele>41.4</ele>
        <time>2017-07-26T17:18:51Z</time>
      </trkpt>
      <trkpt lat="60.125629214611" lon="21.57740866159">
        <ele>41.4</ele>
        <time>2017-07-26T17:18:52Z</time>
      </trkpt>
      <trkpt lat="60.125657713071" lon="21.577417546404">
        <ele>41.4</ele>
        <time>2017-07-26T17:18:53Z</time>
      </trkpt>
      <trkpt lat="60.125686798264" lon="21.577430119254">
        <ele>41.4</ele>
        <time>2017-07-26T17:18:54Z</time>
      </trkpt>
      <trkpt lat="60.125718314208" lon="21.577442273009">
        <ele>41.4</ele>
        <time>2017-07-26T17:18:55Z</time>
      </trkpt>
      <trkpt lat="60.125749913971" lon="21.577455851687">
        <ele>41.6</ele>
        <time>2017-07-26T17:18:56Z</time>
      </trkpt>
      <trkpt lat="60.125778328612" lon="21.577467837804">
        <ele>41.4</ele>
        <time>2017-07-26T17:18:57Z</time>
      </trkpt>
      <trkpt lat="60.125800792104" lon="21.577474627143">
        <ele>41.4</ele>
        <time>2017-07-26T17:18:58Z</time>
      </trkpt>
      <trkpt lat="60.125827781822" lon="21.57748577507">
        <ele>41.4</ele>
        <time>2017-07-26T17:18:59Z</time>
      </trkpt>
      <trkpt lat="60.125861141784" lon="21.577501197766">
        <ele>41.4</ele>
        <time>2017-07-26T17:19:00Z</time>
      </trkpt>
      <trkpt lat="60.125892406271" lon="21.57751930267">
        <ele>41.4</ele>
        <time>2017-07-26T17:19:01Z</time>
      </trkpt>
      <trkpt lat="60.125924676586" lon="21.57753858104">
        <ele>41.4</ele>
        <time>2017-07-26T17:19:02Z</time>
      </trkpt>
      <trkpt lat="60.125953258865" lon="21.577556518306">
        <ele>41.4</ele>
        <time>2017-07-26T17:19:03Z</time>
      </trkpt>
      <trkpt lat="60.125972285778" lon="21.57755618303">
        <ele>41.4</ele>
        <time>2017-07-26T17:19:04Z</time>
      </trkpt>
      <trkpt lat="60.125999946048" lon="21.57756624131">
        <ele>41.4</ele>
        <time>2017-07-26T17:19:05Z</time>
      </trkpt>
      <trkpt lat="60.126025427024" lon="21.577578646522">
        <ele>41.4</ele>
        <time>2017-07-26T17:19:06Z</time>
      </trkpt>
      <trkpt lat="60.126052249104" lon="21.577596499969">
        <ele>41.4</ele>
        <time>2017-07-26T17:19:07Z</time>
      </trkpt>
      <trkpt lat="60.126079490279" lon="21.577609575733">
        <ele>41.4</ele>
        <time>2017-07-26T17:19:08Z</time>
      </trkpt>
      <trkpt lat="60.126104468341" lon="21.57762491461">
        <ele>41.4</ele>
        <time>2017-07-26T17:19:09Z</time>
      </trkpt>
      <trkpt lat="60.126132463887" lon="21.577642768057">
        <ele>41.4</ele>
        <time>2017-07-26T17:19:10Z</time>
      </trkpt>
      <trkpt lat="60.126158866872" lon="21.577666069739">
        <ele>41.6</ele>
        <time>2017-07-26T17:19:11Z</time>
      </trkpt>
      <trkpt lat="60.126184683124" lon="21.57768945524">
        <ele>41.4</ele>
        <time>2017-07-26T17:19:12Z</time>
      </trkpt>
      <trkpt lat="60.126209158272" lon="21.577708565972">
        <ele>41.4</ele>
        <time>2017-07-26T17:19:13Z</time>
      </trkpt>
      <trkpt lat="60.126231705583" lon="21.577728514894">
        <ele>41.4</ele>
        <time>2017-07-26T17:19:14Z</time>
      </trkpt>
      <trkpt lat="60.126254839627" lon="21.577749050549">
        <ele>41.4</ele>
        <time>2017-07-26T17:19:15Z</time>
      </trkpt>
      <trkpt lat="60.126276800205" lon="21.57776908329">
        <ele>41.4</ele>
        <time>2017-07-26T17:19:16Z</time>
      </trkpt>
      <trkpt lat="60.126297922593" lon="21.577792049696">
        <ele>41.4</ele>
        <time>2017-07-26T17:19:17Z</time>
      </trkpt>
      <trkpt lat="60.126319883171" lon="21.577814848464">
        <ele>41.4</ele>
        <time>2017-07-26T17:19:18Z</time>
      </trkpt>
      <trkpt lat="60.126339999731" lon="21.577835887033">
        <ele>41.4</ele>
        <time>2017-07-26T17:19:19Z</time>
      </trkpt>
      <trkpt lat="60.126368665829" lon="21.577868492624">
        <ele>41.4</ele>
        <time>2017-07-26T17:19:20Z</time>
      </trkpt>
      <trkpt lat="60.12639791866" lon="21.577902271681">
        <ele>41.4</ele>
        <time>2017-07-26T17:19:21Z</time>
      </trkpt>
      <trkpt lat="60.126426165663" lon="21.577936218376">
        <ele>41.4</ele>
        <time>2017-07-26T17:19:22Z</time>
      </trkpt>
      <trkpt lat="60.12645994472" lon="21.577980390989">
        <ele>41.4</ele>
        <time>2017-07-26T17:19:23Z</time>
      </trkpt>
      <trkpt lat="60.126487772628" lon="21.578020372652">
        <ele>41.4</ele>
        <time>2017-07-26T17:19:24Z</time>
      </trkpt>
      <trkpt lat="60.1265202944" lon="21.578062701247">
        <ele>41.4</ele>
        <time>2017-07-26T17:19:25Z</time>
      </trkpt>
      <trkpt lat="60.126551558887" lon="21.57810435929">
        <ele>41.4</ele>
        <time>2017-07-26T17:19:26Z</time>
      </trkpt>
      <trkpt lat="60.126575279664" lon="21.578140988193">
        <ele>41.4</ele>
        <time>2017-07-26T17:19:27Z</time>
      </trkpt>
      <trkpt lat="60.126596485871" lon="21.578168397006">
        <ele>41.4</ele>
        <time>2017-07-26T17:19:28Z</time>
      </trkpt>
      <trkpt lat="60.126635461706" lon="21.578224974831">
        <ele>41.4</ele>
        <time>2017-07-26T17:19:29Z</time>
      </trkpt>
      <trkpt lat="60.12666949222" lon="21.578266884331">
        <ele>41.4</ele>
        <time>2017-07-26T17:19:30Z</time>
      </trkpt>
      <trkpt lat="60.126702097811" lon="21.578312481867">
        <ele>41.4</ele>
        <time>2017-07-26T17:19:31Z</time>
      </trkpt>
      <trkpt lat="60.126734284307" lon="21.578363779095">
        <ele>41.4</ele>
        <time>2017-07-26T17:19:32Z</time>
      </trkpt>
      <trkpt lat="60.126766470803" lon="21.578415411599">
        <ele>41.4</ele>
        <time>2017-07-26T17:19:33Z</time>
      </trkpt>
      <trkpt lat="60.126799327851" lon="21.578461763506">
        <ele>41.4</ele>
        <time>2017-07-26T17:19:34Z</time>
      </trkpt>
      <trkpt lat="60.12683796841" lon="21.578523035195">
        <ele>41.4</ele>
        <time>2017-07-26T17:19:35Z</time>
      </trkpt>
      <trkpt lat="60.126872753295" lon="21.578576679355">
        <ele>41.4</ele>
        <time>2017-07-26T17:19:36Z</time>
      </trkpt>
      <trkpt lat="60.126906616171" lon="21.578629569144">
        <ele>41.4</ele>
        <time>2017-07-26T17:19:37Z</time>
      </trkpt>
      <trkpt lat="60.126933605889" lon="21.578675250499">
        <ele>41.4</ele>
        <time>2017-07-26T17:19:38Z</time>
      </trkpt>
      <trkpt lat="60.126960595607" lon="21.57871372342">
        <ele>41.4</ele>
        <time>2017-07-26T17:19:39Z</time>
      </trkpt>
      <trkpt lat="60.126983981108" lon="21.578762506078">
        <ele>41.4</ele>
        <time>2017-07-26T17:19:40Z</time>
      </trkpt>
      <trkpt lat="60.127011892835" lon="21.578809109442">
        <ele>41.4</ele>
        <time>2017-07-26T17:19:41Z</time>
      </trkpt>
      <trkpt lat="60.127042067675" lon="21.578866693095">
        <ele>41.4</ele>
        <time>2017-07-26T17:19:42Z</time>
      </trkpt>
      <trkpt lat="60.127072326334" lon="21.578916984495">
        <ele>41.4</ele>
        <time>2017-07-26T17:19:43Z</time>
      </trkpt>
      <trkpt lat="60.127099902785" lon="21.578961408565">
        <ele>41.4</ele>
        <time>2017-07-26T17:19:44Z</time>
      </trkpt>
      <trkpt lat="60.127130999634" lon="21.579014382173">
        <ele>41.4</ele>
        <time>2017-07-26T17:19:45Z</time>
      </trkpt>
      <trkpt lat="60.127158240809" lon="21.579052016904">
        <ele>41.4</ele>
        <time>2017-07-26T17:19:46Z</time>
      </trkpt>
      <trkpt lat="60.127186320174" lon="21.579104906693">
        <ele>41.4</ele>
        <time>2017-07-26T17:19:47Z</time>
      </trkpt>
      <trkpt lat="60.127214986272" lon="21.579154108446">
        <ele>41.4</ele>
        <time>2017-07-26T17:19:48Z</time>
      </trkpt>
      <trkpt lat="60.127240215791" lon="21.579195095937">
        <ele>41.4</ele>
        <time>2017-07-26T17:19:49Z</time>
      </trkpt>
      <trkpt lat="60.127272318468" lon="21.579239687645">
        <ele>41.6</ele>
        <time>2017-07-26T17:19:50Z</time>
      </trkpt>
      <trkpt lat="60.127295452512" lon="21.579283022068">
        <ele>41.4</ele>
        <time>2017-07-26T17:19:51Z</time>
      </trkpt>
      <trkpt lat="60.127319592384" lon="21.579320070066">
        <ele>41.4</ele>
        <time>2017-07-26T17:19:52Z</time>
      </trkpt>
      <trkpt lat="60.127346330645" lon="21.579362650118">
        <ele>41.6</ele>
        <time>2017-07-26T17:19:53Z</time>
      </trkpt>
      <trkpt lat="60.127371727802" lon="21.579392489682">
        <ele>41.4</ele>
        <time>2017-07-26T17:19:54Z</time>
      </trkpt>
      <trkpt lat="60.127396454407" lon="21.579444038367">
        <ele>41.4</ele>
        <time>2017-07-26T17:19:55Z</time>
      </trkpt>
      <trkpt lat="60.127417912071" lon="21.579488294799">
        <ele>41.6</ele>
        <time>2017-07-26T17:19:56Z</time>
      </trkpt>
      <trkpt lat="60.127445823798" lon="21.579524001693">
        <ele>41.8</ele>
        <time>2017-07-26T17:19:57Z</time>
      </trkpt>
      <trkpt lat="60.127465688901" lon="21.579556355827">
        <ele>42</ele>
        <time>2017-07-26T17:19:58Z</time>
      </trkpt>
      <trkpt lat="60.127487900936" lon="21.579594409653">
        <ele>42.4</ele>
        <time>2017-07-26T17:19:59Z</time>
      </trkpt>
      <trkpt lat="60.12751187317" lon="21.579633720764">
        <ele>42.8</ele>
        <time>2017-07-26T17:20:00Z</time>
      </trkpt>
      <trkpt lat="60.127532157368" lon="21.579667751278">
        <ele>43.2</ele>
        <time>2017-07-26T17:20:01Z</time>
      </trkpt>
      <trkpt lat="60.127550010815" lon="21.57970362581">
        <ele>43.6</ele>
        <time>2017-07-26T17:20:02Z</time>
      </trkpt>
      <trkpt lat="60.127567277529" lon="21.579731118442">
        <ele>43.6</ele>
        <time>2017-07-26T17:20:03Z</time>
      </trkpt>
      <trkpt lat="60.127585214795" lon="21.579760958006">
        <ele>43.6</ele>
        <time>2017-07-26T17:20:04Z</time>
      </trkpt>
      <trkpt lat="60.127609019391" lon="21.579799933841">
        <ele>43.6</ele>
        <time>2017-07-26T17:20:05Z</time>
      </trkpt>
      <trkpt lat="60.127627459571" lon="21.579828348482">
        <ele>43.6</ele>
        <time>2017-07-26T17:20:06Z</time>
      </trkpt>
      <trkpt lat="60.127644977742" lon="21.579855422019">
        <ele>43.6</ele>
        <time>2017-07-26T17:20:07Z</time>
      </trkpt>
      <trkpt lat="60.127661322447" lon="21.579883669022">
        <ele>43.6</ele>
        <time>2017-07-26T17:20:08Z</time>
      </trkpt>
      <trkpt lat="60.127675990772" lon="21.579909066179">
        <ele>43.6</ele>
        <time>2017-07-26T17:20:09Z</time>
      </trkpt>
      <trkpt lat="60.127693173667" lon="21.579936391173">
        <ele>43.6</ele>
        <time>2017-07-26T17:20:10Z</time>
      </trkpt>
      <trkpt lat="60.127706417069" lon="21.579967404203">
        <ele>43.6</ele>
        <time>2017-07-26T17:20:11Z</time>
      </trkpt>
      <trkpt lat="60.127722929412" lon="21.579992130808">
        <ele>43.6</ele>
        <time>2017-07-26T17:20:12Z</time>
      </trkpt>
      <trkpt lat="60.127741118135" lon="21.580012498825">
        <ele>43.8</ele>
        <time>2017-07-26T17:20:13Z</time>
      </trkpt>
      <trkpt lat="60.127757546659" lon="21.580030939005">
        <ele>44.2</ele>
        <time>2017-07-26T17:20:14Z</time>
      </trkpt>
      <trkpt lat="60.127773053174" lon="21.580064634243">
        <ele>44.4</ele>
        <time>2017-07-26T17:20:15Z</time>
      </trkpt>
      <trkpt lat="60.127785793662" lon="21.580089025572">
        <ele>44.6</ele>
        <time>2017-07-26T17:20:16Z</time>
      </trkpt>
      <trkpt lat="60.127803479471" lon="21.580116182928">
        <ele>45</ele>
        <time>2017-07-26T17:20:17Z</time>
      </trkpt>
      <trkpt lat="60.127819572719" lon="21.580139903705">
        <ele>45.4</ele>
        <time>2017-07-26T17:20:18Z</time>
      </trkpt>
      <trkpt lat="60.127834324863" lon="21.580161696645">
        <ele>45.6</ele>
        <time>2017-07-26T17:20:19Z</time>
      </trkpt>
      <trkpt lat="60.127850418111" lon="21.580187848173">
        <ele>45.8</ele>
        <time>2017-07-26T17:20:20Z</time>
      </trkpt>
      <trkpt lat="60.127865254074" lon="21.580211988045">
        <ele>45.6</ele>
        <time>2017-07-26T17:20:21Z</time>
      </trkpt>
      <trkpt lat="60.12787900039" lon="21.580233026614">
        <ele>45.8</ele>
        <time>2017-07-26T17:20:22Z</time>
      </trkpt>
      <trkpt lat="60.127894003991" lon="21.580267140947">
        <ele>45.6</ele>
        <time>2017-07-26T17:20:23Z</time>
      </trkpt>
      <trkpt lat="60.127912108895" lon="21.580289604439">
        <ele>45.6</ele>
        <time>2017-07-26T17:20:24Z</time>
      </trkpt>
      <trkpt lat="60.127926609582" lon="21.580321539478">
        <ele>45.6</ele>
        <time>2017-07-26T17:20:25Z</time>
      </trkpt>
      <trkpt lat="60.127941948459" lon="21.580345260255">
        <ele>45.6</ele>
        <time>2017-07-26T17:20:26Z</time>
      </trkpt>
      <trkpt lat="60.127952928748" lon="21.580369316308">
        <ele>45.6</ele>
        <time>2017-07-26T17:20:27Z</time>
      </trkpt>
      <trkpt lat="60.127969692548" lon="21.580398150044">
        <ele>45.6</ele>
        <time>2017-07-26T17:20:28Z</time>
      </trkpt>
      <trkpt lat="60.127987294538" lon="21.580430755635">
        <ele>45.6</ele>
        <time>2017-07-26T17:20:29Z</time>
      </trkpt>
      <trkpt lat="60.128003806881" lon="21.580460343742">
        <ele>45.6</ele>
        <time>2017-07-26T17:20:30Z</time>
      </trkpt>
      <trkpt lat="60.128018726663" lon="21.580486411451">
        <ele>45.8</ele>
        <time>2017-07-26T17:20:31Z</time>
      </trkpt>
      <trkpt lat="60.128033311169" lon="21.580517843576">
        <ele>46.2</ele>
        <time>2017-07-26T17:20:32Z</time>
      </trkpt>
      <trkpt lat="60.128044207639" lon="21.580543073095">
        <ele>46.6</ele>
        <time>2017-07-26T17:20:33Z</time>
      </trkpt>
      <trkpt lat="60.128056193756" lon="21.580567380605">
        <ele>46.8</ele>
        <time>2017-07-26T17:20:34Z</time>
      </trkpt>
      <trkpt lat="60.12806926952" lon="21.58060468006">
        <ele>47.2</ele>
        <time>2017-07-26T17:20:35Z</time>
      </trkpt>
      <trkpt lat="60.128082764379" lon="21.58063066395">
        <ele>47.4</ele>
        <time>2017-07-26T17:20:36Z</time>
      </trkpt>
      <trkpt lat="60.128096007781" lon="21.580661928437">
        <ele>47.8</ele>
        <time>2017-07-26T17:20:37Z</time>
      </trkpt>
      <trkpt lat="60.128107490984" lon="21.580686487404">
        <ele>47.8</ele>
        <time>2017-07-26T17:20:38Z</time>
      </trkpt>
      <trkpt lat="60.128116711074" lon="21.580716578425">
        <ele>47.8</ele>
        <time>2017-07-26T17:20:39Z</time>
      </trkpt>
      <trkpt lat="60.128126014983" lon="21.58074884874">
        <ele>47.8</ele>
        <time>2017-07-26T17:20:40Z</time>
      </trkpt>
      <trkpt lat="60.12814051567" lon="21.580776006096">
        <ele>47.8</ele>
        <time>2017-07-26T17:20:41Z</time>
      </trkpt>
      <trkpt lat="60.128152417968" lon="21.580812299723">
        <ele>47.8</ele>
        <time>2017-07-26T17:20:42Z</time>
      </trkpt>
      <trkpt lat="60.128166834836" lon="21.580848928626">
        <ele>47.8</ele>
        <time>2017-07-26T17:20:43Z</time>
      </trkpt>
      <trkpt lat="60.128181251704" lon="21.580883126778">
        <ele>47.8</ele>
        <time>2017-07-26T17:20:44Z</time>
      </trkpt>
      <trkpt lat="60.128199859522" lon="21.58092905959">
        <ele>47.8</ele>
        <time>2017-07-26T17:20:45Z</time>
      </trkpt>
      <trkpt lat="60.128216623322" lon="21.580962335733">
        <ele>47.8</ele>
        <time>2017-07-26T17:20:46Z</time>
      </trkpt>
      <trkpt lat="60.128231124009" lon="21.581000641016">
        <ele>47.8</ele>
        <time>2017-07-26T17:20:47Z</time>
      </trkpt>
      <trkpt lat="60.128237326615" lon="21.580997288256">
        <ele>47.8</ele>
        <time>2017-07-26T17:20:48Z</time>
      </trkpt>
      <trkpt lat="60.12824026028" lon="21.581007933269">
        <ele>47.8</ele>
        <time>2017-07-26T17:20:49Z</time>
      </trkpt>
      <trkpt lat="60.128242020479" lon="21.581010196382">
        <ele>47.8</ele>
        <time>2017-07-26T17:20:50Z</time>
      </trkpt>
      <trkpt lat="60.128251743483" lon="21.581036934643">
        <ele>47.8</ele>
        <time>2017-07-26T17:20:51Z</time>
      </trkpt>
      <trkpt lat="60.128257443175" lon="21.581055039547">
        <ele>47.8</ele>
        <time>2017-07-26T17:20:52Z</time>
      </trkpt>
      <trkpt lat="60.128267501455" lon="21.581082532179">
        <ele>47.8</ele>
        <time>2017-07-26T17:20:53Z</time>
      </trkpt>
      <trkpt lat="60.128274374613" lon="21.581112874657">
        <ele>47.8</ele>
        <time>2017-07-26T17:20:54Z</time>
      </trkpt>
      <trkpt lat="60.128285773997" lon="21.581149000646">
        <ele>47.8</ele>
        <time>2017-07-26T17:20:55Z</time>
      </trkpt>
      <trkpt lat="60.12830144815" lon="21.58118638392">
        <ele>47.8</ele>
        <time>2017-07-26T17:20:56Z</time>
      </trkpt>
      <trkpt lat="60.128316451751" lon="21.581231394723">
        <ele>47.8</ele>
        <time>2017-07-26T17:20:57Z</time>
      </trkpt>
      <trkpt lat="60.128331790628" lon="21.581272968947">
        <ele>47.8</ele>
        <time>2017-07-26T17:20:58Z</time>
      </trkpt>
      <trkpt lat="60.128344279659" lon="21.581315046085">
        <ele>47.8</ele>
        <time>2017-07-26T17:20:59Z</time>
      </trkpt>
      <trkpt lat="60.128357439242" lon="21.581354943929">
        <ele>47.8</ele>
        <time>2017-07-26T17:21:00Z</time>
      </trkpt>
      <trkpt lat="60.128370515006" lon="21.581406660252">
        <ele>47.8</ele>
        <time>2017-07-26T17:21:01Z</time>
      </trkpt>
      <trkpt lat="60.128383758408" lon="21.581459969136">
        <ele>47.8</ele>
        <time>2017-07-26T17:21:02Z</time>
      </trkpt>
      <trkpt lat="60.128396834172" lon="21.58150489612">
        <ele>47.8</ele>
        <time>2017-07-26T17:21:03Z</time>
      </trkpt>
      <trkpt lat="60.128407227728" lon="21.581540770652">
        <ele>47.8</ele>
        <time>2017-07-26T17:21:04Z</time>
      </trkpt>
      <trkpt lat="60.128420806406" lon="21.581603718721">
        <ele>47.8</ele>
        <time>2017-07-26T17:21:05Z</time>
      </trkpt>
      <trkpt lat="60.128433211618" lon="21.58165912308">
        <ele>47.8</ele>
        <time>2017-07-26T17:21:06Z</time>
      </trkpt>
      <trkpt lat="60.128447377029" lon="21.581717628742">
        <ele>47.8</ele>
        <time>2017-07-26T17:21:07Z</time>
      </trkpt>
      <trkpt lat="60.128459195508" lon="21.581777391689">
        <ele>47.8</ele>
        <time>2017-07-26T17:21:08Z</time>
      </trkpt>
      <trkpt lat="60.128472103634" lon="21.581836903179">
        <ele>47.8</ele>
        <time>2017-07-26T17:21:09Z</time>
      </trkpt>
      <trkpt lat="60.128488196882" lon="21.5819005218">
        <ele>47.8</ele>
        <time>2017-07-26T17:21:10Z</time>
      </trkpt>
      <trkpt lat="60.128502027017" lon="21.581966235896">
        <ele>47.8</ele>
        <time>2017-07-26T17:21:11Z</time>
      </trkpt>
      <trkpt lat="60.128517952627" lon="21.582038068779">
        <ele>47.6</ele>
        <time>2017-07-26T17:21:12Z</time>
      </trkpt>
      <trkpt lat="60.128527507993" lon="21.582102777047">
        <ele>47.6</ele>
        <time>2017-07-26T17:21:13Z</time>
      </trkpt>
      <trkpt lat="60.128540416119" lon="21.582159354872">
        <ele>47.8</ele>
        <time>2017-07-26T17:21:14Z</time>
      </trkpt>
      <trkpt lat="60.128552737512" lon="21.582231103936">
        <ele>47.8</ele>
        <time>2017-07-26T17:21:15Z</time>
      </trkpt>
      <trkpt lat="60.128565226543" lon="21.582298242955">
        <ele>47.8</ele>
        <time>2017-07-26T17:21:16Z</time>
      </trkpt>
      <trkpt lat="60.128581738886" lon="21.582379379747">
        <ele>47.8</ele>
        <time>2017-07-26T17:21:17Z</time>
      </trkpt>
      <trkpt lat="60.128591629528" lon="21.582442243997">
        <ele>47.8</ele>
        <time>2017-07-26T17:21:18Z</time>
      </trkpt>
      <trkpt lat="60.128606968405" lon="21.582516675269">
        <ele>47.8</ele>
        <time>2017-07-26T17:21:19Z</time>
      </trkpt>
      <trkpt lat="60.128621804368" lon="21.582600745726">
        <ele>47.8</ele>
        <time>2017-07-26T17:21:20Z</time>
      </trkpt>
      <trkpt lat="60.128636053598" lon="21.582682050156">
        <ele>47.6</ele>
        <time>2017-07-26T17:21:21Z</time>
      </trkpt>
      <trkpt lat="60.128648207353" lon="21.582760253283">
        <ele>47.8</ele>
        <time>2017-07-26T17:21:22Z</time>
      </trkpt>
      <trkpt lat="60.128663210954" lon="21.582842814998">
        <ele>47.8</ele>
        <time>2017-07-26T17:21:23Z</time>
      </trkpt>
      <trkpt lat="60.128680812944" lon="21.582921856315">
        <ele>47.8</ele>
        <time>2017-07-26T17:21:24Z</time>
      </trkpt>
      <trkpt lat="60.128700761866" lon="21.583009028075">
        <ele>47.6</ele>
        <time>2017-07-26T17:21:25Z</time>
      </trkpt>
      <trkpt lat="60.128722303349" lon="21.583090332505">
        <ele>47.8</ele>
        <time>2017-07-26T17:21:26Z</time>
      </trkpt>
      <trkpt lat="60.128746778497" lon="21.583178929188">
        <ele>47.6</ele>
        <time>2017-07-26T17:21:27Z</time>
      </trkpt>
      <trkpt lat="60.128762787926" lon="21.583226035466">
        <ele>47.8</ele>
        <time>2017-07-26T17:21:28Z</time>
      </trkpt>
      <trkpt lat="60.128800506476" lon="21.58333801765">
        <ele>47.6</ele>
        <time>2017-07-26T17:21:29Z</time>
      </trkpt>
      <trkpt lat="60.128827160918" lon="21.583420411727">
        <ele>47.8</ele>
        <time>2017-07-26T17:21:30Z</time>
      </trkpt>
      <trkpt lat="60.128856749025" lon="21.583492496067">
        <ele>47.6</ele>
        <time>2017-07-26T17:21:31Z</time>
      </trkpt>
      <trkpt lat="60.128888935521" lon="21.583562317294">
        <ele>47.6</ele>
        <time>2017-07-26T17:21:32Z</time>
      </trkpt>
      <trkpt lat="60.128915757601" lon="21.583625600639">
        <ele>47.6</ele>
        <time>2017-07-26T17:21:33Z</time>
      </trkpt>
      <trkpt lat="60.128939729835" lon="21.583671281994">
        <ele>47.2</ele>
        <time>2017-07-26T17:21:34Z</time>
      </trkpt>
      <trkpt lat="60.128971497236" lon="21.58373112876">
        <ele>47</ele>
        <time>2017-07-26T17:21:35Z</time>
      </trkpt>
      <trkpt lat="60.128999744239" lon="21.583778486495">
        <ele>46.6</ele>
        <time>2017-07-26T17:21:36Z</time>
      </trkpt>
      <trkpt lat="60.129024638482" lon="21.583823078203">
        <ele>46.4</ele>
        <time>2017-07-26T17:21:37Z</time>
      </trkpt>
      <trkpt lat="60.129046850517" lon="21.583860042382">
        <ele>46.2</ele>
        <time>2017-07-26T17:21:38Z</time>
      </trkpt>
      <trkpt lat="60.129055986788" lon="21.583872279956">
        <ele>45.8</ele>
        <time>2017-07-26T17:21:39Z</time>
      </trkpt>
      <trkpt lat="60.129084569067" lon="21.583905891375">
        <ele>45.6</ele>
        <time>2017-07-26T17:21:40Z</time>
      </trkpt>
      <trkpt lat="60.129109798586" lon="21.583937742595">
        <ele>45.6</ele>
        <time>2017-07-26T17:21:41Z</time>
      </trkpt>
      <trkpt lat="60.129133603182" lon="21.583976969887">
        <ele>45.6</ele>
        <time>2017-07-26T17:21:42Z</time>
      </trkpt>
      <trkpt lat="60.129159335615" lon="21.584012509143">
        <ele>45.6</ele>
        <time>2017-07-26T17:21:43Z</time>
      </trkpt>
      <trkpt lat="60.129179368356" lon="21.584036146101">
        <ele>45.6</ele>
        <time>2017-07-26T17:21:44Z</time>
      </trkpt>
      <trkpt lat="60.12920166421" lon="21.58406724295">
        <ele>45.6</ele>
        <time>2017-07-26T17:21:45Z</time>
      </trkpt>
      <trkpt lat="60.129222702779" lon="21.584087862424">
        <ele>45.6</ele>
        <time>2017-07-26T17:21:46Z</time>
      </trkpt>
      <trkpt lat="60.129241645873" lon="21.584114433047">
        <ele>45.6</ele>
        <time>2017-07-26T17:21:47Z</time>
      </trkpt>
      <trkpt lat="60.129259750777" lon="21.584127341173">
        <ele>45.6</ele>
        <time>2017-07-26T17:21:48Z</time>
      </trkpt>
      <trkpt lat="60.129278442414" lon="21.584149804665">
        <ele>45.6</ele>
        <time>2017-07-26T17:21:49Z</time>
      </trkpt>
      <trkpt lat="60.129301911734" lon="21.584163550981">
        <ele>45.6</ele>
        <time>2017-07-26T17:21:50Z</time>
      </trkpt>
      <trkpt lat="60.129321357742" lon="21.584187020301">
        <ele>45.6</ele>
        <time>2017-07-26T17:21:51Z</time>
      </trkpt>
      <trkpt lat="60.129336780438" lon="21.584209483793">
        <ele>45.6</ele>
        <time>2017-07-26T17:21:52Z</time>
      </trkpt>
      <trkpt lat="60.129353879514" lon="21.584226750507">
        <ele>45.6</ele>
        <time>2017-07-26T17:21:53Z</time>
      </trkpt>
      <trkpt lat="60.12936762583" lon="21.584224738851">
        <ele>45.6</ele>
        <time>2017-07-26T17:21:54Z</time>
      </trkpt>
      <trkpt lat="60.129395453738" lon="21.584249633094">
        <ele>45.6</ele>
        <time>2017-07-26T17:21:55Z</time>
      </trkpt>
      <trkpt lat="60.129411379348" lon="21.584266899808">
        <ele>45.6</ele>
        <time>2017-07-26T17:21:56Z</time>
      </trkpt>
      <trkpt lat="60.129430825356" lon="21.58428684873">
        <ele>45.6</ele>
        <time>2017-07-26T17:21:57Z</time>
      </trkpt>
      <trkpt lat="60.129445242224" lon="21.58430361253">
        <ele>45.6</ele>
        <time>2017-07-26T17:21:58Z</time>
      </trkpt>
      <trkpt lat="60.129454043219" lon="21.584313419353">
        <ele>45.6</ele>
        <time>2017-07-26T17:21:59Z</time>
      </trkpt>
      <trkpt lat="60.129476171435" lon="21.584321549796">
        <ele>45.6</ele>
        <time>2017-07-26T17:22:00Z</time>
      </trkpt>
      <trkpt lat="60.129496371814" lon="21.584334541741">
        <ele>45.6</ele>
        <time>2017-07-26T17:22:01Z</time>
      </trkpt>
      <trkpt lat="60.129519002944" lon="21.584351724636">
        <ele>45.6</ele>
        <time>2017-07-26T17:22:02Z</time>
      </trkpt>
      <trkpt lat="60.129547082309" lon="21.584373517576">
        <ele>45.6</ele>
        <time>2017-07-26T17:22:03Z</time>
      </trkpt>
      <trkpt lat="60.129570383991" lon="21.584391538661">
        <ele>45.6</ele>
        <time>2017-07-26T17:22:04Z</time>
      </trkpt>
      <trkpt lat="60.129606593799" lon="21.584416600542">
        <ele>45.6</ele>
        <time>2017-07-26T17:22:05Z</time>
      </trkpt>
      <trkpt lat="60.12963668482" lon="21.584432861428">
        <ele>45.6</ele>
        <time>2017-07-26T17:22:06Z</time>
      </trkpt>
      <trkpt lat="60.129665267099" lon="21.584446775382">
        <ele>45.6</ele>
        <time>2017-07-26T17:22:07Z</time>
      </trkpt>
      <trkpt lat="60.129689323152" lon="21.584464461191">
        <ele>45.6</ele>
        <time>2017-07-26T17:22:08Z</time>
      </trkpt>
      <trkpt lat="60.129717821612" lon="21.584483236647">
        <ele>45.6</ele>
        <time>2017-07-26T17:22:09Z</time>
      </trkpt>
      <trkpt lat="60.129743218769" lon="21.584502012103">
        <ele>45.6</ele>
        <time>2017-07-26T17:22:10Z</time>
      </trkpt>
      <trkpt lat="60.129779093301" lon="21.584524475595">
        <ele>45.6</ele>
        <time>2017-07-26T17:22:11Z</time>
      </trkpt>
      <trkpt lat="60.129806502114" lon="21.584544005422">
        <ele>45.6</ele>
        <time>2017-07-26T17:22:12Z</time>
      </trkpt>
      <trkpt lat="60.129838101877" lon="21.584568732027">
        <ele>45.6</ele>
        <time>2017-07-26T17:22:13Z</time>
      </trkpt>
      <trkpt lat="60.129868109079" lon="21.584591782252">
        <ele>45.6</ele>
        <time>2017-07-26T17:22:14Z</time>
      </trkpt>
      <trkpt lat="60.129902977783" lon="21.584622292368">
        <ele>45.6</ele>
        <time>2017-07-26T17:22:15Z</time>
      </trkpt>
      <trkpt lat="60.129933571718" lon="21.58464894681">
        <ele>45.6</ele>
        <time>2017-07-26T17:22:16Z</time>
      </trkpt>
      <trkpt lat="60.129969530069" lon="21.584679708383">
        <ele>45.6</ele>
        <time>2017-07-26T17:22:17Z</time>
      </trkpt>
      <trkpt lat="60.130004398773" lon="21.58471264925">
        <ele>45.6</ele>
        <time>2017-07-26T17:22:18Z</time>
      </trkpt>
      <trkpt lat="60.130042117323" lon="21.584747685592">
        <ele>45.6</ele>
        <time>2017-07-26T17:22:19Z</time>
      </trkpt>
      <trkpt lat="60.130080590244" lon="21.584790768558">
        <ele>45.6</ele>
        <time>2017-07-26T17:22:20Z</time>
      </trkpt>
      <trkpt lat="60.130118811708" lon="21.584832761877">
        <ele>45.6</ele>
        <time>2017-07-26T17:22:21Z</time>
      </trkpt>
      <trkpt lat="60.130157368448" lon="21.584877521223">
        <ele>45.6</ele>
        <time>2017-07-26T17:22:22Z</time>
      </trkpt>
      <trkpt lat="60.130202630708" lon="21.584930327193">
        <ele>45.6</ele>
        <time>2017-07-26T17:22:23Z</time>
      </trkpt>
      <trkpt lat="60.130241103629" lon="21.584977349652">
        <ele>45.6</ele>
        <time>2017-07-26T17:22:24Z</time>
      </trkpt>
      <trkpt lat="60.130280666197" lon="21.585037112599">
        <ele>45.6</ele>
        <time>2017-07-26T17:22:25Z</time>
      </trkpt>
      <trkpt lat="60.130317881833" lon="21.585095199166">
        <ele>45.6</ele>
        <time>2017-07-26T17:22:26Z</time>
      </trkpt>
      <trkpt lat="60.130354594555" lon="21.585156973769">
        <ele>45.6</ele>
        <time>2017-07-26T17:22:27Z</time>
      </trkpt>
      <trkpt lat="60.130387367784" lon="21.585222101132">
        <ele>45.6</ele>
        <time>2017-07-26T17:22:28Z</time>
      </trkpt>
      <trkpt lat="60.13042039247" lon="21.58528513302">
        <ele>45.6</ele>
        <time>2017-07-26T17:22:29Z</time>
      </trkpt>
      <trkpt lat="60.130451489319" lon="21.585343471044">
        <ele>45.6</ele>
        <time>2017-07-26T17:22:30Z</time>
      </trkpt>
      <trkpt lat="60.130475461553" lon="21.585397115204">
        <ele>45.6</ele>
        <time>2017-07-26T17:22:31Z</time>
      </trkpt>
      <trkpt lat="60.130495997208" lon="21.585455620866">
        <ele>45.6</ele>
        <time>2017-07-26T17:22:32Z</time>
      </trkpt>
      <trkpt lat="60.130517706329" lon="21.585511192863">
        <ele>45</ele>
        <time>2017-07-26T17:22:33Z</time>
      </trkpt>
      <trkpt lat="60.130534134853" lon="21.585547654128">
        <ele>44.8</ele>
        <time>2017-07-26T17:22:34Z</time>
      </trkpt>
      <trkpt lat="60.13055869382" lon="21.585608003808">
        <ele>44.4</ele>
        <time>2017-07-26T17:22:35Z</time>
      </trkpt>
      <trkpt lat="60.130575709077" lon="21.585653182249">
        <ele>44</ele>
        <time>2017-07-26T17:22:36Z</time>
      </trkpt>
      <trkpt lat="60.130589120117" lon="21.585705736762">
        <ele>43.6</ele>
        <time>2017-07-26T17:22:37Z</time>
      </trkpt>
      <trkpt lat="60.130606303012" lon="21.585757285447">
        <ele>43.4</ele>
        <time>2017-07-26T17:22:38Z</time>
      </trkpt>
      <trkpt lat="60.13062323445" lon="21.585806654838">
        <ele>43.4</ele>
        <time>2017-07-26T17:22:39Z</time>
      </trkpt>
      <trkpt lat="60.130638489508" lon="21.585864992862">
        <ele>43.4</ele>
        <time>2017-07-26T17:22:40Z</time>
      </trkpt>
      <trkpt lat="60.130654582756" lon="21.585925761637">
        <ele>43.4</ele>
        <time>2017-07-26T17:22:41Z</time>
      </trkpt>
      <trkpt lat="60.130668077615" lon="21.585972616458">
        <ele>43.4</ele>
        <time>2017-07-26T17:22:42Z</time>
      </trkpt>
      <trkpt lat="60.130682159207" lon="21.586021399116">
        <ele>43.4</ele>
        <time>2017-07-26T17:22:43Z</time>
      </trkpt>
      <trkpt lat="60.130693977686" lon="21.586066242281">
        <ele>43.4</ele>
        <time>2017-07-26T17:22:44Z</time>
      </trkpt>
      <trkpt lat="60.130709065106" lon="21.586118377699">
        <ele>43.4</ele>
        <time>2017-07-26T17:22:45Z</time>
      </trkpt>
      <trkpt lat="60.130716357359" lon="21.586152827308">
        <ele>43.4</ele>
        <time>2017-07-26T17:22:46Z</time>
      </trkpt>
      <trkpt lat="60.130729852218" lon="21.58622390582">
        <ele>43.4</ele>
        <time>2017-07-26T17:22:47Z</time>
      </trkpt>
      <trkpt lat="60.130742592706" lon="21.586278891084">
        <ele>43.4</ele>
        <time>2017-07-26T17:22:48Z</time>
      </trkpt>
      <trkpt lat="60.130756590479" lon="21.58632448862">
        <ele>43.4</ele>
        <time>2017-07-26T17:22:49Z</time>
      </trkpt>
      <trkpt lat="60.130770672071" lon="21.586370337613">
        <ele>43.4</ele>
        <time>2017-07-26T17:22:50Z</time>
      </trkpt>
      <trkpt lat="60.130785591853" lon="21.586418952633">
        <ele>43.4</ele>
        <time>2017-07-26T17:22:51Z</time>
      </trkpt>
      <trkpt lat="60.130800008721" lon="21.586461197409">
        <ele>43.4</ele>
        <time>2017-07-26T17:22:52Z</time>
      </trkpt>
      <trkpt lat="60.130817778349" lon="21.586508136049">
        <ele>43.4</ele>
        <time>2017-07-26T17:22:53Z</time>
      </trkpt>
      <trkpt lat="60.130831859941" lon="21.586550464644">
        <ele>43.4</ele>
        <time>2017-07-26T17:22:54Z</time>
      </trkpt>
      <trkpt lat="60.130846444447" lon="21.586603354433">
        <ele>43.4</ele>
        <time>2017-07-26T17:22:55Z</time>
      </trkpt>
      <trkpt lat="60.130863878799" lon="21.586646185942">
        <ele>43.4</ele>
        <time>2017-07-26T17:22:56Z</time>
      </trkpt>
      <trkpt lat="60.130879217676" lon="21.586692705487">
        <ele>43.4</ele>
        <time>2017-07-26T17:22:57Z</time>
      </trkpt>
      <trkpt lat="60.13089145525" lon="21.586734279711">
        <ele>43.4</ele>
        <time>2017-07-26T17:22:58Z</time>
      </trkpt>
      <trkpt lat="60.130905620661" lon="21.586775770116">
        <ele>43.4</ele>
        <time>2017-07-26T17:22:59Z</time>
      </trkpt>
      <trkpt lat="60.130921881547" lon="21.586818936901">
        <ele>43.4</ele>
        <time>2017-07-26T17:23:00Z</time>
      </trkpt>
      <trkpt lat="60.130936801329" lon="21.586856403994">
        <ele>43.4</ele>
        <time>2017-07-26T17:23:01Z</time>
      </trkpt>
      <trkpt lat="60.130952810758" lon="21.586894541639">
        <ele>43.4</ele>
        <time>2017-07-26T17:23:02Z</time>
      </trkpt>
      <trkpt lat="60.130966976169" lon="21.586929326524">
        <ele>43.4</ele>
        <time>2017-07-26T17:23:03Z</time>
      </trkpt>
      <trkpt lat="60.130980219571" lon="21.586957070613">
        <ele>43.4</ele>
        <time>2017-07-26T17:23:04Z</time>
      </trkpt>
      <trkpt lat="60.13099874357" lon="21.586994286249">
        <ele>43.4</ele>
        <time>2017-07-26T17:23:05Z</time>
      </trkpt>
      <trkpt lat="60.131018273397" lon="21.587036363387">
        <ele>43.8</ele>
        <time>2017-07-26T17:23:06Z</time>
      </trkpt>
      <trkpt lat="60.131034199007" lon="21.587075925955">
        <ele>44.2</ele>
        <time>2017-07-26T17:23:07Z</time>
      </trkpt>
      <trkpt lat="60.131051381902" lon="21.587113728324">
        <ele>44.4</ele>
        <time>2017-07-26T17:23:08Z</time>
      </trkpt>
      <trkpt lat="60.131067223693" lon="21.587146333915">
        <ele>44.8</ele>
        <time>2017-07-26T17:23:09Z</time>
      </trkpt>
      <trkpt lat="60.131083652217" lon="21.587183214275">
        <ele>45</ele>
        <time>2017-07-26T17:23:10Z</time>
      </trkpt>
      <trkpt lat="60.131101086569" lon="21.587222525386">
        <ele>45.2</ele>
        <time>2017-07-26T17:23:11Z</time>
      </trkpt>
      <trkpt lat="60.131122711871" lon="21.587260327755">
        <ele>45.4</ele>
        <time>2017-07-26T17:23:12Z</time>
      </trkpt>
      <trkpt lat="60.13114123587" lon="21.58730265635">
        <ele>45.4</ele>
        <time>2017-07-26T17:23:13Z</time>
      </trkpt>
      <trkpt lat="60.131156910023" lon="21.587343308565">
        <ele>45.4</ele>
        <time>2017-07-26T17:23:14Z</time>
      </trkpt>
      <trkpt lat="60.131179205877" lon="21.587385804798">
        <ele>45.4</ele>
        <time>2017-07-26T17:23:15Z</time>
      </trkpt>
      <trkpt lat="60.131198065152" lon="21.5874241939">
        <ele>45.4</ele>
        <time>2017-07-26T17:23:16Z</time>
      </trkpt>
      <trkpt lat="60.131219438997" lon="21.587470210531">
        <ele>45.4</ele>
        <time>2017-07-26T17:23:17Z</time>
      </trkpt>
      <trkpt lat="60.131241399575" lon="21.587509773099">
        <ele>45.4</ele>
        <time>2017-07-26T17:23:18Z</time>
      </trkpt>
      <trkpt lat="60.131259169203" lon="21.587546066726">
        <ele>45.4</ele>
        <time>2017-07-26T17:23:19Z</time>
      </trkpt>
      <trkpt lat="60.131276603555" lon="21.58759267009">
        <ele>45.4</ele>
        <time>2017-07-26T17:23:20Z</time>
      </trkpt>
      <trkpt lat="60.131296384839" lon="21.587627454975">
        <ele>45.4</ele>
        <time>2017-07-26T17:23:21Z</time>
      </trkpt>
      <trkpt lat="60.131315495571" lon="21.587668274828">
        <ele>45.4</ele>
        <time>2017-07-26T17:23:22Z</time>
      </trkpt>
      <trkpt lat="60.131336617959" lon="21.587719739694">
        <ele>45.4</ele>
        <time>2017-07-26T17:23:23Z</time>
      </trkpt>
      <trkpt lat="60.131355393415" lon="21.587761230099">
        <ele>45.4</ele>
        <time>2017-07-26T17:23:24Z</time>
      </trkpt>
      <trkpt lat="60.131374923242" lon="21.587805654169">
        <ele>45.4</ele>
        <time>2017-07-26T17:23:25Z</time>
      </trkpt>
      <trkpt lat="60.131389591567" lon="21.587856197026">
        <ele>45.4</ele>
        <time>2017-07-26T17:23:26Z</time>
      </trkpt>
      <trkpt lat="60.131411384507" lon="21.587918558362">
        <ele>45.4</ele>
        <time>2017-07-26T17:23:27Z</time>
      </trkpt>
      <trkpt lat="60.131416581285" lon="21.587933645782">
        <ele>45.4</ele>
        <time>2017-07-26T17:23:28Z</time>
      </trkpt>
      <trkpt lat="60.131441726985" lon="21.588004389018">
        <ele>45.4</ele>
        <time>2017-07-26T17:23:29Z</time>
      </trkpt>
      <trkpt lat="60.131470728359" lon="21.588084100887">
        <ele>45.4</ele>
        <time>2017-07-26T17:23:30Z</time>
      </trkpt>
      <trkpt lat="60.131491264014" lon="21.588143444739">
        <ele>45.4</ele>
        <time>2017-07-26T17:23:31Z</time>
      </trkpt>
      <trkpt lat="60.131511380574" lon="21.58819951965">
        <ele>45.4</ele>
        <time>2017-07-26T17:23:32Z</time>
      </trkpt>
      <trkpt lat="60.131531497134" lon="21.588253499086">
        <ele>45.4</ele>
        <time>2017-07-26T17:23:33Z</time>
      </trkpt>
      <trkpt lat="60.13154859621" lon="21.58829758788">
        <ele>45.4</ele>
        <time>2017-07-26T17:23:34Z</time>
      </trkpt>
      <trkpt lat="60.131571646435" lon="21.588368582573">
        <ele>45.4</ele>
        <time>2017-07-26T17:23:35Z</time>
      </trkpt>
      <trkpt lat="60.131593355556" lon="21.588431865918">
        <ele>45.4</ele>
        <time>2017-07-26T17:23:36Z</time>
      </trkpt>
      <trkpt lat="60.131614058849" lon="21.588489449571">
        <ele>45.4</ele>
        <time>2017-07-26T17:23:37Z</time>
      </trkpt>
      <trkpt lat="60.131637192893" lon="21.588553738744">
        <ele>45.4</ele>
        <time>2017-07-26T17:23:38Z</time>
      </trkpt>
      <trkpt lat="60.131657644729" lon="21.588616183899">
        <ele>45.4</ele>
        <time>2017-07-26T17:23:39Z</time>
      </trkpt>
      <trkpt lat="60.131679940583" lon="21.588682149452">
        <ele>45.4</ele>
        <time>2017-07-26T17:23:40Z</time>
      </trkpt>
      <trkpt lat="60.131705924473" lon="21.588757921828">
        <ele>45.4</ele>
        <time>2017-07-26T17:23:41Z</time>
      </trkpt>
      <trkpt lat="60.131728471784" lon="21.58882816215">
        <ele>45.4</ele>
        <time>2017-07-26T17:23:42Z</time>
      </trkpt>
      <trkpt lat="60.131754707131" lon="21.588898821567">
        <ele>45.2</ele>
        <time>2017-07-26T17:23:43Z</time>
      </trkpt>
      <trkpt lat="60.131777086804" lon="21.588962440188">
        <ele>45</ele>
        <time>2017-07-26T17:23:44Z</time>
      </trkpt>
      <trkpt lat="60.13180508235" lon="21.589033183424">
        <ele>44.6</ele>
        <time>2017-07-26T17:23:45Z</time>
      </trkpt>
      <trkpt lat="60.131828886946" lon="21.589107949972">
        <ele>44.4</ele>
        <time>2017-07-26T17:23:46Z</time>
      </trkpt>
      <trkpt lat="60.131855457569" lon="21.589185901642">
        <ele>44</ele>
        <time>2017-07-26T17:23:47Z</time>
      </trkpt>
      <trkpt lat="60.131881441459" lon="21.589261674018">
        <ele>43.6</ele>
        <time>2017-07-26T17:23:48Z</time>
      </trkpt>
      <trkpt lat="60.131906084245" lon="21.58933191434">
        <ele>43.4</ele>
        <time>2017-07-26T17:23:49Z</time>
      </trkpt>
      <trkpt lat="60.131933576877" lon="21.589410201286">
        <ele>43.4</ele>
        <time>2017-07-26T17:23:50Z</time>
      </trkpt>
      <trkpt lat="60.131957968206" lon="21.589480525427">
        <ele>43.4</ele>
        <time>2017-07-26T17:23:51Z</time>
      </trkpt>
      <trkpt lat="60.131979090594" lon="21.589545485152">
        <ele>43.4</ele>
        <time>2017-07-26T17:23:52Z</time>
      </trkpt>
      <trkpt lat="60.132003649561" lon="21.589610696334">
        <ele>43.4</ele>
        <time>2017-07-26T17:23:53Z</time>
      </trkpt>
      <trkpt lat="60.132026951243" lon="21.589673476765">
        <ele>43.4</ele>
        <time>2017-07-26T17:23:54Z</time>
      </trkpt>
      <trkpt lat="60.132052013124" lon="21.589740615784">
        <ele>43.4</ele>
        <time>2017-07-26T17:23:55Z</time>
      </trkpt>
      <trkpt lat="60.132073722245" lon="21.589804737319">
        <ele>43.4</ele>
        <time>2017-07-26T17:23:56Z</time>
      </trkpt>
      <trkpt lat="60.132094676995" lon="21.589873887994">
        <ele>43</ele>
        <time>2017-07-26T17:23:57Z</time>
      </trkpt>
      <trkpt lat="60.132117894858" lon="21.589940775556">
        <ele>42.8</ele>
        <time>2017-07-26T17:23:58Z</time>
      </trkpt>
      <trkpt lat="60.132143794929" lon="21.590013530448">
        <ele>42.6</ele>
        <time>2017-07-26T17:23:59Z</time>
      </trkpt>
      <trkpt lat="60.132170952285" lon="21.590087794082">
        <ele>42.4</ele>
        <time>2017-07-26T17:24:00Z</time>
      </trkpt>
      <trkpt lat="60.132193667234" lon="21.590153675816">
        <ele>42</ele>
        <time>2017-07-26T17:24:01Z</time>
      </trkpt>
      <trkpt lat="60.132216298364" lon="21.590214360772">
        <ele>41.8</ele>
        <time>2017-07-26T17:24:02Z</time>
      </trkpt>
      <trkpt lat="60.13223842658" lon="21.590273117891">
        <ele>41.6</ele>
        <time>2017-07-26T17:24:03Z</time>
      </trkpt>
      <trkpt lat="60.132256447665" lon="21.590317374323">
        <ele>41.4</ele>
        <time>2017-07-26T17:24:04Z</time>
      </trkpt>
      <trkpt lat="60.132281677184" lon="21.590387363188">
        <ele>41.4</ele>
        <time>2017-07-26T17:24:05Z</time>
      </trkpt>
      <trkpt lat="60.13230296721" lon="21.590451819999">
        <ele>41.4</ele>
        <time>2017-07-26T17:24:06Z</time>
      </trkpt>
      <trkpt lat="60.132326185073" lon="21.590522730873">
        <ele>41.4</ele>
        <time>2017-07-26T17:24:07Z</time>
      </trkpt>
      <trkpt lat="60.132348397108" lon="21.590584337838">
        <ele>41.4</ele>
        <time>2017-07-26T17:24:08Z</time>
      </trkpt>
      <trkpt lat="60.1323708606" lon="21.590639574559">
        <ele>41.4</ele>
        <time>2017-07-26T17:24:09Z</time>
      </trkpt>
      <trkpt lat="60.132393072635" lon="21.590696571479">
        <ele>41.4</ele>
        <time>2017-07-26T17:24:10Z</time>
      </trkpt>
      <trkpt lat="60.132415871403" lon="21.590757507892">
        <ele>41.4</ele>
        <time>2017-07-26T17:24:11Z</time>
      </trkpt>
      <trkpt lat="60.132437748162" lon="21.590814420993">
        <ele>41.4</ele>
        <time>2017-07-26T17:24:12Z</time>
      </trkpt>
      <trkpt lat="60.132459122007" lon="21.590875776501">
        <ele>41.4</ele>
        <time>2017-07-26T17:24:13Z</time>
      </trkpt>
      <trkpt lat="60.132482004594" lon="21.590930929403">
        <ele>41.4</ele>
        <time>2017-07-26T17:24:14Z</time>
      </trkpt>
      <trkpt lat="60.132508407579" lon="21.590988429237">
        <ele>41.4</ele>
        <time>2017-07-26T17:24:15Z</time>
      </trkpt>
      <trkpt lat="60.132531457804" lon="21.59102757271">
        <ele>41.4</ele>
        <time>2017-07-26T17:24:16Z</time>
      </trkpt>
      <trkpt lat="60.132555765314" lon="21.59109462791">
        <ele>41.4</ele>
        <time>2017-07-26T17:24:17Z</time>
      </trkpt>
      <trkpt lat="60.132575630417" lon="21.59114827207">
        <ele>41.4</ele>
        <time>2017-07-26T17:24:18Z</time>
      </trkpt>
      <trkpt lat="60.132592226579" lon="21.59119521071">
        <ele>41.4</ele>
        <time>2017-07-26T17:24:19Z</time>
      </trkpt>
      <trkpt lat="60.132613851881" lon="21.591249525422">
        <ele>41.4</ele>
        <time>2017-07-26T17:24:20Z</time>
      </trkpt>
      <trkpt lat="60.132635309545" lon="21.591297805166">
        <ele>41.4</ele>
        <time>2017-07-26T17:24:21Z</time>
      </trkpt>
      <trkpt lat="60.13263991959" lon="21.591310545654">
        <ele>41.4</ele>
        <time>2017-07-26T17:24:22Z</time>
      </trkpt>
      <trkpt lat="60.132665652023" lon="21.591377433216">
        <ele>41.4</ele>
        <time>2017-07-26T17:24:23Z</time>
      </trkpt>
      <trkpt lat="60.132685600945" lon="21.591429820091">
        <ele>41.4</ele>
        <time>2017-07-26T17:24:24Z</time>
      </trkpt>
      <trkpt lat="60.132701610374" lon="21.591474998532">
        <ele>41.4</ele>
        <time>2017-07-26T17:24:25Z</time>
      </trkpt>
      <trkpt lat="60.132714350862" lon="21.591506682114">
        <ele>41.4</ele>
        <time>2017-07-26T17:24:26Z</time>
      </trkpt>
      <trkpt lat="60.132729689739" lon="21.591543143379">
        <ele>41.4</ele>
        <time>2017-07-26T17:24:27Z</time>
      </trkpt>
      <trkpt lat="60.132740921485" lon="21.591586477802">
        <ele>41.4</ele>
        <time>2017-07-26T17:24:28Z</time>
      </trkpt>
      <trkpt lat="60.132757433828" lon="21.59163358408">
        <ele>41.4</ele>
        <time>2017-07-26T17:24:29Z</time>
      </trkpt>
      <trkpt lat="60.132775538732" lon="21.591683204928">
        <ele>41.4</ele>
        <time>2017-07-26T17:24:30Z</time>
      </trkpt>
      <trkpt lat="60.132793475998" lon="21.591724527695">
        <ele>41.4</ele>
        <time>2017-07-26T17:24:31Z</time>
      </trkpt>
      <trkpt lat="60.132811161807" lon="21.591768951765">
        <ele>41.2</ele>
        <time>2017-07-26T17:24:32Z</time>
      </trkpt>
      <trkpt lat="60.1328318651" lon="21.591811028903">
        <ele>41</ele>
        <time>2017-07-26T17:24:33Z</time>
      </trkpt>
      <trkpt lat="60.132845862873" lon="21.591847657806">
        <ele>40.8</ele>
        <time>2017-07-26T17:24:34Z</time>
      </trkpt>
      <trkpt lat="60.13286874546" lon="21.591903145984">
        <ele>40.6</ele>
        <time>2017-07-26T17:24:35Z</time>
      </trkpt>
      <trkpt lat="60.13288718564" lon="21.591951425728">
        <ele>40.4</ele>
        <time>2017-07-26T17:24:36Z</time>
      </trkpt>
      <trkpt lat="60.132906883105" lon="21.591996101255">
        <ele>40</ele>
        <time>2017-07-26T17:24:37Z</time>
      </trkpt>
      <trkpt lat="60.132924736552" lon="21.592040860601">
        <ele>39.6</ele>
        <time>2017-07-26T17:24:38Z</time>
      </trkpt>
      <trkpt lat="60.132942338542" lon="21.592076483676">
        <ele>39.4</ele>
        <time>2017-07-26T17:24:39Z</time>
      </trkpt>
      <trkpt lat="60.132957928876" lon="21.592119818099">
        <ele>39.4</ele>
        <time>2017-07-26T17:24:40Z</time>
      </trkpt>
      <trkpt lat="60.132976536694" lon="21.592160554133">
        <ele>39.4</ele>
        <time>2017-07-26T17:24:41Z</time>
      </trkpt>
      <trkpt lat="60.132990953562" lon="21.592201709262">
        <ele>39.4</ele>
        <time>2017-07-26T17:24:42Z</time>
      </trkpt>
      <trkpt lat="60.133004448421" lon="21.592236913242">
        <ele>39.4</ele>
        <time>2017-07-26T17:24:43Z</time>
      </trkpt>
      <trkpt lat="60.133020206393" lon="21.592271111394">
        <ele>39.4</ele>
        <time>2017-07-26T17:24:44Z</time>
      </trkpt>
      <trkpt lat="60.133039652401" lon="21.592311847428">
        <ele>39.4</ele>
        <time>2017-07-26T17:24:45Z</time>
      </trkpt>
      <trkpt lat="60.133055913287" lon="21.592350320349">
        <ele>39.4</ele>
        <time>2017-07-26T17:24:46Z</time>
      </trkpt>
      <trkpt lat="60.133071084526" lon="21.592394995876">
        <ele>39.4</ele>
        <time>2017-07-26T17:24:47Z</time>
      </trkpt>
      <trkpt lat="60.133086842498" lon="21.592430870408">
        <ele>39.4</ele>
        <time>2017-07-26T17:24:48Z</time>
      </trkpt>
      <trkpt lat="60.133105031221" lon="21.592466242026">
        <ele>39.4</ele>
        <time>2017-07-26T17:24:49Z</time>
      </trkpt>
      <trkpt lat="60.133120118641" lon="21.592503373843">
        <ele>39.6</ele>
        <time>2017-07-26T17:24:50Z</time>
      </trkpt>
      <trkpt lat="60.133136211889" lon="21.592537069081">
        <ele>39.6</ele>
        <time>2017-07-26T17:24:51Z</time>
      </trkpt>
      <trkpt lat="60.133144929065" lon="21.592552407958">
        <ele>39.4</ele>
        <time>2017-07-26T17:24:52Z</time>
      </trkpt>
      <trkpt lat="60.1331671411" lon="21.592597251123">
        <ele>39.4</ele>
        <time>2017-07-26T17:24:53Z</time>
      </trkpt>
      <trkpt lat="60.133181138873" lon="21.592625079031">
        <ele>39.4</ele>
        <time>2017-07-26T17:24:54Z</time>
      </trkpt>
      <trkpt lat="60.133199327596" lon="21.592660953563">
        <ele>39.4</ele>
        <time>2017-07-26T17:24:55Z</time>
      </trkpt>
      <trkpt lat="60.133216426672" lon="21.592693140059">
        <ele>39.4</ele>
        <time>2017-07-26T17:24:56Z</time>
      </trkpt>
      <trkpt lat="60.133226317314" lon="21.592714765361">
        <ele>39.4</ele>
        <time>2017-07-26T17:24:57Z</time>
      </trkpt>
      <trkpt lat="60.133240985639" lon="21.592753741196">
        <ele>39.4</ele>
        <time>2017-07-26T17:24:58Z</time>
      </trkpt>
      <trkpt lat="60.133255821602" lon="21.592786598244">
        <ele>39.6</ele>
        <time>2017-07-26T17:24:59Z</time>
      </trkpt>
      <trkpt lat="60.133274010325" lon="21.592818198007">
        <ele>40</ele>
        <time>2017-07-26T17:25:00Z</time>
      </trkpt>
      <trkpt lat="60.133291444677" lon="21.592848791942">
        <ele>40.2</ele>
        <time>2017-07-26T17:25:01Z</time>
      </trkpt>
      <trkpt lat="60.133310723047" lon="21.592880978438">
        <ele>40.4</ele>
        <time>2017-07-26T17:25:02Z</time>
      </trkpt>
      <trkpt lat="60.133328408856" lon="21.592913416391">
        <ele>40.8</ele>
        <time>2017-07-26T17:25:03Z</time>
      </trkpt>
      <trkpt lat="60.133342993362" lon="21.592932862399">
        <ele>41.2</ele>
        <time>2017-07-26T17:25:04Z</time>
      </trkpt>
      <trkpt lat="60.133366127406" lon="21.592969826578">
        <ele>41.4</ele>
        <time>2017-07-26T17:25:05Z</time>
      </trkpt>
      <trkpt lat="60.133385657233" lon="21.59300067197">
        <ele>41.4</ele>
        <time>2017-07-26T17:25:06Z</time>
      </trkpt>
      <trkpt lat="60.133404851784" lon="21.593028164602">
        <ele>41.4</ele>
        <time>2017-07-26T17:25:07Z</time>
      </trkpt>
      <trkpt lat="60.13342278905" lon="21.593054902863">
        <ele>41.4</ele>
        <time>2017-07-26T17:25:08Z</time>
      </trkpt>
      <trkpt lat="60.133443995257" lon="21.593079880925">
        <ele>41.4</ele>
        <time>2017-07-26T17:25:09Z</time>
      </trkpt>
      <trkpt lat="60.133465117645" lon="21.593110391041">
        <ele>41.4</ele>
        <time>2017-07-26T17:25:10Z</time>
      </trkpt>
      <trkpt lat="60.133492275001" lon="21.593134530913">
        <ele>41.4</ele>
        <time>2017-07-26T17:25:11Z</time>
      </trkpt>
      <trkpt lat="60.133512894475" lon="21.593165543943">
        <ele>41.4</ele>
        <time>2017-07-26T17:25:12Z</time>
      </trkpt>
      <trkpt lat="60.133539968012" lon="21.593193371851">
        <ele>41.4</ele>
        <time>2017-07-26T17:25:13Z</time>
      </trkpt>
      <trkpt lat="60.133564107884" lon="21.593221702673">
        <ele>41.4</ele>
        <time>2017-07-26T17:25:14Z</time>
      </trkpt>
      <trkpt lat="60.133593276896" lon="21.593252045151">
        <ele>41.4</ele>
        <time>2017-07-26T17:25:15Z</time>
      </trkpt>
      <trkpt lat="60.13361808732" lon="21.59327895105">
        <ele>41.4</ele>
        <time>2017-07-26T17:25:16Z</time>
      </trkpt>
      <trkpt lat="60.133649519445" lon="21.59330661132">
        <ele>41.4</ele>
        <time>2017-07-26T17:25:17Z</time>
      </trkpt>
      <trkpt lat="60.133675754792" lon="21.593332679029">
        <ele>41.4</ele>
        <time>2017-07-26T17:25:18Z</time>
      </trkpt>
      <trkpt lat="60.133698218284" lon="21.593351454485">
        <ele>41.4</ele>
        <time>2017-07-26T17:25:19Z</time>
      </trkpt>
      <trkpt lat="60.133724872726" lon="21.593375845814">
        <ele>41.4</ele>
        <time>2017-07-26T17:25:20Z</time>
      </trkpt>
      <trkpt lat="60.133752113901" lon="21.593400572419">
        <ele>41.4</ele>
        <time>2017-07-26T17:25:21Z</time>
      </trkpt>
      <trkpt lat="60.133773571565" lon="21.593412893812">
        <ele>41.4</ele>
        <time>2017-07-26T17:25:22Z</time>
      </trkpt>
      <trkpt lat="60.133801567111" lon="21.593429573793">
        <ele>41.4</ele>
        <time>2017-07-26T17:25:23Z</time>
      </trkpt>
      <trkpt lat="60.133829562657" lon="21.593445667041">
        <ele>41.4</ele>
        <time>2017-07-26T17:25:24Z</time>
      </trkpt>
      <trkpt lat="60.133863425533" lon="21.59346586742">
        <ele>41.4</ele>
        <time>2017-07-26T17:25:25Z</time>
      </trkpt>
      <trkpt lat="60.133909525983" lon="21.593476931528">
        <ele>41.4</ele>
        <time>2017-07-26T17:25:26Z</time>
      </trkpt>
      <trkpt lat="60.133950513474" lon="21.593490007292">
        <ele>41.4</ele>
        <time>2017-07-26T17:25:27Z</time>
      </trkpt>
      <trkpt lat="60.133982783789" lon="21.593495371708">
        <ele>41.4</ele>
        <time>2017-07-26T17:25:28Z</time>
      </trkpt>
      <trkpt lat="60.134026788764" lon="21.593502412504">
        <ele>41.4</ele>
        <time>2017-07-26T17:25:29Z</time>
      </trkpt>
      <trkpt lat="60.134068949721" lon="21.593495958441">
        <ele>41.4</ele>
        <time>2017-07-26T17:25:30Z</time>
      </trkpt>
      <trkpt lat="60.134106416814" lon="21.593501490495">
        <ele>41.4</ele>
        <time>2017-07-26T17:25:31Z</time>
      </trkpt>
      <trkpt lat="60.134139609138" lon="21.593492186586">
        <ele>41.4</ele>
        <time>2017-07-26T17:25:32Z</time>
      </trkpt>
      <trkpt lat="60.134174980756" lon="21.593481373935">
        <ele>41.4</ele>
        <time>2017-07-26T17:25:33Z</time>
      </trkpt>
      <trkpt lat="60.13420230575" lon="21.593476931528">
        <ele>41.4</ele>
        <time>2017-07-26T17:25:34Z</time>
      </trkpt>
      <trkpt lat="60.134247232734" lon="21.593468130533">
        <ele>41.4</ele>
        <time>2017-07-26T17:25:35Z</time>
      </trkpt>
      <trkpt lat="60.134280676515" lon="21.593452372561">
        <ele>41.4</ele>
        <time>2017-07-26T17:25:36Z</time>
      </trkpt>
      <trkpt lat="60.134314204115" lon="21.593442565738">
        <ele>41.4</ele>
        <time>2017-07-26T17:25:37Z</time>
      </trkpt>
      <trkpt lat="60.134346725887" lon="21.593433848562">
        <ele>41.4</ele>
        <time>2017-07-26T17:25:38Z</time>
      </trkpt>
      <trkpt lat="60.134382013686" lon="21.59342731068">
        <ele>41.2</ele>
        <time>2017-07-26T17:25:39Z</time>
      </trkpt>
      <trkpt lat="60.134414703096" lon="21.593411217432">
        <ele>40.8</ele>
        <time>2017-07-26T17:25:40Z</time>
      </trkpt>
      <trkpt lat="60.134451751094" lon="21.593398393125">
        <ele>40.6</ele>
        <time>2017-07-26T17:25:41Z</time>
      </trkpt>
      <trkpt lat="60.134485530151" lon="21.593382718972">
        <ele>40.2</ele>
        <time>2017-07-26T17:25:42Z</time>
      </trkpt>
      <trkpt lat="60.134518135742" lon="21.593361428946">
        <ele>40</ele>
        <time>2017-07-26T17:25:43Z</time>
      </trkpt>
      <trkpt lat="60.134547388573" lon="21.593343072585">
        <ele>39.8</ele>
        <time>2017-07-26T17:25:44Z</time>
      </trkpt>
      <trkpt lat="60.134581251449" lon="21.593321782559">
        <ele>39.4</ele>
        <time>2017-07-26T17:25:45Z</time>
      </trkpt>
      <trkpt lat="60.134607905891" lon="21.59329906761">
        <ele>39.4</ele>
        <time>2017-07-26T17:25:46Z</time>
      </trkpt>
      <trkpt lat="60.134639338016" lon="21.593275682109">
        <ele>39.4</ele>
        <time>2017-07-26T17:25:47Z</time>
      </trkpt>
      <trkpt lat="60.134671356874" lon="21.593249530581">
        <ele>39.4</ele>
        <time>2017-07-26T17:25:48Z</time>
      </trkpt>
      <trkpt lat="60.13469935242" lon="21.593225642166">
        <ele>39.4</ele>
        <time>2017-07-26T17:25:49Z</time>
      </trkpt>
      <trkpt lat="60.134732125649" lon="21.593201167018">
        <ele>39.4</ele>
        <time>2017-07-26T17:25:50Z</time>
      </trkpt>
      <trkpt lat="60.134763222498" lon="21.593178452069">
        <ele>39.4</ele>
        <time>2017-07-26T17:25:51Z</time>
      </trkpt>
      <trkpt lat="60.134796666279" lon="21.593152887274">
        <ele>39.4</ele>
        <time>2017-07-26T17:25:52Z</time>
      </trkpt>
      <trkpt lat="60.134830361517" lon="21.59312975323">
        <ele>39.4</ele>
        <time>2017-07-26T17:25:53Z</time>
      </trkpt>
      <trkpt lat="60.134858105606" lon="21.593108547023">
        <ele>39.4</ele>
        <time>2017-07-26T17:25:54Z</time>
      </trkpt>
      <trkpt lat="60.134889705369" lon="21.593085664436">
        <ele>39.4</ele>
        <time>2017-07-26T17:25:55Z</time>
      </trkpt>
      <trkpt lat="60.13491728182" lon="21.593063368582">
        <ele>39.4</ele>
        <time>2017-07-26T17:25:56Z</time>
      </trkpt>
      <trkpt lat="60.13494494209" lon="21.593037049416">
        <ele>39.4</ele>
        <time>2017-07-26T17:25:57Z</time>
      </trkpt>
      <trkpt lat="60.13496841141" lon="21.593023722195">
        <ele>39.4</ele>
        <time>2017-07-26T17:25:58Z</time>
      </trkpt>
      <trkpt lat="60.134995568766" lon="21.593005114377">
        <ele>39.4</ele>
        <time>2017-07-26T17:25:59Z</time>
      </trkpt>
      <trkpt lat="60.135027419986" lon="21.592983740532">
        <ele>39.4</ele>
        <time>2017-07-26T17:26:00Z</time>
      </trkpt>
      <trkpt lat="60.135058433016" lon="21.592963456334">
        <ele>39.4</ele>
        <time>2017-07-26T17:26:01Z</time>
      </trkpt>
      <trkpt lat="60.135087853485" lon="21.592948788009">
        <ele>39.4</ele>
        <time>2017-07-26T17:26:02Z</time>
      </trkpt>
      <trkpt lat="60.135115513755" lon="21.592937556263">
        <ele>39.2</ele>
        <time>2017-07-26T17:26:03Z</time>
      </trkpt>
      <trkpt lat="60.135136217048" lon="21.592926827431">
        <ele>39.4</ele>
        <time>2017-07-26T17:26:04Z</time>
      </trkpt>
      <trkpt lat="60.135167313897" lon="21.592914757495">
        <ele>39.4</ele>
        <time>2017-07-26T17:26:05Z</time>
      </trkpt>
      <trkpt lat="60.135193968339" lon="21.592908973984">
        <ele>39.4</ele>
        <time>2017-07-26T17:26:06Z</time>
      </trkpt>
      <trkpt lat="60.135222215342" lon="21.592897323143">
        <ele>39.4</ele>
        <time>2017-07-26T17:26:07Z</time>
      </trkpt>
      <trkpt lat="60.135250965259" lon="21.592882822456">
        <ele>39.4</ele>
        <time>2017-07-26T17:26:08Z</time>
      </trkpt>
      <trkpt lat="60.135277619701" lon="21.592874608194">
        <ele>39.4</ele>
        <time>2017-07-26T17:26:09Z</time>
      </trkpt>
      <trkpt lat="60.135306788713" lon="21.592865555742">
        <ele>39.4</ele>
        <time>2017-07-26T17:26:10Z</time>
      </trkpt>
      <trkpt lat="60.135336125363" lon="21.592856754747">
        <ele>39.4</ele>
        <time>2017-07-26T17:26:11Z</time>
      </trkpt>
      <trkpt lat="60.135361690158" lon="21.592842756974">
        <ele>39.4</ele>
        <time>2017-07-26T17:26:12Z</time>
      </trkpt>
      <trkpt lat="60.135388847514" lon="21.592838482205">
        <ele>39.4</ele>
        <time>2017-07-26T17:26:13Z</time>
      </trkpt>
      <trkpt lat="60.135416926879" lon="21.592849127218">
        <ele>39.4</ele>
        <time>2017-07-26T17:26:14Z</time>
      </trkpt>
      <trkpt lat="60.135446766443" lon="21.592857592937">
        <ele>39.4</ele>
        <time>2017-07-26T17:26:15Z</time>
      </trkpt>
      <trkpt lat="60.135474510532" lon="21.592860023688">
        <ele>39.4</ele>
        <time>2017-07-26T17:26:16Z</time>
      </trkpt>
      <trkpt lat="60.135506110295" lon="21.592864047">
        <ele>39.4</ele>
        <time>2017-07-26T17:26:17Z</time>
      </trkpt>
      <trkpt lat="60.135533519108" lon="21.592866477751">
        <ele>39.4</ele>
        <time>2017-07-26T17:26:18Z</time>
      </trkpt>
      <trkpt lat="60.135556066419" lon="21.592875949298">
        <ele>39.4</ele>
        <time>2017-07-26T17:26:19Z</time>
      </trkpt>
      <trkpt lat="60.135581463576" lon="21.592877290402">
        <ele>39.4</ele>
        <time>2017-07-26T17:26:20Z</time>
      </trkpt>
      <trkpt lat="60.135605519629" lon="21.592883912103">
        <ele>39.4</ele>
        <time>2017-07-26T17:26:21Z</time>
      </trkpt>
      <trkpt lat="60.135626893474" lon="21.592893299831">
        <ele>39.4</ele>
        <time>2017-07-26T17:26:22Z</time>
      </trkpt>
      <trkpt lat="60.135647848224" lon="21.592904531577">
        <ele>39.4</ele>
        <time>2017-07-26T17:26:23Z</time>
      </trkpt>
      <trkpt lat="60.135667210413" lon="21.592919618997">
        <ele>39.4</ele>
        <time>2017-07-26T17:26:24Z</time>
      </trkpt>
      <trkpt lat="60.135692188475" lon="21.59293194039">
        <ele>39.4</ele>
        <time>2017-07-26T17:26:25Z</time>
      </trkpt>
      <trkpt lat="60.135716244528" lon="21.592950296751">
        <ele>39.4</ele>
        <time>2017-07-26T17:26:26Z</time>
      </trkpt>
      <trkpt lat="60.135743569522" lon="21.59297384989">
        <ele>39.4</ele>
        <time>2017-07-26T17:26:27Z</time>
      </trkpt>
      <trkpt lat="60.135769301955" lon="21.592989440224">
        <ele>39.4</ele>
        <time>2017-07-26T17:26:28Z</time>
      </trkpt>
      <trkpt lat="60.135797548958" lon="21.593007628947">
        <ele>39.4</ele>
        <time>2017-07-26T17:26:29Z</time>
      </trkpt>
      <trkpt lat="60.135826382694" lon="21.593037971425">
        <ele>39.4</ele>
        <time>2017-07-26T17:26:30Z</time>
      </trkpt>
      <trkpt lat="60.135852534222" lon="21.593060686374">
        <ele>39.4</ele>
        <time>2017-07-26T17:26:31Z</time>
      </trkpt>
      <trkpt lat="60.135878434293" lon="21.59308113821">
        <ele>39.4</ele>
        <time>2017-07-26T17:26:32Z</time>
      </trkpt>
      <trkpt lat="60.135905256373" lon="21.593097482915">
        <ele>39.4</ele>
        <time>2017-07-26T17:26:33Z</time>
      </trkpt>
      <trkpt lat="60.135925037657" lon="21.593110391041">
        <ele>39.4</ele>
        <time>2017-07-26T17:26:34Z</time>
      </trkpt>
      <trkpt lat="60.135952614108" lon="21.593134447094">
        <ele>39.4</ele>
        <time>2017-07-26T17:26:35Z</time>
      </trkpt>
      <trkpt lat="60.135977089256" lon="21.593156910586">
        <ele>39.4</ele>
        <time>2017-07-26T17:26:36Z</time>
      </trkpt>
      <trkpt lat="60.136002402594" lon="21.593178284431">
        <ele>39.4</ele>
        <time>2017-07-26T17:26:37Z</time>
      </trkpt>
      <trkpt lat="60.136027129199" lon="21.593200747923">
        <ele>39.4</ele>
        <time>2017-07-26T17:26:38Z</time>
      </trkpt>
      <trkpt lat="60.136050849976" lon="21.593223881967">
        <ele>39.4</ele>
        <time>2017-07-26T17:26:39Z</time>
      </trkpt>
      <trkpt lat="60.136077755875" lon="21.593250620228">
        <ele>39.4</ele>
        <time>2017-07-26T17:26:40Z</time>
      </trkpt>
      <trkpt lat="60.136102650118" lon="21.593271491159">
        <ele>39.4</ele>
        <time>2017-07-26T17:26:41Z</time>
      </trkpt>
      <trkpt lat="60.136133663148" lon="21.593299738162">
        <ele>39.4</ele>
        <time>2017-07-26T17:26:42Z</time>
      </trkpt>
      <trkpt lat="60.136159227943" lon="21.5933166696">
        <ele>39.4</ele>
        <time>2017-07-26T17:26:43Z</time>
      </trkpt>
      <trkpt lat="60.136184792738" lon="21.593341647662">
        <ele>39.4</ele>
        <time>2017-07-26T17:26:44Z</time>
      </trkpt>
      <trkpt lat="60.136212369189" lon="21.593373247425">
        <ele>39.4</ele>
        <time>2017-07-26T17:26:45Z</time>
      </trkpt>
      <trkpt lat="60.136242627848" lon="21.59339797403">
        <ele>39.4</ele>
        <time>2017-07-26T17:26:46Z</time>
      </trkpt>
      <trkpt lat="60.136273137964" lon="21.593425131386">
        <ele>39.4</ele>
        <time>2017-07-26T17:26:47Z</time>
      </trkpt>
      <trkpt lat="60.13629526618" lon="21.593453546027">
        <ele>39.4</ele>
        <time>2017-07-26T17:26:48Z</time>
      </trkpt>
      <trkpt lat="60.136321082432" lon="21.593480703383">
        <ele>39.4</ele>
        <time>2017-07-26T17:26:49Z</time>
      </trkpt>
      <trkpt lat="60.136347904512" lon="21.59350526235">
        <ele>39.4</ele>
        <time>2017-07-26T17:26:50Z</time>
      </trkpt>
      <trkpt lat="60.136370451823" lon="21.593531832973">
        <ele>39.4</ele>
        <time>2017-07-26T17:26:51Z</time>
      </trkpt>
      <trkpt lat="60.136394507876" lon="21.59355387737">
        <ele>39.4</ele>
        <time>2017-07-26T17:26:52Z</time>
      </trkpt>
      <trkpt lat="60.136425772363" lon="21.59357902307">
        <ele>39.4</ele>
        <time>2017-07-26T17:26:53Z</time>
      </trkpt>
      <trkpt lat="60.136453516452" lon="21.593606599521">
        <ele>39.4</ele>
        <time>2017-07-26T17:26:54Z</time>
      </trkpt>
      <trkpt lat="60.136487379328" lon="21.593638366922">
        <ele>39.4</ele>
        <time>2017-07-26T17:26:55Z</time>
      </trkpt>
      <trkpt lat="60.136514536684" lon="21.593665189002">
        <ele>39.4</ele>
        <time>2017-07-26T17:26:56Z</time>
      </trkpt>
      <trkpt lat="60.136543454239" lon="21.593696034394">
        <ele>39.4</ele>
        <time>2017-07-26T17:26:57Z</time>
      </trkpt>
      <trkpt lat="60.136569521948" lon="21.593723275569">
        <ele>39.4</ele>
        <time>2017-07-26T17:26:58Z</time>
      </trkpt>
      <trkpt lat="60.136595505838" lon="21.5937609103">
        <ele>39.4</ele>
        <time>2017-07-26T17:26:59Z</time>
      </trkpt>
      <trkpt lat="60.136622830832" lon="21.593795192271">
        <ele>39.4</ele>
        <time>2017-07-26T17:27:00Z</time>
      </trkpt>
      <trkpt lat="60.136644372315" lon="21.593830815346">
        <ele>39.4</ele>
        <time>2017-07-26T17:27:01Z</time>
      </trkpt>
      <trkpt lat="60.13666993711" lon="21.593871216104">
        <ele>39.2</ele>
        <time>2017-07-26T17:27:02Z</time>
      </trkpt>
      <trkpt lat="60.136696507733" lon="21.593917316554">
        <ele>39.2</ele>
        <time>2017-07-26T17:27:03Z</time>
      </trkpt>
      <trkpt lat="60.136722240166" lon="21.593957214398">
        <ele>39.2</ele>
        <time>2017-07-26T17:27:04Z</time>
      </trkpt>
      <trkpt lat="60.136762389467" lon="21.594012451119">
        <ele>39.2</ele>
        <time>2017-07-26T17:27:05Z</time>
      </trkpt>
      <trkpt lat="60.136788540995" lon="21.594059892673">
        <ele>39.2</ele>
        <time>2017-07-26T17:27:06Z</time>
      </trkpt>
      <trkpt lat="60.136815446894" lon="21.594110016435">
        <ele>39.2</ele>
        <time>2017-07-26T17:27:07Z</time>
      </trkpt>
      <trkpt lat="60.136841933698" lon="21.594159637283">
        <ele>39.2</ele>
        <time>2017-07-26T17:27:08Z</time>
      </trkpt>
      <trkpt lat="60.136865486837" lon="21.594205570095">
        <ele>39.4</ele>
        <time>2017-07-26T17:27:09Z</time>
      </trkpt>
      <trkpt lat="60.136890716356" lon="21.59425292783">
        <ele>39.2</ele>
        <time>2017-07-26T17:27:10Z</time>
      </trkpt>
      <trkpt lat="60.13692139411" lon="21.594312774596">
        <ele>39.2</ele>
        <time>2017-07-26T17:27:11Z</time>
      </trkpt>
      <trkpt lat="60.136945031068" lon="21.594360048512">
        <ele>39.4</ele>
        <time>2017-07-26T17:27:12Z</time>
      </trkpt>
      <trkpt lat="60.136966991646" lon="21.594409250265">
        <ele>39.4</ele>
        <time>2017-07-26T17:27:13Z</time>
      </trkpt>
      <trkpt lat="60.136987862577" lon="21.59445493162">
        <ele>39.4</ele>
        <time>2017-07-26T17:27:14Z</time>
      </trkpt>
      <trkpt lat="60.137011164259" lon="21.594510755074">
        <ele>39.4</ele>
        <time>2017-07-26T17:27:15Z</time>
      </trkpt>
      <trkpt lat="60.137028095697" lon="21.594562639035">
        <ele>39.2</ele>
        <time>2017-07-26T17:27:16Z</time>
      </trkpt>
      <trkpt lat="60.137052654664" lon="21.594626676751">
        <ele>39</ele>
        <time>2017-07-26T17:27:17Z</time>
      </trkpt>
      <trkpt lat="60.137071681577" lon="21.594680823825">
        <ele>38.6</ele>
        <time>2017-07-26T17:27:18Z</time>
      </trkpt>
      <trkpt lat="60.137091043766" lon="21.594732623967">
        <ele>38.4</ele>
        <time>2017-07-26T17:27:19Z</time>
      </trkpt>
      <trkpt lat="60.137107723747" lon="21.594788950335">
        <ele>38</ele>
        <time>2017-07-26T17:27:20Z</time>
      </trkpt>
      <trkpt lat="60.137126331565" lon="21.594844354694">
        <ele>37.6</ele>
        <time>2017-07-26T17:27:21Z</time>
      </trkpt>
      <trkpt lat="60.137142005718" lon="21.594890622782">
        <ele>37.2</ele>
        <time>2017-07-26T17:27:22Z</time>
      </trkpt>
      <trkpt lat="60.13715944007" lon="21.594944350761">
        <ele>37.2</ele>
        <time>2017-07-26T17:27:23Z</time>
      </trkpt>
      <trkpt lat="60.13717201292" lon="21.594993636333">
        <ele>37.2</ele>
        <time>2017-07-26T17:27:24Z</time>
      </trkpt>
      <trkpt lat="60.137188944358" lon="21.595051639081">
        <ele>37.2</ele>
        <time>2017-07-26T17:27:25Z</time>
      </trkpt>
      <trkpt lat="60.137203109769" lon="21.595104696508">
        <ele>37.2</ele>
        <time>2017-07-26T17:27:26Z</time>
      </trkpt>
      <trkpt lat="60.137217191361" lon="21.595159681772">
        <ele>37.2</ele>
        <time>2017-07-26T17:27:27Z</time>
      </trkpt>
      <trkpt lat="60.137232111143" lon="21.595209721715">
        <ele>37.2</ele>
        <time>2017-07-26T17:27:28Z</time>
      </trkpt>
      <trkpt lat="60.13724745002" lon="21.595262779142">
        <ele>37.2</ele>
        <time>2017-07-26T17:27:29Z</time>
      </trkpt>
      <trkpt lat="60.137262872716" lon="21.595317932044">
        <ele>37.2</ele>
        <time>2017-07-26T17:27:30Z</time>
      </trkpt>
      <trkpt lat="60.137280558525" lon="21.595368139625">
        <ele>37.2</ele>
        <time>2017-07-26T17:27:31Z</time>
      </trkpt>
      <trkpt lat="60.137295478307" lon="21.595424465993">
        <ele>37.2</ele>
        <time>2017-07-26T17:27:32Z</time>
      </trkpt>
      <trkpt lat="60.137310146632" lon="21.595480457085">
        <ele>37.2</ele>
        <time>2017-07-26T17:27:33Z</time>
      </trkpt>
      <trkpt lat="60.137325904604" lon="21.595532592503">
        <ele>37.2</ele>
        <time>2017-07-26T17:27:34Z</time>
      </trkpt>
      <trkpt lat="60.137348368096" lon="21.595597133133">
        <ele>37.2</ele>
        <time>2017-07-26T17:27:35Z</time>
      </trkpt>
      <trkpt lat="60.137370496312" lon="21.59564935237">
        <ele>37.2</ele>
        <time>2017-07-26T17:27:36Z</time>
      </trkpt>
      <trkpt lat="60.137389774682" lon="21.595704169996">
        <ele>37.2</ele>
        <time>2017-07-26T17:27:37Z</time>
      </trkpt>
      <trkpt lat="60.137413076364" lon="21.595758149432">
        <ele>37.2</ele>
        <time>2017-07-26T17:27:38Z</time>
      </trkpt>
      <trkpt lat="60.137433695838" lon="21.595810620126">
        <ele>37.2</ele>
        <time>2017-07-26T17:27:39Z</time>
      </trkpt>
      <trkpt lat="60.137455740235" lon="21.59586225263">
        <ele>37.2</ele>
        <time>2017-07-26T17:27:40Z</time>
      </trkpt>
      <trkpt lat="60.137479712469" lon="21.595914471867">
        <ele>37.2</ele>
        <time>2017-07-26T17:27:41Z</time>
      </trkpt>
      <trkpt lat="60.137506115454" lon="21.595962416335">
        <ele>37.2</ele>
        <time>2017-07-26T17:27:42Z</time>
      </trkpt>
      <trkpt lat="60.137531344973" lon="21.596012456278">
        <ele>37.2</ele>
        <time>2017-07-26T17:27:43Z</time>
      </trkpt>
      <trkpt lat="60.137555317207" lon="21.596059394918">
        <ele>37.2</ele>
        <time>2017-07-26T17:27:44Z</time>
      </trkpt>
      <trkpt lat="60.137582306925" lon="21.596106836472">
        <ele>37.2</ele>
        <time>2017-07-26T17:27:45Z</time>
      </trkpt>
      <trkpt lat="60.137605189512" lon="21.596147069592">
        <ele>37.2</ele>
        <time>2017-07-26T17:27:46Z</time>
      </trkpt>
      <trkpt lat="60.137633520334" lon="21.596197277173">
        <ele>37.2</ele>
        <time>2017-07-26T17:27:47Z</time>
      </trkpt>
      <trkpt lat="60.137662521708" lon="21.596239605768">
        <ele>37.2</ele>
        <time>2017-07-26T17:27:48Z</time>
      </trkpt>
      <trkpt lat="60.137688086503" lon="21.596275899395">
        <ele>37.2</ele>
        <time>2017-07-26T17:27:49Z</time>
      </trkpt>
      <trkpt lat="60.137723961035" lon="21.596327615718">
        <ele>37.2</ele>
        <time>2017-07-26T17:27:50Z</time>
      </trkpt>
      <trkpt lat="60.137751621305" lon="21.596373129435">
        <ele>37.2</ele>
        <time>2017-07-26T17:27:51Z</time>
      </trkpt>
      <trkpt lat="60.137780203584" lon="21.596416044763">
        <ele>37.2</ele>
        <time>2017-07-26T17:27:52Z</time>
      </trkpt>
      <trkpt lat="60.137804427275" lon="21.596452422209">
        <ele>37.2</ele>
        <time>2017-07-26T17:27:53Z</time>
      </trkpt>
      <trkpt lat="60.137839295979" lon="21.596506569283">
        <ele>37.2</ele>
        <time>2017-07-26T17:27:54Z</time>
      </trkpt>
      <trkpt lat="60.137868800267" lon="21.596542695272">
        <ele>37.2</ele>
        <time>2017-07-26T17:27:55Z</time>
      </trkpt>
      <trkpt lat="60.137882211307" lon="21.596583347487">
        <ele>37.2</ele>
        <time>2017-07-26T17:27:56Z</time>
      </trkpt>
      <trkpt lat="60.137891850492" lon="21.596599608373">
        <ele>37.2</ele>
        <time>2017-07-26T17:27:57Z</time>
      </trkpt>
      <trkpt lat="60.137905764446" lon="21.596624837892">
        <ele>37.2</ele>
        <time>2017-07-26T17:27:58Z</time>
      </trkpt>
      <trkpt lat="60.137927389748" lon="21.596662053528">
        <ele>37.2</ele>
        <time>2017-07-26T17:27:59Z</time>
      </trkpt>
      <trkpt lat="60.137948512136" lon="21.596695329671">
        <ele>37.2</ele>
        <time>2017-07-26T17:28:00Z</time>
      </trkpt>
      <trkpt lat="60.137967119954" lon="21.596729611642">
        <ele>37.2</ele>
        <time>2017-07-26T17:28:01Z</time>
      </trkpt>
      <trkpt lat="60.137992852387" lon="21.596772443151">
        <ele>37.2</ele>
        <time>2017-07-26T17:28:02Z</time>
      </trkpt>
      <trkpt lat="60.138025122702" lon="21.596811251348">
        <ele>37.2</ele>
        <time>2017-07-26T17:28:03Z</time>
      </trkpt>
      <trkpt lat="60.138051106592" lon="21.596847880251">
        <ele>37.2</ele>
        <time>2017-07-26T17:28:04Z</time>
      </trkpt>
      <trkpt lat="60.138081700527" lon="21.596907727017">
        <ele>37.2</ele>
        <time>2017-07-26T17:28:05Z</time>
      </trkpt>
      <trkpt lat="60.138101481811" lon="21.596951648173">
        <ele>37.2</ele>
        <time>2017-07-26T17:28:06Z</time>
      </trkpt>
      <trkpt lat="60.138124867312" lon="21.597002442487">
        <ele>37.2</ele>
        <time>2017-07-26T17:28:07Z</time>
      </trkpt>
      <trkpt lat="60.13815269522" lon="21.597042172693">
        <ele>37.2</ele>
        <time>2017-07-26T17:28:08Z</time>
      </trkpt>
      <trkpt lat="60.138170381029" lon="21.597090955351">
        <ele>37.2</ele>
        <time>2017-07-26T17:28:09Z</time>
      </trkpt>
      <trkpt lat="60.13819209015" lon="21.597141498208">
        <ele>37.2</ele>
        <time>2017-07-26T17:28:10Z</time>
      </trkpt>
      <trkpt lat="60.138212961081" lon="21.597194304178">
        <ele>37.2</ele>
        <time>2017-07-26T17:28:11Z</time>
      </trkpt>
      <trkpt lat="60.138228299958" lon="21.597242919198">
        <ele>37.2</ele>
        <time>2017-07-26T17:28:12Z</time>
      </trkpt>
      <trkpt lat="60.138249254708" lon="21.597288600553">
        <ele>37.2</ele>
        <time>2017-07-26T17:28:13Z</time>
      </trkpt>
      <trkpt lat="60.138263755395" lon="21.597333527537">
        <ele>37.2</ele>
        <time>2017-07-26T17:28:14Z</time>
      </trkpt>
      <trkpt lat="60.138283704317" lon="21.597385662955">
        <ele>37.2</ele>
        <time>2017-07-26T17:28:15Z</time>
      </trkpt>
      <trkpt lat="60.13830021666" lon="21.597434194156">
        <ele>37.2</ele>
        <time>2017-07-26T17:28:16Z</time>
      </trkpt>
      <trkpt lat="60.138320165582" lon="21.597492448361">
        <ele>37.2</ele>
        <time>2017-07-26T17:28:17Z</time>
      </trkpt>
      <trkpt lat="60.138332235518" lon="21.597551373118">
        <ele>37.2</ele>
        <time>2017-07-26T17:28:18Z</time>
      </trkpt>
      <trkpt lat="60.1383471553" lon="21.597606861296">
        <ele>37.2</ele>
        <time>2017-07-26T17:28:19Z</time>
      </trkpt>
      <trkpt lat="60.138364170557" lon="21.5976668757">
        <ele>37.2</ele>
        <time>2017-07-26T17:28:20Z</time>
      </trkpt>
      <trkpt lat="60.13837481557" lon="21.597723621163">
        <ele>37.2</ele>
        <time>2017-07-26T17:28:21Z</time>
      </trkpt>
      <trkpt lat="60.138388394248" lon="21.597773493468">
        <ele>37.2</ele>
        <time>2017-07-26T17:28:22Z</time>
      </trkpt>
      <trkpt lat="60.138400128908" lon="21.597829233103">
        <ele>37.2</ele>
        <time>2017-07-26T17:28:23Z</time>
      </trkpt>
      <trkpt lat="60.138410354826" lon="21.597876004105">
        <ele>37.2</ele>
        <time>2017-07-26T17:28:24Z</time>
      </trkpt>
      <trkpt lat="60.138421670391" lon="21.597927720428">
        <ele>37.2</ele>
        <time>2017-07-26T17:28:25Z</time>
      </trkpt>
      <trkpt lat="60.138430052291" lon="21.597976754543">
        <ele>37.2</ele>
        <time>2017-07-26T17:28:26Z</time>
      </trkpt>
      <trkpt lat="60.138436254897" lon="21.598018328767">
        <ele>37.2</ele>
        <time>2017-07-26T17:28:27Z</time>
      </trkpt>
      <trkpt lat="60.138448073376" lon="21.598058394249">
        <ele>37.2</ele>
        <time>2017-07-26T17:28:28Z</time>
      </trkpt>
      <trkpt lat="60.138460562407" lon="21.598108434192">
        <ele>37.2</ele>
        <time>2017-07-26T17:28:29Z</time>
      </trkpt>
      <trkpt lat="60.138469195764" lon="21.598163167999">
        <ele>37.2</ele>
        <time>2017-07-26T17:28:30Z</time>
      </trkpt>
      <trkpt lat="60.138481600976" lon="21.598206502422">
        <ele>37.2</ele>
        <time>2017-07-26T17:28:31Z</time>
      </trkpt>
      <trkpt lat="60.13849300036" lon="21.598254279252">
        <ele>37.2</ele>
        <time>2017-07-26T17:28:32Z</time>
      </trkpt>
      <trkpt lat="60.138507584866" lon="21.598300295883">
        <ele>37.2</ele>
        <time>2017-07-26T17:28:33Z</time>
      </trkpt>
      <trkpt lat="60.138517056413" lon="21.59833658951">
        <ele>37.2</ele>
        <time>2017-07-26T17:28:34Z</time>
      </trkpt>
      <trkpt lat="60.138531389462" lon="21.598387467643">
        <ele>37.2</ele>
        <time>2017-07-26T17:28:35Z</time>
      </trkpt>
      <trkpt lat="60.138541866837" lon="21.598432394627">
        <ele>37.2</ele>
        <time>2017-07-26T17:28:36Z</time>
      </trkpt>
      <trkpt lat="60.138553601497" lon="21.598477573068">
        <ele>37.2</ele>
        <time>2017-07-26T17:28:37Z</time>
      </trkpt>
      <trkpt lat="60.138549326728" lon="21.598517219455">
        <ele>37.2</ele>
        <time>2017-07-26T17:28:38Z</time>
      </trkpt>
      <trkpt lat="60.138542956484" lon="21.598554351272">
        <ele>37.2</ele>
        <time>2017-07-26T17:28:39Z</time>
      </trkpt>
      <trkpt lat="60.138562151035" lon="21.598600703179">
        <ele>37.4</ele>
        <time>2017-07-26T17:28:40Z</time>
      </trkpt>
      <trkpt lat="60.138573801876" lon="21.59864336705">
        <ele>37.2</ele>
        <time>2017-07-26T17:28:41Z</time>
      </trkpt>
      <trkpt lat="60.138589559848" lon="21.598686198559">
        <ele>37.2</ele>
        <time>2017-07-26T17:28:42Z</time>
      </trkpt>
      <trkpt lat="60.138597941748" lon="21.598729197706">
        <ele>37.2</ele>
        <time>2017-07-26T17:28:43Z</time>
      </trkpt>
      <trkpt lat="60.138608083847" lon="21.59876239003">
        <ele>37.2</ele>
        <time>2017-07-26T17:28:44Z</time>
      </trkpt>
      <trkpt lat="60.138620908154" lon="21.598807987566">
        <ele>37.2</ele>
        <time>2017-07-26T17:28:45Z</time>
      </trkpt>
      <trkpt lat="60.138632223719" lon="21.598841012252">
        <ele>37.2</ele>
        <time>2017-07-26T17:28:46Z</time>
      </trkpt>
      <trkpt lat="60.138647394958" lon="21.598886023055">
        <ele>37.2</ele>
        <time>2017-07-26T17:28:47Z</time>
      </trkpt>
      <trkpt lat="60.13866231474" lon="21.598925250347">
        <ele>37.2</ele>
        <time>2017-07-26T17:28:48Z</time>
      </trkpt>
      <trkpt lat="60.138675222866" lon="21.598959951413">
        <ele>37.4</ele>
        <time>2017-07-26T17:28:49Z</time>
      </trkpt>
      <trkpt lat="60.138685281146" lon="21.598994820117">
        <ele>37.2</ele>
        <time>2017-07-26T17:28:50Z</time>
      </trkpt>
      <trkpt lat="60.138700787661" lon="21.599032957762">
        <ele>37.2</ele>
        <time>2017-07-26T17:28:51Z</time>
      </trkpt>
      <trkpt lat="60.138713611968" lon="21.599066317724">
        <ele>37.2</ele>
        <time>2017-07-26T17:28:52Z</time>
      </trkpt>
      <trkpt lat="60.138725346628" lon="21.599111999079">
        <ele>37.2</ele>
        <time>2017-07-26T17:28:53Z</time>
      </trkpt>
      <trkpt lat="60.138737165107" lon="21.599144017937">
        <ele>37.2</ele>
        <time>2017-07-26T17:28:54Z</time>
      </trkpt>
      <trkpt lat="60.138752420165" lon="21.599177042623">
        <ele>37.6</ele>
        <time>2017-07-26T17:28:55Z</time>
      </trkpt>
      <trkpt lat="60.138763316635" lon="21.599212414241">
        <ele>38</ele>
        <time>2017-07-26T17:28:56Z</time>
      </trkpt>
      <trkpt lat="60.138779074607" lon="21.599246444755">
        <ele>38.4</ele>
        <time>2017-07-26T17:28:57Z</time>
      </trkpt>
      <trkpt lat="60.138793407656" lon="21.599269662618">
        <ele>38.8</ele>
        <time>2017-07-26T17:28:58Z</time>
      </trkpt>
      <trkpt lat="60.138808075981" lon="21.599305118055">
        <ele>39</ele>
        <time>2017-07-26T17:28:59Z</time>
      </trkpt>
      <trkpt lat="60.13882408541" lon="21.599346776098">
        <ele>39.2</ele>
        <time>2017-07-26T17:29:00Z</time>
      </trkpt>
      <trkpt lat="60.138839675744" lon="21.599376531843">
        <ele>39.2</ele>
        <time>2017-07-26T17:29:01Z</time>
      </trkpt>
      <trkpt lat="60.138855014621" lon="21.599408131606">
        <ele>39.2</ele>
        <time>2017-07-26T17:29:02Z</time>
      </trkpt>
      <trkpt lat="60.13887018586" lon="21.599443251767">
        <ele>39.2</ele>
        <time>2017-07-26T17:29:03Z</time>
      </trkpt>
      <trkpt lat="60.138883513081" lon="21.599473426607">
        <ele>39.2</ele>
        <time>2017-07-26T17:29:04Z</time>
      </trkpt>
      <trkpt lat="60.138903378184" lon="21.599513324451">
        <ele>39.2</ele>
        <time>2017-07-26T17:29:05Z</time>
      </trkpt>
      <trkpt lat="60.138921147812" lon="21.599543750748">
        <ele>39.2</ele>
        <time>2017-07-26T17:29:06Z</time>
      </trkpt>
      <trkpt lat="60.138935983775" lon="21.599575015235">
        <ele>39.2</ele>
        <time>2017-07-26T17:29:07Z</time>
      </trkpt>
      <trkpt lat="60.138950484462" lon="21.599602424048">
        <ele>39.2</ele>
        <time>2017-07-26T17:29:08Z</time>
      </trkpt>
      <trkpt lat="60.138964146959" lon="21.599629497585">
        <ele>39.2</ele>
        <time>2017-07-26T17:29:09Z</time>
      </trkpt>
      <trkpt lat="60.138979821112" lon="21.599660510615">
        <ele>39.2</ele>
        <time>2017-07-26T17:29:10Z</time>
      </trkpt>
      <trkpt lat="60.138996668731" lon="21.59969864826">
        <ele>39.4</ele>
        <time>2017-07-26T17:29:11Z</time>
      </trkpt>
      <trkpt lat="60.139013432531" lon="21.599732594955">
        <ele>39.4</ele>
        <time>2017-07-26T17:29:12Z</time>
      </trkpt>
      <trkpt lat="60.139032962358" lon="21.599764781451">
        <ele>39.4</ele>
        <time>2017-07-26T17:29:13Z</time>
      </trkpt>
      <trkpt lat="60.139052156909" lon="21.599797135585">
        <ele>39.2</ele>
        <time>2017-07-26T17:29:14Z</time>
      </trkpt>
      <trkpt lat="60.139073195478" lon="21.599837201067">
        <ele>39.4</ele>
        <time>2017-07-26T17:29:15Z</time>
      </trkpt>
      <trkpt lat="60.139093731133" lon="21.599855641247">
        <ele>39.6</ele>
        <time>2017-07-26T17:29:16Z</time>
      </trkpt>
      <trkpt lat="60.139117116634" lon="21.599886821915">
        <ele>40</ele>
        <time>2017-07-26T17:29:17Z</time>
      </trkpt>
      <trkpt lat="60.139138071384" lon="21.599923869913">
        <ele>40.4</ele>
        <time>2017-07-26T17:29:18Z</time>
      </trkpt>
      <trkpt lat="60.13915517046" lon="21.599959995902">
        <ele>41</ele>
        <time>2017-07-26T17:29:19Z</time>
      </trkpt>
      <trkpt lat="60.139177633952" lon="21.599991595665">
        <ele>41.4</ele>
        <time>2017-07-26T17:29:20Z</time>
      </trkpt>
      <trkpt lat="60.139196577046" lon="21.600021854324">
        <ele>41.4</ele>
        <time>2017-07-26T17:29:21Z</time>
      </trkpt>
      <trkpt lat="60.139219627271" lon="21.600051945345">
        <ele>41.4</ele>
        <time>2017-07-26T17:29:22Z</time>
      </trkpt>
      <trkpt lat="60.139247538998" lon="21.600089496257">
        <ele>41.4</ele>
        <time>2017-07-26T17:29:23Z</time>
      </trkpt>
      <trkpt lat="60.139266733549" lon="21.600121347477">
        <ele>41.4</ele>
        <time>2017-07-26T17:29:24Z</time>
      </trkpt>
      <trkpt lat="60.139290202869" lon="21.600155629448">
        <ele>41.4</ele>
        <time>2017-07-26T17:29:25Z</time>
      </trkpt>
      <trkpt lat="60.13931442656" lon="21.600185049917">
        <ele>41.4</ele>
        <time>2017-07-26T17:29:26Z</time>
      </trkpt>
      <trkpt lat="60.139335884224" lon="21.600207681047">
        <ele>41.4</ele>
        <time>2017-07-26T17:29:27Z</time>
      </trkpt>
      <trkpt lat="60.139355078775" lon="21.600234838403">
        <ele>41.4</ele>
        <time>2017-07-26T17:29:28Z</time>
      </trkpt>
      <trkpt lat="60.13937309986" lon="21.600254871144">
        <ele>41.4</ele>
        <time>2017-07-26T17:29:29Z</time>
      </trkpt>
      <trkpt lat="60.139391372402" lon="21.600278256645">
        <ele>41.2</ele>
        <time>2017-07-26T17:29:30Z</time>
      </trkpt>
      <trkpt lat="60.139407214193" lon="21.60030046868">
        <ele>41.4</ele>
        <time>2017-07-26T17:29:31Z</time>
      </trkpt>
      <trkpt lat="60.139428336581" lon="21.600316897204">
        <ele>41.4</ele>
        <time>2017-07-26T17:29:32Z</time>
      </trkpt>
      <trkpt lat="60.139445603295" lon="21.600342210542">
        <ele>41.4</ele>
        <time>2017-07-26T17:29:33Z</time>
      </trkpt>
      <trkpt lat="60.139459265792" lon="21.600355621582">
        <ele>41.4</ele>
        <time>2017-07-26T17:29:34Z</time>
      </trkpt>
      <trkpt lat="60.139481142551" lon="21.600372385382">
        <ele>41.4</ele>
        <time>2017-07-26T17:29:35Z</time>
      </trkpt>
      <trkpt lat="60.139498493084" lon="21.600391244657">
        <ele>41.2</ele>
        <time>2017-07-26T17:29:36Z</time>
      </trkpt>
      <trkpt lat="60.139520453662" lon="21.60041278614">
        <ele>41.4</ele>
        <time>2017-07-26T17:29:37Z</time>
      </trkpt>
      <trkpt lat="60.139544761172" lon="21.600436506917">
        <ele>41.4</ele>
        <time>2017-07-26T17:29:38Z</time>
      </trkpt>
      <trkpt lat="60.139570996519" lon="21.60045721021">
        <ele>41.4</ele>
        <time>2017-07-26T17:29:39Z</time>
      </trkpt>
      <trkpt lat="60.139596142219" lon="21.60047816496">
        <ele>41.4</ele>
        <time>2017-07-26T17:29:40Z</time>
      </trkpt>
      <trkpt lat="60.139629334543" lon="21.600493839113">
        <ele>41.4</ele>
        <time>2017-07-26T17:29:41Z</time>
      </trkpt>
      <trkpt lat="60.139660766668" lon="21.600519823003">
        <ele>41.4</ele>
        <time>2017-07-26T17:29:42Z</time>
      </trkpt>
      <trkpt lat="60.139687840205" lon="21.600528707817">
        <ele>41.4</ele>
        <time>2017-07-26T17:29:43Z</time>
      </trkpt>
      <trkpt lat="60.139710974249" lon="21.600543627599">
        <ele>41.4</ele>
        <time>2017-07-26T17:29:44Z</time>
      </trkpt>
      <trkpt lat="60.139735533216" lon="21.600558212105">
        <ele>41.4</ele>
        <time>2017-07-26T17:29:45Z</time>
      </trkpt>
      <trkpt lat="60.139753721939" lon="21.600569611489">
        <ele>41.4</ele>
        <time>2017-07-26T17:29:46Z</time>
      </trkpt>
      <trkpt lat="60.139775347241" lon="21.600584866547">
        <ele>41.4</ele>
        <time>2017-07-26T17:29:47Z</time>
      </trkpt>
      <trkpt lat="60.139798648923" lon="21.600589728049">
        <ele>41.4</ele>
        <time>2017-07-26T17:29:48Z</time>
      </trkpt>
      <trkpt lat="60.139817089103" lon="21.600593751361">
        <ele>41.4</ele>
        <time>2017-07-26T17:29:49Z</time>
      </trkpt>
      <trkpt lat="60.13983997169" lon="21.600604228736">
        <ele>41.4</ele>
        <time>2017-07-26T17:29:50Z</time>
      </trkpt>
      <trkpt lat="60.139863021915" lon="21.600610682799">
        <ele>41.4</ele>
        <time>2017-07-26T17:29:51Z</time>
      </trkpt>
      <trkpt lat="60.139878779887" lon="21.600620321984">
        <ele>41.4</ele>
        <time>2017-07-26T17:29:52Z</time>
      </trkpt>
      <trkpt lat="60.139902668302" lon="21.600634403576">
        <ele>41.4</ele>
        <time>2017-07-26T17:29:53Z</time>
      </trkpt>
      <trkpt lat="60.139924293604" lon="21.60064412658">
        <ele>41.4</ele>
        <time>2017-07-26T17:29:54Z</time>
      </trkpt>
      <trkpt lat="60.139950193675" lon="21.600645048589">
        <ele>41.4</ele>
        <time>2017-07-26T17:29:55Z</time>
      </trkpt>
      <trkpt lat="60.139975423194" lon="21.600652759937">
        <ele>41.4</ele>
        <time>2017-07-26T17:29:56Z</time>
      </trkpt>
      <trkpt lat="60.140004843663" lon="21.600659046362">
        <ele>41.4</ele>
        <time>2017-07-26T17:29:57Z</time>
      </trkpt>
      <trkpt lat="60.140030995191" lon="21.600669020823">
        <ele>41.4</ele>
        <time>2017-07-26T17:29:58Z</time>
      </trkpt>
      <trkpt lat="60.140058320185" lon="21.6006759778">
        <ele>41.8</ele>
        <time>2017-07-26T17:29:59Z</time>
      </trkpt>
      <trkpt lat="60.140087992111" lon="21.60068268332">
        <ele>42</ele>
        <time>2017-07-26T17:30:00Z</time>
      </trkpt>
      <trkpt lat="60.140117161123" lon="21.600683437691">
        <ele>42.2</ele>
        <time>2017-07-26T17:30:01Z</time>
      </trkpt>
      <trkpt lat="60.140140295167" lon="21.600684778795">
        <ele>42.6</ele>
        <time>2017-07-26T17:30:02Z</time>
      </trkpt>
      <trkpt lat="60.140166614333" lon="21.600683940605">
        <ele>43</ele>
        <time>2017-07-26T17:30:03Z</time>
      </trkpt>
      <trkpt lat="60.140184886875" lon="21.600682012768">
        <ele>43.2</ele>
        <time>2017-07-26T17:30:04Z</time>
      </trkpt>
      <trkpt lat="60.140208859109" lon="21.60068519789">
        <ele>43.4</ele>
        <time>2017-07-26T17:30:05Z</time>
      </trkpt>
      <trkpt lat="60.140230232954" lon="21.60068687427">
        <ele>43.4</ele>
        <time>2017-07-26T17:30:06Z</time>
      </trkpt>
      <trkpt lat="60.14025152298" lon="21.600692071048">
        <ele>43.4</ele>
        <time>2017-07-26T17:30:07Z</time>
      </trkpt>
      <trkpt lat="60.140275243757" lon="21.600699614758">
        <ele>43.4</ele>
        <time>2017-07-26T17:30:08Z</time>
      </trkpt>
      <trkpt lat="60.140298629258" lon="21.60070028531">
        <ele>43.4</ele>
        <time>2017-07-26T17:30:09Z</time>
      </trkpt>
      <trkpt lat="60.140322098578" lon="21.600712606703">
        <ele>43.4</ele>
        <time>2017-07-26T17:30:10Z</time>
      </trkpt>
      <trkpt lat="60.140351854323" lon="21.600713612531">
        <ele>43.4</ele>
        <time>2017-07-26T17:30:11Z</time>
      </trkpt>
      <trkpt lat="60.140377083842" lon="21.600715205092">
        <ele>43.4</ele>
        <time>2017-07-26T17:30:12Z</time>
      </trkpt>
      <trkpt lat="60.140404492655" lon="21.600719144585">
        <ele>43.4</ele>
        <time>2017-07-26T17:30:13Z</time>
      </trkpt>
      <trkpt lat="60.140428967803" lon="21.600722664983">
        <ele>43.4</ele>
        <time>2017-07-26T17:30:14Z</time>
      </trkpt>
      <trkpt lat="60.140456795711" lon="21.600725850105">
        <ele>43.4</ele>
        <time>2017-07-26T17:30:15Z</time>
      </trkpt>
      <trkpt lat="60.140477163728" lon="21.600726185381">
        <ele>43.4</ele>
        <time>2017-07-26T17:30:16Z</time>
      </trkpt>
      <trkpt lat="60.140504237265" lon="21.600723251716">
        <ele>43.4</ele>
        <time>2017-07-26T17:30:17Z</time>
      </trkpt>
      <trkpt lat="60.140526784576" lon="21.600725095734">
        <ele>43.4</ele>
        <time>2017-07-26T17:30:18Z</time>
      </trkpt>
      <trkpt lat="60.140551008267" lon="21.600731968892">
        <ele>43.4</ele>
        <time>2017-07-26T17:30:19Z</time>
      </trkpt>
      <trkpt lat="60.140573639397" lon="21.60073297472">
        <ele>43.4</ele>
        <time>2017-07-26T17:30:20Z</time>
      </trkpt>
      <trkpt lat="60.140598114545" lon="21.600741105163">
        <ele>43.4</ele>
        <time>2017-07-26T17:30:21Z</time>
      </trkpt>
      <trkpt lat="60.140621583865" lon="21.600740937525">
        <ele>43.4</ele>
        <time>2017-07-26T17:30:22Z</time>
      </trkpt>
      <trkpt lat="60.140647903031" lon="21.600741188982">
        <ele>43.4</ele>
        <time>2017-07-26T17:30:23Z</time>
      </trkpt>
      <trkpt lat="60.140669276876" lon="21.600742362448">
        <ele>43.4</ele>
        <time>2017-07-26T17:30:24Z</time>
      </trkpt>
      <trkpt lat="60.140692494739" lon="21.600740853706">
        <ele>43.4</ele>
        <time>2017-07-26T17:30:25Z</time>
      </trkpt>
      <trkpt lat="60.140716466973" lon="21.600749067968">
        <ele>43.4</ele>
        <time>2017-07-26T17:30:26Z</time>
      </trkpt>
      <trkpt lat="60.140740774483" lon="21.600750325253">
        <ele>43.4</ele>
        <time>2017-07-26T17:30:27Z</time>
      </trkpt>
      <trkpt lat="60.140763070337" lon="21.600749654701">
        <ele>43.4</ele>
        <time>2017-07-26T17:30:28Z</time>
      </trkpt>
      <trkpt lat="60.140789054227" lon="21.600754432384">
        <ele>43.4</ele>
        <time>2017-07-26T17:30:29Z</time>
      </trkpt>
      <trkpt lat="60.140817552687" lon="21.600761640818">
        <ele>43.4</ele>
        <time>2017-07-26T17:30:30Z</time>
      </trkpt>
      <trkpt lat="60.14084160874" lon="21.600767759605">
        <ele>43.4</ele>
        <time>2017-07-26T17:30:31Z</time>
      </trkpt>
      <trkpt lat="60.140865329517" lon="21.600769771261">
        <ele>43.4</ele>
        <time>2017-07-26T17:30:32Z</time>
      </trkpt>
      <trkpt lat="60.140886116629" lon="21.600773626935">
        <ele>43.4</ele>
        <time>2017-07-26T17:30:33Z</time>
      </trkpt>
      <trkpt lat="60.140903718619" lon="21.600779829541">
        <ele>43.8</ele>
        <time>2017-07-26T17:30:34Z</time>
      </trkpt>
      <trkpt lat="60.140929367233" lon="21.600787708527">
        <ele>44.2</ele>
        <time>2017-07-26T17:30:35Z</time>
      </trkpt>
      <trkpt lat="60.140950992535" lon="21.600792150934">
        <ele>44.6</ele>
        <time>2017-07-26T17:30:36Z</time>
      </trkpt>
      <trkpt lat="60.140971192914" lon="21.600792318572">
        <ele>45</ele>
        <time>2017-07-26T17:30:37Z</time>
      </trkpt>
      <trkpt lat="60.140994829872" lon="21.600787959984">
        <ele>45.4</ele>
        <time>2017-07-26T17:30:38Z</time>
      </trkpt>
      <trkpt lat="60.141014359699" lon="21.600785277776">
        <ele>45.4</ele>
        <time>2017-07-26T17:30:39Z</time>
      </trkpt>
      <trkpt lat="60.14103523063" lon="21.600786199785">
        <ele>45.4</ele>
        <time>2017-07-26T17:30:40Z</time>
      </trkpt>
      <trkpt lat="60.141059789597" lon="21.600783852853">
        <ele>45.4</ele>
        <time>2017-07-26T17:30:41Z</time>
      </trkpt>
      <trkpt lat="60.141081833994" lon="21.60078326612">
        <ele>45.4</ele>
        <time>2017-07-26T17:30:42Z</time>
      </trkpt>
      <trkpt lat="60.141104465124" lon="21.600787373251">
        <ele>45.4</ele>
        <time>2017-07-26T17:30:43Z</time>
      </trkpt>
      <trkpt lat="60.14112743153" lon="21.600789887821">
        <ele>45.4</ele>
        <time>2017-07-26T17:30:44Z</time>
      </trkpt>
      <trkpt lat="60.141156181447" lon="21.6007933244">
        <ele>45.4</ele>
        <time>2017-07-26T17:30:45Z</time>
      </trkpt>
      <trkpt lat="60.141179064034" lon="21.600798604997">
        <ele>45.4</ele>
        <time>2017-07-26T17:30:46Z</time>
      </trkpt>
      <trkpt lat="60.141205802295" lon="21.600803885594">
        <ele>45.4</ele>
        <time>2017-07-26T17:30:47Z</time>
      </trkpt>
      <trkpt lat="60.14123136709" lon="21.600811010209">
        <ele>45.4</ele>
        <time>2017-07-26T17:30:48Z</time>
      </trkpt>
      <trkpt lat="60.141253914401" lon="21.600811932218">
        <ele>45.4</ele>
        <time>2017-07-26T17:30:49Z</time>
      </trkpt>
      <trkpt lat="60.141277970454" lon="21.600815787892">
        <ele>45.4</ele>
        <time>2017-07-26T17:30:50Z</time>
      </trkpt>
      <trkpt lat="60.141301691231" lon="21.600814530607">
        <ele>45.4</ele>
        <time>2017-07-26T17:30:51Z</time>
      </trkpt>
      <trkpt lat="60.141320550506" lon="21.600817045177">
        <ele>45.4</ele>
        <time>2017-07-26T17:30:52Z</time>
      </trkpt>
      <trkpt lat="60.141337481944" lon="21.600817548091">
        <ele>45.4</ele>
        <time>2017-07-26T17:30:53Z</time>
      </trkpt>
      <trkpt lat="60.141360029255" lon="21.600827354914">
        <ele>45.4</ele>
        <time>2017-07-26T17:30:54Z</time>
      </trkpt>
      <trkpt lat="60.141382995661" lon="21.600838251384">
        <ele>45.4</ele>
        <time>2017-07-26T17:30:55Z</time>
      </trkpt>
      <trkpt lat="60.141403447497" lon="21.600844873085">
        <ele>45.4</ele>
        <time>2017-07-26T17:30:56Z</time>
      </trkpt>
      <trkpt lat="60.141421133306" lon="21.600851075691">
        <ele>45.4</ele>
        <time>2017-07-26T17:30:57Z</time>
      </trkpt>
      <trkpt lat="60.141433203242" lon="21.600849147854">
        <ele>45.4</ele>
        <time>2017-07-26T17:30:58Z</time>
      </trkpt>
      <trkpt lat="60.141447703929" lon="21.600857278297">
        <ele>45.4</ele>
        <time>2017-07-26T17:30:59Z</time>
      </trkpt>
      <trkpt lat="60.141467652851" lon="21.600857697392">
        <ele>45.4</ele>
        <time>2017-07-26T17:31:00Z</time>
      </trkpt>
      <trkpt lat="60.141487769411" lon="21.600859960505">
        <ele>45.4</ele>
        <time>2017-07-26T17:31:01Z</time>
      </trkpt>
      <trkpt lat="60.141509981446" lon="21.600861804523">
        <ele>45.4</ele>
        <time>2017-07-26T17:31:02Z</time>
      </trkpt>
      <trkpt lat="60.14153898282" lon="21.600873623002">
        <ele>45.4</ele>
        <time>2017-07-26T17:31:03Z</time>
      </trkpt>
      <trkpt lat="60.141558931742" lon="21.600873371545">
        <ele>45.4</ele>
        <time>2017-07-26T17:31:04Z</time>
      </trkpt>
      <trkpt lat="60.141589106582" lon="21.600879322694">
        <ele>45.4</ele>
        <time>2017-07-26T17:31:05Z</time>
      </trkpt>
      <trkpt lat="60.141611653893" lon="21.600884519472">
        <ele>45.4</ele>
        <time>2017-07-26T17:31:06Z</time>
      </trkpt>
      <trkpt lat="60.141635207032" lon="21.600889297155">
        <ele>45.4</ele>
        <time>2017-07-26T17:31:07Z</time>
      </trkpt>
      <trkpt lat="60.141659933637" lon="21.600891141173">
        <ele>45.8</ele>
        <time>2017-07-26T17:31:08Z</time>
      </trkpt>
      <trkpt lat="60.141682145672" lon="21.600895164485">
        <ele>46</ele>
        <time>2017-07-26T17:31:09Z</time>
      </trkpt>
      <trkpt lat="60.141704525345" lon="21.600898684883">
        <ele>46.2</ele>
        <time>2017-07-26T17:31:10Z</time>
      </trkpt>
      <trkpt lat="60.141733023805" lon="21.600907402059">
        <ele>46.6</ele>
        <time>2017-07-26T17:31:11Z</time>
      </trkpt>
      <trkpt lat="60.141754816745" lon="21.600908407887">
        <ele>46.8</ele>
        <time>2017-07-26T17:31:12Z</time>
      </trkpt>
      <trkpt lat="60.141776609685" lon="21.600910754819">
        <ele>47</ele>
        <time>2017-07-26T17:31:13Z</time>
      </trkpt>
      <trkpt lat="60.141796558607" lon="21.60090983281">
        <ele>47.4</ele>
        <time>2017-07-26T17:31:14Z</time>
      </trkpt>
      <trkpt lat="60.141820866117" lon="21.600915448683">
        <ele>47.4</ele>
        <time>2017-07-26T17:31:15Z</time>
      </trkpt>
      <trkpt lat="60.141841653229" lon="21.600920310185">
        <ele>47.4</ele>
        <time>2017-07-26T17:31:16Z</time>
      </trkpt>
      <trkpt lat="60.141867972395" lon="21.600924333497">
        <ele>47.4</ele>
        <time>2017-07-26T17:31:17Z</time>
      </trkpt>
      <trkpt lat="60.141892699" lon="21.600930200827">
        <ele>47.4</ele>
        <time>2017-07-26T17:31:18Z</time>
      </trkpt>
      <trkpt lat="60.141914827216" lon="21.600932799216">
        <ele>47.4</ele>
        <time>2017-07-26T17:31:19Z</time>
      </trkpt>
      <trkpt lat="60.141942068391" lon="21.600942354582">
        <ele>47.4</ele>
        <time>2017-07-26T17:31:20Z</time>
      </trkpt>
      <trkpt lat="60.141968555195" lon="21.600943779505">
        <ele>47.4</ele>
        <time>2017-07-26T17:31:21Z</time>
      </trkpt>
      <trkpt lat="60.141994622904" lon="21.600951490853">
        <ele>47.4</ele>
        <time>2017-07-26T17:31:22Z</time>
      </trkpt>
      <trkpt lat="60.142024630106" lon="21.600955178889">
        <ele>47.4</ele>
        <time>2017-07-26T17:31:23Z</time>
      </trkpt>
      <trkpt lat="60.142051619824" lon="21.600961381495">
        <ele>47.4</ele>
        <time>2017-07-26T17:31:24Z</time>
      </trkpt>
      <trkpt lat="60.142082297578" lon="21.600968254653">
        <ele>47.4</ele>
        <time>2017-07-26T17:31:25Z</time>
      </trkpt>
      <trkpt lat="60.142111215133" lon="21.600971691232">
        <ele>47.4</ele>
        <time>2017-07-26T17:31:26Z</time>
      </trkpt>
      <trkpt lat="60.142140467964" lon="21.600975127811">
        <ele>47.4</ele>
        <time>2017-07-26T17:31:27Z</time>
      </trkpt>
      <trkpt lat="60.142164356379" lon="21.600976636553">
        <ele>47.4</ele>
        <time>2017-07-26T17:31:28Z</time>
      </trkpt>
      <trkpt lat="60.142190340269" lon="21.600980911322">
        <ele>47.4</ele>
        <time>2017-07-26T17:31:29Z</time>
      </trkpt>
      <trkpt lat="60.142220850385" lon="21.600986443376">
        <ele>47.4</ele>
        <time>2017-07-26T17:31:30Z</time>
      </trkpt>
      <trkpt lat="60.142249600302" lon="21.600996920751">
        <ele>47.4</ele>
        <time>2017-07-26T17:31:31Z</time>
      </trkpt>
      <trkpt lat="60.142277512029" lon="21.601001363158">
        <ele>47.4</ele>
        <time>2017-07-26T17:31:32Z</time>
      </trkpt>
      <trkpt lat="60.142306848679" lon="21.60100706285">
        <ele>47.4</ele>
        <time>2017-07-26T17:31:33Z</time>
      </trkpt>
      <trkpt lat="60.1423285578" lon="21.601013600732">
        <ele>47.4</ele>
        <time>2017-07-26T17:31:34Z</time>
      </trkpt>
      <trkpt lat="60.142362001581" lon="21.601021898813">
        <ele>47.4</ele>
        <time>2017-07-26T17:31:35Z</time>
      </trkpt>
      <trkpt lat="60.142389242756" lon="21.601030113075">
        <ele>47.4</ele>
        <time>2017-07-26T17:31:36Z</time>
      </trkpt>
      <trkpt lat="60.14241572956" lon="21.601039249346">
        <ele>47.4</ele>
        <time>2017-07-26T17:31:37Z</time>
      </trkpt>
      <trkpt lat="60.142442384002" lon="21.601041093364">
        <ele>47.4</ele>
        <time>2017-07-26T17:31:38Z</time>
      </trkpt>
      <trkpt lat="60.142466104779" lon="21.601046793056">
        <ele>47.4</ele>
        <time>2017-07-26T17:31:39Z</time>
      </trkpt>
      <trkpt lat="60.142493429773" lon="21.601049139988">
        <ele>47.4</ele>
        <time>2017-07-26T17:31:40Z</time>
      </trkpt>
      <trkpt lat="60.142522347328" lon="21.601063305399">
        <ele>47.4</ele>
        <time>2017-07-26T17:31:41Z</time>
      </trkpt>
      <trkpt lat="60.142547576847" lon="21.601071016747">
        <ele>47.4</ele>
        <time>2017-07-26T17:31:42Z</time>
      </trkpt>
      <trkpt lat="60.142574818022" lon="21.60107663262">
        <ele>47.4</ele>
        <time>2017-07-26T17:31:43Z</time>
      </trkpt>
      <trkpt lat="60.14259510222" lon="21.60108585271">
        <ele>47.4</ele>
        <time>2017-07-26T17:31:44Z</time>
      </trkpt>
      <trkpt lat="60.142619074454" lon="21.601096246266">
        <ele>47.4</ele>
        <time>2017-07-26T17:31:45Z</time>
      </trkpt>
      <trkpt lat="60.142637430815" lon="21.601100604854">
        <ele>47.4</ele>
        <time>2017-07-26T17:31:46Z</time>
      </trkpt>
      <trkpt lat="60.142666599827" lon="21.601106723641">
        <ele>47.4</ele>
        <time>2017-07-26T17:31:47Z</time>
      </trkpt>
      <trkpt lat="60.142693086631" lon="21.601112339514">
        <ele>47.4</ele>
        <time>2017-07-26T17:31:48Z</time>
      </trkpt>
      <trkpt lat="60.142719321978" lon="21.601122146337">
        <ele>47.6</ele>
        <time>2017-07-26T17:31:49Z</time>
      </trkpt>
      <trkpt lat="60.142746395515" lon="21.601124074174">
        <ele>47.4</ele>
        <time>2017-07-26T17:31:50Z</time>
      </trkpt>
      <trkpt lat="60.142775145432" lon="21.601141592345">
        <ele>47.4</ele>
        <time>2017-07-26T17:31:51Z</time>
      </trkpt>
      <trkpt lat="60.142800542589" lon="21.601144190734">
        <ele>47.4</ele>
        <time>2017-07-26T17:31:52Z</time>
      </trkpt>
      <trkpt lat="60.142828202859" lon="21.60115626067">
        <ele>47.4</ele>
        <time>2017-07-26T17:31:53Z</time>
      </trkpt>
      <trkpt lat="60.142851253084" lon="21.601158020869">
        <ele>47.4</ele>
        <time>2017-07-26T17:31:54Z</time>
      </trkpt>
      <trkpt lat="60.142871788739" lon="21.601161708905">
        <ele>47.4</ele>
        <time>2017-07-26T17:31:55Z</time>
      </trkpt>
      <trkpt lat="60.142895844792" lon="21.601178640343">
        <ele>47.4</ele>
        <time>2017-07-26T17:31:56Z</time>
      </trkpt>
      <trkpt lat="60.142915458438" lon="21.601179562352">
        <ele>47.4</ele>
        <time>2017-07-26T17:31:57Z</time>
      </trkpt>
      <trkpt lat="60.142937754292" lon="21.60118308275">
        <ele>47.6</ele>
        <time>2017-07-26T17:31:58Z</time>
      </trkpt>
      <trkpt lat="60.142961894164" lon="21.601190291184">
        <ele>47.4</ele>
        <time>2017-07-26T17:31:59Z</time>
      </trkpt>
      <trkpt lat="60.142990224986" lon="21.601193057211">
        <ele>47.4</ele>
        <time>2017-07-26T17:32:00Z</time>
      </trkpt>
      <trkpt lat="60.143013945763" lon="21.601202864034">
        <ele>47.4</ele>
        <time>2017-07-26T17:32:01Z</time>
      </trkpt>
      <trkpt lat="60.143041606033" lon="21.601200936197">
        <ele>47.4</ele>
        <time>2017-07-26T17:32:02Z</time>
      </trkpt>
      <trkpt lat="60.143068511932" lon="21.601211748848">
        <ele>47.4</ele>
        <time>2017-07-26T17:32:03Z</time>
      </trkpt>
      <trkpt lat="60.143088460854" lon="21.601210826839">
        <ele>47.4</ele>
        <time>2017-07-26T17:32:04Z</time>
      </trkpt>
      <trkpt lat="60.143118803332" lon="21.601232452141">
        <ele>47.8</ele>
        <time>2017-07-26T17:32:05Z</time>
      </trkpt>
      <trkpt lat="60.143138500797" lon="21.601237900376">
        <ele>48</ele>
        <time>2017-07-26T17:32:06Z</time>
      </trkpt>
      <trkpt lat="60.1431667478" lon="21.601250054131">
        <ele>48.4</ele>
        <time>2017-07-26T17:32:07Z</time>
      </trkpt>
      <trkpt lat="60.143192815509" lon="21.601254077443">
        <ele>48.6</ele>
        <time>2017-07-26T17:32:08Z</time>
      </trkpt>
      <trkpt lat="60.143218799399" lon="21.601266817931">
        <ele>49</ele>
        <time>2017-07-26T17:32:09Z</time>
      </trkpt>
      <trkpt lat="60.14324805223" lon="21.60127612184">
        <ele>49.2</ele>
        <time>2017-07-26T17:32:10Z</time>
      </trkpt>
      <trkpt lat="60.143281076916" lon="21.601292298907">
        <ele>49.6</ele>
        <time>2017-07-26T17:32:11Z</time>
      </trkpt>
      <trkpt lat="60.143311587032" lon="21.601306967232">
        <ele>49.6</ele>
        <time>2017-07-26T17:32:12Z</time>
      </trkpt>
      <trkpt lat="60.143343102976" lon="21.60131803134">
        <ele>49.6</ele>
        <time>2017-07-26T17:32:13Z</time>
      </trkpt>
      <trkpt lat="60.143371014703" lon="21.601328843991">
        <ele>49.6</ele>
        <time>2017-07-26T17:32:14Z</time>
      </trkpt>
      <trkpt lat="60.143403536475" lon="21.601335800968">
        <ele>49.6</ele>
        <time>2017-07-26T17:32:15Z</time>
      </trkpt>
      <trkpt lat="60.14342574851" lon="21.601345272515">
        <ele>49.6</ele>
        <time>2017-07-26T17:32:16Z</time>
      </trkpt>
      <trkpt lat="60.14346430525" lon="21.601358767374">
        <ele>49.6</ele>
        <time>2017-07-26T17:32:17Z</time>
      </trkpt>
      <trkpt lat="60.143496407927" lon="21.601371591681">
        <ele>49.6</ele>
        <time>2017-07-26T17:32:18Z</time>
      </trkpt>
      <trkpt lat="60.143525325482" lon="21.601384499807">
        <ele>49.6</ele>
        <time>2017-07-26T17:32:19Z</time>
      </trkpt>
      <trkpt lat="60.143559104539" lon="21.601398832856">
        <ele>49.6</ele>
        <time>2017-07-26T17:32:20Z</time>
      </trkpt>
      <trkpt lat="60.143590788121" lon="21.601410483697">
        <ele>49.6</ele>
        <time>2017-07-26T17:32:21Z</time>
      </trkpt>
      <trkpt lat="60.143619538038" lon="21.601425152022">
        <ele>49.6</ele>
        <time>2017-07-26T17:32:22Z</time>
      </trkpt>
      <trkpt lat="60.143658597692" lon="21.601444681849">
        <ele>49.6</ele>
        <time>2017-07-26T17:32:23Z</time>
      </trkpt>
      <trkpt lat="60.143687934342" lon="21.601451722645">
        <ele>49.6</ele>
        <time>2017-07-26T17:32:24Z</time>
      </trkpt>
      <trkpt lat="60.143727916005" lon="21.601467312979">
        <ele>49.6</ele>
        <time>2017-07-26T17:32:25Z</time>
      </trkpt>
      <trkpt lat="60.143765802193" lon="21.601482987132">
        <ele>49.6</ele>
        <time>2017-07-26T17:32:26Z</time>
      </trkpt>
      <trkpt lat="60.143801089992" lon="21.601493380688">
        <ele>49.4</ele>
        <time>2017-07-26T17:32:27Z</time>
      </trkpt>
      <trkpt lat="60.143831935384" lon="21.601499834751">
        <ele>49.6</ele>
        <time>2017-07-26T17:32:28Z</time>
      </trkpt>
      <trkpt lat="60.143863618966" lon="21.60151165323">
        <ele>49.6</ele>
        <time>2017-07-26T17:32:29Z</time>
      </trkpt>
      <trkpt lat="60.143899242041" lon="21.601523806985">
        <ele>49.4</ele>
        <time>2017-07-26T17:32:30Z</time>
      </trkpt>
      <trkpt lat="60.143929081605" lon="21.601539900233">
        <ele>49.6</ele>
        <time>2017-07-26T17:32:31Z</time>
      </trkpt>
      <trkpt lat="60.143960429911" lon="21.601548617409">
        <ele>49.6</ele>
        <time>2017-07-26T17:32:32Z</time>
      </trkpt>
      <trkpt lat="60.143999741022" lon="21.601564543019">
        <ele>49.6</ele>
        <time>2017-07-26T17:32:33Z</time>
      </trkpt>
      <trkpt lat="60.144030251138" lon="21.601578289335">
        <ele>49.6</ele>
        <time>2017-07-26T17:32:34Z</time>
      </trkpt>
      <trkpt lat="60.144072915009" lon="21.601592370927">
        <ele>49.4</ele>
        <time>2017-07-26T17:32:35Z</time>
      </trkpt>
      <trkpt lat="60.144109879188" lon="21.601602093931">
        <ele>49.6</ele>
        <time>2017-07-26T17:32:36Z</time>
      </trkpt>
      <trkpt lat="60.144140976037" lon="21.601613158039">
        <ele>49.6</ele>
        <time>2017-07-26T17:32:37Z</time>
      </trkpt>
      <trkpt lat="60.144173246352" lon="21.601630592391">
        <ele>49.6</ele>
        <time>2017-07-26T17:32:38Z</time>
      </trkpt>
      <trkpt lat="60.144205684305" lon="21.601640902128">
        <ele>49.6</ele>
        <time>2017-07-26T17:32:39Z</time>
      </trkpt>
      <trkpt lat="60.144238206077" lon="21.601654313168">
        <ele>49.6</ele>
        <time>2017-07-26T17:32:40Z</time>
      </trkpt>
      <trkpt lat="60.144276762817" lon="21.601678788316">
        <ele>49.6</ele>
        <time>2017-07-26T17:32:41Z</time>
      </trkpt>
      <trkpt lat="60.144308781675" lon="21.601693791917">
        <ele>49.6</ele>
        <time>2017-07-26T17:32:42Z</time>
      </trkpt>
      <trkpt lat="60.144340046162" lon="21.601705694215">
        <ele>49.6</ele>
        <time>2017-07-26T17:32:43Z</time>
      </trkpt>
      <trkpt lat="60.144372148839" lon="21.601716925961">
        <ele>49.6</ele>
        <time>2017-07-26T17:32:44Z</time>
      </trkpt>
      <trkpt lat="60.144405173525" lon="21.601730839915">
        <ele>49.6</ele>
        <time>2017-07-26T17:32:45Z</time>
      </trkpt>
      <trkpt lat="60.144437108564" lon="21.601746178792">
        <ele>49.6</ele>
        <time>2017-07-26T17:32:46Z</time>
      </trkpt>
      <trkpt lat="60.144471306716" lon="21.601760428022">
        <ele>49.4</ele>
        <time>2017-07-26T17:32:47Z</time>
      </trkpt>
      <trkpt lat="60.144511036922" lon="21.601775431623">
        <ele>49.6</ele>
        <time>2017-07-26T17:32:48Z</time>
      </trkpt>
      <trkpt lat="60.144542552866" lon="21.601787250102">
        <ele>49.6</ele>
        <time>2017-07-26T17:32:49Z</time>
      </trkpt>
      <trkpt lat="60.144574823181" lon="21.601796470192">
        <ele>49.6</ele>
        <time>2017-07-26T17:32:50Z</time>
      </trkpt>
      <trkpt lat="60.144605500935" lon="21.601805271187">
        <ele>49.6</ele>
        <time>2017-07-26T17:32:51Z</time>
      </trkpt>
      <trkpt lat="60.144625030762" lon="21.601811389974">
        <ele>49.6</ele>
        <time>2017-07-26T17:32:52Z</time>
      </trkpt>
      <trkpt lat="60.144652607213" lon="21.601823543729">
        <ele>49.6</ele>
        <time>2017-07-26T17:32:53Z</time>
      </trkpt>
      <trkpt lat="60.144680854216" lon="21.601832512362">
        <ele>49.6</ele>
        <time>2017-07-26T17:32:54Z</time>
      </trkpt>
      <trkpt lat="60.144708011572" lon="21.601847264506">
        <ele>49.6</ele>
        <time>2017-07-26T17:32:55Z</time>
      </trkpt>
      <trkpt lat="60.144730475064" lon="21.601854892035">
        <ele>49.6</ele>
        <time>2017-07-26T17:32:56Z</time>
      </trkpt>
      <trkpt lat="60.144759392619" lon="21.60186704579">
        <ele>49.6</ele>
        <time>2017-07-26T17:32:57Z</time>
      </trkpt>
      <trkpt lat="60.144781520835" lon="21.601870147093">
        <ele>49.6</ele>
        <time>2017-07-26T17:32:58Z</time>
      </trkpt>
      <trkpt lat="60.144806498897" lon="21.601881462658">
        <ele>49.6</ele>
        <time>2017-07-26T17:32:59Z</time>
      </trkpt>
      <trkpt lat="60.144835667909" lon="21.601894203146">
        <ele>49.6</ele>
        <time>2017-07-26T17:33:00Z</time>
      </trkpt>
      <trkpt lat="60.144865088378" lon="21.601901914494">
        <ele>49.6</ele>
        <time>2017-07-26T17:33:01Z</time>
      </trkpt>
      <trkpt lat="60.144893670657" lon="21.601911134584">
        <ele>49.6</ele>
        <time>2017-07-26T17:33:02Z</time>
      </trkpt>
      <trkpt lat="60.14492107947" lon="21.601918678294">
        <ele>49.6</ele>
        <time>2017-07-26T17:33:03Z</time>
      </trkpt>
      <trkpt lat="60.144949410292" lon="21.601926473461">
        <ele>49.6</ele>
        <time>2017-07-26T17:33:04Z</time>
      </trkpt>
      <trkpt lat="60.144981932064" lon="21.601935358275">
        <ele>49.6</ele>
        <time>2017-07-26T17:33:05Z</time>
      </trkpt>
      <trkpt lat="60.145005904298" lon="21.601936364103">
        <ele>49.6</ele>
        <time>2017-07-26T17:33:06Z</time>
      </trkpt>
      <trkpt lat="60.145030547084" lon="21.601933095162">
        <ele>49.6</ele>
        <time>2017-07-26T17:33:07Z</time>
      </trkpt>
      <trkpt lat="60.14505770444" lon="21.601943907813">
        <ele>49.6</ele>
        <time>2017-07-26T17:33:08Z</time>
      </trkpt>
      <trkpt lat="60.145080419389" lon="21.601949691324">
        <ele>49.6</ele>
        <time>2017-07-26T17:33:09Z</time>
      </trkpt>
      <trkpt lat="60.14510380489" lon="21.601942985804">
        <ele>49.6</ele>
        <time>2017-07-26T17:33:10Z</time>
      </trkpt>
      <trkpt lat="60.145133812092" lon="21.601950948609">
        <ele>49.6</ele>
        <time>2017-07-26T17:33:11Z</time>
      </trkpt>
      <trkpt lat="60.145161891457" lon="21.601956983577">
        <ele>49.6</ele>
        <time>2017-07-26T17:33:12Z</time>
      </trkpt>
      <trkpt lat="60.145190306098" lon="21.60195673212">
        <ele>49.6</ele>
        <time>2017-07-26T17:33:13Z</time>
      </trkpt>
      <trkpt lat="60.145217295816" lon="21.601958576138">
        <ele>49.6</ele>
        <time>2017-07-26T17:33:14Z</time>
      </trkpt>
      <trkpt lat="60.145248225027" lon="21.601956815939">
        <ele>49.6</ele>
        <time>2017-07-26T17:33:15Z</time>
      </trkpt>
      <trkpt lat="60.145278735143" lon="21.601959498147">
        <ele>49.6</ele>
        <time>2017-07-26T17:33:16Z</time>
      </trkpt>
      <trkpt lat="60.145309580535" lon="21.601953966093">
        <ele>49.6</ele>
        <time>2017-07-26T17:33:17Z</time>
      </trkpt>
      <trkpt lat="60.145339168642" lon="21.601947931125">
        <ele>49.6</ele>
        <time>2017-07-26T17:33:18Z</time>
      </trkpt>
      <trkpt lat="60.145371606595" lon="21.60193913013">
        <ele>49.6</ele>
        <time>2017-07-26T17:33:19Z</time>
      </trkpt>
      <trkpt lat="60.145407564946" lon="21.601932843705">
        <ele>49.6</ele>
        <time>2017-07-26T17:33:20Z</time>
      </trkpt>
      <trkpt lat="60.14544327184" lon="21.601925551452">
        <ele>49.6</ele>
        <time>2017-07-26T17:33:21Z</time>
      </trkpt>
      <trkpt lat="60.145473614318" lon="21.601915996086">
        <ele>49.6</ele>
        <time>2017-07-26T17:33:22Z</time>
      </trkpt>
      <trkpt lat="60.145507980108" lon="21.601903758512">
        <ele>49.6</ele>
        <time>2017-07-26T17:33:23Z</time>
      </trkpt>
      <trkpt lat="60.145537484396" lon="21.60189386787">
        <ele>49.6</ele>
        <time>2017-07-26T17:33:24Z</time>
      </trkpt>
      <trkpt lat="60.145569084159" lon="21.601877355527">
        <ele>49.6</ele>
        <time>2017-07-26T17:33:25Z</time>
      </trkpt>
      <trkpt lat="60.145596073877" lon="21.601862351926">
        <ele>49.6</ele>
        <time>2017-07-26T17:33:26Z</time>
      </trkpt>
      <trkpt lat="60.145623734147" lon="21.601842067728">
        <ele>49.6</ele>
        <time>2017-07-26T17:33:27Z</time>
      </trkpt>
      <trkpt lat="60.145652148788" lon="21.601827315584">
        <ele>49.6</ele>
        <time>2017-07-26T17:33:28Z</time>
      </trkpt>
      <trkpt lat="60.145681736895" lon="21.601808875404">
        <ele>49.6</ele>
        <time>2017-07-26T17:33:29Z</time>
      </trkpt>
      <trkpt lat="60.145709145708" lon="21.601785322265">
        <ele>49.6</ele>
        <time>2017-07-26T17:33:30Z</time>
      </trkpt>
      <trkpt lat="60.145736303064" lon="21.601765540981">
        <ele>49.6</ele>
        <time>2017-07-26T17:33:31Z</time>
      </trkpt>
      <trkpt lat="60.145760275298" lon="21.601746178792">
        <ele>49.6</ele>
        <time>2017-07-26T17:33:32Z</time>
      </trkpt>
      <trkpt lat="60.145785672455" lon="21.601723128567">
        <ele>49.6</ele>
        <time>2017-07-26T17:33:33Z</time>
      </trkpt>
      <trkpt lat="60.145805705196" lon="21.60170778969">
        <ele>49.6</ele>
        <time>2017-07-26T17:33:34Z</time>
      </trkpt>
      <trkpt lat="60.145837137321" lon="21.601682392533">
        <ele>49.6</ele>
        <time>2017-07-26T17:33:35Z</time>
      </trkpt>
      <trkpt lat="60.145860271365" lon="21.601655067539">
        <ele>49.6</ele>
        <time>2017-07-26T17:33:36Z</time>
      </trkpt>
      <trkpt lat="60.145883405409" lon="21.601631765857">
        <ele>49.6</ele>
        <time>2017-07-26T17:33:37Z</time>
      </trkpt>
      <trkpt lat="60.14590930548" lon="21.601607709804">
        <ele>49.6</ele>
        <time>2017-07-26T17:33:38Z</time>
      </trkpt>
      <trkpt lat="60.145935037913" lon="21.60158541395">
        <ele>49.6</ele>
        <time>2017-07-26T17:33:39Z</time>
      </trkpt>
      <trkpt lat="60.145960854165" lon="21.601558424232">
        <ele>49.6</ele>
        <time>2017-07-26T17:33:40Z</time>
      </trkpt>
      <trkpt lat="60.14598725715" lon="21.601534451998">
        <ele>49.6</ele>
        <time>2017-07-26T17:33:41Z</time>
      </trkpt>
      <trkpt lat="60.146011313203" lon="21.601512407601">
        <ele>49.6</ele>
        <time>2017-07-26T17:33:42Z</time>
      </trkpt>
      <trkpt lat="60.146035536894" lon="21.601486172254">
        <ele>49.6</ele>
        <time>2017-07-26T17:33:43Z</time>
      </trkpt>
      <trkpt lat="60.146056994558" lon="21.601460439821">
        <ele>49.6</ele>
        <time>2017-07-26T17:33:44Z</time>
      </trkpt>
      <trkpt lat="60.146080044783" lon="21.601429678248">
        <ele>49.6</ele>
        <time>2017-07-26T17:33:45Z</time>
      </trkpt>
      <trkpt lat="60.146093958737" lon="21.601407550032">
        <ele>49.6</ele>
        <time>2017-07-26T17:33:46Z</time>
      </trkpt>
      <trkpt lat="60.146122289559" lon="21.60135323532">
        <ele>49.6</ele>
        <time>2017-07-26T17:33:47Z</time>
      </trkpt>
      <trkpt lat="60.146150955657" lon="21.601316438779">
        <ele>49.6</ele>
        <time>2017-07-26T17:33:48Z</time>
      </trkpt>
      <trkpt lat="60.146175766081" lon="21.601273942546">
        <ele>49.6</ele>
        <time>2017-07-26T17:33:49Z</time>
      </trkpt>
      <trkpt lat="60.146202839618" lon="21.601224740793">
        <ele>49.6</ele>
        <time>2017-07-26T17:33:50Z</time>
      </trkpt>
      <trkpt lat="60.146234020286" lon="21.601175622859">
        <ele>49.6</ele>
        <time>2017-07-26T17:33:51Z</time>
      </trkpt>
      <trkpt lat="60.146259249805" lon="21.601128768038">
        <ele>49.6</ele>
        <time>2017-07-26T17:33:52Z</time>
      </trkpt>
      <trkpt lat="60.1462848146" lon="21.601066406702">
        <ele>49.6</ele>
        <time>2017-07-26T17:33:53Z</time>
      </trkpt>
      <trkpt lat="60.146307864825" lon="21.601011589076">
        <ele>49.6</ele>
        <time>2017-07-26T17:33:54Z</time>
      </trkpt>
      <trkpt lat="60.146331334145" lon="21.600946629351">
        <ele>49.6</ele>
        <time>2017-07-26T17:33:55Z</time>
      </trkpt>
      <trkpt lat="60.146350025782" lon="21.600888375146">
        <ele>49.6</ele>
        <time>2017-07-26T17:33:56Z</time>
      </trkpt>
      <trkpt lat="60.1463686336" lon="21.600832132597">
        <ele>49.6</ele>
        <time>2017-07-26T17:33:57Z</time>
      </trkpt>
      <trkpt lat="60.146385229762" lon="21.600785696871">
        <ele>49.6</ele>
        <time>2017-07-26T17:33:58Z</time>
      </trkpt>
      <trkpt lat="60.146405933055" lon="21.600720150413">
        <ele>49.6</ele>
        <time>2017-07-26T17:33:59Z</time>
      </trkpt>
      <trkpt lat="60.146432419859" lon="21.600667931176">
        <ele>49.6</ele>
        <time>2017-07-26T17:34:00Z</time>
      </trkpt>
      <trkpt lat="60.146447172003" lon="21.600606156573">
        <ele>49.6</ele>
        <time>2017-07-26T17:34:01Z</time>
      </trkpt>
      <trkpt lat="60.146474329359" lon="21.600571706964">
        <ele>49.6</ele>
        <time>2017-07-26T17:34:02Z</time>
      </trkpt>
      <trkpt lat="60.146489668236" lon="21.600514710044">
        <ele>49.6</ele>
        <time>2017-07-26T17:34:03Z</time>
      </trkpt>
      <trkpt lat="60.146499810335" lon="21.600468022861">
        <ele>49.6</ele>
        <time>2017-07-26T17:34:04Z</time>
      </trkpt>
      <trkpt lat="60.146517663782" lon="21.600402560222">
        <ele>49.6</ele>
        <time>2017-07-26T17:34:05Z</time>
      </trkpt>
      <trkpt lat="60.146538953808" lon="21.600361153636">
        <ele>49.6</ele>
        <time>2017-07-26T17:34:06Z</time>
      </trkpt>
      <trkpt lat="60.146553119219" lon="21.600312370978">
        <ele>49.6</ele>
        <time>2017-07-26T17:34:07Z</time>
      </trkpt>
      <trkpt lat="60.146566027345" lon="21.60025855918">
        <ele>49.6</ele>
        <time>2017-07-26T17:34:08Z</time>
      </trkpt>
      <trkpt lat="60.146580779489" lon="21.600207764866">
        <ele>49.6</ele>
        <time>2017-07-26T17:34:09Z</time>
      </trkpt>
      <trkpt lat="60.146597794746" lon="21.60015294724">
        <ele>49.6</ele>
        <time>2017-07-26T17:34:10Z</time>
      </trkpt>
      <trkpt lat="60.146611121967" lon="21.600092346103">
        <ele>49.6</ele>
        <time>2017-07-26T17:34:11Z</time>
      </trkpt>
      <trkpt lat="60.146626963758" lon="21.600040545961">
        <ele>49.6</ele>
        <time>2017-07-26T17:34:12Z</time>
      </trkpt>
      <trkpt lat="60.146648924336" lon="21.599989248733">
        <ele>49.6</ele>
        <time>2017-07-26T17:34:13Z</time>
      </trkpt>
      <trkpt lat="60.146665101403" lon="21.599938873514">
        <ele>49.6</ele>
        <time>2017-07-26T17:34:14Z</time>
      </trkpt>
      <trkpt lat="60.146682535755" lon="21.59987382997">
        <ele>49.6</ele>
        <time>2017-07-26T17:34:15Z</time>
      </trkpt>
      <trkpt lat="60.146698126089" lon="21.599821526914">
        <ele>49.6</ele>
        <time>2017-07-26T17:34:16Z</time>
      </trkpt>
      <trkpt lat="60.146720589581" lon="21.599767798935">
        <ele>49.6</ele>
        <time>2017-07-26T17:34:17Z</time>
      </trkpt>
      <trkpt lat="60.146739029761" lon="21.599713651861">
        <ele>49.6</ele>
        <time>2017-07-26T17:34:18Z</time>
      </trkpt>
      <trkpt lat="60.146757386122" lon="21.599669814524">
        <ele>49.6</ele>
        <time>2017-07-26T17:34:19Z</time>
      </trkpt>
      <trkpt lat="60.14677599394" lon="21.599616254183">
        <ele>49.6</ele>
        <time>2017-07-26T17:34:20Z</time>
      </trkpt>
      <trkpt lat="60.146798038337" lon="21.599566549516">
        <ele>49.6</ele>
        <time>2017-07-26T17:34:21Z</time>
      </trkpt>
      <trkpt lat="60.146817987259" lon="21.599531177898">
        <ele>49.6</ele>
        <time>2017-07-26T17:34:22Z</time>
      </trkpt>
      <trkpt lat="60.146845228434" lon="21.59947652791">
        <ele>49.6</ele>
        <time>2017-07-26T17:34:23Z</time>
      </trkpt>
      <trkpt lat="60.146865344994" lon="21.599430678917">
        <ele>49.2</ele>
        <time>2017-07-26T17:34:24Z</time>
      </trkpt>
      <trkpt lat="60.146891077427" lon="21.599386925399">
        <ele>48.8</ele>
        <time>2017-07-26T17:34:25Z</time>
      </trkpt>
      <trkpt lat="60.146913876195" lon="21.599344010071">
        <ele>48.4</ele>
        <time>2017-07-26T17:34:26Z</time>
      </trkpt>
      <trkpt lat="60.146937513153" lon="21.599302854942">
        <ele>48</ele>
        <time>2017-07-26T17:34:27Z</time>
      </trkpt>
      <trkpt lat="60.14695871936" lon="21.599268992066">
        <ele>47.6</ele>
        <time>2017-07-26T17:34:28Z</time>
      </trkpt>
      <trkpt lat="60.146982523956" lon="21.599231608792">
        <ele>47.4</ele>
        <time>2017-07-26T17:34:29Z</time>
      </trkpt>
      <trkpt lat="60.147003730163" lon="21.599194309337">
        <ele>47.4</ele>
        <time>2017-07-26T17:34:30Z</time>
      </trkpt>
      <trkpt lat="60.147027283302" lon="21.599166229972">
        <ele>47.4</ele>
        <time>2017-07-26T17:34:31Z</time>
      </trkpt>
      <trkpt lat="60.147049411518" lon="21.599134965485">
        <ele>47.4</ele>
        <time>2017-07-26T17:34:32Z</time>
      </trkpt>
      <trkpt lat="60.147070366268" lon="21.599100096781">
        <ele>47.4</ele>
        <time>2017-07-26T17:34:33Z</time>
      </trkpt>
      <trkpt lat="60.147090566647" lon="21.599078974393">
        <ele>47.4</ele>
        <time>2017-07-26T17:34:34Z</time>
      </trkpt>
      <trkpt lat="60.147121747315" lon="21.599046871716">
        <ele>47.4</ele>
        <time>2017-07-26T17:34:35Z</time>
      </trkpt>
      <trkpt lat="60.147151670698" lon="21.599023653853">
        <ele>47.4</ele>
        <time>2017-07-26T17:34:36Z</time>
      </trkpt>
      <trkpt lat="60.147179582425" lon="21.598981576715">
        <ele>47.4</ele>
        <time>2017-07-26T17:34:37Z</time>
      </trkpt>
      <trkpt lat="60.147209421989" lon="21.598956431015">
        <ele>47.4</ele>
        <time>2017-07-26T17:34:38Z</time>
      </trkpt>
      <trkpt lat="60.14723951301" lon="21.598928435469">
        <ele>47.4</ele>
        <time>2017-07-26T17:34:39Z</time>
      </trkpt>
      <trkpt lat="60.147269268755" lon="21.598901361932">
        <ele>47.4</ele>
        <time>2017-07-26T17:34:40Z</time>
      </trkpt>
      <trkpt lat="60.147299946509" lon="21.598873534024">
        <ele>47.4</ele>
        <time>2017-07-26T17:34:41Z</time>
      </trkpt>
      <trkpt lat="60.147331294815" lon="21.5988487236">
        <ele>47.4</ele>
        <time>2017-07-26T17:34:42Z</time>
      </trkpt>
      <trkpt lat="60.147359793275" lon="21.598822404434">
        <ele>47.4</ele>
        <time>2017-07-26T17:34:43Z</time>
      </trkpt>
      <trkpt lat="60.14738871083" lon="21.59880513772">
        <ele>47.4</ele>
        <time>2017-07-26T17:34:44Z</time>
      </trkpt>
      <trkpt lat="60.147419640041" lon="21.598781081667">
        <ele>47.4</ele>
        <time>2017-07-26T17:34:45Z</time>
      </trkpt>
      <trkpt lat="60.147448054682" lon="21.59876071365">
        <ele>47.4</ele>
        <time>2017-07-26T17:34:46Z</time>
      </trkpt>
      <trkpt lat="60.147477391332" lon="21.598737160511">
        <ele>47.4</ele>
        <time>2017-07-26T17:34:47Z</time>
      </trkpt>
      <trkpt lat="60.147508655819" lon="21.59871796596">
        <ele>47.4</ele>
        <time>2017-07-26T17:34:48Z</time>
      </trkpt>
      <trkpt lat="60.147537573374" lon="21.598699693418">
        <ele>47.4</ele>
        <time>2017-07-26T17:34:49Z</time>
      </trkpt>
      <trkpt lat="60.147570011327" lon="21.598681756152">
        <ele>47.4</ele>
        <time>2017-07-26T17:34:50Z</time>
      </trkpt>
      <trkpt lat="60.147597671597" lon="21.598662896877">
        <ele>47.4</ele>
        <time>2017-07-26T17:34:51Z</time>
      </trkpt>
      <trkpt lat="60.147621224736" lon="21.598642947955">
        <ele>47.4</ele>
        <time>2017-07-26T17:34:52Z</time>
      </trkpt>
      <trkpt lat="60.147643855866" lon="21.598619310997">
        <ele>47.4</ele>
        <time>2017-07-26T17:34:53Z</time>
      </trkpt>
      <trkpt lat="60.147670510308" lon="21.598603385387">
        <ele>47.4</ele>
        <time>2017-07-26T17:34:54Z</time>
      </trkpt>
      <trkpt lat="60.147704457003" lon="21.598581592447">
        <ele>47.4</ele>
        <time>2017-07-26T17:34:55Z</time>
      </trkpt>
      <trkpt lat="60.147732620187" lon="21.598562733172">
        <ele>47.4</ele>
        <time>2017-07-26T17:34:56Z</time>
      </trkpt>
      <trkpt lat="60.147763884674" lon="21.598542700431">
        <ele>47.4</ele>
        <time>2017-07-26T17:34:57Z</time>
      </trkpt>
      <trkpt lat="60.147792634591" lon="21.598525266079">
        <ele>47.4</ele>
        <time>2017-07-26T17:34:58Z</time>
      </trkpt>
      <trkpt lat="60.1478270842" lon="21.598505736252">
        <ele>47.4</ele>
        <time>2017-07-26T17:34:59Z</time>
      </trkpt>
      <trkpt lat="60.147859605972" lon="21.598479836181">
        <ele>47.4</ele>
        <time>2017-07-26T17:35:00Z</time>
      </trkpt>
      <trkpt lat="60.147889696993" lon="21.598465754589">
        <ele>47.4</ele>
        <time>2017-07-26T17:35:01Z</time>
      </trkpt>
      <trkpt lat="60.147912495761" lon="21.59844806878">
        <ele>47.4</ele>
        <time>2017-07-26T17:35:02Z</time>
      </trkpt>
      <trkpt lat="60.147932947597" lon="21.598423677451">
        <ele>47.4</ele>
        <time>2017-07-26T17:35:03Z</time>
      </trkpt>
      <trkpt lat="60.147953902347" lon="21.598406746013">
        <ele>47.4</ele>
        <time>2017-07-26T17:35:04Z</time>
      </trkpt>
      <trkpt lat="60.147983741911" lon="21.598378666648">
        <ele>47.4</ele>
        <time>2017-07-26T17:35:05Z</time>
      </trkpt>
      <trkpt lat="60.148011653638" lon="21.598361316115">
        <ele>47.4</ele>
        <time>2017-07-26T17:35:06Z</time>
      </trkpt>
      <trkpt lat="60.14804249903" lon="21.598339774632">
        <ele>47.4</ele>
        <time>2017-07-26T17:35:07Z</time>
      </trkpt>
      <trkpt lat="60.14807267387" lon="21.598312114362">
        <ele>47.4</ele>
        <time>2017-07-26T17:35:08Z</time>
      </trkpt>
      <trkpt lat="60.14809865776" lon="21.598286717205">
        <ele>47.4</ele>
        <time>2017-07-26T17:35:09Z</time>
      </trkpt>
      <trkpt lat="60.148132604455" lon="21.598254698347">
        <ele>47.4</ele>
        <time>2017-07-26T17:35:10Z</time>
      </trkpt>
      <trkpt lat="60.148160432363" lon="21.598220584014">
        <ele>47.4</ele>
        <time>2017-07-26T17:35:11Z</time>
      </trkpt>
      <trkpt lat="60.14818834409" lon="21.598191498821">
        <ele>47.4</ele>
        <time>2017-07-26T17:35:12Z</time>
      </trkpt>
      <trkpt lat="60.148214914713" lon="21.598164173827">
        <ele>47.4</ele>
        <time>2017-07-26T17:35:13Z</time>
      </trkpt>
      <trkpt lat="60.148240898603" lon="21.598139195765">
        <ele>47.4</ele>
        <time>2017-07-26T17:35:14Z</time>
      </trkpt>
      <trkpt lat="60.148271241081" lon="21.598108350373">
        <ele>47.4</ele>
        <time>2017-07-26T17:35:15Z</time>
      </trkpt>
      <trkpt lat="60.148294039849" lon="21.59808177975">
        <ele>47.4</ele>
        <time>2017-07-26T17:35:16Z</time>
      </trkpt>
      <trkpt lat="60.148320275196" lon="21.598050263806">
        <ele>47.4</ele>
        <time>2017-07-26T17:35:17Z</time>
      </trkpt>
      <trkpt lat="60.148346845819" lon="21.598023190269">
        <ele>47.2</ele>
        <time>2017-07-26T17:35:18Z</time>
      </trkpt>
      <trkpt lat="60.148367632931" lon="21.59799209342">
        <ele>46.8</ele>
        <time>2017-07-26T17:35:19Z</time>
      </trkpt>
      <trkpt lat="60.148393952097" lon="21.597957643811">
        <ele>46.4</ele>
        <time>2017-07-26T17:35:20Z</time>
      </trkpt>
      <trkpt lat="60.148417756693" lon="21.597924535306">
        <ele>46</ele>
        <time>2017-07-26T17:35:21Z</time>
      </trkpt>
      <trkpt lat="60.148441226013" lon="21.597895869208">
        <ele>45.8</ele>
        <time>2017-07-26T17:35:22Z</time>
      </trkpt>
      <trkpt lat="60.148469640654" lon="21.597864520902">
        <ele>45.4</ele>
        <time>2017-07-26T17:35:23Z</time>
      </trkpt>
      <trkpt lat="60.148494031983" lon="21.597833004958">
        <ele>45.4</ele>
        <time>2017-07-26T17:35:24Z</time>
      </trkpt>
      <trkpt lat="60.148519932054" lon="21.597793023295">
        <ele>45.4</ele>
        <time>2017-07-26T17:35:25Z</time>
      </trkpt>
      <trkpt lat="60.148546837953" lon="21.597747761035">
        <ele>45.4</ele>
        <time>2017-07-26T17:35:26Z</time>
      </trkpt>
      <trkpt lat="60.148573995309" lon="21.597707779372">
        <ele>45.4</ele>
        <time>2017-07-26T17:35:27Z</time>
      </trkpt>
      <trkpt lat="60.148601739398" lon="21.597671653383">
        <ele>45.4</ele>
        <time>2017-07-26T17:35:28Z</time>
      </trkpt>
      <trkpt lat="60.148630824591" lon="21.59763167172">
        <ele>45.4</ele>
        <time>2017-07-26T17:35:29Z</time>
      </trkpt>
      <trkpt lat="60.148661837621" lon="21.59758473308">
        <ele>45.4</ele>
        <time>2017-07-26T17:35:30Z</time>
      </trkpt>
      <trkpt lat="60.148692012461" lon="21.597542236847">
        <ele>45.4</ele>
        <time>2017-07-26T17:35:31Z</time>
      </trkpt>
      <trkpt lat="60.148724618052" lon="21.59750426684">
        <ele>45.4</ele>
        <time>2017-07-26T17:35:32Z</time>
      </trkpt>
      <trkpt lat="60.14875076958" lon="21.597451209413">
        <ele>45.4</ele>
        <time>2017-07-26T17:35:33Z</time>
      </trkpt>
      <trkpt lat="60.148770299407" lon="21.597409719008">
        <ele>45.4</ele>
        <time>2017-07-26T17:35:34Z</time>
      </trkpt>
      <trkpt lat="60.14880022279" lon="21.597359008513">
        <ele>45.4</ele>
        <time>2017-07-26T17:35:35Z</time>
      </trkpt>
      <trkpt lat="60.148824781757" lon="21.597310728769">
        <ele>45.4</ele>
        <time>2017-07-26T17:35:36Z</time>
      </trkpt>
      <trkpt lat="60.148846574697" lon="21.597263790129">
        <ele>45.4</ele>
        <time>2017-07-26T17:35:37Z</time>
      </trkpt>
      <trkpt lat="60.148869038189" lon="21.597222467362">
        <ele>45.4</ele>
        <time>2017-07-26T17:35:38Z</time>
      </trkpt>
      <trkpt lat="60.148890663491" lon="21.5971891074">
        <ele>45.4</ele>
        <time>2017-07-26T17:35:39Z</time>
      </trkpt>
      <trkpt lat="60.148913797535" lon="21.597142420217">
        <ele>45.4</ele>
        <time>2017-07-26T17:35:40Z</time>
      </trkpt>
      <trkpt lat="60.148936093389" lon="21.597090620075">
        <ele>45.4</ele>
        <time>2017-07-26T17:35:41Z</time>
      </trkpt>
      <trkpt lat="60.148961909641" lon="21.597035970087">
        <ele>45.4</ele>
        <time>2017-07-26T17:35:42Z</time>
      </trkpt>
      <trkpt lat="60.148984876047" lon="21.596983583212">
        <ele>45.4</ele>
        <time>2017-07-26T17:35:43Z</time>
      </trkpt>
      <trkpt lat="60.149007590996" lon="21.596939494418">
        <ele>45.4</ele>
        <time>2017-07-26T17:35:44Z</time>
      </trkpt>
      <trkpt lat="60.149028797203" lon="21.596888532466">
        <ele>45</ele>
        <time>2017-07-26T17:35:45Z</time>
      </trkpt>
      <trkpt lat="60.149047153564" lon="21.596844527491">
        <ele>44.8</ele>
        <time>2017-07-26T17:35:46Z</time>
      </trkpt>
      <trkpt lat="60.149068778866" lon="21.596793565539">
        <ele>44.4</ele>
        <time>2017-07-26T17:35:47Z</time>
      </trkpt>
      <trkpt lat="60.149089565978" lon="21.596741178664">
        <ele>44</ele>
        <time>2017-07-26T17:35:48Z</time>
      </trkpt>
      <trkpt lat="60.149108006158" lon="21.596696503137">
        <ele>43.8</ele>
        <time>2017-07-26T17:35:49Z</time>
      </trkpt>
      <trkpt lat="60.14913298422" lon="21.59663757838">
        <ele>43.4</ele>
        <time>2017-07-26T17:35:50Z</time>
      </trkpt>
      <trkpt lat="60.149152765504" lon="21.59658393422">
        <ele>43.4</ele>
        <time>2017-07-26T17:35:51Z</time>
      </trkpt>
      <trkpt lat="60.149168020562" lon="21.59652945187">
        <ele>43.4</ele>
        <time>2017-07-26T17:35:52Z</time>
      </trkpt>
      <trkpt lat="60.149187718027" lon="21.596477316452">
        <ele>43.4</ele>
        <time>2017-07-26T17:35:53Z</time>
      </trkpt>
      <trkpt lat="60.149203811275" lon="21.596429288165">
        <ele>43.4</ele>
        <time>2017-07-26T17:35:54Z</time>
      </trkpt>
      <trkpt lat="60.149218060505" lon="21.596374219082">
        <ele>43.4</ele>
        <time>2017-07-26T17:35:55Z</time>
      </trkpt>
      <trkpt lat="60.14923440521" lon="21.59632158075">
        <ele>43.4</ele>
        <time>2017-07-26T17:35:56Z</time>
      </trkpt>
      <trkpt lat="60.149250498458" lon="21.596271792264">
        <ele>43.4</ele>
        <time>2017-07-26T17:35:57Z</time>
      </trkpt>
      <trkpt lat="60.149271872303" lon="21.596225691814">
        <ele>43.4</ele>
        <time>2017-07-26T17:35:58Z</time>
      </trkpt>
      <trkpt lat="60.149287462637" lon="21.596169784541">
        <ele>43.4</ele>
        <time>2017-07-26T17:35:59Z</time>
      </trkpt>
      <trkpt lat="60.14930146041" lon="21.596115302191">
        <ele>43.4</ele>
        <time>2017-07-26T17:36:00Z</time>
      </trkpt>
      <trkpt lat="60.149319230038" lon="21.596058556728">
        <ele>43.4</ele>
        <time>2017-07-26T17:36:01Z</time>
      </trkpt>
      <trkpt lat="60.149340184788" lon="21.596008349147">
        <ele>43.4</ele>
        <time>2017-07-26T17:36:02Z</time>
      </trkpt>
      <trkpt lat="60.149361139538" lon="21.595943724698">
        <ele>43.4</ele>
        <time>2017-07-26T17:36:03Z</time>
      </trkpt>
      <trkpt lat="60.149379579718" lon="21.595888655615">
        <ele>43.4</ele>
        <time>2017-07-26T17:36:04Z</time>
      </trkpt>
      <trkpt lat="60.149404138685" lon="21.595809698117">
        <ele>43.4</ele>
        <time>2017-07-26T17:36:05Z</time>
      </trkpt>
      <trkpt lat="60.149428613833" lon="21.595753204111">
        <ele>43.4</ele>
        <time>2017-07-26T17:36:06Z</time>
      </trkpt>
      <trkpt lat="60.149448898031" lon="21.595703331806">
        <ele>43.4</ele>
        <time>2017-07-26T17:36:07Z</time>
      </trkpt>
      <trkpt lat="60.1494699366" lon="21.595652537492">
        <ele>43.4</ele>
        <time>2017-07-26T17:36:08Z</time>
      </trkpt>
      <trkpt lat="60.149490639893" lon="21.595607359051">
        <ele>43.4</ele>
        <time>2017-07-26T17:36:09Z</time>
      </trkpt>
      <trkpt lat="60.149513773937" lon="21.595562264429">
        <ele>43.4</ele>
        <time>2017-07-26T17:36:10Z</time>
      </trkpt>
      <trkpt lat="60.149538165266" lon="21.595520690205">
        <ele>43.4</ele>
        <time>2017-07-26T17:36:11Z</time>
      </trkpt>
      <trkpt lat="60.149561131672" lon="21.595482636379">
        <ele>43.4</ele>
        <time>2017-07-26T17:36:12Z</time>
      </trkpt>
      <trkpt lat="60.149580912956" lon="21.595433686083">
        <ele>43.4</ele>
        <time>2017-07-26T17:36:13Z</time>
      </trkpt>
      <trkpt lat="60.149605807199" lon="21.595392447135">
        <ele>43.4</ele>
        <time>2017-07-26T17:36:14Z</time>
      </trkpt>
      <trkpt lat="60.149630533804" lon="21.595350034721">
        <ele>43.4</ele>
        <time>2017-07-26T17:36:15Z</time>
      </trkpt>
      <trkpt lat="60.149653751667" lon="21.595321871537">
        <ele>43.4</ele>
        <time>2017-07-26T17:36:16Z</time>
      </trkpt>
      <trkpt lat="60.149675376969" lon="21.595280464951">
        <ele>43.4</ele>
        <time>2017-07-26T17:36:17Z</time>
      </trkpt>
      <trkpt lat="60.149696415538" lon="21.595243416953">
        <ele>43.4</ele>
        <time>2017-07-26T17:36:18Z</time>
      </trkpt>
      <trkpt lat="60.149718459935" lon="21.59521349357">
        <ele>43.4</ele>
        <time>2017-07-26T17:36:19Z</time>
      </trkpt>
      <trkpt lat="60.149741677798" lon="21.595178373409">
        <ele>43.4</ele>
        <time>2017-07-26T17:36:20Z</time>
      </trkpt>
      <trkpt lat="60.149763806014" lon="21.595141073954">
        <ele>43.4</ele>
        <time>2017-07-26T17:36:21Z</time>
      </trkpt>
      <trkpt lat="60.149787107696" lon="21.595117269358">
        <ele>43.4</ele>
        <time>2017-07-26T17:36:22Z</time>
      </trkpt>
      <trkpt lat="60.149812504853" lon="21.595086004871">
        <ele>43.4</ele>
        <time>2017-07-26T17:36:23Z</time>
      </trkpt>
      <trkpt lat="60.149833878698" lon="21.595057338773">
        <ele>43.4</ele>
        <time>2017-07-26T17:36:24Z</time>
      </trkpt>
      <trkpt lat="60.149858605303" lon="21.595024649363">
        <ele>43.4</ele>
        <time>2017-07-26T17:36:25Z</time>
      </trkpt>
      <trkpt lat="60.149883331908" lon="21.594990954125">
        <ele>43.4</ele>
        <time>2017-07-26T17:36:26Z</time>
      </trkpt>
      <trkpt lat="60.149907555599" lon="21.594960611647">
        <ele>43.4</ele>
        <time>2017-07-26T17:36:27Z</time>
      </trkpt>
      <trkpt lat="60.149929683815" lon="21.594928760427">
        <ele>43.4</ele>
        <time>2017-07-26T17:36:28Z</time>
      </trkpt>
      <trkpt lat="60.1499477049" lon="21.594891460972">
        <ele>43.4</ele>
        <time>2017-07-26T17:36:29Z</time>
      </trkpt>
      <trkpt lat="60.149975951903" lon="21.59485642463">
        <ele>43.4</ele>
        <time>2017-07-26T17:36:30Z</time>
      </trkpt>
      <trkpt lat="60.149997912481" lon="21.594820633917">
        <ele>43.4</ele>
        <time>2017-07-26T17:36:31Z</time>
      </trkpt>
      <trkpt lat="60.150017107032" lon="21.594794650027">
        <ele>43.4</ele>
        <time>2017-07-26T17:36:32Z</time>
      </trkpt>
      <trkpt lat="60.150043342379" lon="21.594764559006">
        <ele>43.4</ele>
        <time>2017-07-26T17:36:33Z</time>
      </trkpt>
      <trkpt lat="60.150065386776" lon="21.59473740165">
        <ele>43.4</ele>
        <time>2017-07-26T17:36:34Z</time>
      </trkpt>
      <trkpt lat="60.150099752566" lon="21.594699934557">
        <ele>43.4</ele>
        <time>2017-07-26T17:36:35Z</time>
      </trkpt>
      <trkpt lat="60.150123892438" lon="21.594669927355">
        <ele>43.4</ele>
        <time>2017-07-26T17:36:36Z</time>
      </trkpt>
      <trkpt lat="60.150150211604" lon="21.594628939864">
        <ele>43.4</ele>
        <time>2017-07-26T17:36:37Z</time>
      </trkpt>
      <trkpt lat="60.150177955693" lon="21.594595663721">
        <ele>43.4</ele>
        <time>2017-07-26T17:36:38Z</time>
      </trkpt>
      <trkpt lat="60.150203269031" lon="21.594565656519">
        <ele>43.4</ele>
        <time>2017-07-26T17:36:39Z</time>
      </trkpt>
      <trkpt lat="60.150229085283" lon="21.594530871634">
        <ele>43.4</ele>
        <time>2017-07-26T17:36:40Z</time>
      </trkpt>
      <trkpt lat="60.150258338114" lon="21.594490722333">
        <ele>43.4</ele>
        <time>2017-07-26T17:36:41Z</time>
      </trkpt>
      <trkpt lat="60.150285746927" lon="21.59445744619">
        <ele>43.4</ele>
        <time>2017-07-26T17:36:42Z</time>
      </trkpt>
      <trkpt lat="60.150310473532" lon="21.594428277178">
        <ele>43.4</ele>
        <time>2017-07-26T17:36:43Z</time>
      </trkpt>
      <trkpt lat="60.150333356119" lon="21.594401371279">
        <ele>43.4</ele>
        <time>2017-07-26T17:36:44Z</time>
      </trkpt>
      <trkpt lat="60.150361267846" lon="21.59437195081">
        <ele>43.4</ele>
        <time>2017-07-26T17:36:45Z</time>
      </trkpt>
      <trkpt lat="60.15037853456" lon="21.594348146214">
        <ele>43.4</ele>
        <time>2017-07-26T17:36:46Z</time>
      </trkpt>
      <trkpt lat="60.150415163463" lon="21.594302045764">
        <ele>43.4</ele>
        <time>2017-07-26T17:36:47Z</time>
      </trkpt>
      <trkpt lat="60.150444583932" lon="21.594269272535">
        <ele>43.4</ele>
        <time>2017-07-26T17:36:48Z</time>
      </trkpt>
      <trkpt lat="60.150470986917" lon="21.594226692483">
        <ele>43.4</ele>
        <time>2017-07-26T17:36:49Z</time>
      </trkpt>
      <trkpt lat="60.15050174849" lon="21.594183190422">
        <ele>43.4</ele>
        <time>2017-07-26T17:36:50Z</time>
      </trkpt>
      <trkpt lat="60.150529660217" lon="21.594142957302">
        <ele>43.4</ele>
        <time>2017-07-26T17:36:51Z</time>
      </trkpt>
      <trkpt lat="60.150554638279" lon="21.594106076942">
        <ele>43.4</ele>
        <time>2017-07-26T17:36:52Z</time>
      </trkpt>
      <trkpt lat="60.150585483671" lon="21.594063580709">
        <ele>43.4</ele>
        <time>2017-07-26T17:36:53Z</time>
      </trkpt>
      <trkpt lat="60.150612892484" lon="21.594026029797">
        <ele>43.4</ele>
        <time>2017-07-26T17:36:54Z</time>
      </trkpt>
      <trkpt lat="60.150643570238" lon="21.593981270451">
        <ele>43.4</ele>
        <time>2017-07-26T17:36:55Z</time>
      </trkpt>
      <trkpt lat="60.150670308499" lon="21.593936846381">
        <ele>43.4</ele>
        <time>2017-07-26T17:36:56Z</time>
      </trkpt>
      <trkpt lat="60.150699896606" lon="21.593898122003">
        <ele>43.4</ele>
        <time>2017-07-26T17:36:57Z</time>
      </trkpt>
      <trkpt lat="60.150725377582" lon="21.593859397625">
        <ele>43.4</ele>
        <time>2017-07-26T17:36:58Z</time>
      </trkpt>
      <trkpt lat="60.150749936549" lon="21.593821427618">
        <ele>43.4</ele>
        <time>2017-07-26T17:36:59Z</time>
      </trkpt>
      <trkpt lat="60.150778267371" lon="21.593775327168">
        <ele>43.4</ele>
        <time>2017-07-26T17:37:00Z</time>
      </trkpt>
      <trkpt lat="60.150805257089" lon="21.59373827917">
        <ele>43.4</ele>
        <time>2017-07-26T17:37:01Z</time>
      </trkpt>
      <trkpt lat="60.150829313142" lon="21.593697543136">
        <ele>43.4</ele>
        <time>2017-07-26T17:37:02Z</time>
      </trkpt>
      <trkpt lat="60.15085127372" lon="21.593659573129">
        <ele>43.4</ele>
        <time>2017-07-26T17:37:03Z</time>
      </trkpt>
      <trkpt lat="60.150870803547" lon="21.593631577583">
        <ele>43.4</ele>
        <time>2017-07-26T17:37:04Z</time>
      </trkpt>
      <trkpt lat="60.150896703618" lon="21.593590841549">
        <ele>43.4</ele>
        <time>2017-07-26T17:37:05Z</time>
      </trkpt>
      <trkpt lat="60.150916820178" lon="21.593553290637">
        <ele>43.4</ele>
        <time>2017-07-26T17:37:06Z</time>
      </trkpt>
      <trkpt lat="60.150937691109" lon="21.593519176304">
        <ele>43.4</ele>
        <time>2017-07-26T17:37:07Z</time>
      </trkpt>
      <trkpt lat="60.15096023842" lon="21.593479613736">
        <ele>43.4</ele>
        <time>2017-07-26T17:37:08Z</time>
      </trkpt>
      <trkpt lat="60.150979349152" lon="21.593442733376">
        <ele>43.4</ele>
        <time>2017-07-26T17:37:09Z</time>
      </trkpt>
      <trkpt lat="60.151001728825" lon="21.593405182464">
        <ele>43.4</ele>
        <time>2017-07-26T17:37:10Z</time>
      </trkpt>
      <trkpt lat="60.151025365783" lon="21.593361177489">
        <ele>43.4</ele>
        <time>2017-07-26T17:37:11Z</time>
      </trkpt>
      <trkpt lat="60.151047913094" lon="21.593327398432">
        <ele>43.4</ele>
        <time>2017-07-26T17:37:12Z</time>
      </trkpt>
      <trkpt lat="60.151073980803" lon="21.593284483104">
        <ele>43</ele>
        <time>2017-07-26T17:37:13Z</time>
      </trkpt>
      <trkpt lat="60.151097617761" lon="21.593247351287">
        <ele>42.8</ele>
        <time>2017-07-26T17:37:14Z</time>
      </trkpt>
      <trkpt lat="60.151124188384" lon="21.593202759579">
        <ele>42.6</ele>
        <time>2017-07-26T17:37:15Z</time>
      </trkpt>
      <trkpt lat="60.151145562229" lon="21.593164789572">
        <ele>42.2</ele>
        <time>2017-07-26T17:37:16Z</time>
      </trkpt>
      <trkpt lat="60.151169869739" lon="21.593126735746">
        <ele>42</ele>
        <time>2017-07-26T17:37:17Z</time>
      </trkpt>
      <trkpt lat="60.151193758154" lon="21.593090945033">
        <ele>41.6</ele>
        <time>2017-07-26T17:37:18Z</time>
      </trkpt>
      <trkpt lat="60.151213958533" lon="21.593056327786">
        <ele>41.4</ele>
        <time>2017-07-26T17:37:19Z</time>
      </trkpt>
      <trkpt lat="60.151237511672" lon="21.593014166829">
        <ele>41.4</ele>
        <time>2017-07-26T17:37:20Z</time>
      </trkpt>
      <trkpt lat="60.151260813354" lon="21.592976448279">
        <ele>41.4</ele>
        <time>2017-07-26T17:37:21Z</time>
      </trkpt>
      <trkpt lat="60.151280678457" lon="21.592945267611">
        <ele>41.4</ele>
        <time>2017-07-26T17:37:22Z</time>
      </trkpt>
      <trkpt lat="60.151307416718" lon="21.592901430274">
        <ele>41.4</ele>
        <time>2017-07-26T17:37:23Z</time>
      </trkpt>
      <trkpt lat="60.151330886038" lon="21.592865639561">
        <ele>41.4</ele>
        <time>2017-07-26T17:37:24Z</time>
      </trkpt>
      <trkpt lat="60.151358462489" lon="21.592823059509">
        <ele>41.4</ele>
        <time>2017-07-26T17:37:25Z</time>
      </trkpt>
      <trkpt lat="60.15138436256" lon="21.592780982371">
        <ele>41.4</ele>
        <time>2017-07-26T17:37:26Z</time>
      </trkpt>
      <trkpt lat="60.151409089165" lon="21.592738821414">
        <ele>41.4</ele>
        <time>2017-07-26T17:37:27Z</time>
      </trkpt>
      <trkpt lat="60.151429792458" lon="21.59269892357">
        <ele>41.4</ele>
        <time>2017-07-26T17:37:28Z</time>
      </trkpt>
      <trkpt lat="60.151453010321" lon="21.592660869744">
        <ele>41.4</ele>
        <time>2017-07-26T17:37:29Z</time>
      </trkpt>
      <trkpt lat="60.151476814917" lon="21.592622313004">
        <ele>41.4</ele>
        <time>2017-07-26T17:37:30Z</time>
      </trkpt>
      <trkpt lat="60.151499362228" lon="21.592586857567">
        <ele>41.4</ele>
        <time>2017-07-26T17:37:31Z</time>
      </trkpt>
      <trkpt lat="60.151518892055" lon="21.592549222836">
        <ele>41.4</ele>
        <time>2017-07-26T17:37:32Z</time>
      </trkpt>
      <trkpt lat="60.151541523185" lon="21.59251619815">
        <ele>41.4</ele>
        <time>2017-07-26T17:37:33Z</time>
      </trkpt>
      <trkpt lat="60.151560214822" lon="21.592487532052">
        <ele>41.4</ele>
        <time>2017-07-26T17:37:34Z</time>
      </trkpt>
      <trkpt lat="60.151589802929" lon="21.592443862353">
        <ele>41.4</ele>
        <time>2017-07-26T17:37:35Z</time>
      </trkpt>
      <trkpt lat="60.151612601697" lon="21.592399354464">
        <ele>41.4</ele>
        <time>2017-07-26T17:37:36Z</time>
      </trkpt>
      <trkpt lat="60.151636406293" lon="21.592362557923">
        <ele>41.4</ele>
        <time>2017-07-26T17:37:37Z</time>
      </trkpt>
      <trkpt lat="60.15165509793" lon="21.592329868513">
        <ele>41.4</ele>
        <time>2017-07-26T17:37:38Z</time>
      </trkpt>
      <trkpt lat="60.151677226146" lon="21.592295083628">
        <ele>41.4</ele>
        <time>2017-07-26T17:37:39Z</time>
      </trkpt>
      <trkpt lat="60.151700192552" lon="21.592264238236">
        <ele>41.4</ele>
        <time>2017-07-26T17:37:40Z</time>
      </trkpt>
      <trkpt lat="60.151724919157" lon="21.592226519686">
        <ele>41.4</ele>
        <time>2017-07-26T17:37:41Z</time>
      </trkpt>
      <trkpt lat="60.151747801744" lon="21.592192153896">
        <ele>41.4</ele>
        <time>2017-07-26T17:37:42Z</time>
      </trkpt>
      <trkpt lat="60.151770181417" lon="21.592153680975">
        <ele>41.4</ele>
        <time>2017-07-26T17:37:43Z</time>
      </trkpt>
      <trkpt lat="60.151787699588" lon="21.592116213882">
        <ele>41.4</ele>
        <time>2017-07-26T17:37:44Z</time>
      </trkpt>
      <trkpt lat="60.151809576347" lon="21.592073717649">
        <ele>41.4</ele>
        <time>2017-07-26T17:37:45Z</time>
      </trkpt>
      <trkpt lat="60.151830028183" lon="21.592039854773">
        <ele>41.4</ele>
        <time>2017-07-26T17:37:46Z</time>
      </trkpt>
      <trkpt lat="60.151855928254" lon="21.591997861454">
        <ele>41.4</ele>
        <time>2017-07-26T17:37:47Z</time>
      </trkpt>
      <trkpt lat="60.151878643203" lon="21.591954107936">
        <ele>41.4</ele>
        <time>2017-07-26T17:37:48Z</time>
      </trkpt>
      <trkpt lat="60.151902028704" lon="21.591918652499">
        <ele>41.4</ele>
        <time>2017-07-26T17:37:49Z</time>
      </trkpt>
      <trkpt lat="60.151928934603" lon="21.591873390239">
        <ele>41.4</ele>
        <time>2017-07-26T17:37:50Z</time>
      </trkpt>
      <trkpt lat="60.151953661208" lon="21.591832738024">
        <ele>41.4</ele>
        <time>2017-07-26T17:37:51Z</time>
      </trkpt>
      <trkpt lat="60.151973693949" lon="21.591792421085">
        <ele>41.4</ele>
        <time>2017-07-26T17:37:52Z</time>
      </trkpt>
      <trkpt lat="60.151997750002" lon="21.591752523241">
        <ele>41.4</ele>
        <time>2017-07-26T17:37:53Z</time>
      </trkpt>
      <trkpt lat="60.152017531286" lon="21.591725114428">
        <ele>41.4</ele>
        <time>2017-07-26T17:37:54Z</time>
      </trkpt>
      <trkpt lat="60.152041168244" lon="21.591687395878">
        <ele>41.4</ele>
        <time>2017-07-26T17:37:55Z</time>
      </trkpt>
      <trkpt lat="60.152061536261" lon="21.591654874106">
        <ele>41.4</ele>
        <time>2017-07-26T17:37:56Z</time>
      </trkpt>
      <trkpt lat="60.152080646993" lon="21.591620340678">
        <ele>41.4</ele>
        <time>2017-07-26T17:37:57Z</time>
      </trkpt>
      <trkpt lat="60.152100512096" lon="21.591585723431">
        <ele>41.4</ele>
        <time>2017-07-26T17:37:58Z</time>
      </trkpt>
      <trkpt lat="60.152124568149" lon="21.591547669605">
        <ele>41.4</ele>
        <time>2017-07-26T17:37:59Z</time>
      </trkpt>
      <trkpt lat="60.152149546211" lon="21.591504167544">
        <ele>41.4</ele>
        <time>2017-07-26T17:38:00Z</time>
      </trkpt>
      <trkpt lat="60.152173518445" lon="21.591451613031">
        <ele>41.4</ele>
        <time>2017-07-26T17:38:01Z</time>
      </trkpt>
      <trkpt lat="60.152201011077" lon="21.591405428762">
        <ele>41.4</ele>
        <time>2017-07-26T17:38:02Z</time>
      </trkpt>
      <trkpt lat="60.152231688831" lon="21.591360585597">
        <ele>41.4</ele>
        <time>2017-07-26T17:38:03Z</time>
      </trkpt>
      <trkpt lat="60.152255409608" lon="21.591319011373">
        <ele>41.4</ele>
        <time>2017-07-26T17:38:04Z</time>
      </trkpt>
      <trkpt lat="60.152288182837" lon="21.591259416064">
        <ele>41.4</ele>
        <time>2017-07-26T17:38:05Z</time>
      </trkpt>
      <trkpt lat="60.15231307708" lon="21.591213231795">
        <ele>41.4</ele>
        <time>2017-07-26T17:38:06Z</time>
      </trkpt>
      <trkpt lat="60.152337971323" lon="21.591173082494">
        <ele>41.4</ele>
        <time>2017-07-26T17:38:07Z</time>
      </trkpt>
      <trkpt lat="60.152361608281" lon="21.591132681736">
        <ele>41.4</ele>
        <time>2017-07-26T17:38:08Z</time>
      </trkpt>
      <trkpt lat="60.15238097047" lon="21.591090269322">
        <ele>41.4</ele>
        <time>2017-07-26T17:38:09Z</time>
      </trkpt>
      <trkpt lat="60.152401338487" lon="21.591048611279">
        <ele>41.4</ele>
        <time>2017-07-26T17:38:10Z</time>
      </trkpt>
      <trkpt lat="60.15242707092" lon="21.590995218576">
        <ele>41.4</ele>
        <time>2017-07-26T17:38:11Z</time>
      </trkpt>
      <trkpt lat="60.152448947679" lon="21.590952470886">
        <ele>41.4</ele>
        <time>2017-07-26T17:38:12Z</time>
      </trkpt>
      <trkpt lat="60.152468561325" lon="21.59090938792">
        <ele>41.4</ele>
        <time>2017-07-26T17:38:13Z</time>
      </trkpt>
      <trkpt lat="60.152486330953" lon="21.590873010474">
        <ele>41.4</ele>
        <time>2017-07-26T17:38:14Z</time>
      </trkpt>
      <trkpt lat="60.152509464997" lon="21.590830681879">
        <ele>41.4</ele>
        <time>2017-07-26T17:38:15Z</time>
      </trkpt>
      <trkpt lat="60.152528911005" lon="21.590794639709">
        <ele>41.4</ele>
        <time>2017-07-26T17:38:16Z</time>
      </trkpt>
      <trkpt lat="60.15255196123" lon="21.590747784888">
        <ele>41.4</ele>
        <time>2017-07-26T17:38:17Z</time>
      </trkpt>
      <trkpt lat="60.15257375417" lon="21.590701684438">
        <ele>41.4</ele>
        <time>2017-07-26T17:38:18Z</time>
      </trkpt>
      <trkpt lat="60.152594876558" lon="21.590658098558">
        <ele>41.4</ele>
        <time>2017-07-26T17:38:19Z</time>
      </trkpt>
      <trkpt lat="60.152619519344" lon="21.590609148262">
        <ele>41.4</ele>
        <time>2017-07-26T17:38:20Z</time>
      </trkpt>
      <trkpt lat="60.152639384447" lon="21.590563886002">
        <ele>41.4</ele>
        <time>2017-07-26T17:38:21Z</time>
      </trkpt>
      <trkpt lat="60.15266008774" lon="21.590526083633">
        <ele>41.4</ele>
        <time>2017-07-26T17:38:22Z</time>
      </trkpt>
      <trkpt lat="60.152684311431" lon="21.59048274921">
        <ele>41.4</ele>
        <time>2017-07-26T17:38:23Z</time>
      </trkpt>
      <trkpt lat="60.152701075231" lon="21.590439247149">
        <ele>41.4</ele>
        <time>2017-07-26T17:38:24Z</time>
      </trkpt>
      <trkpt lat="60.152721527067" lon="21.59039222469">
        <ele>41.4</ele>
        <time>2017-07-26T17:38:25Z</time>
      </trkpt>
      <trkpt lat="60.152740134885" lon="21.59034444786">
        <ele>41.4</ele>
        <time>2017-07-26T17:38:26Z</time>
      </trkpt>
      <trkpt lat="60.152759916169" lon="21.590301783989">
        <ele>41.4</ele>
        <time>2017-07-26T17:38:27Z</time>
      </trkpt>
      <trkpt lat="60.152775674141" lon="21.59026398162">
        <ele>41.4</ele>
        <time>2017-07-26T17:38:28Z</time>
      </trkpt>
      <trkpt lat="60.152794030502" lon="21.590224921966">
        <ele>41.4</ele>
        <time>2017-07-26T17:38:29Z</time>
      </trkpt>
      <trkpt lat="60.152811548673" lon="21.590182090457">
        <ele>41.4</ele>
        <time>2017-07-26T17:38:30Z</time>
      </trkpt>
      <trkpt lat="60.152829737396" lon="21.590141689699">
        <ele>41.4</ele>
        <time>2017-07-26T17:38:31Z</time>
      </trkpt>
      <trkpt lat="60.15284616592" lon="21.590092907041">
        <ele>41.4</ele>
        <time>2017-07-26T17:38:32Z</time>
      </trkpt>
      <trkpt lat="60.152862762082" lon="21.590046387496">
        <ele>41.4</ele>
        <time>2017-07-26T17:38:33Z</time>
      </trkpt>
      <trkpt lat="60.152880783167" lon="21.59000749548">
        <ele>41.4</ele>
        <time>2017-07-26T17:38:34Z</time>
      </trkpt>
      <trkpt lat="60.152899893899" lon="21.58995133675">
        <ele>41.4</ele>
        <time>2017-07-26T17:38:35Z</time>
      </trkpt>
      <trkpt lat="60.152916992975" lon="21.589907331775">
        <ele>41.4</ele>
        <time>2017-07-26T17:38:36Z</time>
      </trkpt>
      <trkpt lat="60.152932248033" lon="21.589865086999">
        <ele>41.4</ele>
        <time>2017-07-26T17:38:37Z</time>
      </trkpt>
      <trkpt lat="60.152951526403" lon="21.589820914386">
        <ele>41.4</ele>
        <time>2017-07-26T17:38:38Z</time>
      </trkpt>
      <trkpt lat="60.152965272719" lon="21.589778501972">
        <ele>41.4</ele>
        <time>2017-07-26T17:38:39Z</time>
      </trkpt>
      <trkpt lat="60.152980946872" lon="21.589739358499">
        <ele>41.4</ele>
        <time>2017-07-26T17:38:40Z</time>
      </trkpt>
      <trkpt lat="60.152995028464" lon="21.589698706284">
        <ele>41.4</ele>
        <time>2017-07-26T17:38:41Z</time>
      </trkpt>
      <trkpt lat="60.153009864427" lon="21.589658892259">
        <ele>41.4</ele>
        <time>2017-07-26T17:38:42Z</time>
      </trkpt>
      <trkpt lat="60.153027047322" lon="21.589619162053">
        <ele>41.4</ele>
        <time>2017-07-26T17:38:43Z</time>
      </trkpt>
      <trkpt lat="60.153039452534" lon="21.589575659992">
        <ele>41.4</ele>
        <time>2017-07-26T17:38:44Z</time>
      </trkpt>
      <trkpt lat="60.153055378144" lon="21.589525200954">
        <ele>41.4</ele>
        <time>2017-07-26T17:38:45Z</time>
      </trkpt>
      <trkpt lat="60.153068873003" lon="21.589478178495">
        <ele>41.4</ele>
        <time>2017-07-26T17:38:46Z</time>
      </trkpt>
      <trkpt lat="60.153086139717" lon="21.589423779964">
        <ele>41.4</ele>
        <time>2017-07-26T17:38:47Z</time>
      </trkpt>
      <trkpt lat="60.153104076983" lon="21.589371476908">
        <ele>41.4</ele>
        <time>2017-07-26T17:38:48Z</time>
      </trkpt>
      <trkpt lat="60.153113045616" lon="21.589331495245">
        <ele>41.4</ele>
        <time>2017-07-26T17:38:49Z</time>
      </trkpt>
      <trkpt lat="60.153134000366" lon="21.589265194416">
        <ele>41.4</ele>
        <time>2017-07-26T17:38:50Z</time>
      </trkpt>
      <trkpt lat="60.153150764166" lon="21.589223536373">
        <ele>41.4</ele>
        <time>2017-07-26T17:38:51Z</time>
      </trkpt>
      <trkpt lat="60.153165683948" lon="21.58918690747">
        <ele>41.4</ele>
        <time>2017-07-26T17:38:52Z</time>
      </trkpt>
      <trkpt lat="60.153180016997" lon="21.589141226115">
        <ele>41.4</ele>
        <time>2017-07-26T17:38:53Z</time>
      </trkpt>
      <trkpt lat="60.153193260399" lon="21.589103759022">
        <ele>41.4</ele>
        <time>2017-07-26T17:38:54Z</time>
      </trkpt>
      <trkpt lat="60.153209521285" lon="21.589065202282">
        <ele>41.4</ele>
        <time>2017-07-26T17:38:55Z</time>
      </trkpt>
      <trkpt lat="60.153224357248" lon="21.589026477904">
        <ele>41.4</ele>
        <time>2017-07-26T17:38:56Z</time>
      </trkpt>
      <trkpt lat="60.153233158243" lon="21.58897819816">
        <ele>41.4</ele>
        <time>2017-07-26T17:38:57Z</time>
      </trkpt>
      <trkpt lat="60.153248748577" lon="21.588940228153">
        <ele>41.4</ele>
        <time>2017-07-26T17:38:58Z</time>
      </trkpt>
      <trkpt lat="60.153265763834" lon="21.588902928698">
        <ele>41.4</ele>
        <time>2017-07-26T17:38:59Z</time>
      </trkpt>
      <trkpt lat="60.153284790747" lon="21.588854397497">
        <ele>41.4</ele>
        <time>2017-07-26T17:39:00Z</time>
      </trkpt>
      <trkpt lat="60.153305577859" lon="21.588817181861">
        <ele>41.4</ele>
        <time>2017-07-26T17:39:01Z</time>
      </trkpt>
      <trkpt lat="60.153325442962" lon="21.588769656488">
        <ele>41.4</ele>
        <time>2017-07-26T17:39:02Z</time>
      </trkpt>
      <trkpt lat="60.153346146255" lon="21.588725232418">
        <ele>41.4</ele>
        <time>2017-07-26T17:39:03Z</time>
      </trkpt>
      <trkpt lat="60.15335159449" lon="21.588714922681">
        <ele>41.4</ele>
        <time>2017-07-26T17:39:04Z</time>
      </trkpt>
      <trkpt lat="60.153381853149" lon="21.588658428675">
        <ele>41.4</ele>
        <time>2017-07-26T17:39:05Z</time>
      </trkpt>
      <trkpt lat="60.153407082668" lon="21.588610484207">
        <ele>41.4</ele>
        <time>2017-07-26T17:39:06Z</time>
      </trkpt>
      <trkpt lat="60.153427618323" lon="21.588577627159">
        <ele>41.2</ele>
        <time>2017-07-26T17:39:07Z</time>
      </trkpt>
      <trkpt lat="60.153451506738" lon="21.588550050708">
        <ele>40.8</ele>
        <time>2017-07-26T17:39:08Z</time>
      </trkpt>
      <trkpt lat="60.153472629126" lon="21.588519959687">
        <ele>40.4</ele>
        <time>2017-07-26T17:39:09Z</time>
      </trkpt>
      <trkpt lat="60.153494757342" lon="21.588488862838">
        <ele>40.2</ele>
        <time>2017-07-26T17:39:10Z</time>
      </trkpt>
      <trkpt lat="60.153519986861" lon="21.588456089609">
        <ele>39.8</ele>
        <time>2017-07-26T17:39:11Z</time>
      </trkpt>
      <trkpt lat="60.153538343222" lon="21.588424489846">
        <ele>39.4</ele>
        <time>2017-07-26T17:39:12Z</time>
      </trkpt>
      <trkpt lat="60.153562734551" lon="21.588396745757">
        <ele>39.4</ele>
        <time>2017-07-26T17:39:13Z</time>
      </trkpt>
      <trkpt lat="60.153586622966" lon="21.588374282265">
        <ele>39.4</ele>
        <time>2017-07-26T17:39:14Z</time>
      </trkpt>
      <trkpt lat="60.153612774494" lon="21.588341425217">
        <ele>39.4</ele>
        <time>2017-07-26T17:39:15Z</time>
      </trkpt>
      <trkpt lat="60.153634567434" lon="21.588316614793">
        <ele>39.4</ele>
        <time>2017-07-26T17:39:16Z</time>
      </trkpt>
      <trkpt lat="60.153658707306" lon="21.588291469093">
        <ele>39.4</ele>
        <time>2017-07-26T17:39:17Z</time>
      </trkpt>
      <trkpt lat="60.153680584065" lon="21.588260456063">
        <ele>39.4</ele>
        <time>2017-07-26T17:39:18Z</time>
      </trkpt>
      <trkpt lat="60.153703215195" lon="21.588237322019">
        <ele>39.4</ele>
        <time>2017-07-26T17:39:19Z</time>
      </trkpt>
      <trkpt lat="60.153729701999" lon="21.588213349785">
        <ele>39.4</ele>
        <time>2017-07-26T17:39:20Z</time>
      </trkpt>
      <trkpt lat="60.153752165491" lon="21.588192059759">
        <ele>39.4</ele>
        <time>2017-07-26T17:39:21Z</time>
      </trkpt>
      <trkpt lat="60.153775383354" lon="21.588167416973">
        <ele>39.4</ele>
        <time>2017-07-26T17:39:22Z</time>
      </trkpt>
      <trkpt lat="60.153803462719" lon="21.588143947653">
        <ele>39.4</ele>
        <time>2017-07-26T17:39:23Z</time>
      </trkpt>
      <trkpt lat="60.153828943695" lon="21.588121148885">
        <ele>39.4</ele>
        <time>2017-07-26T17:39:24Z</time>
      </trkpt>
      <trkpt lat="60.153858615621" lon="21.588100697049">
        <ele>39.4</ele>
        <time>2017-07-26T17:39:25Z</time>
      </trkpt>
      <trkpt lat="60.15388384514" lon="21.58808049667">
        <ele>39.4</ele>
        <time>2017-07-26T17:39:26Z</time>
      </trkpt>
      <trkpt lat="60.153909745211" lon="21.588064822517">
        <ele>39.4</ele>
        <time>2017-07-26T17:39:27Z</time>
      </trkpt>
      <trkpt lat="60.153933633626" lon="21.588052417305">
        <ele>39.4</ele>
        <time>2017-07-26T17:39:28Z</time>
      </trkpt>
      <trkpt lat="60.153961880629" lon="21.58803104346">
        <ele>39.4</ele>
        <time>2017-07-26T17:39:29Z</time>
      </trkpt>
      <trkpt lat="60.153990882003" lon="21.588003634647">
        <ele>39.4</ele>
        <time>2017-07-26T17:39:30Z</time>
      </trkpt>
      <trkpt lat="60.154018877549" lon="21.587984607734">
        <ele>39.4</ele>
        <time>2017-07-26T17:39:31Z</time>
      </trkpt>
      <trkpt lat="60.154048465656" lon="21.58796147369">
        <ele>39.4</ele>
        <time>2017-07-26T17:39:32Z</time>
      </trkpt>
      <trkpt lat="60.15407662884" lon="21.587943452605">
        <ele>39.4</ele>
        <time>2017-07-26T17:39:33Z</time>
      </trkpt>
      <trkpt lat="60.154100181979" lon="21.587928281366">
        <ele>39.4</ele>
        <time>2017-07-26T17:39:34Z</time>
      </trkpt>
      <trkpt lat="60.154134044855" lon="21.587906069331">
        <ele>39.4</ele>
        <time>2017-07-26T17:39:35Z</time>
      </trkpt>
      <trkpt lat="60.154163297686" lon="21.587889305531">
        <ele>39.4</ele>
        <time>2017-07-26T17:39:36Z</time>
      </trkpt>
      <trkpt lat="60.154189365395" lon="21.587872122636">
        <ele>39.4</ele>
        <time>2017-07-26T17:39:37Z</time>
      </trkpt>
      <trkpt lat="60.154214175819" lon="21.587853095723">
        <ele>39.4</ele>
        <time>2017-07-26T17:39:38Z</time>
      </trkpt>
      <trkpt lat="60.154235801121" lon="21.587841361063">
        <ele>39.4</ele>
        <time>2017-07-26T17:39:39Z</time>
      </trkpt>
      <trkpt lat="60.154260443907" lon="21.587823675254">
        <ele>39.4</ele>
        <time>2017-07-26T17:39:40Z</time>
      </trkpt>
      <trkpt lat="60.154286343978" lon="21.587807749644">
        <ele>39.4</ele>
        <time>2017-07-26T17:39:41Z</time>
      </trkpt>
      <trkpt lat="60.154312411687" lon="21.587788471274">
        <ele>39.6</ele>
        <time>2017-07-26T17:39:42Z</time>
      </trkpt>
      <trkpt lat="60.154336719197" lon="21.587764582859">
        <ele>39.4</ele>
        <time>2017-07-26T17:39:43Z</time>
      </trkpt>
      <trkpt lat="60.154355913748" lon="21.587745472127">
        <ele>39.4</ele>
        <time>2017-07-26T17:39:44Z</time>
      </trkpt>
      <trkpt lat="60.154386507683" lon="21.587723595368">
        <ele>39.4</ele>
        <time>2017-07-26T17:39:45Z</time>
      </trkpt>
      <trkpt lat="60.15441106665" lon="21.587698701125">
        <ele>39.4</ele>
        <time>2017-07-26T17:39:46Z</time>
      </trkpt>
      <trkpt lat="60.154432356676" lon="21.587679758031">
        <ele>39.4</ele>
        <time>2017-07-26T17:39:47Z</time>
      </trkpt>
      <trkpt lat="60.154467141561" lon="21.58764966701">
        <ele>39.4</ele>
        <time>2017-07-26T17:39:48Z</time>
      </trkpt>
      <trkpt lat="60.154485330284" lon="21.587625946233">
        <ele>39.4</ele>
        <time>2017-07-26T17:39:49Z</time>
      </trkpt>
      <trkpt lat="60.154509889251" lon="21.587597112497">
        <ele>39.4</ele>
        <time>2017-07-26T17:39:50Z</time>
      </trkpt>
      <trkpt lat="60.154533610028" lon="21.58756836258">
        <ele>39.4</ele>
        <time>2017-07-26T17:39:51Z</time>
      </trkpt>
      <trkpt lat="60.154555402968" lon="21.587536762817">
        <ele>39.4</ele>
        <time>2017-07-26T17:39:52Z</time>
      </trkpt>
      <trkpt lat="60.154577615003" lon="21.587504995416">
        <ele>39.4</ele>
        <time>2017-07-26T17:39:53Z</time>
      </trkpt>
      <trkpt lat="60.154598150658" lon="21.58748035263">
        <ele>39.4</ele>
        <time>2017-07-26T17:39:54Z</time>
      </trkpt>
      <trkpt lat="60.154618770132" lon="21.587449758695">
        <ele>39.4</ele>
        <time>2017-07-26T17:39:55Z</time>
      </trkpt>
      <trkpt lat="60.154640311615" lon="21.587419919131">
        <ele>39.6</ele>
        <time>2017-07-26T17:39:56Z</time>
      </trkpt>
      <trkpt lat="60.154662607469" lon="21.587386391531">
        <ele>40</ele>
        <time>2017-07-26T17:39:57Z</time>
      </trkpt>
      <trkpt lat="60.154682556391" lon="21.587350516999">
        <ele>40.6</ele>
        <time>2017-07-26T17:39:58Z</time>
      </trkpt>
      <trkpt lat="60.154703678779" lon="21.587312044078">
        <ele>41</ele>
        <time>2017-07-26T17:39:59Z</time>
      </trkpt>
      <trkpt lat="60.154726645185" lon="21.587274074071">
        <ele>41.4</ele>
        <time>2017-07-26T17:40:00Z</time>
      </trkpt>
      <trkpt lat="60.154751120333" lon="21.587230907286">
        <ele>41.4</ele>
        <time>2017-07-26T17:40:01Z</time>
      </trkpt>
      <trkpt lat="60.154771739807" lon="21.587185728845">
        <ele>41.4</ele>
        <time>2017-07-26T17:40:02Z</time>
      </trkpt>
      <trkpt lat="60.154794370937" lon="21.587139376938">
        <ele>41.4</ele>
        <time>2017-07-26T17:40:03Z</time>
      </trkpt>
      <trkpt lat="60.154814319859" lon="21.587100484922">
        <ele>41.4</ele>
        <time>2017-07-26T17:40:04Z</time>
      </trkpt>
      <trkpt lat="60.154840471387" lon="21.587052959549">
        <ele>41.4</ele>
        <time>2017-07-26T17:40:05Z</time>
      </trkpt>
      <trkpt lat="60.154860001214" lon="21.58700426071">
        <ele>41.4</ele>
        <time>2017-07-26T17:40:06Z</time>
      </trkpt>
      <trkpt lat="60.154887242389" lon="21.586972660947">
        <ele>41.4</ele>
        <time>2017-07-26T17:40:07Z</time>
      </trkpt>
      <trkpt lat="60.154904592922" lon="21.586935696768">
        <ele>41.4</ele>
        <time>2017-07-26T17:40:08Z</time>
      </trkpt>
      <trkpt lat="60.154923619835" lon="21.586898397313">
        <ele>41.4</ele>
        <time>2017-07-26T17:40:09Z</time>
      </trkpt>
      <trkpt lat="60.154937701427" lon="21.586846513352">
        <ele>41.4</ele>
        <time>2017-07-26T17:40:10Z</time>
      </trkpt>
      <trkpt lat="60.154953962313" lon="21.586795467581">
        <ele>41.4</ele>
        <time>2017-07-26T17:40:11Z</time>
      </trkpt>
      <trkpt lat="60.154968630638" lon="21.586748864217">
        <ele>41.4</ele>
        <time>2017-07-26T17:40:12Z</time>
      </trkpt>
      <trkpt lat="60.154984472429" lon="21.586707038536">
        <ele>41.4</ele>
        <time>2017-07-26T17:40:13Z</time>
      </trkpt>
      <trkpt lat="60.155001571505" lon="21.586663201199">
        <ele>41.4</ele>
        <time>2017-07-26T17:40:14Z</time>
      </trkpt>
      <trkpt lat="60.155017161839" lon="21.586614418541">
        <ele>41.4</ele>
        <time>2017-07-26T17:40:15Z</time>
      </trkpt>
      <trkpt lat="60.155026884843" lon="21.586568150453">
        <ele>41.4</ele>
        <time>2017-07-26T17:40:16Z</time>
      </trkpt>
      <trkpt lat="60.155044067738" lon="21.586515009207">
        <ele>41.4</ele>
        <time>2017-07-26T17:40:17Z</time>
      </trkpt>
      <trkpt lat="60.155060915357" lon="21.586470249861">
        <ele>41.4</ele>
        <time>2017-07-26T17:40:18Z</time>
      </trkpt>
      <trkpt lat="60.155074494035" lon="21.5864267478">
        <ele>41.4</ele>
        <time>2017-07-26T17:40:19Z</time>
      </trkpt>
      <trkpt lat="60.155089329998" lon="21.586375450572">
        <ele>41.4</ele>
        <time>2017-07-26T17:40:20Z</time>
      </trkpt>
      <trkpt lat="60.155105590884" lon="21.586328847208">
        <ele>41.4</ele>
        <time>2017-07-26T17:40:21Z</time>
      </trkpt>
      <trkpt lat="60.155117996096" lon="21.58627754998">
        <ele>41.4</ele>
        <time>2017-07-26T17:40:22Z</time>
      </trkpt>
      <trkpt lat="60.155139872855" lon="21.586222648535">
        <ele>41.4</ele>
        <time>2017-07-26T17:40:23Z</time>
      </trkpt>
      <trkpt lat="60.155153451533" lon="21.586177050999">
        <ele>41.4</ele>
        <time>2017-07-26T17:40:24Z</time>
      </trkpt>
      <trkpt lat="60.15517381955" lon="21.586115695491">
        <ele>41.4</ele>
        <time>2017-07-26T17:40:25Z</time>
      </trkpt>
      <trkpt lat="60.155191086264" lon="21.586059285304">
        <ele>41.4</ele>
        <time>2017-07-26T17:40:26Z</time>
      </trkpt>
      <trkpt lat="60.15520902353" lon="21.585999941452">
        <ele>41.4</ele>
        <time>2017-07-26T17:40:27Z</time>
      </trkpt>
      <trkpt lat="60.155226793158" lon="21.585947638396">
        <ele>41.4</ele>
        <time>2017-07-26T17:40:28Z</time>
      </trkpt>
      <trkpt lat="60.155245820071" lon="21.585894580969">
        <ele>41.4</ele>
        <time>2017-07-26T17:40:29Z</time>
      </trkpt>
      <trkpt lat="60.155267361554" lon="21.585839344248">
        <ele>41.4</ele>
        <time>2017-07-26T17:40:30Z</time>
      </trkpt>
      <trkpt lat="60.155290663236" lon="21.585791651237">
        <ele>41.4</ele>
        <time>2017-07-26T17:40:31Z</time>
      </trkpt>
      <trkpt lat="60.155312204719" lon="21.585738174715">
        <ele>41.4</ele>
        <time>2017-07-26T17:40:32Z</time>
      </trkpt>
      <trkpt lat="60.155336596048" lon="21.585684865831">
        <ele>41.4</ele>
        <time>2017-07-26T17:40:33Z</time>
      </trkpt>
      <trkpt lat="60.155360065368" lon="21.585642621055">
        <ele>41.4</ele>
        <time>2017-07-26T17:40:34Z</time>
      </trkpt>
      <trkpt lat="60.155389821113" lon="21.585583025746">
        <ele>41.4</ele>
        <time>2017-07-26T17:40:35Z</time>
      </trkpt>
      <trkpt lat="60.155417062288" lon="21.585536170925">
        <ele>41.4</ele>
        <time>2017-07-26T17:40:36Z</time>
      </trkpt>
      <trkpt lat="60.155446063662" lon="21.585489232285">
        <ele>41.4</ele>
        <time>2017-07-26T17:40:37Z</time>
      </trkpt>
      <trkpt lat="60.155475903226" lon="21.585436426315">
        <ele>41.4</ele>
        <time>2017-07-26T17:40:38Z</time>
      </trkpt>
      <trkpt lat="60.155506748618" lon="21.585389320037">
        <ele>41.4</ele>
        <time>2017-07-26T17:40:39Z</time>
      </trkpt>
      <trkpt lat="60.155538851295" lon="21.585337519895">
        <ele>41.4</ele>
        <time>2017-07-26T17:40:40Z</time>
      </trkpt>
      <trkpt lat="60.155576486026" lon="21.585284965382">
        <ele>41.4</ele>
        <time>2017-07-26T17:40:41Z</time>
      </trkpt>
      <trkpt lat="60.155613617843" lon="21.585238110561">
        <ele>41.4</ele>
        <time>2017-07-26T17:40:42Z</time>
      </trkpt>
      <trkpt lat="60.155651839307" lon="21.585196871613">
        <ele>41.4</ele>
        <time>2017-07-26T17:40:43Z</time>
      </trkpt>
      <trkpt lat="60.155687043287" lon="21.585159739796">
        <ele>41.4</ele>
        <time>2017-07-26T17:40:44Z</time>
      </trkpt>
      <trkpt lat="60.155722582543" lon="21.585117411201">
        <ele>41.4</ele>
        <time>2017-07-26T17:40:45Z</time>
      </trkpt>
      <trkpt lat="60.155756026324" lon="21.585081536669">
        <ele>41.4</ele>
        <time>2017-07-26T17:40:46Z</time>
      </trkpt>
      <trkpt lat="60.155790895028" lon="21.585053122028">
        <ele>41.4</ele>
        <time>2017-07-26T17:40:47Z</time>
      </trkpt>
      <trkpt lat="60.155825428456" lon="21.585024875025">
        <ele>41.4</ele>
        <time>2017-07-26T17:40:48Z</time>
      </trkpt>
      <trkpt lat="60.155852082898" lon="21.58500350118">
        <ele>41.4</ele>
        <time>2017-07-26T17:40:49Z</time>
      </trkpt>
      <trkpt lat="60.155873540562" lon="21.584974415987">
        <ele>41.4</ele>
        <time>2017-07-26T17:40:50Z</time>
      </trkpt>
      <trkpt lat="60.155906146153" lon="21.584951617219">
        <ele>41.4</ele>
        <time>2017-07-26T17:40:51Z</time>
      </trkpt>
      <trkpt lat="60.155931375672" lon="21.584930327193">
        <ele>41.4</ele>
        <time>2017-07-26T17:40:52Z</time>
      </trkpt>
      <trkpt lat="60.155961801969" lon="21.584909540081">
        <ele>41.4</ele>
        <time>2017-07-26T17:40:53Z</time>
      </trkpt>
      <trkpt lat="60.15598602566" lon="21.584887411865">
        <ele>41.4</ele>
        <time>2017-07-26T17:40:54Z</time>
      </trkpt>
      <trkpt lat="60.156009914075" lon="21.58487190535">
        <ele>41.4</ele>
        <time>2017-07-26T17:40:55Z</time>
      </trkpt>
      <trkpt lat="60.156036400879" lon="21.584850447686">
        <ele>41.4</ele>
        <time>2017-07-26T17:40:56Z</time>
      </trkpt>
      <trkpt lat="60.156056349801" lon="21.584831756049">
        <ele>41.4</ele>
        <time>2017-07-26T17:40:57Z</time>
      </trkpt>
      <trkpt lat="60.156075292895" lon="21.584814405516">
        <ele>41.4</ele>
        <time>2017-07-26T17:40:58Z</time>
      </trkpt>
      <trkpt lat="60.156093900713" lon="21.584802838494">
        <ele>41.4</ele>
        <time>2017-07-26T17:40:59Z</time>
      </trkpt>
      <trkpt lat="60.156113849635" lon="21.584790517101">
        <ele>41.4</ele>
        <time>2017-07-26T17:41:00Z</time>
      </trkpt>
      <trkpt lat="60.156131535444" lon="21.584771825464">
        <ele>41.4</ele>
        <time>2017-07-26T17:41:01Z</time>
      </trkpt>
      <trkpt lat="60.156150897633" lon="21.584756067492">
        <ele>41.4</ele>
        <time>2017-07-26T17:41:02Z</time>
      </trkpt>
      <trkpt lat="60.156171684745" lon="21.584736286208">
        <ele>41.4</ele>
        <time>2017-07-26T17:41:03Z</time>
      </trkpt>
      <trkpt lat="60.156184509052" lon="21.584717175476">
        <ele>41.4</ele>
        <time>2017-07-26T17:41:04Z</time>
      </trkpt>
      <trkpt lat="60.156205882897" lon="21.584696639821">
        <ele>41.4</ele>
        <time>2017-07-26T17:41:05Z</time>
      </trkpt>
      <trkpt lat="60.156227340561" lon="21.584683228781">
        <ele>41.4</ele>
        <time>2017-07-26T17:41:06Z</time>
      </trkpt>
      <trkpt lat="60.156246116017" lon="21.584660932927">
        <ele>41.4</ele>
        <time>2017-07-26T17:41:07Z</time>
      </trkpt>
      <trkpt lat="60.156264472378" lon="21.584648527715">
        <ele>41.4</ele>
        <time>2017-07-26T17:41:08Z</time>
      </trkpt>
      <trkpt lat="60.156284672757" lon="21.584623214377">
        <ele>41.4</ele>
        <time>2017-07-26T17:41:09Z</time>
      </trkpt>
      <trkpt lat="60.156301520376" lon="21.584605612387">
        <ele>41.4</ele>
        <time>2017-07-26T17:41:10Z</time>
      </trkpt>
      <trkpt lat="60.156328426275" lon="21.584580969601">
        <ele>41.4</ele>
        <time>2017-07-26T17:41:11Z</time>
      </trkpt>
      <trkpt lat="60.156353488156" lon="21.584558003195">
        <ele>41.4</ele>
        <time>2017-07-26T17:41:12Z</time>
      </trkpt>
      <trkpt lat="60.156373437078" lon="21.584531767848">
        <ele>41.4</ele>
        <time>2017-07-26T17:41:13Z</time>
      </trkpt>
      <trkpt lat="60.156394727104" lon="21.584502012103">
        <ele>41.4</ele>
        <time>2017-07-26T17:41:14Z</time>
      </trkpt>
      <trkpt lat="60.156419705166" lon="21.584473681281">
        <ele>41.4</ele>
        <time>2017-07-26T17:41:15Z</time>
      </trkpt>
      <trkpt lat="60.156441665744" lon="21.584442500613">
        <ele>41.4</ele>
        <time>2017-07-26T17:41:16Z</time>
      </trkpt>
      <trkpt lat="60.156467565815" lon="21.584416265266">
        <ele>41.4</ele>
        <time>2017-07-26T17:41:17Z</time>
      </trkpt>
      <trkpt lat="60.156491202773" lon="21.584381983295">
        <ele>41.4</ele>
        <time>2017-07-26T17:41:18Z</time>
      </trkpt>
      <trkpt lat="60.156513498627" lon="21.584348707152">
        <ele>41.4</ele>
        <time>2017-07-26T17:41:19Z</time>
      </trkpt>
      <trkpt lat="60.156537806137" lon="21.584305037453">
        <ele>41.4</ele>
        <time>2017-07-26T17:41:20Z</time>
      </trkpt>
      <trkpt lat="60.156562365104" lon="21.584265642523">
        <ele>41.8</ele>
        <time>2017-07-26T17:41:21Z</time>
      </trkpt>
      <trkpt lat="60.156583403673" lon="21.584224990308">
        <ele>42.2</ele>
        <time>2017-07-26T17:41:22Z</time>
      </trkpt>
      <trkpt lat="60.156607795002" lon="21.584175453279">
        <ele>42.4</ele>
        <time>2017-07-26T17:41:23Z</time>
      </trkpt>
      <trkpt lat="60.15662975558" lon="21.584132873227">
        <ele>42.6</ele>
        <time>2017-07-26T17:41:24Z</time>
      </trkpt>
      <trkpt lat="60.156655068918" lon="21.584082833284">
        <ele>43</ele>
        <time>2017-07-26T17:41:25Z</time>
      </trkpt>
      <trkpt lat="60.15667417965" lon="21.584030446409">
        <ele>43.2</ele>
        <time>2017-07-26T17:41:26Z</time>
      </trkpt>
      <trkpt lat="60.156696056409" lon="21.583978310991">
        <ele>43.4</ele>
        <time>2017-07-26T17:41:27Z</time>
      </trkpt>
      <trkpt lat="60.156717011159" lon="21.583930701799">
        <ele>43.4</ele>
        <time>2017-07-26T17:41:28Z</time>
      </trkpt>
      <trkpt lat="60.15674039666" lon="21.583873872517">
        <ele>43.4</ele>
        <time>2017-07-26T17:41:29Z</time>
      </trkpt>
      <trkpt lat="60.156764117437" lon="21.583808577516">
        <ele>43.4</ele>
        <time>2017-07-26T17:41:30Z</time>
      </trkpt>
      <trkpt lat="60.156786580929" lon="21.583744120705">
        <ele>43.4</ele>
        <time>2017-07-26T17:41:31Z</time>
      </trkpt>
      <trkpt lat="60.156808792964" lon="21.583675975858">
        <ele>43.4</ele>
        <time>2017-07-26T17:41:32Z</time>
      </trkpt>
      <trkpt lat="60.156828238972" lon="21.583609255934">
        <ele>43.4</ele>
        <time>2017-07-26T17:41:33Z</time>
      </trkpt>
      <trkpt lat="60.156844080763" lon="21.5835517561">
        <ele>43.4</ele>
        <time>2017-07-26T17:41:34Z</time>
      </trkpt>
      <trkpt lat="60.156866711893" lon="21.583478414475">
        <ele>43.4</ele>
        <time>2017-07-26T17:41:35Z</time>
      </trkpt>
      <trkpt lat="60.156885235892" lon="21.583411610732">
        <ele>43.4</ele>
        <time>2017-07-26T17:41:36Z</time>
      </trkpt>
      <trkpt lat="60.15690300552" lon="21.58334304679">
        <ele>43.4</ele>
        <time>2017-07-26T17:41:37Z</time>
      </trkpt>
      <trkpt lat="60.156919266406" lon="21.583268783156">
        <ele>43.4</ele>
        <time>2017-07-26T17:41:38Z</time>
      </trkpt>
      <trkpt lat="60.156934353826" lon="21.583196614997">
        <ele>43</ele>
        <time>2017-07-26T17:41:39Z</time>
      </trkpt>
      <trkpt lat="60.156952710187" lon="21.583119333879">
        <ele>42.6</ele>
        <time>2017-07-26T17:41:40Z</time>
      </trkpt>
      <trkpt lat="60.156970228358" lon="21.583030234282">
        <ele>42.2</ele>
        <time>2017-07-26T17:41:41Z</time>
      </trkpt>
      <trkpt lat="60.156986070149" lon="21.582954378087">
        <ele>41.8</ele>
        <time>2017-07-26T17:41:42Z</time>
      </trkpt>
      <trkpt lat="60.157003420682" lon="21.5828644403">
        <ele>41.4</ele>
        <time>2017-07-26T17:41:43Z</time>
      </trkpt>
      <trkpt lat="60.157019262473" lon="21.582787997372">
        <ele>41.4</ele>
        <time>2017-07-26T17:41:44Z</time>
      </trkpt>
      <trkpt lat="60.157037283558" lon="21.582703088725">
        <ele>41.4</ele>
        <time>2017-07-26T17:41:45Z</time>
      </trkpt>
      <trkpt lat="60.157051616607" lon="21.582630920566">
        <ele>41.4</ele>
        <time>2017-07-26T17:41:46Z</time>
      </trkpt>
      <trkpt lat="60.157067793674" lon="21.582553220353">
        <ele>41.4</ele>
        <time>2017-07-26T17:41:47Z</time>
      </trkpt>
      <trkpt lat="60.157083551646" lon="21.582481303651">
        <ele>41.4</ele>
        <time>2017-07-26T17:41:48Z</time>
      </trkpt>
      <trkpt lat="60.15709495103" lon="21.582416260107">
        <ele>41.4</ele>
        <time>2017-07-26T17:41:49Z</time>
      </trkpt>
      <trkpt lat="60.157110792821" lon="21.582346606518">
        <ele>41.4</ele>
        <time>2017-07-26T17:41:50Z</time>
      </trkpt>
      <trkpt lat="60.157125209689" lon="21.582272175246">
        <ele>41.4</ele>
        <time>2017-07-26T17:41:51Z</time>
      </trkpt>
      <trkpt lat="60.157137363444" lon="21.582208053711">
        <ele>41.4</ele>
        <time>2017-07-26T17:41:52Z</time>
      </trkpt>
      <trkpt lat="60.157152702321" lon="21.582135047362">
        <ele>41.4</ele>
        <time>2017-07-26T17:41:53Z</time>
      </trkpt>
      <trkpt lat="60.15716619718" lon="21.58207151256">
        <ele>41.4</ele>
        <time>2017-07-26T17:41:54Z</time>
      </trkpt>
      <trkpt lat="60.157185727007" lon="21.581996578374">
        <ele>41.2</ele>
        <time>2017-07-26T17:41:55Z</time>
      </trkpt>
      <trkpt lat="60.157208358137" lon="21.58193153483">
        <ele>41</ele>
        <time>2017-07-26T17:41:56Z</time>
      </trkpt>
      <trkpt lat="60.157227971783" lon="21.581871771883">
        <ele>40.6</ele>
        <time>2017-07-26T17:41:57Z</time>
      </trkpt>
      <trkpt lat="60.15724582523" lon="21.581818127723">
        <ele>40.4</ele>
        <time>2017-07-26T17:41:58Z</time>
      </trkpt>
      <trkpt lat="60.157267282894" lon="21.581751743075">
        <ele>40</ele>
        <time>2017-07-26T17:41:59Z</time>
      </trkpt>
      <trkpt lat="60.157285890712" lon="21.581691980128">
        <ele>39.6</ele>
        <time>2017-07-26T17:42:00Z</time>
      </trkpt>
      <trkpt lat="60.157306761643" lon="21.581647220782">
        <ele>39.4</ele>
        <time>2017-07-26T17:42:01Z</time>
      </trkpt>
      <trkpt lat="60.157324363633" lon="21.581595253002">
        <ele>39.4</ele>
        <time>2017-07-26T17:42:02Z</time>
      </trkpt>
      <trkpt lat="60.157346910944" lon="21.581543201403">
        <ele>39.4</ele>
        <time>2017-07-26T17:42:03Z</time>
      </trkpt>
      <trkpt lat="60.157361830726" lon="21.581499531704">
        <ele>39.4</ele>
        <time>2017-07-26T17:42:04Z</time>
      </trkpt>
      <trkpt lat="60.157386222055" lon="21.581449910856">
        <ele>39.4</ele>
        <time>2017-07-26T17:42:05Z</time>
      </trkpt>
      <trkpt lat="60.157406506253" lon="21.581407498442">
        <ele>39.4</ele>
        <time>2017-07-26T17:42:06Z</time>
      </trkpt>
      <trkpt lat="60.157422348044" lon="21.581359721612">
        <ele>39.4</ele>
        <time>2017-07-26T17:42:07Z</time>
      </trkpt>
      <trkpt lat="60.157441374957" lon="21.581321164872">
        <ele>39.4</ele>
        <time>2017-07-26T17:42:08Z</time>
      </trkpt>
      <trkpt lat="60.157456462377" lon="21.581283362503">
        <ele>39.4</ele>
        <time>2017-07-26T17:42:09Z</time>
      </trkpt>
      <trkpt lat="60.157471130702" lon="21.581245643953">
        <ele>39.4</ele>
        <time>2017-07-26T17:42:10Z</time>
      </trkpt>
      <trkpt lat="60.157487978321" lon="21.581207254851">
        <ele>39.4</ele>
        <time>2017-07-26T17:42:11Z</time>
      </trkpt>
      <trkpt lat="60.157507256691" lon="21.58117800202">
        <ele>39.4</ele>
        <time>2017-07-26T17:42:12Z</time>
      </trkpt>
      <trkpt lat="60.157519494265" lon="21.581136511615">
        <ele>39.4</ele>
        <time>2017-07-26T17:42:13Z</time>
      </trkpt>
      <trkpt lat="60.157533575857" lon="21.58110507949">
        <ele>39.4</ele>
        <time>2017-07-26T17:42:14Z</time>
      </trkpt>
      <trkpt lat="60.157554111512" lon="21.581070965157">
        <ele>39.4</ele>
        <time>2017-07-26T17:42:15Z</time>
      </trkpt>
      <trkpt lat="60.157566265267" lon="21.581034084797">
        <ele>39.4</ele>
        <time>2017-07-26T17:42:16Z</time>
      </trkpt>
      <trkpt lat="60.15758026304" lon="21.580997372075">
        <ele>39.4</ele>
        <time>2017-07-26T17:42:17Z</time>
      </trkpt>
      <trkpt lat="60.157590656596" lon="21.580960156439">
        <ele>39.4</ele>
        <time>2017-07-26T17:42:18Z</time>
      </trkpt>
      <trkpt lat="60.157603899998" lon="21.580931825617">
        <ele>39.4</ele>
        <time>2017-07-26T17:42:19Z</time>
      </trkpt>
      <trkpt lat="60.157619071237" lon="21.580894777619">
        <ele>39.4</ele>
        <time>2017-07-26T17:42:20Z</time>
      </trkpt>
      <trkpt lat="60.157629213336" lon="21.58085781344">
        <ele>39.4</ele>
        <time>2017-07-26T17:42:21Z</time>
      </trkpt>
      <trkpt lat="60.157641786186" lon="21.580816993587">
        <ele>39.4</ele>
        <time>2017-07-26T17:42:22Z</time>
      </trkpt>
      <trkpt lat="60.157655448683" lon="21.580773659164">
        <ele>39.4</ele>
        <time>2017-07-26T17:42:23Z</time>
      </trkpt>
      <trkpt lat="60.157670200827" lon="21.580738203727">
        <ele>39.4</ele>
        <time>2017-07-26T17:42:24Z</time>
      </trkpt>
      <trkpt lat="60.157687048446" lon="21.580696545684">
        <ele>39.4</ele>
        <time>2017-07-26T17:42:25Z</time>
      </trkpt>
      <trkpt lat="60.157697106726" lon="21.580648685035">
        <ele>39.4</ele>
        <time>2017-07-26T17:42:26Z</time>
      </trkpt>
      <trkpt lat="60.157715295449" lon="21.580604931517">
        <ele>39.4</ele>
        <time>2017-07-26T17:42:27Z</time>
      </trkpt>
      <trkpt lat="60.157722839159" lon="21.580575175772">
        <ele>39.4</ele>
        <time>2017-07-26T17:42:28Z</time>
      </trkpt>
      <trkpt lat="60.157737423665" lon="21.580517005386">
        <ele>39.4</ele>
        <time>2017-07-26T17:42:29Z</time>
      </trkpt>
      <trkpt lat="60.15775041561" lon="21.580464283235">
        <ele>39.8</ele>
        <time>2017-07-26T17:42:30Z</time>
      </trkpt>
      <trkpt lat="60.157758629872" lon="21.580418015147">
        <ele>40.2</ele>
        <time>2017-07-26T17:42:31Z</time>
      </trkpt>
      <trkpt lat="60.15776466484" lon="21.580380631873">
        <ele>40.6</ele>
        <time>2017-07-26T17:42:32Z</time>
      </trkpt>
      <trkpt lat="60.15776885579" lon="21.580342494228">
        <ele>41</ele>
        <time>2017-07-26T17:42:33Z</time>
      </trkpt>
      <trkpt lat="60.157776231862" lon="21.580307709343">
        <ele>41.4</ele>
        <time>2017-07-26T17:42:34Z</time>
      </trkpt>
      <trkpt lat="60.15778394321" lon="21.580262447083">
        <ele>41.4</ele>
        <time>2017-07-26T17:42:35Z</time>
      </trkpt>
      <trkpt lat="60.157791738377" lon="21.580217939194">
        <ele>41.4</ele>
        <time>2017-07-26T17:42:36Z</time>
      </trkpt>
      <trkpt lat="60.157796767517" lon="21.580184327775">
        <ele>41.4</ele>
        <time>2017-07-26T17:42:37Z</time>
      </trkpt>
      <trkpt lat="60.157805400874" lon="21.580139400791">
        <ele>41.4</ele>
        <time>2017-07-26T17:42:38Z</time>
      </trkpt>
      <trkpt lat="60.157812525489" lon="21.580100173499">
        <ele>41.4</ele>
        <time>2017-07-26T17:42:39Z</time>
      </trkpt>
      <trkpt lat="60.157824092511" lon="21.580065137157">
        <ele>41.4</ele>
        <time>2017-07-26T17:42:40Z</time>
      </trkpt>
      <trkpt lat="60.15783255823" lon="21.580019539621">
        <ele>41.4</ele>
        <time>2017-07-26T17:42:41Z</time>
      </trkpt>
      <trkpt lat="60.157841359225" lon="21.579986012021">
        <ele>41.4</ele>
        <time>2017-07-26T17:42:42Z</time>
      </trkpt>
      <trkpt lat="60.157849154392" lon="21.57994250996">
        <ele>41.6</ele>
        <time>2017-07-26T17:42:43Z</time>
      </trkpt>
      <trkpt lat="60.157856279007" lon="21.579897582976">
        <ele>41.4</ele>
        <time>2017-07-26T17:42:44Z</time>
      </trkpt>
      <trkpt lat="60.157866421106" lon="21.579857768951">
        <ele>41.4</ele>
        <time>2017-07-26T17:42:45Z</time>
      </trkpt>
      <trkpt lat="60.157875808834" lon="21.579814518347">
        <ele>41.4</ele>
        <time>2017-07-26T17:42:46Z</time>
      </trkpt>
      <trkpt lat="60.157883771639" lon="21.579768753173">
        <ele>41.4</ele>
        <time>2017-07-26T17:42:47Z</time>
      </trkpt>
      <trkpt lat="60.157893327005" lon="21.579736482858">
        <ele>41.4</ele>
        <time>2017-07-26T17:42:48Z</time>
      </trkpt>
      <trkpt lat="60.157902295638" lon="21.579690717684">
        <ele>41.4</ele>
        <time>2017-07-26T17:42:49Z</time>
      </trkpt>
      <trkpt lat="60.157913611203" lon="21.579642940854">
        <ele>41.4</ele>
        <time>2017-07-26T17:42:50Z</time>
      </trkpt>
      <trkpt lat="60.157923753302" lon="21.579600947535">
        <ele>41.4</ele>
        <time>2017-07-26T17:42:51Z</time>
      </trkpt>
      <trkpt lat="60.157934230677" lon="21.57956113351">
        <ele>41.4</ele>
        <time>2017-07-26T17:42:52Z</time>
      </trkpt>
      <trkpt lat="60.157949988649" lon="21.579510758291">
        <ele>41.6</ele>
        <time>2017-07-26T17:42:53Z</time>
      </trkpt>
      <trkpt lat="60.15796247768" lon="21.579466334221">
        <ele>41.8</ele>
        <time>2017-07-26T17:42:54Z</time>
      </trkpt>
      <trkpt lat="60.157977816557" lon="21.579419227943">
        <ele>42.2</ele>
        <time>2017-07-26T17:42:55Z</time>
      </trkpt>
      <trkpt lat="60.157988629208" lon="21.579369523276">
        <ele>42.6</ele>
        <time>2017-07-26T17:42:56Z</time>
      </trkpt>
      <trkpt lat="60.157999693316" lon="21.579325350663">
        <ele>43</ele>
        <time>2017-07-26T17:42:57Z</time>
      </trkpt>
      <trkpt lat="60.15801444546" lon="21.579277154738">
        <ele>43.2</ele>
        <time>2017-07-26T17:42:58Z</time>
      </trkpt>
      <trkpt lat="60.158032131269" lon="21.57922753389">
        <ele>43.4</ele>
        <time>2017-07-26T17:42:59Z</time>
      </trkpt>
      <trkpt lat="60.158048978888" lon="21.579176571938">
        <ele>43.4</ele>
        <time>2017-07-26T17:43:00Z</time>
      </trkpt>
      <trkpt lat="60.158071358561" lon="21.579122508683">
        <ele>43.4</ele>
        <time>2017-07-26T17:43:01Z</time>
      </trkpt>
      <trkpt lat="60.158093905872" lon="21.579070037989">
        <ele>43.4</ele>
        <time>2017-07-26T17:43:02Z</time>
      </trkpt>
      <trkpt lat="60.158113854794" lon="21.579012789612">
        <ele>43.4</ele>
        <time>2017-07-26T17:43:03Z</time>
      </trkpt>
      <trkpt lat="60.158131121508" lon="21.578974568148">
        <ele>43.4</ele>
        <time>2017-07-26T17:43:04Z</time>
      </trkpt>
      <trkpt lat="60.158154590828" lon="21.578916230124">
        <ele>43.4</ele>
        <time>2017-07-26T17:43:05Z</time>
      </trkpt>
      <trkpt lat="60.15817202518" lon="21.578872895701">
        <ele>43.4</ele>
        <time>2017-07-26T17:43:06Z</time>
      </trkpt>
      <trkpt lat="60.158191722645" lon="21.578825035052">
        <ele>43.4</ele>
        <time>2017-07-26T17:43:07Z</time>
      </trkpt>
      <trkpt lat="60.158208737902" lon="21.578774240738">
        <ele>43.4</ele>
        <time>2017-07-26T17:43:08Z</time>
      </trkpt>
      <trkpt lat="60.158228016272" lon="21.578721937682">
        <ele>43.4</ele>
        <time>2017-07-26T17:43:09Z</time>
      </trkpt>
      <trkpt lat="60.15824746228" lon="21.57867013754">
        <ele>43.4</ele>
        <time>2017-07-26T17:43:10Z</time>
      </trkpt>
      <trkpt lat="60.158267327383" lon="21.578612805344">
        <ele>43.4</ele>
        <time>2017-07-26T17:43:11Z</time>
      </trkpt>
      <trkpt lat="60.158287443943" lon="21.578559999374">
        <ele>43.4</ele>
        <time>2017-07-26T17:43:12Z</time>
      </trkpt>
      <trkpt lat="60.158307225227" lon="21.578508450689">
        <ele>43.4</ele>
        <time>2017-07-26T17:43:13Z</time>
      </trkpt>
      <trkpt lat="60.158328179977" lon="21.578450028846">
        <ele>43.4</ele>
        <time>2017-07-26T17:43:14Z</time>
      </trkpt>
      <trkpt lat="60.15834804508" lon="21.578381464904">
        <ele>43.4</ele>
        <time>2017-07-26T17:43:15Z</time>
      </trkpt>
      <trkpt lat="60.15836648526" lon="21.578321199043">
        <ele>43.4</ele>
        <time>2017-07-26T17:43:16Z</time>
      </trkpt>
      <trkpt lat="60.158387691467" lon="21.578250707264">
        <ele>43.4</ele>
        <time>2017-07-26T17:43:17Z</time>
      </trkpt>
      <trkpt lat="60.158408730036" lon="21.578183484426">
        <ele>43.4</ele>
        <time>2017-07-26T17:43:18Z</time>
      </trkpt>
      <trkpt lat="60.158426415845" lon="21.5781202849">
        <ele>43.2</ele>
        <time>2017-07-26T17:43:19Z</time>
      </trkpt>
      <trkpt lat="60.158447119138" lon="21.578046691818">
        <ele>42.8</ele>
        <time>2017-07-26T17:43:20Z</time>
      </trkpt>
      <trkpt lat="60.158465307861" lon="21.577972344365">
        <ele>42.4</ele>
        <time>2017-07-26T17:43:21Z</time>
      </trkpt>
      <trkpt lat="60.15848299367" lon="21.577904283337">
        <ele>42</ele>
        <time>2017-07-26T17:43:22Z</time>
      </trkpt>
      <trkpt lat="60.158502020583" lon="21.577821302527">
        <ele>41.6</ele>
        <time>2017-07-26T17:43:23Z</time>
      </trkpt>
      <trkpt lat="60.158518449107" lon="21.577746033065">
        <ele>41.4</ele>
        <time>2017-07-26T17:43:24Z</time>
      </trkpt>
      <trkpt lat="60.15853999059" lon="21.577659196581">
        <ele>41.4</ele>
        <time>2017-07-26T17:43:25Z</time>
      </trkpt>
      <trkpt lat="60.158557257304" lon="21.577577892151">
        <ele>41.4</ele>
        <time>2017-07-26T17:43:26Z</time>
      </trkpt>
      <trkpt lat="60.15857184181" lon="21.577501365404">
        <ele>41.4</ele>
        <time>2017-07-26T17:43:27Z</time>
      </trkpt>
      <trkpt lat="60.158583744108" lon="21.577433136738">
        <ele>41.4</ele>
        <time>2017-07-26T17:43:28Z</time>
      </trkpt>
      <trkpt lat="60.158594221483" lon="21.57736172295">
        <ele>41.4</ele>
        <time>2017-07-26T17:43:29Z</time>
      </trkpt>
      <trkpt lat="60.158601010822" lon="21.577287794592">
        <ele>41.4</ele>
        <time>2017-07-26T17:43:30Z</time>
      </trkpt>
      <trkpt lat="60.158606291419" lon="21.577214955881">
        <ele>41.4</ele>
        <time>2017-07-26T17:43:31Z</time>
      </trkpt>
      <trkpt lat="60.158616433518" lon="21.57714882269">
        <ele>41.4</ele>
        <time>2017-07-26T17:43:32Z</time>
      </trkpt>
      <trkpt lat="60.158626743255" lon="21.577083527689">
        <ele>41.4</ele>
        <time>2017-07-26T17:43:33Z</time>
      </trkpt>
      <trkpt lat="60.158631520938" lon="21.57702393238">
        <ele>41.4</ele>
        <time>2017-07-26T17:43:34Z</time>
      </trkpt>
      <trkpt lat="60.158635963345" lon="21.576958721198">
        <ele>41.4</ele>
        <time>2017-07-26T17:43:35Z</time>
      </trkpt>
      <trkpt lat="60.158637639725" lon="21.576877752044">
        <ele>41.4</ele>
        <time>2017-07-26T17:43:36Z</time>
      </trkpt>
      <trkpt lat="60.158643004141" lon="21.576811199758">
        <ele>41.4</ele>
        <time>2017-07-26T17:43:37Z</time>
      </trkpt>
      <trkpt lat="60.158648787652" lon="21.576747664956">
        <ele>41.4</ele>
        <time>2017-07-26T17:43:38Z</time>
      </trkpt>
      <trkpt lat="60.158650547851" lon="21.57668781819">
        <ele>41.4</ele>
        <time>2017-07-26T17:43:39Z</time>
      </trkpt>
      <trkpt lat="60.158655493172" lon="21.57661741023">
        <ele>41.4</ele>
        <time>2017-07-26T17:43:40Z</time>
      </trkpt>
      <trkpt lat="60.158659600303" lon="21.57655035503">
        <ele>41.4</ele>
        <time>2017-07-26T17:43:41Z</time>
      </trkpt>
      <trkpt lat="60.158661947235" lon="21.576484640934">
        <ele>41.4</ele>
        <time>2017-07-26T17:43:42Z</time>
      </trkpt>
      <trkpt lat="60.15866404271" lon="21.576415909354">
        <ele>41.4</ele>
        <time>2017-07-26T17:43:43Z</time>
      </trkpt>
      <trkpt lat="60.158666305823" lon="21.576354721484">
        <ele>41.4</ele>
        <time>2017-07-26T17:43:44Z</time>
      </trkpt>
      <trkpt lat="60.158672340791" lon="21.576286576637">
        <ele>41.4</ele>
        <time>2017-07-26T17:43:45Z</time>
      </trkpt>
      <trkpt lat="60.158672843705" lon="21.576216168677">
        <ele>41.4</ele>
        <time>2017-07-26T17:43:46Z</time>
      </trkpt>
      <trkpt lat="60.158681225605" lon="21.576145173984">
        <ele>41.4</ele>
        <time>2017-07-26T17:43:47Z</time>
      </trkpt>
      <trkpt lat="60.15868583565" lon="21.576069820703">
        <ele>41.4</ele>
        <time>2017-07-26T17:43:48Z</time>
      </trkpt>
      <trkpt lat="60.158693211722" lon="21.576001843494">
        <ele>41.4</ele>
        <time>2017-07-26T17:43:49Z</time>
      </trkpt>
      <trkpt lat="60.158701425984" lon="21.575922215444">
        <ele>41.6</ele>
        <time>2017-07-26T17:43:50Z</time>
      </trkpt>
      <trkpt lat="60.158714250291" lon="21.575850214923">
        <ele>41.4</ele>
        <time>2017-07-26T17:43:51Z</time>
      </trkpt>
      <trkpt lat="60.158729589168" lon="21.575791541623">
        <ele>41.4</ele>
        <time>2017-07-26T17:43:52Z</time>
      </trkpt>
      <trkpt lat="60.158739060715" lon="21.575707722623">
        <ele>41.4</ele>
        <time>2017-07-26T17:43:53Z</time>
      </trkpt>
      <trkpt lat="60.158751382108" lon="21.575643852545">
        <ele>41.4</ele>
        <time>2017-07-26T17:43:54Z</time>
      </trkpt>
      <trkpt lat="60.158766469528" lon="21.575578138449">
        <ele>41.4</ele>
        <time>2017-07-26T17:43:55Z</time>
      </trkpt>
      <trkpt lat="60.158783484785" lon="21.57550932305">
        <ele>41.4</ele>
        <time>2017-07-26T17:43:56Z</time>
      </trkpt>
      <trkpt lat="60.158797817834" lon="21.57544394423">
        <ele>41.4</ele>
        <time>2017-07-26T17:43:57Z</time>
      </trkpt>
      <trkpt lat="60.158811228874" lon="21.575380996161">
        <ele>41.4</ele>
        <time>2017-07-26T17:43:58Z</time>
      </trkpt>
      <trkpt lat="60.158826064837" lon="21.575319473015">
        <ele>41.4</ele>
        <time>2017-07-26T17:43:59Z</time>
      </trkpt>
      <trkpt lat="60.158842744818" lon="21.575252669272">
        <ele>41.4</ele>
        <time>2017-07-26T17:44:00Z</time>
      </trkpt>
      <trkpt lat="60.158857916057" lon="21.57518997266">
        <ele>41.4</ele>
        <time>2017-07-26T17:44:01Z</time>
      </trkpt>
      <trkpt lat="60.158872165287" lon="21.575127611324">
        <ele>41.4</ele>
        <time>2017-07-26T17:44:02Z</time>
      </trkpt>
      <trkpt lat="60.158887085069" lon="21.575067261644">
        <ele>41.4</ele>
        <time>2017-07-26T17:44:03Z</time>
      </trkpt>
      <trkpt lat="60.158897310987" lon="21.575016383511">
        <ele>41.4</ele>
        <time>2017-07-26T17:44:04Z</time>
      </trkpt>
      <trkpt lat="60.158914326244" lon="21.574944969723">
        <ele>41.4</ele>
        <time>2017-07-26T17:44:05Z</time>
      </trkpt>
      <trkpt lat="60.158931257682" lon="21.574879758541">
        <ele>41.4</ele>
        <time>2017-07-26T17:44:06Z</time>
      </trkpt>
      <trkpt lat="60.158947267111" lon="21.574806249278">
        <ele>41.4</ele>
        <time>2017-07-26T17:44:07Z</time>
      </trkpt>
      <trkpt lat="60.158961181065" lon="21.574731398911">
        <ele>41.4</ele>
        <time>2017-07-26T17:44:08Z</time>
      </trkpt>
      <trkpt lat="60.158977609589" lon="21.57466275115">
        <ele>41.4</ele>
        <time>2017-07-26T17:44:09Z</time>
      </trkpt>
      <trkpt lat="60.158992697009" lon="21.574593600475">
        <ele>41.4</ele>
        <time>2017-07-26T17:44:10Z</time>
      </trkpt>
      <trkpt lat="60.159005940411" lon="21.574526880551">
        <ele>41.4</ele>
        <time>2017-07-26T17:44:11Z</time>
      </trkpt>
      <trkpt lat="60.15901775889" lon="21.574454712392">
        <ele>41.4</ele>
        <time>2017-07-26T17:44:12Z</time>
      </trkpt>
      <trkpt lat="60.159029661188" lon="21.574391596685">
        <ele>41.4</ele>
        <time>2017-07-26T17:44:13Z</time>
      </trkpt>
      <trkpt lat="60.159039300373" lon="21.574332420471">
        <ele>41.4</ele>
        <time>2017-07-26T17:44:14Z</time>
      </trkpt>
      <trkpt lat="60.159048855739" lon="21.57426712547">
        <ele>41.4</ele>
        <time>2017-07-26T17:44:15Z</time>
      </trkpt>
      <trkpt lat="60.159056064173" lon="21.574210715283">
        <ele>41.4</ele>
        <time>2017-07-26T17:44:16Z</time>
      </trkpt>
      <trkpt lat="60.159065703358" lon="21.574139804409">
        <ele>41.4</ele>
        <time>2017-07-26T17:44:17Z</time>
      </trkpt>
      <trkpt lat="60.15907391762" lon="21.574069061173">
        <ele>41.4</ele>
        <time>2017-07-26T17:44:18Z</time>
      </trkpt>
      <trkpt lat="60.159081880425" lon="21.574007957122">
        <ele>41.4</ele>
        <time>2017-07-26T17:44:19Z</time>
      </trkpt>
      <trkpt lat="60.159090010868" lon="21.573933609669">
        <ele>41.4</ele>
        <time>2017-07-26T17:44:20Z</time>
      </trkpt>
      <trkpt lat="60.159095040008" lon="21.573861273872">
        <ele>41.4</ele>
        <time>2017-07-26T17:44:21Z</time>
      </trkpt>
      <trkpt lat="60.159096884026" lon="21.573838558923">
        <ele>41.4</ele>
        <time>2017-07-26T17:44:22Z</time>
      </trkpt>
      <trkpt lat="60.159102918994" lon="21.573738981951">
        <ele>41.4</ele>
        <time>2017-07-26T17:44:23Z</time>
      </trkpt>
      <trkpt lat="60.159111552351" lon="21.573668993086">
        <ele>41.4</ele>
        <time>2017-07-26T17:44:24Z</time>
      </trkpt>
      <trkpt lat="60.159118090233" lon="21.573602776076">
        <ele>41.4</ele>
        <time>2017-07-26T17:44:25Z</time>
      </trkpt>
      <trkpt lat="60.159124460477" lon="21.573543516043">
        <ele>41.4</ele>
        <time>2017-07-26T17:44:26Z</time>
      </trkpt>
      <trkpt lat="60.159129154341" lon="21.573491464444">
        <ele>41.4</ele>
        <time>2017-07-26T17:44:27Z</time>
      </trkpt>
      <trkpt lat="60.159134183481" lon="21.573429354565">
        <ele>41.4</ele>
        <time>2017-07-26T17:44:28Z</time>
      </trkpt>
      <trkpt lat="60.159141056639" lon="21.573370765084">
        <ele>41.4</ele>
        <time>2017-07-26T17:44:29Z</time>
      </trkpt>
      <trkpt lat="60.159148767987" lon="21.57330236878">
        <ele>41.4</ele>
        <time>2017-07-26T17:44:30Z</time>
      </trkpt>
      <trkpt lat="60.159154802955" lon="21.573236822322">
        <ele>41.4</ele>
        <time>2017-07-26T17:44:31Z</time>
      </trkpt>
      <trkpt lat="60.159159832095" lon="21.573170856769">
        <ele>41.4</ele>
        <time>2017-07-26T17:44:32Z</time>
      </trkpt>
      <trkpt lat="60.159168549271" lon="21.573102628103">
        <ele>41.4</ele>
        <time>2017-07-26T17:44:33Z</time>
      </trkpt>
      <trkpt lat="60.159173494592" lon="21.573042278423">
        <ele>41.4</ele>
        <time>2017-07-26T17:44:34Z</time>
      </trkpt>
      <trkpt lat="60.159180451569" lon="21.572966925142">
        <ele>41.4</ele>
        <time>2017-07-26T17:44:35Z</time>
      </trkpt>
      <trkpt lat="60.159183636691" lon="21.572898947933">
        <ele>41.4</ele>
        <time>2017-07-26T17:44:36Z</time>
      </trkpt>
      <trkpt lat="60.159190090754" lon="21.572835916045">
        <ele>41.4</ele>
        <time>2017-07-26T17:44:37Z</time>
      </trkpt>
      <trkpt lat="60.159199478482" lon="21.572775817822">
        <ele>41.4</ele>
        <time>2017-07-26T17:44:38Z</time>
      </trkpt>
      <trkpt lat="60.159207273649" lon="21.57271898854">
        <ele>41.4</ele>
        <time>2017-07-26T17:44:39Z</time>
      </trkpt>
      <trkpt lat="60.159217164291" lon="21.572653525901">
        <ele>41.4</ele>
        <time>2017-07-26T17:44:40Z</time>
      </trkpt>
      <trkpt lat="60.159225797648" lon="21.572582112113">
        <ele>41.4</ele>
        <time>2017-07-26T17:44:41Z</time>
      </trkpt>
      <trkpt lat="60.159232167892" lon="21.572512961438">
        <ele>41.4</ele>
        <time>2017-07-26T17:44:42Z</time>
      </trkpt>
      <trkpt lat="60.159242309991" lon="21.572444648953">
        <ele>41.4</ele>
        <time>2017-07-26T17:44:43Z</time>
      </trkpt>
      <trkpt lat="60.159252116814" lon="21.572379856866">
        <ele>41.4</ele>
        <time>2017-07-26T17:44:44Z</time>
      </trkpt>
      <trkpt lat="60.159265276397" lon="21.572310622372">
        <ele>41.4</ele>
        <time>2017-07-26T17:44:45Z</time>
      </trkpt>
      <trkpt lat="60.159276675781" lon="21.572254547461">
        <ele>41.4</ele>
        <time>2017-07-26T17:44:46Z</time>
      </trkpt>
      <trkpt lat="60.159290003002" lon="21.572188917184">
        <ele>41.4</ele>
        <time>2017-07-26T17:44:47Z</time>
      </trkpt>
      <trkpt lat="60.159304503689" lon="21.572128735142">
        <ele>41.4</ele>
        <time>2017-07-26T17:44:48Z</time>
      </trkpt>
      <trkpt lat="60.159318585281" lon="21.572068636919">
        <ele>41.4</ele>
        <time>2017-07-26T17:44:49Z</time>
      </trkpt>
      <trkpt lat="60.159336857823" lon="21.572001581719">
        <ele>41.4</ele>
        <time>2017-07-26T17:44:50Z</time>
      </trkpt>
      <trkpt lat="60.159354543632" lon="21.57193695727">
        <ele>41.4</ele>
        <time>2017-07-26T17:44:51Z</time>
      </trkpt>
      <trkpt lat="60.159372564717" lon="21.571878954522">
        <ele>41.4</ele>
        <time>2017-07-26T17:44:52Z</time>
      </trkpt>
      <trkpt lat="60.15939326801" lon="21.571814413892">
        <ele>41.4</ele>
        <time>2017-07-26T17:44:53Z</time>
      </trkpt>
      <trkpt lat="60.159409864172" lon="21.571759512447">
        <ele>41.4</ele>
        <time>2017-07-26T17:44:54Z</time>
      </trkpt>
      <trkpt lat="60.15942931018" lon="21.571704862459">
        <ele>41.4</ele>
        <time>2017-07-26T17:44:55Z</time>
      </trkpt>
      <trkpt lat="60.159447498903" lon="21.571655493068">
        <ele>41.4</ele>
        <time>2017-07-26T17:44:56Z</time>
      </trkpt>
      <trkpt lat="60.159465184712" lon="21.571606458953">
        <ele>41.4</ele>
        <time>2017-07-26T17:44:57Z</time>
      </trkpt>
      <trkpt lat="60.159481194141" lon="21.571567734575">
        <ele>41.4</ele>
        <time>2017-07-26T17:44:58Z</time>
      </trkpt>
      <trkpt lat="60.159501981253" lon="21.571521885582">
        <ele>41.4</ele>
        <time>2017-07-26T17:44:59Z</time>
      </trkpt>
      <trkpt lat="60.159524780021" lon="21.571479473168">
        <ele>41.4</ele>
        <time>2017-07-26T17:45:00Z</time>
      </trkpt>
      <trkpt lat="60.15954581859" lon="21.571441922256">
        <ele>41.4</ele>
        <time>2017-07-26T17:45:01Z</time>
      </trkpt>
      <trkpt lat="60.159565851331" lon="21.571401605317">
        <ele>41.4</ele>
        <time>2017-07-26T17:45:02Z</time>
      </trkpt>
      <trkpt lat="60.159586973719" lon="21.571362629482">
        <ele>41.4</ele>
        <time>2017-07-26T17:45:03Z</time>
      </trkpt>
      <trkpt lat="60.159603318424" lon="21.571327676959">
        <ele>41.6</ele>
        <time>2017-07-26T17:45:04Z</time>
      </trkpt>
      <trkpt lat="60.159625362821" lon="21.571284426355">
        <ele>41.4</ele>
        <time>2017-07-26T17:45:05Z</time>
      </trkpt>
      <trkpt lat="60.159645060286" lon="21.571246540167">
        <ele>41.6</ele>
        <time>2017-07-26T17:45:06Z</time>
      </trkpt>
      <trkpt lat="60.159662410819" lon="21.571210078902">
        <ele>41.6</ele>
        <time>2017-07-26T17:45:07Z</time>
      </trkpt>
      <trkpt lat="60.159680934818" lon="21.57117504256">
        <ele>41.4</ele>
        <time>2017-07-26T17:45:08Z</time>
      </trkpt>
      <trkpt lat="60.159698452989" lon="21.571143358978">
        <ele>41.4</ele>
        <time>2017-07-26T17:45:09Z</time>
      </trkpt>
      <trkpt lat="60.159718904825" lon="21.571112932681">
        <ele>41.4</ele>
        <time>2017-07-26T17:45:10Z</time>
      </trkpt>
      <trkpt lat="60.159739021385" lon="21.571073789208">
        <ele>41.4</ele>
        <time>2017-07-26T17:45:11Z</time>
      </trkpt>
      <trkpt lat="60.159758048298" lon="21.571035232468">
        <ele>41.4</ele>
        <time>2017-07-26T17:45:12Z</time>
      </trkpt>
      <trkpt lat="60.159779422143" lon="21.570994328796">
        <ele>41.4</ele>
        <time>2017-07-26T17:45:13Z</time>
      </trkpt>
      <trkpt lat="60.15979811378" lon="21.570959543911">
        <ele>41.4</ele>
        <time>2017-07-26T17:45:14Z</time>
      </trkpt>
      <trkpt lat="60.159821415462" lon="21.570914616927">
        <ele>41.4</ele>
        <time>2017-07-26T17:45:15Z</time>
      </trkpt>
      <trkpt lat="60.159841867298" lon="21.570878658576">
        <ele>41.4</ele>
        <time>2017-07-26T17:45:16Z</time>
      </trkpt>
      <trkpt lat="60.159863157324" lon="21.570840185655">
        <ele>41.4</ele>
        <time>2017-07-26T17:45:17Z</time>
      </trkpt>
      <trkpt lat="60.159884782626" lon="21.570807747702">
        <ele>41.4</ele>
        <time>2017-07-26T17:45:18Z</time>
      </trkpt>
      <trkpt lat="60.159902803711" lon="21.570780087432">
        <ele>41.4</ele>
        <time>2017-07-26T17:45:19Z</time>
      </trkpt>
      <trkpt lat="60.159922668814" lon="21.570750331687">
        <ele>41.4</ele>
        <time>2017-07-26T17:45:20Z</time>
      </trkpt>
      <trkpt lat="60.159939264976" lon="21.57072158177">
        <ele>41.4</ele>
        <time>2017-07-26T17:45:21Z</time>
      </trkpt>
      <trkpt lat="60.1599556935" lon="21.570692664215">
        <ele>41.4</ele>
        <time>2017-07-26T17:45:22Z</time>
      </trkpt>
      <trkpt lat="60.159975642422" lon="21.570651760543">
        <ele>41.4</ele>
        <time>2017-07-26T17:45:23Z</time>
      </trkpt>
      <trkpt lat="60.159993831145" lon="21.570621418065">
        <ele>41.4</ele>
        <time>2017-07-26T17:45:24Z</time>
      </trkpt>
      <trkpt lat="60.160012606601" lon="21.570581520221">
        <ele>41.4</ele>
        <time>2017-07-26T17:45:25Z</time>
      </trkpt>
      <trkpt lat="60.160032387885" lon="21.570546651517">
        <ele>41.4</ele>
        <time>2017-07-26T17:45:26Z</time>
      </trkpt>
      <trkpt lat="60.160053342635" lon="21.57051538703">
        <ele>41.4</ele>
        <time>2017-07-26T17:45:27Z</time>
      </trkpt>
      <trkpt lat="60.160073291557" lon="21.570479428679">
        <ele>41.4</ele>
        <time>2017-07-26T17:45:28Z</time>
      </trkpt>
      <trkpt lat="60.160092486108" lon="21.570444895251">
        <ele>41.4</ele>
        <time>2017-07-26T17:45:29Z</time>
      </trkpt>
      <trkpt lat="60.160113440858" lon="21.570414133678">
        <ele>41.4</ele>
        <time>2017-07-26T17:45:30Z</time>
      </trkpt>
      <trkpt lat="60.160134982341" lon="21.570382031001">
        <ele>41.4</ele>
        <time>2017-07-26T17:45:31Z</time>
      </trkpt>
      <trkpt lat="60.160158451661" lon="21.570351856161">
        <ele>41.4</ele>
        <time>2017-07-26T17:45:32Z</time>
      </trkpt>
      <trkpt lat="60.160182088619" lon="21.570309443747">
        <ele>41.4</ele>
        <time>2017-07-26T17:45:33Z</time>
      </trkpt>
      <trkpt lat="60.160205725577" lon="21.570271809016">
        <ele>41.4</ele>
        <time>2017-07-26T17:45:34Z</time>
      </trkpt>
      <trkpt lat="60.160228608164" lon="21.570235180113">
        <ele>41.4</ele>
        <time>2017-07-26T17:45:35Z</time>
      </trkpt>
      <trkpt lat="60.160251658389" lon="21.570200479047">
        <ele>41.4</ele>
        <time>2017-07-26T17:45:36Z</time>
      </trkpt>
      <trkpt lat="60.160275211528" lon="21.570163850144">
        <ele>41.4</ele>
        <time>2017-07-26T17:45:37Z</time>
      </trkpt>
      <trkpt lat="60.16029851321" lon="21.570128310888">
        <ele>41.4</ele>
        <time>2017-07-26T17:45:38Z</time>
      </trkpt>
      <trkpt lat="60.160302452703" lon="21.570118755522">
        <ele>41.4</ele>
        <time>2017-07-26T17:45:39Z</time>
      </trkpt>
      <trkpt lat="60.160342685823" lon="21.570052454693">
        <ele>41.4</ele>
        <time>2017-07-26T17:45:40Z</time>
      </trkpt>
      <trkpt lat="60.160364311125" lon="21.570012556849">
        <ele>41.4</ele>
        <time>2017-07-26T17:45:41Z</time>
      </trkpt>
      <trkpt lat="60.16038484678" lon="21.569968803331">
        <ele>41.4</ele>
        <time>2017-07-26T17:45:42Z</time>
      </trkpt>
      <trkpt lat="60.160404544245" lon="21.569924965994">
        <ele>41.4</ele>
        <time>2017-07-26T17:45:43Z</time>
      </trkpt>
      <trkpt lat="60.160425666633" lon="21.569890432566">
        <ele>41.4</ele>
        <time>2017-07-26T17:45:44Z</time>
      </trkpt>
      <trkpt lat="60.160446789021" lon="21.569855982957">
        <ele>41.4</ele>
        <time>2017-07-26T17:45:45Z</time>
      </trkpt>
      <trkpt lat="60.160467492314" lon="21.569827652135">
        <ele>41.4</ele>
        <time>2017-07-26T17:45:46Z</time>
      </trkpt>
      <trkpt lat="60.160487022141" lon="21.569801081512">
        <ele>41.4</ele>
        <time>2017-07-26T17:45:47Z</time>
      </trkpt>
      <trkpt lat="60.16050638433" lon="21.569776187269">
        <ele>41.4</ele>
        <time>2017-07-26T17:45:48Z</time>
      </trkpt>
      <trkpt lat="60.160524656872" lon="21.569748024085">
        <ele>41.4</ele>
        <time>2017-07-26T17:45:49Z</time>
      </trkpt>
      <trkpt lat="60.160543516147" lon="21.569718687435">
        <ele>41.4</ele>
        <time>2017-07-26T17:45:50Z</time>
      </trkpt>
      <trkpt lat="60.160562626879" lon="21.569688344957">
        <ele>41.4</ele>
        <time>2017-07-26T17:45:51Z</time>
      </trkpt>
      <trkpt lat="60.160579223041" lon="21.569657499565">
        <ele>41.6</ele>
        <time>2017-07-26T17:45:52Z</time>
      </trkpt>
      <trkpt lat="60.160602273266" lon="21.56962020011">
        <ele>41.4</ele>
        <time>2017-07-26T17:45:53Z</time>
      </trkpt>
      <trkpt lat="60.160622557464" lon="21.569585079949">
        <ele>41.4</ele>
        <time>2017-07-26T17:45:54Z</time>
      </trkpt>
      <trkpt lat="60.160645104775" lon="21.569547026123">
        <ele>41.4</ele>
        <time>2017-07-26T17:45:55Z</time>
      </trkpt>
      <trkpt lat="60.160666981534" lon="21.569507715012">
        <ele>41.4</ele>
        <time>2017-07-26T17:45:56Z</time>
      </trkpt>
      <trkpt lat="60.160686678999" lon="21.569468152444">
        <ele>41.4</ele>
        <time>2017-07-26T17:45:57Z</time>
      </trkpt>
      <trkpt lat="60.160706292645" lon="21.569433032283">
        <ele>41.4</ele>
        <time>2017-07-26T17:45:58Z</time>
      </trkpt>
      <trkpt lat="60.160726912119" lon="21.569396151923">
        <ele>41.4</ele>
        <time>2017-07-26T17:45:59Z</time>
      </trkpt>
      <trkpt lat="60.160747950688" lon="21.569356589355">
        <ele>41.4</ele>
        <time>2017-07-26T17:46:00Z</time>
      </trkpt>
      <trkpt lat="60.160766474687" lon="21.569316942968">
        <ele>41.4</ele>
        <time>2017-07-26T17:46:01Z</time>
      </trkpt>
      <trkpt lat="60.160773431664" lon="21.569301771729">
        <ele>41.4</ele>
        <time>2017-07-26T17:46:02Z</time>
      </trkpt>
      <trkpt lat="60.160801846305" lon="21.569243685162">
        <ele>41.4</ele>
        <time>2017-07-26T17:46:03Z</time>
      </trkpt>
      <trkpt lat="60.160818610105" lon="21.569205212241">
        <ele>41.4</ele>
        <time>2017-07-26T17:46:04Z</time>
      </trkpt>
      <trkpt lat="60.160838894303" lon="21.569163218922">
        <ele>41.4</ele>
        <time>2017-07-26T17:46:05Z</time>
      </trkpt>
      <trkpt lat="60.160857083026" lon="21.569126003286">
        <ele>41.6</ele>
        <time>2017-07-26T17:46:06Z</time>
      </trkpt>
      <trkpt lat="60.160864626736" lon="21.56908040575">
        <ele>41.4</ele>
        <time>2017-07-26T17:46:07Z</time>
      </trkpt>
      <trkpt lat="60.160880552346" lon="21.569039753535">
        <ele>41.4</ele>
        <time>2017-07-26T17:46:08Z</time>
      </trkpt>
      <trkpt lat="60.160886671133" lon="21.56899910132">
        <ele>41.4</ele>
        <time>2017-07-26T17:46:09Z</time>
      </trkpt>
      <trkpt lat="60.160898070517" lon="21.56895383906">
        <ele>41.4</ele>
        <time>2017-07-26T17:46:10Z</time>
      </trkpt>
      <trkpt lat="60.16090536277" lon="21.568916288148">
        <ele>41.4</ele>
        <time>2017-07-26T17:46:11Z</time>
      </trkpt>
      <trkpt lat="60.160910140453" lon="21.568884856023">
        <ele>41.4</ele>
        <time>2017-07-26T17:46:12Z</time>
      </trkpt>
      <trkpt lat="60.160917181249" lon="21.568853004803">
        <ele>41.4</ele>
        <time>2017-07-26T17:46:13Z</time>
      </trkpt>
      <trkpt lat="60.160925144054" lon="21.568819812479">
        <ele>41.4</ele>
        <time>2017-07-26T17:46:14Z</time>
      </trkpt>
      <trkpt lat="60.160933274497" lon="21.568772035649">
        <ele>41.4</ele>
        <time>2017-07-26T17:46:15Z</time>
      </trkpt>
      <trkpt lat="60.16094056675" lon="21.568724677914">
        <ele>41.4</ele>
        <time>2017-07-26T17:46:16Z</time>
      </trkpt>
      <trkpt lat="60.160950876487" lon="21.568674637971">
        <ele>41.4</ele>
        <time>2017-07-26T17:46:17Z</time>
      </trkpt>
      <trkpt lat="60.160957414369" lon="21.568623089286">
        <ele>41.4</ele>
        <time>2017-07-26T17:46:18Z</time>
      </trkpt>
      <trkpt lat="60.160961102405" lon="21.568572714067">
        <ele>41.4</ele>
        <time>2017-07-26T17:46:19Z</time>
      </trkpt>
      <trkpt lat="60.160969316667" lon="21.568517058251">
        <ele>41.8</ele>
        <time>2017-07-26T17:46:20Z</time>
      </trkpt>
      <trkpt lat="60.160973926712" lon="21.568464671376">
        <ele>42.4</ele>
        <time>2017-07-26T17:46:21Z</time>
      </trkpt>
      <trkpt lat="60.160976022187" lon="21.568408680284">
        <ele>42.6</ele>
        <time>2017-07-26T17:46:22Z</time>
      </trkpt>
      <trkpt lat="60.160985493734" lon="21.568345564577">
        <ele>43</ele>
        <time>2017-07-26T17:46:23Z</time>
      </trkpt>
      <trkpt lat="60.160988511218" lon="21.568285885449">
        <ele>43.2</ele>
        <time>2017-07-26T17:46:24Z</time>
      </trkpt>
      <trkpt lat="60.16099337272" lon="21.568216567136">
        <ele>43.6</ele>
        <time>2017-07-26T17:46:25Z</time>
      </trkpt>
      <trkpt lat="60.160996474023" lon="21.56815001485">
        <ele>43.6</ele>
        <time>2017-07-26T17:46:26Z</time>
      </trkpt>
      <trkpt lat="60.160996390204" lon="21.568085977134">
        <ele>43.6</ele>
        <time>2017-07-26T17:46:27Z</time>
      </trkpt>
      <trkpt lat="60.160998485679" lon="21.568026214187">
        <ele>43.6</ele>
        <time>2017-07-26T17:46:28Z</time>
      </trkpt>
      <trkpt lat="60.160999491507" lon="21.567960751548">
        <ele>43.6</ele>
        <time>2017-07-26T17:46:29Z</time>
      </trkpt>
      <trkpt lat="60.161003011905" lon="21.567894199262">
        <ele>43.6</ele>
        <time>2017-07-26T17:46:30Z</time>
      </trkpt>
      <trkpt lat="60.161007119036" lon="21.567829323356">
        <ele>43.6</ele>
        <time>2017-07-26T17:46:31Z</time>
      </trkpt>
      <trkpt lat="60.161008795416" lon="21.567767632572">
        <ele>43.6</ele>
        <time>2017-07-26T17:46:32Z</time>
      </trkpt>
      <trkpt lat="60.161013740737" lon="21.567704349227">
        <ele>43.6</ele>
        <time>2017-07-26T17:46:33Z</time>
      </trkpt>
      <trkpt lat="60.161018266963" lon="21.56769068673">
        <ele>43.6</ele>
        <time>2017-07-26T17:46:34Z</time>
      </trkpt>
      <trkpt lat="60.161029163433" lon="21.56760686773">
        <ele>43.6</ele>
        <time>2017-07-26T17:46:35Z</time>
      </trkpt>
      <trkpt lat="60.16103528222" lon="21.5675590909">
        <ele>43.6</ele>
        <time>2017-07-26T17:46:36Z</time>
      </trkpt>
      <trkpt lat="60.161042742111" lon="21.567510559699">
        <ele>43.6</ele>
        <time>2017-07-26T17:46:37Z</time>
      </trkpt>
      <trkpt lat="60.161052297477" lon="21.567464543068">
        <ele>43.6</ele>
        <time>2017-07-26T17:46:38Z</time>
      </trkpt>
      <trkpt lat="60.161058667721" lon="21.567416430962">
        <ele>43.6</ele>
        <time>2017-07-26T17:46:39Z</time>
      </trkpt>
      <trkpt lat="60.161065708517" lon="21.567353231436">
        <ele>43.6</ele>
        <time>2017-07-26T17:46:40Z</time>
      </trkpt>
      <trkpt lat="60.161074090417" lon="21.567297407982">
        <ele>43.6</ele>
        <time>2017-07-26T17:46:41Z</time>
      </trkpt>
      <trkpt lat="60.161084651611" lon="21.567243177089">
        <ele>43.6</ele>
        <time>2017-07-26T17:46:42Z</time>
      </trkpt>
      <trkpt lat="60.161096302452" lon="21.567191879861">
        <ele>43.6</ele>
        <time>2017-07-26T17:46:43Z</time>
      </trkpt>
      <trkpt lat="60.161108037112" lon="21.567135553493">
        <ele>43.6</ele>
        <time>2017-07-26T17:46:44Z</time>
      </trkpt>
      <trkpt lat="60.1611207776" lon="21.56708551355">
        <ele>43.6</ele>
        <time>2017-07-26T17:46:45Z</time>
      </trkpt>
      <trkpt lat="60.161135781201" lon="21.567037569082">
        <ele>43.6</ele>
        <time>2017-07-26T17:46:46Z</time>
      </trkpt>
      <trkpt lat="60.161150281888" lon="21.566991552451">
        <ele>43.6</ele>
        <time>2017-07-26T17:46:47Z</time>
      </trkpt>
      <trkpt lat="60.161167967697" lon="21.566944278535">
        <ele>43.6</ele>
        <time>2017-07-26T17:46:48Z</time>
      </trkpt>
      <trkpt lat="60.161187748981" lon="21.566890047642">
        <ele>43.6</ele>
        <time>2017-07-26T17:46:49Z</time>
      </trkpt>
      <trkpt lat="60.161206943532" lon="21.566842522269">
        <ele>43.6</ele>
        <time>2017-07-26T17:46:50Z</time>
      </trkpt>
      <trkpt lat="60.161225467531" lon="21.566796086543">
        <ele>43.6</ele>
        <time>2017-07-26T17:46:51Z</time>
      </trkpt>
      <trkpt lat="60.161242901883" lon="21.566747136247">
        <ele>43.6</ele>
        <time>2017-07-26T17:46:52Z</time>
      </trkpt>
      <trkpt lat="60.161260336235" lon="21.566703801824">
        <ele>43.6</ele>
        <time>2017-07-26T17:46:53Z</time>
      </trkpt>
      <trkpt lat="60.161277770587" lon="21.566656863184">
        <ele>43.6</ele>
        <time>2017-07-26T17:46:54Z</time>
      </trkpt>
      <trkpt lat="60.161295456396" lon="21.566613780218">
        <ele>43.6</ele>
        <time>2017-07-26T17:46:55Z</time>
      </trkpt>
      <trkpt lat="60.161315405318" lon="21.566569020872">
        <ele>43.6</ele>
        <time>2017-07-26T17:46:56Z</time>
      </trkpt>
      <trkpt lat="60.161334432231" lon="21.566526105544">
        <ele>43.6</ele>
        <time>2017-07-26T17:46:57Z</time>
      </trkpt>
      <trkpt lat="60.161353878239" lon="21.566489141365">
        <ele>43.6</ele>
        <time>2017-07-26T17:46:58Z</time>
      </trkpt>
      <trkpt lat="60.16137391098" lon="21.566438263232">
        <ele>43.6</ele>
        <time>2017-07-26T17:46:59Z</time>
      </trkpt>
      <trkpt lat="60.161391596789" lon="21.566393000972">
        <ele>43.6</ele>
        <time>2017-07-26T17:47:00Z</time>
      </trkpt>
      <trkpt lat="60.161409198779" lon="21.566347654893">
        <ele>43.6</ele>
        <time>2017-07-26T17:47:01Z</time>
      </trkpt>
      <trkpt lat="60.161427806597" lon="21.566303314642">
        <ele>43.6</ele>
        <time>2017-07-26T17:47:02Z</time>
      </trkpt>
      <trkpt lat="60.161446246777" lon="21.5662598964">
        <ele>43.6</ele>
        <time>2017-07-26T17:47:03Z</time>
      </trkpt>
      <trkpt lat="60.161465776604" lon="21.566213544493">
        <ele>43.6</ele>
        <time>2017-07-26T17:47:04Z</time>
      </trkpt>
      <trkpt lat="60.161485809345" lon="21.5661676955">
        <ele>43.6</ele>
        <time>2017-07-26T17:47:05Z</time>
      </trkpt>
      <trkpt lat="60.161505171534" lon="21.566120840679">
        <ele>43.6</ele>
        <time>2017-07-26T17:47:06Z</time>
      </trkpt>
      <trkpt lat="60.161524533723" lon="21.566074740229">
        <ele>43.6</ele>
        <time>2017-07-26T17:47:07Z</time>
      </trkpt>
      <trkpt lat="60.161543728274" lon="21.566029058874">
        <ele>43.6</ele>
        <time>2017-07-26T17:47:08Z</time>
      </trkpt>
      <trkpt lat="60.161559905341" lon="21.565987736107">
        <ele>43.6</ele>
        <time>2017-07-26T17:47:09Z</time>
      </trkpt>
      <trkpt lat="60.161576417684" lon="21.565930906825">
        <ele>43.6</ele>
        <time>2017-07-26T17:47:10Z</time>
      </trkpt>
      <trkpt lat="60.161592427113" lon="21.565877933217">
        <ele>43.6</ele>
        <time>2017-07-26T17:47:11Z</time>
      </trkpt>
      <trkpt lat="60.161610532017" lon="21.565819595193">
        <ele>43.6</ele>
        <time>2017-07-26T17:47:12Z</time>
      </trkpt>
      <trkpt lat="60.161629810387" lon="21.565761005712">
        <ele>43.6</ele>
        <time>2017-07-26T17:47:13Z</time>
      </trkpt>
      <trkpt lat="60.16165135187" lon="21.56569747091">
        <ele>43.6</ele>
        <time>2017-07-26T17:47:14Z</time>
      </trkpt>
      <trkpt lat="60.161672390439" lon="21.565633349375">
        <ele>43.6</ele>
        <time>2017-07-26T17:47:15Z</time>
      </trkpt>
      <trkpt lat="60.161697117044" lon="21.565564114881">
        <ele>43.6</ele>
        <time>2017-07-26T17:47:16Z</time>
      </trkpt>
      <trkpt lat="60.161723268572" lon="21.565491359989">
        <ele>43.6</ele>
        <time>2017-07-26T17:47:17Z</time>
      </trkpt>
      <trkpt lat="60.161751599394" lon="21.565416928717">
        <ele>43.6</ele>
        <time>2017-07-26T17:47:18Z</time>
      </trkpt>
      <trkpt lat="60.161778170017" lon="21.56533956378">
        <ele>43.6</ele>
        <time>2017-07-26T17:47:19Z</time>
      </trkpt>
      <trkpt lat="60.161810356513" lon="21.56524233374">
        <ele>43.6</ele>
        <time>2017-07-26T17:47:20Z</time>
      </trkpt>
      <trkpt lat="60.161839357887" lon="21.565154407609">
        <ele>43.6</ele>
        <time>2017-07-26T17:47:21Z</time>
      </trkpt>
      <trkpt lat="60.161866515243" lon="21.565055501189">
        <ele>43.6</ele>
        <time>2017-07-26T17:47:22Z</time>
      </trkpt>
      <trkpt lat="60.161893756418" lon="21.564957516778">
        <ele>43.6</ele>
        <time>2017-07-26T17:47:23Z</time>
      </trkpt>
      <trkpt lat="60.161919740308" lon="21.564851821019">
        <ele>43.6</ele>
        <time>2017-07-26T17:47:24Z</time>
      </trkpt>
      <trkpt lat="60.161945053646" lon="21.564745538527">
        <ele>43.6</ele>
        <time>2017-07-26T17:47:25Z</time>
      </trkpt>
      <trkpt lat="60.161969277337" lon="21.564634813628">
        <ele>43.6</ele>
        <time>2017-07-26T17:47:26Z</time>
      </trkpt>
      <trkpt lat="60.16199333339" lon="21.564521825616">
        <ele>43.6</ele>
        <time>2017-07-26T17:47:27Z</time>
      </trkpt>
      <trkpt lat="60.162015545425" lon="21.564416800409">
        <ele>43.6</ele>
        <time>2017-07-26T17:47:28Z</time>
      </trkpt>
      <trkpt lat="60.162039350021" lon="21.564292999746">
        <ele>43.6</ele>
        <time>2017-07-26T17:47:29Z</time>
      </trkpt>
      <trkpt lat="60.16206122678" lon="21.564180933743">
        <ele>43.6</ele>
        <time>2017-07-26T17:47:30Z</time>
      </trkpt>
      <trkpt lat="60.162081846254" lon="21.564069538292">
        <ele>43.6</ele>
        <time>2017-07-26T17:47:31Z</time>
      </trkpt>
      <trkpt lat="60.162102046633" lon="21.563960070678">
        <ele>43.6</ele>
        <time>2017-07-26T17:47:32Z</time>
      </trkpt>
      <trkpt lat="60.162122498469" lon="21.563851525073">
        <ele>43.6</ele>
        <time>2017-07-26T17:47:33Z</time>
      </trkpt>
      <trkpt lat="60.162158708277" lon="21.563765023865">
        <ele>43.6</ele>
        <time>2017-07-26T17:47:34Z</time>
      </trkpt>
      <trkpt lat="60.16218444071" lon="21.563669805481">
        <ele>43.6</ele>
        <time>2017-07-26T17:47:35Z</time>
      </trkpt>
      <trkpt lat="60.162203970537" lon="21.563563187713">
        <ele>43.6</ele>
        <time>2017-07-26T17:47:36Z</time>
      </trkpt>
      <trkpt lat="60.162221153432" lon="21.563454893565">
        <ele>43.6</ele>
        <time>2017-07-26T17:47:37Z</time>
      </trkpt>
      <trkpt lat="60.162237833413" lon="21.563346264141">
        <ele>43.6</ele>
        <time>2017-07-26T17:47:38Z</time>
      </trkpt>
      <trkpt lat="60.162252753195" lon="21.563248363549">
        <ele>43.6</ele>
        <time>2017-07-26T17:47:39Z</time>
      </trkpt>
      <trkpt lat="60.162272953574" lon="21.56313260951">
        <ele>43.6</ele>
        <time>2017-07-26T17:47:40Z</time>
      </trkpt>
      <trkpt lat="60.162292651039" lon="21.563032613443">
        <ele>43.6</ele>
        <time>2017-07-26T17:47:41Z</time>
      </trkpt>
      <trkpt lat="60.162313605789" lon="21.562944519674">
        <ele>43.6</ele>
        <time>2017-07-26T17:47:42Z</time>
      </trkpt>
      <trkpt lat="60.162327603562" lon="21.562835722612">
        <ele>43.6</ele>
        <time>2017-07-26T17:47:43Z</time>
      </trkpt>
      <trkpt lat="60.162346630475" lon="21.562728266654">
        <ele>43.6</ele>
        <time>2017-07-26T17:47:44Z</time>
      </trkpt>
      <trkpt lat="60.162367920501" lon="21.562632880632">
        <ele>43.6</ele>
        <time>2017-07-26T17:47:45Z</time>
      </trkpt>
      <trkpt lat="60.162395161676" lon="21.56255593479">
        <ele>43.6</ele>
        <time>2017-07-26T17:47:46Z</time>
      </trkpt>
      <trkpt lat="60.162427767267" lon="21.56249139416">
        <ele>43.6</ele>
        <time>2017-07-26T17:47:47Z</time>
      </trkpt>
      <trkpt lat="60.162463222704" lon="21.562436995629">
        <ele>43.6</ele>
        <time>2017-07-26T17:47:48Z</time>
      </trkpt>
      <trkpt lat="60.162503288186" lon="21.56242433896">
        <ele>43.6</ele>
        <time>2017-07-26T17:47:49Z</time>
      </trkpt>
      <trkpt lat="60.162544191858" lon="21.562419812734">
        <ele>43.6</ele>
        <time>2017-07-26T17:47:50Z</time>
      </trkpt>
      <trkpt lat="60.162585849901" lon="21.562424171322">
        <ele>43.6</ele>
        <time>2017-07-26T17:47:51Z</time>
      </trkpt>
      <trkpt lat="60.162625077193" lon="21.562408078074">
        <ele>43.6</ele>
        <time>2017-07-26T17:47:52Z</time>
      </trkpt>
      <trkpt lat="60.162664220666" lon="21.562399528536">
        <ele>43.6</ele>
        <time>2017-07-26T17:47:53Z</time>
      </trkpt>
      <trkpt lat="60.16269825118" lon="21.562390895179">
        <ele>43.6</ele>
        <time>2017-07-26T17:47:54Z</time>
      </trkpt>
      <trkpt lat="60.162728006925" lon="21.562387374781">
        <ele>43.6</ele>
        <time>2017-07-26T17:47:55Z</time>
      </trkpt>
      <trkpt lat="60.162749967503" lon="21.562385614582">
        <ele>43.6</ele>
        <time>2017-07-26T17:47:56Z</time>
      </trkpt>
      <trkpt lat="60.162768742959" lon="21.562383686745">
        <ele>43.6</ele>
        <time>2017-07-26T17:47:57Z</time>
      </trkpt>
      <trkpt lat="60.162771760443" lon="21.56235728376">
        <ele>43.4</ele>
        <time>2017-07-26T17:47:58Z</time>
      </trkpt>
      <trkpt lat="60.162775280841" lon="21.562336831924">
        <ele>43.6</ele>
        <time>2017-07-26T17:47:59Z</time>
      </trkpt>
      <trkpt lat="60.162777460135" lon="21.562307746731">
        <ele>43.6</ele>
        <time>2017-07-26T17:48:00Z</time>
      </trkpt>
      <trkpt lat="60.162775197022" lon="21.562271369285">
        <ele>43.6</ele>
        <time>2017-07-26T17:48:01Z</time>
      </trkpt>
      <trkpt lat="60.16277117371" lon="21.562229795061">
        <ele>43.6</ele>
        <time>2017-07-26T17:48:02Z</time>
      </trkpt>
      <trkpt lat="60.162767318036" lon="21.562187215009">
        <ele>43.6</ele>
        <time>2017-07-26T17:48:03Z</time>
      </trkpt>
      <trkpt lat="60.162761450706" lon="21.562128122614">
        <ele>43.6</ele>
        <time>2017-07-26T17:48:04Z</time>
      </trkpt>
      <trkpt lat="60.162756337747" lon="21.562073556445">
        <ele>43.6</ele>
        <time>2017-07-26T17:48:05Z</time>
      </trkpt>
      <trkpt lat="60.162771341348" lon="21.562025779615">
        <ele>43.2</ele>
        <time>2017-07-26T17:48:06Z</time>
      </trkpt>
      <trkpt lat="60.162792547555" lon="21.561989653626">
        <ele>42.8</ele>
        <time>2017-07-26T17:48:07Z</time>
      </trkpt>
      <trkpt lat="60.162815430142" lon="21.561961825718">
        <ele>42.6</ele>
        <time>2017-07-26T17:48:08Z</time>
      </trkpt>
      <trkpt lat="60.162832277761" lon="21.561932740525">
        <ele>42.4</ele>
        <time>2017-07-26T17:48:09Z</time>
      </trkpt>
      <trkpt lat="60.162851053217" lon="21.561908349196">
        <ele>42</ele>
        <time>2017-07-26T17:48:10Z</time>
      </trkpt>
      <trkpt lat="60.162866811189" lon="21.561876833252">
        <ele>41.6</ele>
        <time>2017-07-26T17:48:11Z</time>
      </trkpt>
      <trkpt lat="60.162879803134" lon="21.56183928234">
        <ele>41.6</ele>
        <time>2017-07-26T17:48:12Z</time>
      </trkpt>
      <trkpt lat="60.162891621613" lon="21.561800977057">
        <ele>41.6</ele>
        <time>2017-07-26T17:48:13Z</time>
      </trkpt>
      <trkpt lat="60.162904948834" lon="21.561762504136">
        <ele>41.6</ele>
        <time>2017-07-26T17:48:14Z</time>
      </trkpt>
      <trkpt lat="60.162918443693" lon="21.561726713423">
        <ele>41.6</ele>
        <time>2017-07-26T17:48:15Z</time>
      </trkpt>
      <trkpt lat="60.162935291312" lon="21.561706680682">
        <ele>41.6</ele>
        <time>2017-07-26T17:48:16Z</time>
      </trkpt>
      <trkpt lat="60.162945433411" lon="21.561680780611">
        <ele>41.6</ele>
        <time>2017-07-26T17:48:17Z</time>
      </trkpt>
      <trkpt lat="60.162952306569" lon="21.561656808377">
        <ele>41.6</ele>
        <time>2017-07-26T17:48:18Z</time>
      </trkpt>
      <trkpt lat="60.162949959637" lon="21.561636105084">
        <ele>41.6</ele>
        <time>2017-07-26T17:48:19Z</time>
      </trkpt>
      <trkpt lat="60.162947277429" lon="21.561622610225">
        <ele>41.6</ele>
        <time>2017-07-26T17:48:20Z</time>
      </trkpt>
      <trkpt lat="60.162945098135" lon="21.561613725411">
        <ele>41.6</ele>
        <time>2017-07-26T17:48:21Z</time>
      </trkpt>
      <trkpt lat="60.162947109791" lon="21.561611210841">
        <ele>41.6</ele>
        <time>2017-07-26T17:48:22Z</time>
      </trkpt>
    </trkseg>
  </trk>
</gpx>